<?xml version="1.0" encoding="UTF-8" standalone="no" ?>
<gpx xmlns="http://www.topografix.com/GPX/1/1" xmlns:xsi="http://www.w3.org/2001/XMLSchema-instance" xsi:schemaLocation="http://www.topografix.com/GPX/1/1 http://www.topografix.com/GPX/1/1/gpx.xsd" version="1.1" creator="VisuGPX - https://www.visugpx.com">
  <metadata>
    <name>Seconde Nocturne</name>
  </metadata>
  <trk>
    <name><![CDATA[Parcours du 2021-09-25 20:07]]></name>
    <extensions>
      <line xmlns="http://www.topografix.com/GPX/gpx_style/0/2">
        <color>0000FF</color>
        <width>4</width>
      </line>
    </extensions>
    <trkseg>
      <trkpt lat="50.45012" lon="3.5261">
        <ele>29.8</ele>
        <time>2021-09-25T18:07:39.171Z</time>
      </trkpt>
      <trkpt lat="50.45019" lon="3.52605">
        <ele>29.5</ele>
        <time>2021-09-25T18:07:40.170Z</time>
      </trkpt>
      <trkpt lat="50.45025" lon="3.526">
        <ele>28.1</ele>
        <time>2021-09-25T18:07:41.515Z</time>
      </trkpt>
      <trkpt lat="50.45034" lon="3.52596">
        <ele>28.6</ele>
        <time>2021-09-25T18:07:43.904Z</time>
      </trkpt>
      <trkpt lat="50.45043" lon="3.52589">
        <ele>28.1</ele>
        <time>2021-09-25T18:07:46.108Z</time>
      </trkpt>
      <trkpt lat="50.45052" lon="3.52581">
        <ele>27.5</ele>
        <time>2021-09-25T18:07:48.378Z</time>
      </trkpt>
      <trkpt lat="50.45056" lon="3.52578">
        <ele>27.2</ele>
        <time>2021-09-25T18:07:49.055Z</time>
      </trkpt>
      <trkpt lat="50.45065" lon="3.52569">
        <ele>26.6</ele>
        <time>2021-09-25T18:07:51.328Z</time>
      </trkpt>
      <trkpt lat="50.45072" lon="3.52557">
        <ele>26</ele>
        <time>2021-09-25T18:07:53.775Z</time>
      </trkpt>
      <trkpt lat="50.45075" lon="3.5255">
        <ele>25.6</ele>
        <time>2021-09-25T18:07:55.209Z</time>
      </trkpt>
      <trkpt lat="50.45081" lon="3.52535">
        <ele>25</ele>
        <time>2021-09-25T18:07:56.987Z</time>
      </trkpt>
      <trkpt lat="50.45085" lon="3.52528">
        <ele>24.6</ele>
        <time>2021-09-25T18:07:58.259Z</time>
      </trkpt>
      <trkpt lat="50.45093" lon="3.52514">
        <ele>24</ele>
        <time>2021-09-25T18:08:00.958Z</time>
      </trkpt>
      <trkpt lat="50.45097" lon="3.52507">
        <ele>23.7</ele>
        <time>2021-09-25T18:08:01.876Z</time>
      </trkpt>
      <trkpt lat="50.45107" lon="3.52492">
        <ele>23</ele>
        <time>2021-09-25T18:08:04.799Z</time>
      </trkpt>
      <trkpt lat="50.45116" lon="3.52477">
        <ele>22.4</ele>
        <time>2021-09-25T18:08:07.843Z</time>
      </trkpt>
      <trkpt lat="50.45121" lon="3.52457">
        <ele>21.8</ele>
        <time>2021-09-25T18:08:10.813Z</time>
      </trkpt>
      <trkpt lat="50.45119" lon="3.52446">
        <ele>21.7</ele>
        <time>2021-09-25T18:08:12.500Z</time>
      </trkpt>
      <trkpt lat="50.45112" lon="3.52436">
        <ele>21.7</ele>
        <time>2021-09-25T18:08:14.497Z</time>
      </trkpt>
      <trkpt lat="50.45098" lon="3.52424">
        <ele>21.8</ele>
        <time>2021-09-25T18:08:17.688Z</time>
      </trkpt>
      <trkpt lat="50.45085" lon="3.52411">
        <ele>21.8</ele>
        <time>2021-09-25T18:08:21.124Z</time>
      </trkpt>
      <trkpt lat="50.45079" lon="3.52404">
        <ele>21.8</ele>
        <time>2021-09-25T18:08:22.736Z</time>
      </trkpt>
      <trkpt lat="50.45067" lon="3.52391">
        <ele>21.6</ele>
        <time>2021-09-25T18:08:26.296Z</time>
      </trkpt>
      <trkpt lat="50.4506" lon="3.52384">
        <ele>21.4</ele>
        <time>2021-09-25T18:08:28.074Z</time>
      </trkpt>
      <trkpt lat="50.45054" lon="3.52377">
        <ele>21.2</ele>
        <time>2021-09-25T18:08:29.759Z</time>
      </trkpt>
      <trkpt lat="50.45042" lon="3.52365">
        <ele>20.8</ele>
        <time>2021-09-25T18:08:32.867Z</time>
      </trkpt>
      <trkpt lat="50.45037" lon="3.52358">
        <ele>20.5</ele>
        <time>2021-09-25T18:08:34.668Z</time>
      </trkpt>
      <trkpt lat="50.45025" lon="3.52345">
        <ele>19.9</ele>
        <time>2021-09-25T18:08:37.761Z</time>
      </trkpt>
      <trkpt lat="50.45019" lon="3.52339">
        <ele>19.5</ele>
        <time>2021-09-25T18:08:39.345Z</time>
      </trkpt>
      <trkpt lat="50.45008" lon="3.52326">
        <ele>19</ele>
        <time>2021-09-25T18:08:40.758Z</time>
      </trkpt>
      <trkpt lat="50.45003" lon="3.5232">
        <ele>18.9</ele>
        <time>2021-09-25T18:08:42.110Z</time>
      </trkpt>
      <trkpt lat="50.44998" lon="3.52314">
        <ele>18.8</ele>
        <time>2021-09-25T18:08:43.408Z</time>
      </trkpt>
      <trkpt lat="50.44994" lon="3.5231">
        <ele>18.9</ele>
        <time>2021-09-25T18:08:44.619Z</time>
      </trkpt>
      <trkpt lat="50.44989" lon="3.52309">
        <ele>19</ele>
        <time>2021-09-25T18:08:45.772Z</time>
      </trkpt>
      <trkpt lat="50.44979" lon="3.5232">
        <ele>19.4</ele>
        <time>2021-09-25T18:08:48.422Z</time>
      </trkpt>
      <trkpt lat="50.44974" lon="3.52328">
        <ele>19.6</ele>
        <time>2021-09-25T18:08:49.927Z</time>
      </trkpt>
      <trkpt lat="50.4497" lon="3.52338">
        <ele>20</ele>
        <time>2021-09-25T18:08:51.624Z</time>
      </trkpt>
      <trkpt lat="50.44966" lon="3.52346">
        <ele>20.6</ele>
        <time>2021-09-25T18:08:53.078Z</time>
      </trkpt>
      <trkpt lat="50.44962" lon="3.52354">
        <ele>21.3</ele>
        <time>2021-09-25T18:08:54.057Z</time>
      </trkpt>
      <trkpt lat="50.44954" lon="3.52369">
        <ele>22.5</ele>
        <time>2021-09-25T18:08:56.762Z</time>
      </trkpt>
      <trkpt lat="50.44946" lon="3.52383">
        <ele>23.7</ele>
        <time>2021-09-25T18:08:58.707Z</time>
      </trkpt>
      <trkpt lat="50.44943" lon="3.52389">
        <ele>24.2</ele>
        <time>2021-09-25T18:08:59.829Z</time>
      </trkpt>
      <trkpt lat="50.44939" lon="3.52396">
        <ele>24.8</ele>
        <time>2021-09-25T18:09:01.262Z</time>
      </trkpt>
      <trkpt lat="50.44935" lon="3.524">
        <ele>25.2</ele>
        <time>2021-09-25T18:09:02.386Z</time>
      </trkpt>
      <trkpt lat="50.44931" lon="3.52403">
        <ele>25.5</ele>
        <time>2021-09-25T18:09:03.074Z</time>
      </trkpt>
      <trkpt lat="50.4492" lon="3.52404">
        <ele>26</ele>
        <time>2021-09-25T18:09:05.581Z</time>
      </trkpt>
      <trkpt lat="50.44915" lon="3.52401">
        <ele>25.8</ele>
        <time>2021-09-25T18:09:06.879Z</time>
      </trkpt>
      <trkpt lat="50.44903" lon="3.52393">
        <ele>25</ele>
        <time>2021-09-25T18:09:09.679Z</time>
      </trkpt>
      <trkpt lat="50.44898" lon="3.52389">
        <ele>24.6</ele>
        <time>2021-09-25T18:09:11.247Z</time>
      </trkpt>
      <trkpt lat="50.44888" lon="3.52382">
        <ele>24</ele>
        <time>2021-09-25T18:09:13.008Z</time>
      </trkpt>
      <trkpt lat="50.44883" lon="3.52378">
        <ele>23.8</ele>
        <time>2021-09-25T18:09:14.252Z</time>
      </trkpt>
      <trkpt lat="50.44877" lon="3.52374">
        <ele>23.5</ele>
        <time>2021-09-25T18:09:15.606Z</time>
      </trkpt>
      <trkpt lat="50.44866" lon="3.52366">
        <ele>23</ele>
        <time>2021-09-25T18:09:18.421Z</time>
      </trkpt>
      <trkpt lat="50.4486" lon="3.52362">
        <ele>22.8</ele>
        <time>2021-09-25T18:09:19.816Z</time>
      </trkpt>
      <trkpt lat="50.44849" lon="3.52354">
        <ele>22.5</ele>
        <time>2021-09-25T18:09:22.460Z</time>
      </trkpt>
      <trkpt lat="50.44843" lon="3.5235">
        <ele>22.4</ele>
        <time>2021-09-25T18:09:24.056Z</time>
      </trkpt>
      <trkpt lat="50.44838" lon="3.52346">
        <ele>22.3</ele>
        <time>2021-09-25T18:09:25.004Z</time>
      </trkpt>
      <trkpt lat="50.44827" lon="3.52339">
        <ele>22.1</ele>
        <time>2021-09-25T18:09:27.618Z</time>
      </trkpt>
      <trkpt lat="50.44821" lon="3.52335">
        <ele>21.9</ele>
        <time>2021-09-25T18:09:28.958Z</time>
      </trkpt>
      <trkpt lat="50.4481" lon="3.52327">
        <ele>21.6</ele>
        <time>2021-09-25T18:09:31.718Z</time>
      </trkpt>
      <trkpt lat="50.44804" lon="3.52323">
        <ele>21.5</ele>
        <time>2021-09-25T18:09:33.048Z</time>
      </trkpt>
      <trkpt lat="50.44799" lon="3.5232">
        <ele>21.4</ele>
        <time>2021-09-25T18:09:34.365Z</time>
      </trkpt>
      <trkpt lat="50.44787" lon="3.52311">
        <ele>21.2</ele>
        <time>2021-09-25T18:09:37.197Z</time>
      </trkpt>
      <trkpt lat="50.44776" lon="3.52303">
        <ele>21.1</ele>
        <time>2021-09-25T18:09:39.952Z</time>
      </trkpt>
      <trkpt lat="50.44771" lon="3.52299">
        <ele>21</ele>
        <time>2021-09-25T18:09:41.260Z</time>
      </trkpt>
      <trkpt lat="50.44759" lon="3.52291">
        <ele>21</ele>
        <time>2021-09-25T18:09:43.951Z</time>
      </trkpt>
      <trkpt lat="50.44754" lon="3.52287">
        <ele>21</ele>
        <time>2021-09-25T18:09:45.280Z</time>
      </trkpt>
      <trkpt lat="50.44744" lon="3.52279">
        <ele>20.9</ele>
        <time>2021-09-25T18:09:47.805Z</time>
      </trkpt>
      <trkpt lat="50.44739" lon="3.52276">
        <ele>20.9</ele>
        <time>2021-09-25T18:09:49.016Z</time>
      </trkpt>
      <trkpt lat="50.44734" lon="3.52272">
        <ele>20.8</ele>
        <time>2021-09-25T18:09:50.295Z</time>
      </trkpt>
      <trkpt lat="50.44724" lon="3.52264">
        <ele>20.7</ele>
        <time>2021-09-25T18:09:52.722Z</time>
      </trkpt>
      <trkpt lat="50.44714" lon="3.52257">
        <ele>20.6</ele>
        <time>2021-09-25T18:09:53.799Z</time>
      </trkpt>
      <trkpt lat="50.44705" lon="3.5225">
        <ele>20.5</ele>
        <time>2021-09-25T18:09:54.798Z</time>
      </trkpt>
      <trkpt lat="50.447" lon="3.52247">
        <ele>20.4</ele>
        <time>2021-09-25T18:09:59.475Z</time>
      </trkpt>
      <trkpt lat="50.4469" lon="3.52238">
        <ele>20.3</ele>
        <time>2021-09-25T18:10:08.964Z</time>
      </trkpt>
      <trkpt lat="50.44686" lon="3.52233">
        <ele>20.2</ele>
        <time>2021-09-25T18:10:09.515Z</time>
      </trkpt>
      <trkpt lat="50.44681" lon="3.52229">
        <ele>20.2</ele>
        <time>2021-09-25T18:10:10.075Z</time>
      </trkpt>
      <trkpt lat="50.44671" lon="3.52221">
        <ele>20.1</ele>
        <time>2021-09-25T18:10:13.745Z</time>
      </trkpt>
      <trkpt lat="50.44661" lon="3.52213">
        <ele>20</ele>
        <time>2021-09-25T18:10:15.261Z</time>
      </trkpt>
      <trkpt lat="50.44656" lon="3.5221">
        <ele>20.1</ele>
        <time>2021-09-25T18:10:15.898Z</time>
      </trkpt>
      <trkpt lat="50.44647" lon="3.52203">
        <ele>20.1</ele>
        <time>2021-09-25T18:10:20.385Z</time>
      </trkpt>
      <trkpt lat="50.44637" lon="3.52197">
        <ele>20.1</ele>
        <time>2021-09-25T18:10:25.284Z</time>
      </trkpt>
      <trkpt lat="50.44629" lon="3.52192">
        <ele>20.1</ele>
        <time>2021-09-25T18:10:33.355Z</time>
      </trkpt>
      <trkpt lat="50.44619" lon="3.52185">
        <ele>20.1</ele>
        <time>2021-09-25T18:10:42.088Z</time>
      </trkpt>
      <trkpt lat="50.4461" lon="3.52178">
        <ele>20.1</ele>
        <time>2021-09-25T18:10:43.119Z</time>
      </trkpt>
      <trkpt lat="50.44606" lon="3.52173">
        <ele>20.1</ele>
        <time>2021-09-25T18:10:43.601Z</time>
      </trkpt>
      <trkpt lat="50.44597" lon="3.52167">
        <ele>20</ele>
        <time>2021-09-25T18:10:50.041Z</time>
      </trkpt>
      <trkpt lat="50.44588" lon="3.52161">
        <ele>20</ele>
        <time>2021-09-25T18:10:54.445Z</time>
      </trkpt>
      <trkpt lat="50.44584" lon="3.52158">
        <ele>20</ele>
        <time>2021-09-25T18:10:54.920Z</time>
      </trkpt>
      <trkpt lat="50.4458" lon="3.52154">
        <ele>20.1</ele>
        <time>2021-09-25T18:10:58.881Z</time>
      </trkpt>
      <trkpt lat="50.44572" lon="3.52148">
        <ele>20.4</ele>
        <time>2021-09-25T18:11:02.822Z</time>
      </trkpt>
      <trkpt lat="50.44564" lon="3.52142">
        <ele>20.6</ele>
        <time>2021-09-25T18:11:07.050Z</time>
      </trkpt>
      <trkpt lat="50.44559" lon="3.52139">
        <ele>20.8</ele>
        <time>2021-09-25T18:11:07.500Z</time>
      </trkpt>
      <trkpt lat="50.44548" lon="3.52132">
        <ele>21.1</ele>
        <time>2021-09-25T18:11:09.044Z</time>
      </trkpt>
      <trkpt lat="50.4454" lon="3.52125">
        <ele>21.3</ele>
        <time>2021-09-25T18:11:13.713Z</time>
      </trkpt>
      <trkpt lat="50.44535" lon="3.52122">
        <ele>21.4</ele>
        <time>2021-09-25T18:11:14.216Z</time>
      </trkpt>
      <trkpt lat="50.44531" lon="3.52119">
        <ele>21.5</ele>
        <time>2021-09-25T18:11:18.304Z</time>
      </trkpt>
      <trkpt lat="50.44522" lon="3.52112">
        <ele>21.7</ele>
        <time>2021-09-25T18:11:19.301Z</time>
      </trkpt>
      <trkpt lat="50.44517" lon="3.52109">
        <ele>21.8</ele>
        <time>2021-09-25T18:11:23.499Z</time>
      </trkpt>
      <trkpt lat="50.44509" lon="3.52102">
        <ele>22</ele>
        <time>2021-09-25T18:11:25.657Z</time>
      </trkpt>
      <trkpt lat="50.44499" lon="3.52095">
        <ele>22.1</ele>
        <time>2021-09-25T18:11:26.993Z</time>
      </trkpt>
      <trkpt lat="50.44495" lon="3.52092">
        <ele>22.1</ele>
        <time>2021-09-25T18:11:27.474Z</time>
      </trkpt>
      <trkpt lat="50.4449" lon="3.5209">
        <ele>22.1</ele>
        <time>2021-09-25T18:11:28.102Z</time>
      </trkpt>
      <trkpt lat="50.44481" lon="3.52085">
        <ele>22</ele>
        <time>2021-09-25T18:11:33.860Z</time>
      </trkpt>
      <trkpt lat="50.44472" lon="3.52079">
        <ele>22</ele>
        <time>2021-09-25T18:11:34.791Z</time>
      </trkpt>
      <trkpt lat="50.44468" lon="3.52077">
        <ele>22</ele>
        <time>2021-09-25T18:11:35.262Z</time>
      </trkpt>
      <trkpt lat="50.4446" lon="3.5207">
        <ele>21.9</ele>
        <time>2021-09-25T18:11:36.197Z</time>
      </trkpt>
      <trkpt lat="50.44455" lon="3.52067">
        <ele>21.9</ele>
        <time>2021-09-25T18:11:40.417Z</time>
      </trkpt>
      <trkpt lat="50.44446" lon="3.52059">
        <ele>21.9</ele>
        <time>2021-09-25T18:11:41.399Z</time>
      </trkpt>
      <trkpt lat="50.44438" lon="3.52052">
        <ele>21.9</ele>
        <time>2021-09-25T18:11:42.393Z</time>
      </trkpt>
      <trkpt lat="50.44433" lon="3.52049">
        <ele>21.9</ele>
        <time>2021-09-25T18:11:42.869Z</time>
      </trkpt>
      <trkpt lat="50.44425" lon="3.52043">
        <ele>22</ele>
        <time>2021-09-25T18:11:46.848Z</time>
      </trkpt>
      <trkpt lat="50.44416" lon="3.52037">
        <ele>22</ele>
        <time>2021-09-25T18:11:50.568Z</time>
      </trkpt>
      <trkpt lat="50.44408" lon="3.5203">
        <ele>22.1</ele>
        <time>2021-09-25T18:11:57.965Z</time>
      </trkpt>
      <trkpt lat="50.44398" lon="3.52024">
        <ele>22.1</ele>
        <time>2021-09-25T18:12:06.633Z</time>
      </trkpt>
      <trkpt lat="50.44394" lon="3.52021">
        <ele>22.1</ele>
        <time>2021-09-25T18:12:07.093Z</time>
      </trkpt>
      <trkpt lat="50.44385" lon="3.52014">
        <ele>22.1</ele>
        <time>2021-09-25T18:12:09.820Z</time>
      </trkpt>
      <trkpt lat="50.44381" lon="3.5201">
        <ele>22.1</ele>
        <time>2021-09-25T18:12:14.235Z</time>
      </trkpt>
      <trkpt lat="50.44376" lon="3.52007">
        <ele>22.1</ele>
        <time>2021-09-25T18:12:14.896Z</time>
      </trkpt>
      <trkpt lat="50.44368" lon="3.52001">
        <ele>22</ele>
        <time>2021-09-25T18:12:15.838Z</time>
      </trkpt>
      <trkpt lat="50.44356" lon="3.51992">
        <ele>22.2</ele>
        <time>2021-09-25T18:12:19.027Z</time>
      </trkpt>
      <trkpt lat="50.44348" lon="3.51985">
        <ele>22.5</ele>
        <time>2021-09-25T18:12:21.050Z</time>
      </trkpt>
      <trkpt lat="50.44344" lon="3.51981">
        <ele>22.6</ele>
        <time>2021-09-25T18:12:22.317Z</time>
      </trkpt>
      <trkpt lat="50.44335" lon="3.51974">
        <ele>22.9</ele>
        <time>2021-09-25T18:12:24.424Z</time>
      </trkpt>
      <trkpt lat="50.44327" lon="3.51967">
        <ele>23.6</ele>
        <time>2021-09-25T18:12:26.517Z</time>
      </trkpt>
      <trkpt lat="50.44318" lon="3.51962">
        <ele>24.5</ele>
        <time>2021-09-25T18:12:28.533Z</time>
      </trkpt>
      <trkpt lat="50.44314" lon="3.51959">
        <ele>24.9</ele>
        <time>2021-09-25T18:12:29.528Z</time>
      </trkpt>
      <trkpt lat="50.44308" lon="3.51954">
        <ele>25.5</ele>
        <time>2021-09-25T18:12:31.125Z</time>
      </trkpt>
      <trkpt lat="50.44303" lon="3.51951">
        <ele>25.9</ele>
        <time>2021-09-25T18:12:32.193Z</time>
      </trkpt>
      <trkpt lat="50.44296" lon="3.51946">
        <ele>26.6</ele>
        <time>2021-09-25T18:12:33.911Z</time>
      </trkpt>
      <trkpt lat="50.44292" lon="3.51943">
        <ele>27</ele>
        <time>2021-09-25T18:12:34.979Z</time>
      </trkpt>
      <trkpt lat="50.44281" lon="3.5193">
        <ele>28.3</ele>
        <time>2021-09-25T18:12:38.132Z</time>
      </trkpt>
      <trkpt lat="50.44275" lon="3.51928">
        <ele>28.8</ele>
        <time>2021-09-25T18:12:39.534Z</time>
      </trkpt>
      <trkpt lat="50.44266" lon="3.51922">
        <ele>29.7</ele>
        <time>2021-09-25T18:12:47.819Z</time>
      </trkpt>
      <trkpt lat="50.44258" lon="3.51916">
        <ele>30.4</ele>
        <time>2021-09-25T18:12:49.788Z</time>
      </trkpt>
      <trkpt lat="50.44252" lon="3.51915">
        <ele>30.9</ele>
        <time>2021-09-25T18:12:51.473Z</time>
      </trkpt>
      <trkpt lat="50.44245" lon="3.51913">
        <ele>31.7</ele>
        <time>2021-09-25T18:12:52.439Z</time>
      </trkpt>
      <trkpt lat="50.44237" lon="3.51907">
        <ele>32.7</ele>
        <time>2021-09-25T18:12:54.472Z</time>
      </trkpt>
      <trkpt lat="50.44238" lon="3.51899">
        <ele>32.8</ele>
        <time>2021-09-25T18:12:55.177Z</time>
      </trkpt>
      <trkpt lat="50.44243" lon="3.51899">
        <ele>32.3</ele>
        <time>2021-09-25T18:12:56.896Z</time>
      </trkpt>
      <trkpt lat="50.44248" lon="3.51892">
        <ele>32.1</ele>
        <time>2021-09-25T18:12:57.939Z</time>
      </trkpt>
      <trkpt lat="50.44254" lon="3.51882">
        <ele>31.9</ele>
        <time>2021-09-25T18:13:00.043Z</time>
      </trkpt>
      <trkpt lat="50.44258" lon="3.51875">
        <ele>31.9</ele>
        <time>2021-09-25T18:13:00.752Z</time>
      </trkpt>
      <trkpt lat="50.44262" lon="3.5187">
        <ele>31.7</ele>
        <time>2021-09-25T18:13:01.910Z</time>
      </trkpt>
      <trkpt lat="50.44265" lon="3.51864">
        <ele>31.7</ele>
        <time>2021-09-25T18:13:03.023Z</time>
      </trkpt>
      <trkpt lat="50.4427" lon="3.51858">
        <ele>31.5</ele>
        <time>2021-09-25T18:13:04.453Z</time>
      </trkpt>
      <trkpt lat="50.44274" lon="3.51851">
        <ele>31.4</ele>
        <time>2021-09-25T18:13:05.255Z</time>
      </trkpt>
      <trkpt lat="50.44278" lon="3.51847">
        <ele>31.2</ele>
        <time>2021-09-25T18:13:06.368Z</time>
      </trkpt>
      <trkpt lat="50.44287" lon="3.5184">
        <ele>30.7</ele>
        <time>2021-09-25T18:13:08.448Z</time>
      </trkpt>
      <trkpt lat="50.44291" lon="3.51836">
        <ele>30.5</ele>
        <time>2021-09-25T18:13:09.530Z</time>
      </trkpt>
      <trkpt lat="50.44301" lon="3.51827">
        <ele>29.9</ele>
        <time>2021-09-25T18:13:12.199Z</time>
      </trkpt>
      <trkpt lat="50.44306" lon="3.51823">
        <ele>29.7</ele>
        <time>2021-09-25T18:13:13.354Z</time>
      </trkpt>
      <trkpt lat="50.44314" lon="3.51812">
        <ele>29.5</ele>
        <time>2021-09-25T18:13:15.754Z</time>
      </trkpt>
      <trkpt lat="50.44322" lon="3.518">
        <ele>29.4</ele>
        <time>2021-09-25T18:13:18.150Z</time>
      </trkpt>
      <trkpt lat="50.44329" lon="3.51791">
        <ele>29.3</ele>
        <time>2021-09-25T18:13:20.197Z</time>
      </trkpt>
      <trkpt lat="50.44338" lon="3.51782">
        <ele>29.3</ele>
        <time>2021-09-25T18:13:22.572Z</time>
      </trkpt>
      <trkpt lat="50.44343" lon="3.51777">
        <ele>29.3</ele>
        <time>2021-09-25T18:13:23.841Z</time>
      </trkpt>
      <trkpt lat="50.44346" lon="3.51767">
        <ele>29.6</ele>
        <time>2021-09-25T18:13:25.503Z</time>
      </trkpt>
      <trkpt lat="50.44348" lon="3.51759">
        <ele>29.9</ele>
        <time>2021-09-25T18:13:26.639Z</time>
      </trkpt>
      <trkpt lat="50.44354" lon="3.51748">
        <ele>30.1</ele>
        <time>2021-09-25T18:13:28.747Z</time>
      </trkpt>
      <trkpt lat="50.44363" lon="3.51733">
        <ele>30.2</ele>
        <time>2021-09-25T18:13:31.846Z</time>
      </trkpt>
      <trkpt lat="50.44368" lon="3.51728">
        <ele>30.1</ele>
        <time>2021-09-25T18:13:33.066Z</time>
      </trkpt>
      <trkpt lat="50.44376" lon="3.51718">
        <ele>30.1</ele>
        <time>2021-09-25T18:13:35.296Z</time>
      </trkpt>
      <trkpt lat="50.44383" lon="3.51708">
        <ele>30.1</ele>
        <time>2021-09-25T18:13:37.401Z</time>
      </trkpt>
      <trkpt lat="50.4439" lon="3.51701">
        <ele>30</ele>
        <time>2021-09-25T18:13:39.326Z</time>
      </trkpt>
      <trkpt lat="50.44403" lon="3.51684">
        <ele>30</ele>
        <time>2021-09-25T18:13:43.211Z</time>
      </trkpt>
      <trkpt lat="50.44406" lon="3.51679">
        <ele>30.1</ele>
        <time>2021-09-25T18:13:44.231Z</time>
      </trkpt>
      <trkpt lat="50.4441" lon="3.51674">
        <ele>30.1</ele>
        <time>2021-09-25T18:13:45.407Z</time>
      </trkpt>
      <trkpt lat="50.44414" lon="3.5167">
        <ele>30</ele>
        <time>2021-09-25T18:13:46.720Z</time>
      </trkpt>
      <trkpt lat="50.44421" lon="3.51662">
        <ele>29.7</ele>
        <time>2021-09-25T18:13:48.542Z</time>
      </trkpt>
      <trkpt lat="50.44425" lon="3.51657">
        <ele>29.4</ele>
        <time>2021-09-25T18:13:49.690Z</time>
      </trkpt>
      <trkpt lat="50.44432" lon="3.51644">
        <ele>29</ele>
        <time>2021-09-25T18:13:51.996Z</time>
      </trkpt>
      <trkpt lat="50.44436" lon="3.51642">
        <ele>28.7</ele>
        <time>2021-09-25T18:13:52.628Z</time>
      </trkpt>
      <trkpt lat="50.4444" lon="3.51639">
        <ele>28.4</ele>
        <time>2021-09-25T18:13:53.638Z</time>
      </trkpt>
      <trkpt lat="50.44448" lon="3.51631">
        <ele>28</ele>
        <time>2021-09-25T18:13:55.897Z</time>
      </trkpt>
      <trkpt lat="50.44455" lon="3.51624">
        <ele>27.6</ele>
        <time>2021-09-25T18:13:57.664Z</time>
      </trkpt>
      <trkpt lat="50.44459" lon="3.51611">
        <ele>27.8</ele>
        <time>2021-09-25T18:13:59.786Z</time>
      </trkpt>
      <trkpt lat="50.44463" lon="3.51605">
        <ele>27.7</ele>
        <time>2021-09-25T18:14:01.025Z</time>
      </trkpt>
      <trkpt lat="50.44466" lon="3.51599">
        <ele>27.7</ele>
        <time>2021-09-25T18:14:04.994Z</time>
      </trkpt>
      <trkpt lat="50.44473" lon="3.51591">
        <ele>27.6</ele>
        <time>2021-09-25T18:14:05.837Z</time>
      </trkpt>
      <trkpt lat="50.44476" lon="3.51586">
        <ele>27.6</ele>
        <time>2021-09-25T18:14:09.716Z</time>
      </trkpt>
      <trkpt lat="50.44479" lon="3.51581">
        <ele>27.6</ele>
        <time>2021-09-25T18:14:10.183Z</time>
      </trkpt>
      <trkpt lat="50.44489" lon="3.51569">
        <ele>27.6</ele>
        <time>2021-09-25T18:14:11.389Z</time>
      </trkpt>
      <trkpt lat="50.44496" lon="3.51565">
        <ele>27.4</ele>
        <time>2021-09-25T18:14:17.632Z</time>
      </trkpt>
      <trkpt lat="50.445" lon="3.51558">
        <ele>27.5</ele>
        <time>2021-09-25T18:14:18.281Z</time>
      </trkpt>
      <trkpt lat="50.44502" lon="3.5155">
        <ele>27.9</ele>
        <time>2021-09-25T18:14:18.840Z</time>
      </trkpt>
      <trkpt lat="50.44506" lon="3.51542">
        <ele>28.3</ele>
        <time>2021-09-25T18:14:23.774Z</time>
      </trkpt>
      <trkpt lat="50.44514" lon="3.51529">
        <ele>28.8</ele>
        <time>2021-09-25T18:14:24.878Z</time>
      </trkpt>
      <trkpt lat="50.44518" lon="3.51524">
        <ele>29</ele>
        <time>2021-09-25T18:14:27.256Z</time>
      </trkpt>
      <trkpt lat="50.44521" lon="3.5152">
        <ele>29.1</ele>
        <time>2021-09-25T18:14:31.325Z</time>
      </trkpt>
      <trkpt lat="50.44529" lon="3.51514">
        <ele>29.2</ele>
        <time>2021-09-25T18:14:32.131Z</time>
      </trkpt>
      <trkpt lat="50.44533" lon="3.51509">
        <ele>29.3</ele>
        <time>2021-09-25T18:14:36.904Z</time>
      </trkpt>
      <trkpt lat="50.44541" lon="3.51499">
        <ele>29.6</ele>
        <time>2021-09-25T18:14:37.928Z</time>
      </trkpt>
      <trkpt lat="50.44545" lon="3.51494">
        <ele>29.6</ele>
        <time>2021-09-25T18:14:42.133Z</time>
      </trkpt>
      <trkpt lat="50.44549" lon="3.51487">
        <ele>29.6</ele>
        <time>2021-09-25T18:14:42.660Z</time>
      </trkpt>
      <trkpt lat="50.44556" lon="3.51477">
        <ele>29.7</ele>
        <time>2021-09-25T18:14:43.611Z</time>
      </trkpt>
      <trkpt lat="50.4456" lon="3.51472">
        <ele>29.8</ele>
        <time>2021-09-25T18:14:44.146Z</time>
      </trkpt>
      <trkpt lat="50.44566" lon="3.51465">
        <ele>29.8</ele>
        <time>2021-09-25T18:14:47.164Z</time>
      </trkpt>
      <trkpt lat="50.44573" lon="3.51456">
        <ele>29.9</ele>
        <time>2021-09-25T18:14:49.303Z</time>
      </trkpt>
      <trkpt lat="50.44576" lon="3.51451">
        <ele>30</ele>
        <time>2021-09-25T18:14:53.618Z</time>
      </trkpt>
      <trkpt lat="50.4458" lon="3.51444">
        <ele>30.1</ele>
        <time>2021-09-25T18:14:54.190Z</time>
      </trkpt>
      <trkpt lat="50.44586" lon="3.51434">
        <ele>30.3</ele>
        <time>2021-09-25T18:14:56.112Z</time>
      </trkpt>
      <trkpt lat="50.44593" lon="3.51425">
        <ele>30.3</ele>
        <time>2021-09-25T18:14:58.971Z</time>
      </trkpt>
      <trkpt lat="50.44601" lon="3.51415">
        <ele>30.4</ele>
        <time>2021-09-25T18:15:07.943Z</time>
      </trkpt>
      <trkpt lat="50.44607" lon="3.51404">
        <ele>30.6</ele>
        <time>2021-09-25T18:15:08.854Z</time>
      </trkpt>
      <trkpt lat="50.4461" lon="3.51399">
        <ele>30.7</ele>
        <time>2021-09-25T18:15:09.302Z</time>
      </trkpt>
      <trkpt lat="50.44608" lon="3.51387">
        <ele>31.2</ele>
        <time>2021-09-25T18:15:15.356Z</time>
      </trkpt>
      <trkpt lat="50.44616" lon="3.51381">
        <ele>31.1</ele>
        <time>2021-09-25T18:15:22.916Z</time>
      </trkpt>
      <trkpt lat="50.44623" lon="3.51373">
        <ele>31.1</ele>
        <time>2021-09-25T18:15:23.747Z</time>
      </trkpt>
      <trkpt lat="50.44628" lon="3.51367">
        <ele>31.2</ele>
        <time>2021-09-25T18:15:28.861Z</time>
      </trkpt>
      <trkpt lat="50.44633" lon="3.5136">
        <ele>31.3</ele>
        <time>2021-09-25T18:15:29.548Z</time>
      </trkpt>
      <trkpt lat="50.44638" lon="3.51354">
        <ele>31.3</ele>
        <time>2021-09-25T18:15:30.184Z</time>
      </trkpt>
      <trkpt lat="50.44642" lon="3.5135">
        <ele>31.3</ele>
        <time>2021-09-25T18:15:34.510Z</time>
      </trkpt>
      <trkpt lat="50.44648" lon="3.51343">
        <ele>31.3</ele>
        <time>2021-09-25T18:15:36.254Z</time>
      </trkpt>
      <trkpt lat="50.44654" lon="3.51338">
        <ele>31.3</ele>
        <time>2021-09-25T18:15:36.961Z</time>
      </trkpt>
      <trkpt lat="50.44665" lon="3.51324">
        <ele>31.4</ele>
        <time>2021-09-25T18:15:42.728Z</time>
      </trkpt>
      <trkpt lat="50.44672" lon="3.51316">
        <ele>31.2</ele>
        <time>2021-09-25T18:15:50.188Z</time>
      </trkpt>
      <trkpt lat="50.4468" lon="3.51306">
        <ele>30.9</ele>
        <time>2021-09-25T18:15:51.211Z</time>
      </trkpt>
      <trkpt lat="50.44685" lon="3.51301">
        <ele>30.7</ele>
        <time>2021-09-25T18:15:51.762Z</time>
      </trkpt>
      <trkpt lat="50.44688" lon="3.51295">
        <ele>30.7</ele>
        <time>2021-09-25T18:15:55.872Z</time>
      </trkpt>
      <trkpt lat="50.44695" lon="3.51285">
        <ele>30.6</ele>
        <time>2021-09-25T18:15:56.799Z</time>
      </trkpt>
      <trkpt lat="50.44702" lon="3.51278">
        <ele>30.3</ele>
        <time>2021-09-25T18:15:57.610Z</time>
      </trkpt>
      <trkpt lat="50.44706" lon="3.51267">
        <ele>30.5</ele>
        <time>2021-09-25T18:15:58.372Z</time>
      </trkpt>
      <trkpt lat="50.4471" lon="3.51261">
        <ele>30.4</ele>
        <time>2021-09-25T18:15:58.968Z</time>
      </trkpt>
      <trkpt lat="50.44715" lon="3.51255">
        <ele>30.3</ele>
        <time>2021-09-25T18:16:03.710Z</time>
      </trkpt>
      <trkpt lat="50.44719" lon="3.5125">
        <ele>30.2</ele>
        <time>2021-09-25T18:16:04.237Z</time>
      </trkpt>
      <trkpt lat="50.44723" lon="3.51246">
        <ele>30.1</ele>
        <time>2021-09-25T18:16:04.738Z</time>
      </trkpt>
      <trkpt lat="50.44731" lon="3.51236">
        <ele>30</ele>
        <time>2021-09-25T18:16:05.655Z</time>
      </trkpt>
      <trkpt lat="50.44733" lon="3.51229">
        <ele>30.1</ele>
        <time>2021-09-25T18:16:10.212Z</time>
      </trkpt>
      <trkpt lat="50.44738" lon="3.51222">
        <ele>30.1</ele>
        <time>2021-09-25T18:16:14.246Z</time>
      </trkpt>
      <trkpt lat="50.44742" lon="3.51218">
        <ele>30</ele>
        <time>2021-09-25T18:16:16.227Z</time>
      </trkpt>
      <trkpt lat="50.44745" lon="3.51212">
        <ele>30.1</ele>
        <time>2021-09-25T18:16:16.895Z</time>
      </trkpt>
      <trkpt lat="50.44751" lon="3.51205">
        <ele>30.1</ele>
        <time>2021-09-25T18:16:23.215Z</time>
      </trkpt>
      <trkpt lat="50.44755" lon="3.51202">
        <ele>30</ele>
        <time>2021-09-25T18:16:23.708Z</time>
      </trkpt>
      <trkpt lat="50.44752" lon="3.51208">
        <ele>29.9</ele>
        <time>2021-09-25T18:16:27.956Z</time>
      </trkpt>
      <trkpt lat="50.44748" lon="3.5121">
        <ele>30</ele>
        <time>2021-09-25T18:16:31.875Z</time>
      </trkpt>
      <trkpt lat="50.44744" lon="3.51216">
        <ele>30</ele>
        <time>2021-09-25T18:16:32.391Z</time>
      </trkpt>
      <trkpt lat="50.44738" lon="3.51223">
        <ele>30.1</ele>
        <time>2021-09-25T18:16:38.773Z</time>
      </trkpt>
      <trkpt lat="50.44733" lon="3.51228">
        <ele>30.2</ele>
        <time>2021-09-25T18:16:44.040Z</time>
      </trkpt>
      <trkpt lat="50.44727" lon="3.51235">
        <ele>30.3</ele>
        <time>2021-09-25T18:16:50.021Z</time>
      </trkpt>
      <trkpt lat="50.44723" lon="3.51243">
        <ele>30.2</ele>
        <time>2021-09-25T18:16:55.885Z</time>
      </trkpt>
      <trkpt lat="50.44718" lon="3.51252">
        <ele>30.2</ele>
        <time>2021-09-25T18:16:56.658Z</time>
      </trkpt>
      <trkpt lat="50.44713" lon="3.51261">
        <ele>30.2</ele>
        <time>2021-09-25T18:16:59.291Z</time>
      </trkpt>
      <trkpt lat="50.44709" lon="3.51267">
        <ele>30.2</ele>
        <time>2021-09-25T18:16:59.844Z</time>
      </trkpt>
      <trkpt lat="50.44705" lon="3.51273">
        <ele>30.3</ele>
        <time>2021-09-25T18:17:04.060Z</time>
      </trkpt>
      <trkpt lat="50.447" lon="3.51279">
        <ele>30.4</ele>
        <time>2021-09-25T18:17:09.804Z</time>
      </trkpt>
      <trkpt lat="50.44693" lon="3.51286">
        <ele>30.7</ele>
        <time>2021-09-25T18:17:16.590Z</time>
      </trkpt>
      <trkpt lat="50.44688" lon="3.51292">
        <ele>30.8</ele>
        <time>2021-09-25T18:17:22.336Z</time>
      </trkpt>
      <trkpt lat="50.44681" lon="3.51301">
        <ele>31</ele>
        <time>2021-09-25T18:17:23.195Z</time>
      </trkpt>
      <trkpt lat="50.44677" lon="3.51305">
        <ele>31.2</ele>
        <time>2021-09-25T18:17:23.678Z</time>
      </trkpt>
      <trkpt lat="50.44673" lon="3.5131">
        <ele>31.3</ele>
        <time>2021-09-25T18:17:27.643Z</time>
      </trkpt>
      <trkpt lat="50.44667" lon="3.51318">
        <ele>31.5</ele>
        <time>2021-09-25T18:17:28.478Z</time>
      </trkpt>
      <trkpt lat="50.44659" lon="3.51327">
        <ele>31.5</ele>
        <time>2021-09-25T18:17:29.426Z</time>
      </trkpt>
      <trkpt lat="50.44655" lon="3.51332">
        <ele>31.5</ele>
        <time>2021-09-25T18:17:30.184Z</time>
      </trkpt>
      <trkpt lat="50.44648" lon="3.51346">
        <ele>31.2</ele>
        <time>2021-09-25T18:17:31.306Z</time>
      </trkpt>
      <trkpt lat="50.44645" lon="3.51351">
        <ele>31.1</ele>
        <time>2021-09-25T18:17:35.343Z</time>
      </trkpt>
      <trkpt lat="50.44637" lon="3.5136">
        <ele>31.1</ele>
        <time>2021-09-25T18:17:36.395Z</time>
      </trkpt>
      <trkpt lat="50.4463" lon="3.51368">
        <ele>31.1</ele>
        <time>2021-09-25T18:17:37.774Z</time>
      </trkpt>
      <trkpt lat="50.44625" lon="3.51373">
        <ele>31.1</ele>
        <time>2021-09-25T18:17:42.927Z</time>
      </trkpt>
      <trkpt lat="50.44621" lon="3.51377">
        <ele>31.1</ele>
        <time>2021-09-25T18:17:43.401Z</time>
      </trkpt>
      <trkpt lat="50.44617" lon="3.51382">
        <ele>31</ele>
        <time>2021-09-25T18:17:45.774Z</time>
      </trkpt>
      <trkpt lat="50.44613" lon="3.51389">
        <ele>30.9</ele>
        <time>2021-09-25T18:17:47.208Z</time>
      </trkpt>
      <trkpt lat="50.44608" lon="3.51397">
        <ele>30.8</ele>
        <time>2021-09-25T18:17:47.870Z</time>
      </trkpt>
      <trkpt lat="50.44603" lon="3.51406">
        <ele>30.7</ele>
        <time>2021-09-25T18:17:54.246Z</time>
      </trkpt>
      <trkpt lat="50.44597" lon="3.51418">
        <ele>30.5</ele>
        <time>2021-09-25T18:17:55.240Z</time>
      </trkpt>
      <trkpt lat="50.4459" lon="3.51431">
        <ele>30.2</ele>
        <time>2021-09-25T18:18:00.177Z</time>
      </trkpt>
      <trkpt lat="50.44585" lon="3.51439">
        <ele>30.1</ele>
        <time>2021-09-25T18:18:00.867Z</time>
      </trkpt>
      <trkpt lat="50.44581" lon="3.51446">
        <ele>30</ele>
        <time>2021-09-25T18:18:06.141Z</time>
      </trkpt>
      <trkpt lat="50.44576" lon="3.51453">
        <ele>29.9</ele>
        <time>2021-09-25T18:18:06.818Z</time>
      </trkpt>
      <trkpt lat="50.44573" lon="3.51459">
        <ele>29.8</ele>
        <time>2021-09-25T18:18:07.309Z</time>
      </trkpt>
      <trkpt lat="50.44567" lon="3.51466">
        <ele>29.7</ele>
        <time>2021-09-25T18:18:08.214Z</time>
      </trkpt>
      <trkpt lat="50.44564" lon="3.51472">
        <ele>29.6</ele>
        <time>2021-09-25T18:18:09.596Z</time>
      </trkpt>
      <trkpt lat="50.4456" lon="3.51477">
        <ele>29.6</ele>
        <time>2021-09-25T18:18:13.765Z</time>
      </trkpt>
      <trkpt lat="50.44556" lon="3.51481">
        <ele>29.6</ele>
        <time>2021-09-25T18:18:17.767Z</time>
      </trkpt>
      <trkpt lat="50.44551" lon="3.51486">
        <ele>29.6</ele>
        <time>2021-09-25T18:18:18.352Z</time>
      </trkpt>
      <trkpt lat="50.44546" lon="3.51491">
        <ele>29.6</ele>
        <time>2021-09-25T18:18:23.257Z</time>
      </trkpt>
      <trkpt lat="50.4454" lon="3.51499">
        <ele>29.6</ele>
        <time>2021-09-25T18:18:24.482Z</time>
      </trkpt>
      <trkpt lat="50.44533" lon="3.51507">
        <ele>29.4</ele>
        <time>2021-09-25T18:18:26.643Z</time>
      </trkpt>
      <trkpt lat="50.44528" lon="3.51514">
        <ele>29.2</ele>
        <time>2021-09-25T18:18:27.269Z</time>
      </trkpt>
      <trkpt lat="50.44523" lon="3.51523">
        <ele>28.9</ele>
        <time>2021-09-25T18:18:28.045Z</time>
      </trkpt>
      <trkpt lat="50.44518" lon="3.51529">
        <ele>28.7</ele>
        <time>2021-09-25T18:18:32.998Z</time>
      </trkpt>
      <trkpt lat="50.44514" lon="3.51536">
        <ele>28.4</ele>
        <time>2021-09-25T18:18:33.537Z</time>
      </trkpt>
      <trkpt lat="50.4451" lon="3.5154">
        <ele>28.3</ele>
        <time>2021-09-25T18:18:38.211Z</time>
      </trkpt>
      <trkpt lat="50.44504" lon="3.51548">
        <ele>28</ele>
        <time>2021-09-25T18:18:44.730Z</time>
      </trkpt>
      <trkpt lat="50.44497" lon="3.51551">
        <ele>28.1</ele>
        <time>2021-09-25T18:18:50.697Z</time>
      </trkpt>
      <trkpt lat="50.4449" lon="3.51557">
        <ele>28.2</ele>
        <time>2021-09-25T18:18:51.778Z</time>
      </trkpt>
      <trkpt lat="50.44485" lon="3.51566">
        <ele>28</ele>
        <time>2021-09-25T18:18:58.569Z</time>
      </trkpt>
      <trkpt lat="50.44481" lon="3.51571">
        <ele>28</ele>
        <time>2021-09-25T18:19:02.468Z</time>
      </trkpt>
      <trkpt lat="50.44475" lon="3.51578">
        <ele>28.1</ele>
        <time>2021-09-25T18:19:03.198Z</time>
      </trkpt>
      <trkpt lat="50.4447" lon="3.51584">
        <ele>28.1</ele>
        <time>2021-09-25T18:19:07.241Z</time>
      </trkpt>
      <trkpt lat="50.44465" lon="3.51589">
        <ele>28.3</ele>
        <time>2021-09-25T18:19:07.820Z</time>
      </trkpt>
      <trkpt lat="50.44459" lon="3.51599">
        <ele>28.3</ele>
        <time>2021-09-25T18:19:08.706Z</time>
      </trkpt>
      <trkpt lat="50.44454" lon="3.51609">
        <ele>28.3</ele>
        <time>2021-09-25T18:19:13.318Z</time>
      </trkpt>
      <trkpt lat="50.44449" lon="3.51617">
        <ele>28.4</ele>
        <time>2021-09-25T18:19:19.415Z</time>
      </trkpt>
      <trkpt lat="50.44442" lon="3.51624">
        <ele>28.8</ele>
        <time>2021-09-25T18:19:25.970Z</time>
      </trkpt>
      <trkpt lat="50.44439" lon="3.51634">
        <ele>28.7</ele>
        <time>2021-09-25T18:19:32.168Z</time>
      </trkpt>
      <trkpt lat="50.44435" lon="3.51639">
        <ele>28.9</ele>
        <time>2021-09-25T18:19:32.658Z</time>
      </trkpt>
      <trkpt lat="50.44431" lon="3.51647">
        <ele>29</ele>
        <time>2021-09-25T18:19:33.284Z</time>
      </trkpt>
      <trkpt lat="50.44428" lon="3.51654">
        <ele>29.1</ele>
        <time>2021-09-25T18:19:38.066Z</time>
      </trkpt>
      <trkpt lat="50.44423" lon="3.51665">
        <ele>29.4</ele>
        <time>2021-09-25T18:19:38.926Z</time>
      </trkpt>
      <trkpt lat="50.44417" lon="3.51673">
        <ele>29.7</ele>
        <time>2021-09-25T18:19:45.349Z</time>
      </trkpt>
      <trkpt lat="50.44413" lon="3.51679">
        <ele>29.7</ele>
        <time>2021-09-25T18:19:49.728Z</time>
      </trkpt>
      <trkpt lat="50.44411" lon="3.51684">
        <ele>29.6</ele>
        <time>2021-09-25T18:19:51.413Z</time>
      </trkpt>
      <trkpt lat="50.44414" lon="3.51693">
        <ele>29.2</ele>
        <time>2021-09-25T18:19:52.080Z</time>
      </trkpt>
      <trkpt lat="50.44419" lon="3.51696">
        <ele>28.7</ele>
        <time>2021-09-25T18:19:52.678Z</time>
      </trkpt>
      <trkpt lat="50.44424" lon="3.517">
        <ele>28.1</ele>
        <time>2021-09-25T18:19:57.099Z</time>
      </trkpt>
      <trkpt lat="50.44429" lon="3.51704">
        <ele>27.5</ele>
        <time>2021-09-25T18:19:57.682Z</time>
      </trkpt>
      <trkpt lat="50.44434" lon="3.51708">
        <ele>26.9</ele>
        <time>2021-09-25T18:19:58.224Z</time>
      </trkpt>
      <trkpt lat="50.44439" lon="3.51712">
        <ele>26.4</ele>
        <time>2021-09-25T18:20:02.589Z</time>
      </trkpt>
      <trkpt lat="50.44444" lon="3.51717">
        <ele>25.8</ele>
        <time>2021-09-25T18:20:04.547Z</time>
      </trkpt>
      <trkpt lat="50.44451" lon="3.51723">
        <ele>25.1</ele>
        <time>2021-09-25T18:20:06.602Z</time>
      </trkpt>
      <trkpt lat="50.44455" lon="3.51727">
        <ele>24.7</ele>
        <time>2021-09-25T18:20:07.626Z</time>
      </trkpt>
      <trkpt lat="50.44459" lon="3.51732">
        <ele>24.3</ele>
        <time>2021-09-25T18:20:08.816Z</time>
      </trkpt>
      <trkpt lat="50.44463" lon="3.51736">
        <ele>23.9</ele>
        <time>2021-09-25T18:20:09.855Z</time>
      </trkpt>
      <trkpt lat="50.44469" lon="3.51742">
        <ele>23.3</ele>
        <time>2021-09-25T18:20:10.898Z</time>
      </trkpt>
      <trkpt lat="50.44477" lon="3.51752">
        <ele>22.6</ele>
        <time>2021-09-25T18:20:13.154Z</time>
      </trkpt>
      <trkpt lat="50.44481" lon="3.51756">
        <ele>22.3</ele>
        <time>2021-09-25T18:20:14.228Z</time>
      </trkpt>
      <trkpt lat="50.44485" lon="3.5176">
        <ele>22</ele>
        <time>2021-09-25T18:20:15.249Z</time>
      </trkpt>
      <trkpt lat="50.44491" lon="3.51768">
        <ele>21.6</ele>
        <time>2021-09-25T18:20:16.360Z</time>
      </trkpt>
      <trkpt lat="50.44496" lon="3.51774">
        <ele>21.2</ele>
        <time>2021-09-25T18:20:17.880Z</time>
      </trkpt>
      <trkpt lat="50.445" lon="3.51778">
        <ele>21</ele>
        <time>2021-09-25T18:20:18.956Z</time>
      </trkpt>
      <trkpt lat="50.44508" lon="3.51785">
        <ele>20.8</ele>
        <time>2021-09-25T18:20:21.126Z</time>
      </trkpt>
      <trkpt lat="50.44512" lon="3.5179">
        <ele>20.8</ele>
        <time>2021-09-25T18:20:22.232Z</time>
      </trkpt>
      <trkpt lat="50.44516" lon="3.51796">
        <ele>20.7</ele>
        <time>2021-09-25T18:20:23.502Z</time>
      </trkpt>
      <trkpt lat="50.4452" lon="3.51803">
        <ele>20.7</ele>
        <time>2021-09-25T18:20:24.845Z</time>
      </trkpt>
      <trkpt lat="50.44525" lon="3.51809">
        <ele>20.6</ele>
        <time>2021-09-25T18:20:26.178Z</time>
      </trkpt>
      <trkpt lat="50.44529" lon="3.51814">
        <ele>20.6</ele>
        <time>2021-09-25T18:20:27.365Z</time>
      </trkpt>
      <trkpt lat="50.44537" lon="3.51825">
        <ele>20.5</ele>
        <time>2021-09-25T18:20:29.770Z</time>
      </trkpt>
      <trkpt lat="50.44544" lon="3.51833">
        <ele>20.5</ele>
        <time>2021-09-25T18:20:31.591Z</time>
      </trkpt>
      <trkpt lat="50.44548" lon="3.51838">
        <ele>20.4</ele>
        <time>2021-09-25T18:20:32.335Z</time>
      </trkpt>
      <trkpt lat="50.44556" lon="3.51847">
        <ele>20.3</ele>
        <time>2021-09-25T18:20:34.478Z</time>
      </trkpt>
      <trkpt lat="50.44561" lon="3.51851">
        <ele>20.3</ele>
        <time>2021-09-25T18:20:35.695Z</time>
      </trkpt>
      <trkpt lat="50.44569" lon="3.51859">
        <ele>20.2</ele>
        <time>2021-09-25T18:20:37.867Z</time>
      </trkpt>
      <trkpt lat="50.44578" lon="3.51868">
        <ele>20.1</ele>
        <time>2021-09-25T18:20:40.174Z</time>
      </trkpt>
      <trkpt lat="50.44583" lon="3.51874">
        <ele>20</ele>
        <time>2021-09-25T18:20:41.633Z</time>
      </trkpt>
      <trkpt lat="50.4459" lon="3.51881">
        <ele>20</ele>
        <time>2021-09-25T18:20:43.505Z</time>
      </trkpt>
      <trkpt lat="50.44598" lon="3.51889">
        <ele>19.9</ele>
        <time>2021-09-25T18:20:45.739Z</time>
      </trkpt>
      <trkpt lat="50.44602" lon="3.51894">
        <ele>19.9</ele>
        <time>2021-09-25T18:20:46.468Z</time>
      </trkpt>
      <trkpt lat="50.44611" lon="3.51904">
        <ele>19.9</ele>
        <time>2021-09-25T18:20:48.894Z</time>
      </trkpt>
      <trkpt lat="50.4462" lon="3.51914">
        <ele>20</ele>
        <time>2021-09-25T18:20:51.637Z</time>
      </trkpt>
      <trkpt lat="50.44625" lon="3.51919">
        <ele>20</ele>
        <time>2021-09-25T18:20:52.897Z</time>
      </trkpt>
      <trkpt lat="50.44632" lon="3.51926">
        <ele>20.1</ele>
        <time>2021-09-25T18:20:54.197Z</time>
      </trkpt>
      <trkpt lat="50.44639" lon="3.51933">
        <ele>20.1</ele>
        <time>2021-09-25T18:20:56.273Z</time>
      </trkpt>
      <trkpt lat="50.44645" lon="3.51942">
        <ele>20.2</ele>
        <time>2021-09-25T18:20:58.124Z</time>
      </trkpt>
      <trkpt lat="50.44649" lon="3.51947">
        <ele>20.3</ele>
        <time>2021-09-25T18:20:59.196Z</time>
      </trkpt>
      <trkpt lat="50.44656" lon="3.51956">
        <ele>20.4</ele>
        <time>2021-09-25T18:21:00.647Z</time>
      </trkpt>
      <trkpt lat="50.4466" lon="3.5196">
        <ele>20.5</ele>
        <time>2021-09-25T18:21:01.658Z</time>
      </trkpt>
      <trkpt lat="50.44664" lon="3.51965">
        <ele>20.6</ele>
        <time>2021-09-25T18:21:02.817Z</time>
      </trkpt>
      <trkpt lat="50.44669" lon="3.51969">
        <ele>20.6</ele>
        <time>2021-09-25T18:21:04.040Z</time>
      </trkpt>
      <trkpt lat="50.44673" lon="3.51974">
        <ele>20.6</ele>
        <time>2021-09-25T18:21:05.130Z</time>
      </trkpt>
      <trkpt lat="50.44677" lon="3.51978">
        <ele>20.6</ele>
        <time>2021-09-25T18:21:05.815Z</time>
      </trkpt>
      <trkpt lat="50.44683" lon="3.51986">
        <ele>20.5</ele>
        <time>2021-09-25T18:21:07.821Z</time>
      </trkpt>
      <trkpt lat="50.4469" lon="3.51994">
        <ele>20.4</ele>
        <time>2021-09-25T18:21:09.228Z</time>
      </trkpt>
      <trkpt lat="50.44697" lon="3.52002">
        <ele>20.3</ele>
        <time>2021-09-25T18:21:11.209Z</time>
      </trkpt>
      <trkpt lat="50.44705" lon="3.5201">
        <ele>20.1</ele>
        <time>2021-09-25T18:21:13.320Z</time>
      </trkpt>
      <trkpt lat="50.44709" lon="3.52015">
        <ele>20.1</ele>
        <time>2021-09-25T18:21:14.043Z</time>
      </trkpt>
      <trkpt lat="50.44713" lon="3.52019">
        <ele>20</ele>
        <time>2021-09-25T18:21:15.262Z</time>
      </trkpt>
      <trkpt lat="50.44722" lon="3.52028">
        <ele>19.9</ele>
        <time>2021-09-25T18:21:17.446Z</time>
      </trkpt>
      <trkpt lat="50.44726" lon="3.52032">
        <ele>19.8</ele>
        <time>2021-09-25T18:21:18.528Z</time>
      </trkpt>
      <trkpt lat="50.4473" lon="3.52036">
        <ele>19.8</ele>
        <time>2021-09-25T18:21:19.673Z</time>
      </trkpt>
      <trkpt lat="50.44738" lon="3.52045">
        <ele>19.8</ele>
        <time>2021-09-25T18:21:21.852Z</time>
      </trkpt>
      <trkpt lat="50.44742" lon="3.5205">
        <ele>19.7</ele>
        <time>2021-09-25T18:21:22.978Z</time>
      </trkpt>
      <trkpt lat="50.44751" lon="3.52059">
        <ele>19.7</ele>
        <time>2021-09-25T18:21:24.628Z</time>
      </trkpt>
      <trkpt lat="50.44761" lon="3.52068">
        <ele>19.8</ele>
        <time>2021-09-25T18:21:27.347Z</time>
      </trkpt>
      <trkpt lat="50.44765" lon="3.52072">
        <ele>19.9</ele>
        <time>2021-09-25T18:21:28.554Z</time>
      </trkpt>
      <trkpt lat="50.44771" lon="3.52078">
        <ele>20</ele>
        <time>2021-09-25T18:21:30.046Z</time>
      </trkpt>
      <trkpt lat="50.4478" lon="3.52087">
        <ele>20</ele>
        <time>2021-09-25T18:21:32.348Z</time>
      </trkpt>
      <trkpt lat="50.44784" lon="3.52092">
        <ele>20</ele>
        <time>2021-09-25T18:21:33.582Z</time>
      </trkpt>
      <trkpt lat="50.44793" lon="3.52101">
        <ele>20</ele>
        <time>2021-09-25T18:21:35.232Z</time>
      </trkpt>
      <trkpt lat="50.44797" lon="3.52106">
        <ele>20</ele>
        <time>2021-09-25T18:21:36.453Z</time>
      </trkpt>
      <trkpt lat="50.44802" lon="3.52111">
        <ele>19.9</ele>
        <time>2021-09-25T18:21:37.684Z</time>
      </trkpt>
      <trkpt lat="50.44811" lon="3.5212">
        <ele>19.8</ele>
        <time>2021-09-25T18:21:40.073Z</time>
      </trkpt>
      <trkpt lat="50.44816" lon="3.52124">
        <ele>19.7</ele>
        <time>2021-09-25T18:21:41.401Z</time>
      </trkpt>
      <trkpt lat="50.44821" lon="3.52129">
        <ele>19.6</ele>
        <time>2021-09-25T18:21:42.587Z</time>
      </trkpt>
      <trkpt lat="50.44829" lon="3.52138">
        <ele>19.4</ele>
        <time>2021-09-25T18:21:44.740Z</time>
      </trkpt>
      <trkpt lat="50.44837" lon="3.52148">
        <ele>19.3</ele>
        <time>2021-09-25T18:21:47.161Z</time>
      </trkpt>
      <trkpt lat="50.44842" lon="3.52154">
        <ele>19.3</ele>
        <time>2021-09-25T18:21:48.433Z</time>
      </trkpt>
      <trkpt lat="50.4485" lon="3.52164">
        <ele>19.4</ele>
        <time>2021-09-25T18:21:49.504Z</time>
      </trkpt>
      <trkpt lat="50.44855" lon="3.52169">
        <ele>19.5</ele>
        <time>2021-09-25T18:21:54.006Z</time>
      </trkpt>
      <trkpt lat="50.44863" lon="3.52179">
        <ele>19.8</ele>
        <time>2021-09-25T18:21:57.547Z</time>
      </trkpt>
      <trkpt lat="50.44867" lon="3.52184">
        <ele>19.9</ele>
        <time>2021-09-25T18:21:58.055Z</time>
      </trkpt>
      <trkpt lat="50.44875" lon="3.52194">
        <ele>20.2</ele>
        <time>2021-09-25T18:21:59.073Z</time>
      </trkpt>
      <trkpt lat="50.44881" lon="3.52198">
        <ele>20.3</ele>
        <time>2021-09-25T18:22:04.422Z</time>
      </trkpt>
      <trkpt lat="50.44889" lon="3.52207">
        <ele>20.5</ele>
        <time>2021-09-25T18:22:05.449Z</time>
      </trkpt>
      <trkpt lat="50.44898" lon="3.52215">
        <ele>20.7</ele>
        <time>2021-09-25T18:22:09.689Z</time>
      </trkpt>
      <trkpt lat="50.44902" lon="3.52219">
        <ele>20.8</ele>
        <time>2021-09-25T18:22:12.575Z</time>
      </trkpt>
      <trkpt lat="50.44906" lon="3.52222">
        <ele>20.8</ele>
        <time>2021-09-25T18:22:13.042Z</time>
      </trkpt>
      <trkpt lat="50.44914" lon="3.5223">
        <ele>21</ele>
        <time>2021-09-25T18:22:20.482Z</time>
      </trkpt>
      <trkpt lat="50.44926" lon="3.52242">
        <ele>20.7</ele>
        <time>2021-09-25T18:22:21.866Z</time>
      </trkpt>
      <trkpt lat="50.44933" lon="3.52251">
        <ele>20.4</ele>
        <time>2021-09-25T18:22:29.704Z</time>
      </trkpt>
      <trkpt lat="50.44941" lon="3.52257">
        <ele>20.1</ele>
        <time>2021-09-25T18:22:30.790Z</time>
      </trkpt>
      <trkpt lat="50.44951" lon="3.52269">
        <ele>19.9</ele>
        <time>2021-09-25T18:22:41.576Z</time>
      </trkpt>
      <trkpt lat="50.44959" lon="3.5228">
        <ele>19.7</ele>
        <time>2021-09-25T18:22:42.551Z</time>
      </trkpt>
      <trkpt lat="50.44966" lon="3.52287">
        <ele>19.5</ele>
        <time>2021-09-25T18:22:43.417Z</time>
      </trkpt>
      <trkpt lat="50.44978" lon="3.523">
        <ele>19.2</ele>
        <time>2021-09-25T18:22:55.801Z</time>
      </trkpt>
      <trkpt lat="50.44982" lon="3.52305">
        <ele>19.2</ele>
        <time>2021-09-25T18:22:57.003Z</time>
      </trkpt>
      <trkpt lat="50.44986" lon="3.52309">
        <ele>19.1</ele>
        <time>2021-09-25T18:22:58.121Z</time>
      </trkpt>
      <trkpt lat="50.44994" lon="3.52317">
        <ele>19</ele>
        <time>2021-09-25T18:23:03.965Z</time>
      </trkpt>
      <trkpt lat="50.45001" lon="3.52325">
        <ele>18.9</ele>
        <time>2021-09-25T18:23:05.380Z</time>
      </trkpt>
      <trkpt lat="50.45005" lon="3.52328">
        <ele>19</ele>
        <time>2021-09-25T18:23:06.636Z</time>
      </trkpt>
      <trkpt lat="50.45015" lon="3.52341">
        <ele>19.6</ele>
        <time>2021-09-25T18:23:09.424Z</time>
      </trkpt>
      <trkpt lat="50.45021" lon="3.52349">
        <ele>20</ele>
        <time>2021-09-25T18:23:11.192Z</time>
      </trkpt>
      <trkpt lat="50.45028" lon="3.52357">
        <ele>20.5</ele>
        <time>2021-09-25T18:23:13.039Z</time>
      </trkpt>
      <trkpt lat="50.45031" lon="3.52362">
        <ele>20.7</ele>
        <time>2021-09-25T18:23:13.489Z</time>
      </trkpt>
      <trkpt lat="50.45037" lon="3.52369">
        <ele>21</ele>
        <time>2021-09-25T18:23:15.375Z</time>
      </trkpt>
      <trkpt lat="50.45042" lon="3.52375">
        <ele>21.2</ele>
        <time>2021-09-25T18:23:16.755Z</time>
      </trkpt>
      <trkpt lat="50.45049" lon="3.52384">
        <ele>21.6</ele>
        <time>2021-09-25T18:23:17.678Z</time>
      </trkpt>
      <trkpt lat="50.45054" lon="3.52391">
        <ele>21.8</ele>
        <time>2021-09-25T18:23:18.729Z</time>
      </trkpt>
      <trkpt lat="50.45063" lon="3.524">
        <ele>21.9</ele>
        <time>2021-09-25T18:23:20.086Z</time>
      </trkpt>
      <trkpt lat="50.4507" lon="3.52407">
        <ele>22</ele>
        <time>2021-09-25T18:23:21.898Z</time>
      </trkpt>
      <trkpt lat="50.4508" lon="3.52416">
        <ele>22.1</ele>
        <time>2021-09-25T18:23:23.041Z</time>
      </trkpt>
      <trkpt lat="50.45086" lon="3.52423">
        <ele>22.1</ele>
        <time>2021-09-25T18:23:24.195Z</time>
      </trkpt>
      <trkpt lat="50.45092" lon="3.52429">
        <ele>22.1</ele>
        <time>2021-09-25T18:23:24.986Z</time>
      </trkpt>
      <trkpt lat="50.45101" lon="3.52439">
        <ele>22.1</ele>
        <time>2021-09-25T18:23:27.444Z</time>
      </trkpt>
      <trkpt lat="50.45111" lon="3.52449">
        <ele>22</ele>
        <time>2021-09-25T18:23:29.352Z</time>
      </trkpt>
      <trkpt lat="50.45118" lon="3.52457">
        <ele>21.9</ele>
        <time>2021-09-25T18:23:31.426Z</time>
      </trkpt>
      <trkpt lat="50.4512" lon="3.52474">
        <ele>22.2</ele>
        <time>2021-09-25T18:23:32.910Z</time>
      </trkpt>
      <trkpt lat="50.45115" lon="3.52484">
        <ele>22.5</ele>
        <time>2021-09-25T18:23:34.808Z</time>
      </trkpt>
      <trkpt lat="50.45112" lon="3.5249">
        <ele>22.8</ele>
        <time>2021-09-25T18:23:39.017Z</time>
      </trkpt>
      <trkpt lat="50.45107" lon="3.52497">
        <ele>23.1</ele>
        <time>2021-09-25T18:23:40.552Z</time>
      </trkpt>
      <trkpt lat="50.45102" lon="3.52505">
        <ele>23.4</ele>
        <time>2021-09-25T18:23:42.103Z</time>
      </trkpt>
      <trkpt lat="50.45097" lon="3.52514">
        <ele>23.8</ele>
        <time>2021-09-25T18:23:43.274Z</time>
      </trkpt>
      <trkpt lat="50.45091" lon="3.52525">
        <ele>24.3</ele>
        <time>2021-09-25T18:23:45.216Z</time>
      </trkpt>
      <trkpt lat="50.45088" lon="3.52531">
        <ele>24.6</ele>
        <time>2021-09-25T18:23:46.394Z</time>
      </trkpt>
      <trkpt lat="50.45084" lon="3.52537">
        <ele>24.9</ele>
        <time>2021-09-25T18:23:47.536Z</time>
      </trkpt>
      <trkpt lat="50.45079" lon="3.52546">
        <ele>25.3</ele>
        <time>2021-09-25T18:23:49.196Z</time>
      </trkpt>
      <trkpt lat="50.45073" lon="3.52556">
        <ele>25.9</ele>
        <time>2021-09-25T18:23:51.160Z</time>
      </trkpt>
      <trkpt lat="50.45069" lon="3.52563">
        <ele>26.2</ele>
        <time>2021-09-25T18:23:52.537Z</time>
      </trkpt>
      <trkpt lat="50.45064" lon="3.52572">
        <ele>26.7</ele>
        <time>2021-09-25T18:23:54.271Z</time>
      </trkpt>
      <trkpt lat="50.45058" lon="3.52578">
        <ele>27.1</ele>
        <time>2021-09-25T18:23:55.693Z</time>
      </trkpt>
      <trkpt lat="50.45052" lon="3.52581">
        <ele>27.5</ele>
        <time>2021-09-25T18:23:57.283Z</time>
      </trkpt>
      <trkpt lat="50.45045" lon="3.52585">
        <ele>27.9</ele>
        <time>2021-09-25T18:23:58.347Z</time>
      </trkpt>
      <trkpt lat="50.45038" lon="3.52591">
        <ele>28.4</ele>
        <time>2021-09-25T18:24:00.153Z</time>
      </trkpt>
      <trkpt lat="50.45028" lon="3.52601">
        <ele>28</ele>
        <time>2021-09-25T18:24:02.658Z</time>
      </trkpt>
      <trkpt lat="50.45021" lon="3.52605">
        <ele>28.2</ele>
        <time>2021-09-25T18:24:04.165Z</time>
      </trkpt>
      <trkpt lat="50.45012" lon="3.52611">
        <ele>28.6</ele>
        <time>2021-09-25T18:24:05.748Z</time>
      </trkpt>
      <trkpt lat="50.44999" lon="3.52621">
        <ele>29</ele>
        <time>2021-09-25T18:24:06.979Z</time>
      </trkpt>
      <trkpt lat="50.44993" lon="3.52627">
        <ele>29</ele>
        <time>2021-09-25T18:24:07.419Z</time>
      </trkpt>
      <trkpt lat="50.44987" lon="3.52632">
        <ele>29</ele>
        <time>2021-09-25T18:24:07.839Z</time>
      </trkpt>
      <trkpt lat="50.44985" lon="3.52634">
        <ele>29</ele>
        <time>2021-09-25T18:24:07.986Z</time>
      </trkpt>
      <trkpt lat="50.44984" lon="3.52638">
        <ele>29</ele>
        <time>2021-09-25T18:24:08.156Z</time>
      </trkpt>
      <trkpt lat="50.44986" lon="3.52634">
        <ele>29</ele>
        <time>2021-09-25T18:24:09.465Z</time>
      </trkpt>
      <trkpt lat="50.4499" lon="3.5263">
        <ele>29</ele>
        <time>2021-09-25T18:24:11.382Z</time>
      </trkpt>
      <trkpt lat="50.44998" lon="3.52625">
        <ele>29</ele>
        <time>2021-09-25T18:24:14.863Z</time>
      </trkpt>
      <trkpt lat="50.45012" lon="3.52614">
        <ele>28.6</ele>
        <time>2021-09-25T18:24:21.192Z</time>
      </trkpt>
      <trkpt lat="50.45027" lon="3.52603">
        <ele>28</ele>
        <time>2021-09-25T18:24:27.885Z</time>
      </trkpt>
      <trkpt lat="50.45043" lon="3.52593">
        <ele>28.2</ele>
        <time>2021-09-25T18:24:34.848Z</time>
      </trkpt>
      <trkpt lat="50.45049" lon="3.52586">
        <ele>27.7</ele>
        <time>2021-09-25T18:24:36.558Z</time>
      </trkpt>
      <trkpt lat="50.45062" lon="3.5257">
        <ele>26.7</ele>
        <time>2021-09-25T18:24:40.172Z</time>
      </trkpt>
      <trkpt lat="50.45074" lon="3.52553">
        <ele>25.8</ele>
        <time>2021-09-25T18:24:43.464Z</time>
      </trkpt>
      <trkpt lat="50.45084" lon="3.52534">
        <ele>24.8</ele>
        <time>2021-09-25T18:24:46.940Z</time>
      </trkpt>
      <trkpt lat="50.45089" lon="3.52524">
        <ele>24.4</ele>
        <time>2021-09-25T18:24:48.721Z</time>
      </trkpt>
      <trkpt lat="50.451" lon="3.52504">
        <ele>23.5</ele>
        <time>2021-09-25T18:24:50.471Z</time>
      </trkpt>
      <trkpt lat="50.45106" lon="3.52495">
        <ele>23.1</ele>
        <time>2021-09-25T18:24:52.302Z</time>
      </trkpt>
      <trkpt lat="50.45111" lon="3.52486">
        <ele>22.7</ele>
        <time>2021-09-25T18:24:54.346Z</time>
      </trkpt>
      <trkpt lat="50.45122" lon="3.52468">
        <ele>22</ele>
        <time>2021-09-25T18:24:57.510Z</time>
      </trkpt>
      <trkpt lat="50.45123" lon="3.52456">
        <ele>21.8</ele>
        <time>2021-09-25T18:24:59.130Z</time>
      </trkpt>
      <trkpt lat="50.45116" lon="3.52435">
        <ele>21.6</ele>
        <time>2021-09-25T18:25:02.766Z</time>
      </trkpt>
      <trkpt lat="50.45109" lon="3.52429">
        <ele>21.6</ele>
        <time>2021-09-25T18:25:04.421Z</time>
      </trkpt>
      <trkpt lat="50.45096" lon="3.52419">
        <ele>21.7</ele>
        <time>2021-09-25T18:25:07.772Z</time>
      </trkpt>
      <trkpt lat="50.45082" lon="3.52407">
        <ele>21.8</ele>
        <time>2021-09-25T18:25:11.228Z</time>
      </trkpt>
      <trkpt lat="50.45076" lon="3.52399">
        <ele>21.7</ele>
        <time>2021-09-25T18:25:12.980Z</time>
      </trkpt>
      <trkpt lat="50.45062" lon="3.52384">
        <ele>21.4</ele>
        <time>2021-09-25T18:25:16.342Z</time>
      </trkpt>
      <trkpt lat="50.45055" lon="3.52377">
        <ele>21.2</ele>
        <time>2021-09-25T18:25:18.232Z</time>
      </trkpt>
      <trkpt lat="50.45041" lon="3.52361">
        <ele>20.7</ele>
        <time>2021-09-25T18:25:22.237Z</time>
      </trkpt>
      <trkpt lat="50.45034" lon="3.52353">
        <ele>20.3</ele>
        <time>2021-09-25T18:25:23.552Z</time>
      </trkpt>
      <trkpt lat="50.45028" lon="3.52346">
        <ele>19.9</ele>
        <time>2021-09-25T18:25:25.294Z</time>
      </trkpt>
      <trkpt lat="50.45015" lon="3.52333">
        <ele>19.2</ele>
        <time>2021-09-25T18:25:28.707Z</time>
      </trkpt>
      <trkpt lat="50.45009" lon="3.52325">
        <ele>19</ele>
        <time>2021-09-25T18:25:29.903Z</time>
      </trkpt>
      <trkpt lat="50.45003" lon="3.52318">
        <ele>18.8</ele>
        <time>2021-09-25T18:25:31.585Z</time>
      </trkpt>
      <trkpt lat="50.44997" lon="3.52311">
        <ele>18.8</ele>
        <time>2021-09-25T18:25:33.145Z</time>
      </trkpt>
      <trkpt lat="50.44985" lon="3.52298">
        <ele>19</ele>
        <time>2021-09-25T18:25:36.395Z</time>
      </trkpt>
      <trkpt lat="50.44979" lon="3.52292">
        <ele>19.1</ele>
        <time>2021-09-25T18:25:37.967Z</time>
      </trkpt>
      <trkpt lat="50.44968" lon="3.52279">
        <ele>19.4</ele>
        <time>2021-09-25T18:25:41.173Z</time>
      </trkpt>
      <trkpt lat="50.44956" lon="3.52265">
        <ele>19.7</ele>
        <time>2021-09-25T18:25:44.346Z</time>
      </trkpt>
      <trkpt lat="50.44943" lon="3.52254">
        <ele>20.1</ele>
        <time>2021-09-25T18:25:47.605Z</time>
      </trkpt>
      <trkpt lat="50.44937" lon="3.52248">
        <ele>20.3</ele>
        <time>2021-09-25T18:25:49.435Z</time>
      </trkpt>
      <trkpt lat="50.44925" lon="3.52237">
        <ele>20.7</ele>
        <time>2021-09-25T18:25:51.676Z</time>
      </trkpt>
      <trkpt lat="50.44915" lon="3.52226">
        <ele>21</ele>
        <time>2021-09-25T18:25:54.555Z</time>
      </trkpt>
      <trkpt lat="50.4491" lon="3.5222">
        <ele>20.9</ele>
        <time>2021-09-25T18:25:56.187Z</time>
      </trkpt>
      <trkpt lat="50.44899" lon="3.52209">
        <ele>20.7</ele>
        <time>2021-09-25T18:25:58.904Z</time>
      </trkpt>
      <trkpt lat="50.44891" lon="3.522">
        <ele>20.5</ele>
        <time>2021-09-25T18:26:01.229Z</time>
      </trkpt>
      <trkpt lat="50.44886" lon="3.52195">
        <ele>20.4</ele>
        <time>2021-09-25T18:26:02.475Z</time>
      </trkpt>
      <trkpt lat="50.44882" lon="3.52191">
        <ele>20.3</ele>
        <time>2021-09-25T18:26:03.638Z</time>
      </trkpt>
      <trkpt lat="50.44878" lon="3.52185">
        <ele>20.2</ele>
        <time>2021-09-25T18:26:04.832Z</time>
      </trkpt>
      <trkpt lat="50.4487" lon="3.52174">
        <ele>19.9</ele>
        <time>2021-09-25T18:26:07.196Z</time>
      </trkpt>
      <trkpt lat="50.44865" lon="3.52169">
        <ele>19.8</ele>
        <time>2021-09-25T18:26:08.457Z</time>
      </trkpt>
      <trkpt lat="50.44855" lon="3.5216">
        <ele>19.6</ele>
        <time>2021-09-25T18:26:11.171Z</time>
      </trkpt>
      <trkpt lat="50.4485" lon="3.52155">
        <ele>19.5</ele>
        <time>2021-09-25T18:26:12.418Z</time>
      </trkpt>
      <trkpt lat="50.44846" lon="3.5215">
        <ele>19.5</ele>
        <time>2021-09-25T18:26:13.647Z</time>
      </trkpt>
      <trkpt lat="50.44841" lon="3.52146">
        <ele>19.4</ele>
        <time>2021-09-25T18:26:14.844Z</time>
      </trkpt>
      <trkpt lat="50.44837" lon="3.52141">
        <ele>19.4</ele>
        <time>2021-09-25T18:26:15.980Z</time>
      </trkpt>
      <trkpt lat="50.44828" lon="3.52131">
        <ele>19.5</ele>
        <time>2021-09-25T18:26:18.402Z</time>
      </trkpt>
      <trkpt lat="50.44824" lon="3.52126">
        <ele>19.6</ele>
        <time>2021-09-25T18:26:18.937Z</time>
      </trkpt>
      <trkpt lat="50.4482" lon="3.52121">
        <ele>19.7</ele>
        <time>2021-09-25T18:26:20.356Z</time>
      </trkpt>
      <trkpt lat="50.44815" lon="3.52117">
        <ele>19.8</ele>
        <time>2021-09-25T18:26:20.865Z</time>
      </trkpt>
      <trkpt lat="50.44811" lon="3.52112">
        <ele>19.8</ele>
        <time>2021-09-25T18:26:21.373Z</time>
      </trkpt>
      <trkpt lat="50.44806" lon="3.52108">
        <ele>19.9</ele>
        <time>2021-09-25T18:26:25.891Z</time>
      </trkpt>
      <trkpt lat="50.44798" lon="3.52101">
        <ele>20</ele>
        <time>2021-09-25T18:26:33.777Z</time>
      </trkpt>
      <trkpt lat="50.44794" lon="3.52096">
        <ele>20</ele>
        <time>2021-09-25T18:26:34.467Z</time>
      </trkpt>
      <trkpt lat="50.4479" lon="3.52091">
        <ele>20</ele>
        <time>2021-09-25T18:26:34.982Z</time>
      </trkpt>
      <trkpt lat="50.44786" lon="3.52087">
        <ele>20</ele>
        <time>2021-09-25T18:26:39.116Z</time>
      </trkpt>
      <trkpt lat="50.44776" lon="3.52076">
        <ele>19.9</ele>
        <time>2021-09-25T18:26:40.378Z</time>
      </trkpt>
      <trkpt lat="50.44768" lon="3.52068">
        <ele>19.9</ele>
        <time>2021-09-25T18:26:48.219Z</time>
      </trkpt>
      <trkpt lat="50.44757" lon="3.52059">
        <ele>19.7</ele>
        <time>2021-09-25T18:26:54.660Z</time>
      </trkpt>
      <trkpt lat="50.4475" lon="3.52053">
        <ele>19.6</ele>
        <time>2021-09-25T18:26:55.931Z</time>
      </trkpt>
      <trkpt lat="50.44741" lon="3.52051">
        <ele>19.8</ele>
        <time>2021-09-25T18:27:03.225Z</time>
      </trkpt>
      <trkpt lat="50.44736" lon="3.52042">
        <ele>19.8</ele>
        <time>2021-09-25T18:27:09.735Z</time>
      </trkpt>
      <trkpt lat="50.44731" lon="3.52036">
        <ele>19.8</ele>
        <time>2021-09-25T18:27:11.073Z</time>
      </trkpt>
      <trkpt lat="50.44727" lon="3.5203">
        <ele>19.8</ele>
        <time>2021-09-25T18:27:12.312Z</time>
      </trkpt>
      <trkpt lat="50.44724" lon="3.52025">
        <ele>19.8</ele>
        <time>2021-09-25T18:27:13.617Z</time>
      </trkpt>
      <trkpt lat="50.4472" lon="3.5202">
        <ele>19.9</ele>
        <time>2021-09-25T18:27:14.740Z</time>
      </trkpt>
      <trkpt lat="50.44715" lon="3.52015">
        <ele>19.9</ele>
        <time>2021-09-25T18:27:15.601Z</time>
      </trkpt>
      <trkpt lat="50.44711" lon="3.5201">
        <ele>20</ele>
        <time>2021-09-25T18:27:16.760Z</time>
      </trkpt>
      <trkpt lat="50.44706" lon="3.52005">
        <ele>20.1</ele>
        <time>2021-09-25T18:27:18.218Z</time>
      </trkpt>
      <trkpt lat="50.44699" lon="3.51998">
        <ele>20.2</ele>
        <time>2021-09-25T18:27:20.158Z</time>
      </trkpt>
      <trkpt lat="50.44692" lon="3.5199">
        <ele>20.3</ele>
        <time>2021-09-25T18:27:22.095Z</time>
      </trkpt>
      <trkpt lat="50.44687" lon="3.51985">
        <ele>20.4</ele>
        <time>2021-09-25T18:27:23.303Z</time>
      </trkpt>
      <trkpt lat="50.44682" lon="3.51979">
        <ele>20.5</ele>
        <time>2021-09-25T18:27:24.296Z</time>
      </trkpt>
      <trkpt lat="50.44675" lon="3.51971">
        <ele>20.5</ele>
        <time>2021-09-25T18:27:26.135Z</time>
      </trkpt>
      <trkpt lat="50.44671" lon="3.51966">
        <ele>20.5</ele>
        <time>2021-09-25T18:27:27.241Z</time>
      </trkpt>
      <trkpt lat="50.44666" lon="3.5196">
        <ele>20.5</ele>
        <time>2021-09-25T18:27:28.714Z</time>
      </trkpt>
      <trkpt lat="50.44662" lon="3.51956">
        <ele>20.4</ele>
        <time>2021-09-25T18:27:29.738Z</time>
      </trkpt>
      <trkpt lat="50.44652" lon="3.51947">
        <ele>20.3</ele>
        <time>2021-09-25T18:27:31.548Z</time>
      </trkpt>
      <trkpt lat="50.44648" lon="3.51941">
        <ele>20.2</ele>
        <time>2021-09-25T18:27:32.856Z</time>
      </trkpt>
      <trkpt lat="50.44642" lon="3.51934">
        <ele>20.1</ele>
        <time>2021-09-25T18:27:34.537Z</time>
      </trkpt>
      <trkpt lat="50.44634" lon="3.51926">
        <ele>20.1</ele>
        <time>2021-09-25T18:27:36.737Z</time>
      </trkpt>
      <trkpt lat="50.4463" lon="3.51921">
        <ele>20</ele>
        <time>2021-09-25T18:27:37.947Z</time>
      </trkpt>
      <trkpt lat="50.44624" lon="3.51914">
        <ele>20</ele>
        <time>2021-09-25T18:27:39.810Z</time>
      </trkpt>
      <trkpt lat="50.4462" lon="3.5191">
        <ele>20</ele>
        <time>2021-09-25T18:27:40.437Z</time>
      </trkpt>
      <trkpt lat="50.44612" lon="3.51901">
        <ele>19.9</ele>
        <time>2021-09-25T18:27:42.707Z</time>
      </trkpt>
      <trkpt lat="50.44605" lon="3.51893">
        <ele>19.9</ele>
        <time>2021-09-25T18:27:44.778Z</time>
      </trkpt>
      <trkpt lat="50.44597" lon="3.51885">
        <ele>19.9</ele>
        <time>2021-09-25T18:27:46.883Z</time>
      </trkpt>
      <trkpt lat="50.44593" lon="3.51881">
        <ele>20</ele>
        <time>2021-09-25T18:27:48.257Z</time>
      </trkpt>
      <trkpt lat="50.44589" lon="3.51876">
        <ele>20</ele>
        <time>2021-09-25T18:27:48.989Z</time>
      </trkpt>
      <trkpt lat="50.44584" lon="3.51872">
        <ele>20</ele>
        <time>2021-09-25T18:27:50.092Z</time>
      </trkpt>
      <trkpt lat="50.4458" lon="3.51868">
        <ele>20</ele>
        <time>2021-09-25T18:27:51.187Z</time>
      </trkpt>
      <trkpt lat="50.44575" lon="3.51862">
        <ele>20.1</ele>
        <time>2021-09-25T18:27:52.956Z</time>
      </trkpt>
      <trkpt lat="50.4457" lon="3.51856">
        <ele>20.2</ele>
        <time>2021-09-25T18:27:53.741Z</time>
      </trkpt>
      <trkpt lat="50.44565" lon="3.5185">
        <ele>20.2</ele>
        <time>2021-09-25T18:27:55.266Z</time>
      </trkpt>
      <trkpt lat="50.4456" lon="3.51845">
        <ele>20.3</ele>
        <time>2021-09-25T18:27:56.494Z</time>
      </trkpt>
      <trkpt lat="50.44556" lon="3.5184">
        <ele>20.3</ele>
        <time>2021-09-25T18:27:57.620Z</time>
      </trkpt>
      <trkpt lat="50.44551" lon="3.51835">
        <ele>20.4</ele>
        <time>2021-09-25T18:27:59.054Z</time>
      </trkpt>
      <trkpt lat="50.44546" lon="3.51831">
        <ele>20.4</ele>
        <time>2021-09-25T18:28:00.142Z</time>
      </trkpt>
      <trkpt lat="50.44542" lon="3.51826">
        <ele>20.5</ele>
        <time>2021-09-25T18:28:01.421Z</time>
      </trkpt>
      <trkpt lat="50.44535" lon="3.5182">
        <ele>20.5</ele>
        <time>2021-09-25T18:28:03.007Z</time>
      </trkpt>
      <trkpt lat="50.44532" lon="3.51816">
        <ele>20.5</ele>
        <time>2021-09-25T18:28:04.005Z</time>
      </trkpt>
      <trkpt lat="50.44527" lon="3.5181">
        <ele>20.6</ele>
        <time>2021-09-25T18:28:05.544Z</time>
      </trkpt>
      <trkpt lat="50.44524" lon="3.51806">
        <ele>20.6</ele>
        <time>2021-09-25T18:28:06.545Z</time>
      </trkpt>
      <trkpt lat="50.44513" lon="3.51796">
        <ele>20.8</ele>
        <time>2021-09-25T18:28:09.341Z</time>
      </trkpt>
      <trkpt lat="50.44508" lon="3.51792">
        <ele>20.9</ele>
        <time>2021-09-25T18:28:10.740Z</time>
      </trkpt>
      <trkpt lat="50.44503" lon="3.51786">
        <ele>20.9</ele>
        <time>2021-09-25T18:28:12.215Z</time>
      </trkpt>
      <trkpt lat="50.44495" lon="3.51776">
        <ele>21.3</ele>
        <time>2021-09-25T18:28:14.344Z</time>
      </trkpt>
      <trkpt lat="50.44491" lon="3.51771">
        <ele>21.6</ele>
        <time>2021-09-25T18:28:15.507Z</time>
      </trkpt>
      <trkpt lat="50.44487" lon="3.51767">
        <ele>21.8</ele>
        <time>2021-09-25T18:28:16.510Z</time>
      </trkpt>
      <trkpt lat="50.44483" lon="3.51763">
        <ele>22.1</ele>
        <time>2021-09-25T18:28:17.861Z</time>
      </trkpt>
      <trkpt lat="50.44479" lon="3.51759">
        <ele>22.4</ele>
        <time>2021-09-25T18:28:18.975Z</time>
      </trkpt>
      <trkpt lat="50.44472" lon="3.51752">
        <ele>23</ele>
        <time>2021-09-25T18:28:20.794Z</time>
      </trkpt>
      <trkpt lat="50.44465" lon="3.51743">
        <ele>23.6</ele>
        <time>2021-09-25T18:28:22.806Z</time>
      </trkpt>
      <trkpt lat="50.4446" lon="3.51737">
        <ele>24.1</ele>
        <time>2021-09-25T18:28:24.105Z</time>
      </trkpt>
      <trkpt lat="50.44457" lon="3.5173">
        <ele>24.5</ele>
        <time>2021-09-25T18:28:25.382Z</time>
      </trkpt>
      <trkpt lat="50.44451" lon="3.51722">
        <ele>25.1</ele>
        <time>2021-09-25T18:28:31.813Z</time>
      </trkpt>
      <trkpt lat="50.44443" lon="3.51716">
        <ele>25.9</ele>
        <time>2021-09-25T18:28:33.718Z</time>
      </trkpt>
      <trkpt lat="50.44437" lon="3.5171">
        <ele>26.6</ele>
        <time>2021-09-25T18:28:34.912Z</time>
      </trkpt>
      <trkpt lat="50.44433" lon="3.51705">
        <ele>27.1</ele>
        <time>2021-09-25T18:28:35.992Z</time>
      </trkpt>
      <trkpt lat="50.44425" lon="3.51695">
        <ele>28.2</ele>
        <time>2021-09-25T18:28:38.204Z</time>
      </trkpt>
      <trkpt lat="50.4442" lon="3.51689">
        <ele>28.9</ele>
        <time>2021-09-25T18:28:40.834Z</time>
      </trkpt>
      <trkpt lat="50.44415" lon="3.51685">
        <ele>29.4</ele>
        <time>2021-09-25T18:28:41.789Z</time>
      </trkpt>
      <trkpt lat="50.4441" lon="3.51681">
        <ele>29.8</ele>
        <time>2021-09-25T18:28:43.125Z</time>
      </trkpt>
      <trkpt lat="50.44409" lon="3.51673">
        <ele>30.1</ele>
        <time>2021-09-25T18:28:43.935Z</time>
      </trkpt>
      <trkpt lat="50.44417" lon="3.51662">
        <ele>30.1</ele>
        <time>2021-09-25T18:28:46.330Z</time>
      </trkpt>
      <trkpt lat="50.44421" lon="3.51658">
        <ele>29.8</ele>
        <time>2021-09-25T18:28:47.509Z</time>
      </trkpt>
      <trkpt lat="50.44426" lon="3.51653">
        <ele>29.4</ele>
        <time>2021-09-25T18:28:48.721Z</time>
      </trkpt>
      <trkpt lat="50.44434" lon="3.51646">
        <ele>28.8</ele>
        <time>2021-09-25T18:28:50.684Z</time>
      </trkpt>
      <trkpt lat="50.44441" lon="3.51634">
        <ele>28.5</ele>
        <time>2021-09-25T18:28:53.106Z</time>
      </trkpt>
      <trkpt lat="50.44449" lon="3.51627">
        <ele>28</ele>
        <time>2021-09-25T18:28:54.998Z</time>
      </trkpt>
      <trkpt lat="50.44454" lon="3.51622">
        <ele>27.8</ele>
        <time>2021-09-25T18:28:56.379Z</time>
      </trkpt>
      <trkpt lat="50.4446" lon="3.51615">
        <ele>27.5</ele>
        <time>2021-09-25T18:28:58.087Z</time>
      </trkpt>
      <trkpt lat="50.44467" lon="3.51605">
        <ele>27.4</ele>
        <time>2021-09-25T18:29:00.176Z</time>
      </trkpt>
      <trkpt lat="50.44472" lon="3.51598">
        <ele>27.3</ele>
        <time>2021-09-25T18:29:01.643Z</time>
      </trkpt>
      <trkpt lat="50.44477" lon="3.5159">
        <ele>27.3</ele>
        <time>2021-09-25T18:29:03.478Z</time>
      </trkpt>
      <trkpt lat="50.44482" lon="3.51579">
        <ele>27.5</ele>
        <time>2021-09-25T18:29:05.349Z</time>
      </trkpt>
      <trkpt lat="50.44485" lon="3.51573">
        <ele>27.6</ele>
        <time>2021-09-25T18:29:06.438Z</time>
      </trkpt>
      <trkpt lat="50.44491" lon="3.51559">
        <ele>28</ele>
        <time>2021-09-25T18:29:08.877Z</time>
      </trkpt>
      <trkpt lat="50.44496" lon="3.5155">
        <ele>28.2</ele>
        <time>2021-09-25T18:29:10.534Z</time>
      </trkpt>
      <trkpt lat="50.44502" lon="3.51545">
        <ele>28.2</ele>
        <time>2021-09-25T18:29:11.987Z</time>
      </trkpt>
      <trkpt lat="50.4451" lon="3.51536">
        <ele>28.5</ele>
        <time>2021-09-25T18:29:14.209Z</time>
      </trkpt>
      <trkpt lat="50.44515" lon="3.51532">
        <ele>28.6</ele>
        <time>2021-09-25T18:29:15.393Z</time>
      </trkpt>
      <trkpt lat="50.44525" lon="3.51523">
        <ele>28.8</ele>
        <time>2021-09-25T18:29:17.879Z</time>
      </trkpt>
      <trkpt lat="50.44529" lon="3.51518">
        <ele>29</ele>
        <time>2021-09-25T18:29:18.617Z</time>
      </trkpt>
      <trkpt lat="50.44534" lon="3.51516">
        <ele>28.9</ele>
        <time>2021-09-25T18:29:19.846Z</time>
      </trkpt>
      <trkpt lat="50.4454" lon="3.51501">
        <ele>29.5</ele>
        <time>2021-09-25T18:29:22.303Z</time>
      </trkpt>
      <trkpt lat="50.44547" lon="3.51492">
        <ele>29.6</ele>
        <time>2021-09-25T18:29:24.575Z</time>
      </trkpt>
      <trkpt lat="50.44552" lon="3.51482">
        <ele>29.7</ele>
        <time>2021-09-25T18:29:26.303Z</time>
      </trkpt>
      <trkpt lat="50.44556" lon="3.51479">
        <ele>29.7</ele>
        <time>2021-09-25T18:29:27.403Z</time>
      </trkpt>
      <trkpt lat="50.4456" lon="3.51474">
        <ele>29.7</ele>
        <time>2021-09-25T18:29:28.474Z</time>
      </trkpt>
      <trkpt lat="50.44564" lon="3.51469">
        <ele>29.7</ele>
        <time>2021-09-25T18:29:28.966Z</time>
      </trkpt>
      <trkpt lat="50.4457" lon="3.51461">
        <ele>29.8</ele>
        <time>2021-09-25T18:29:35.551Z</time>
      </trkpt>
      <trkpt lat="50.44577" lon="3.51453">
        <ele>29.9</ele>
        <time>2021-09-25T18:29:36.483Z</time>
      </trkpt>
      <trkpt lat="50.44584" lon="3.51443">
        <ele>30</ele>
        <time>2021-09-25T18:29:37.349Z</time>
      </trkpt>
      <trkpt lat="50.44589" lon="3.51437">
        <ele>30</ele>
        <time>2021-09-25T18:29:43.194Z</time>
      </trkpt>
      <trkpt lat="50.44594" lon="3.51428">
        <ele>30.2</ele>
        <time>2021-09-25T18:29:44.923Z</time>
      </trkpt>
      <trkpt lat="50.446" lon="3.5142">
        <ele>30.3</ele>
        <time>2021-09-25T18:29:45.835Z</time>
      </trkpt>
      <trkpt lat="50.44604" lon="3.51416">
        <ele>30.3</ele>
        <time>2021-09-25T18:29:50.109Z</time>
      </trkpt>
      <trkpt lat="50.44611" lon="3.51405">
        <ele>30.4</ele>
        <time>2021-09-25T18:29:51.020Z</time>
      </trkpt>
      <trkpt lat="50.44617" lon="3.51393">
        <ele>30.6</ele>
        <time>2021-09-25T18:29:51.966Z</time>
      </trkpt>
      <trkpt lat="50.44622" lon="3.51383">
        <ele>30.8</ele>
        <time>2021-09-25T18:29:59.458Z</time>
      </trkpt>
      <trkpt lat="50.44628" lon="3.51374">
        <ele>30.9</ele>
        <time>2021-09-25T18:30:00.251Z</time>
      </trkpt>
      <trkpt lat="50.44632" lon="3.51369">
        <ele>31</ele>
        <time>2021-09-25T18:30:00.737Z</time>
      </trkpt>
      <trkpt lat="50.4464" lon="3.51359">
        <ele>31</ele>
        <time>2021-09-25T18:30:03.286Z</time>
      </trkpt>
      <trkpt lat="50.44644" lon="3.51353">
        <ele>31.1</ele>
        <time>2021-09-25T18:30:07.601Z</time>
      </trkpt>
      <trkpt lat="50.44648" lon="3.51344">
        <ele>31.3</ele>
        <time>2021-09-25T18:30:08.320Z</time>
      </trkpt>
      <trkpt lat="50.44652" lon="3.51338">
        <ele>31.4</ele>
        <time>2021-09-25T18:30:13.320Z</time>
      </trkpt>
      <trkpt lat="50.44656" lon="3.51333">
        <ele>31.4</ele>
        <time>2021-09-25T18:30:13.788Z</time>
      </trkpt>
      <trkpt lat="50.44661" lon="3.51328">
        <ele>31.4</ele>
        <time>2021-09-25T18:30:18.996Z</time>
      </trkpt>
      <trkpt lat="50.44665" lon="3.51324">
        <ele>31.4</ele>
        <time>2021-09-25T18:30:19.469Z</time>
      </trkpt>
      <trkpt lat="50.4467" lon="3.51318">
        <ele>31.3</ele>
        <time>2021-09-25T18:30:20.265Z</time>
      </trkpt>
      <trkpt lat="50.44675" lon="3.51311">
        <ele>31.1</ele>
        <time>2021-09-25T18:30:25.742Z</time>
      </trkpt>
      <trkpt lat="50.4468" lon="3.51304">
        <ele>31</ele>
        <time>2021-09-25T18:30:26.384Z</time>
      </trkpt>
      <trkpt lat="50.44686" lon="3.51294">
        <ele>30.9</ele>
        <time>2021-09-25T18:30:27.626Z</time>
      </trkpt>
      <trkpt lat="50.44688" lon="3.51287">
        <ele>31</ele>
        <time>2021-09-25T18:30:31.766Z</time>
      </trkpt>
      <trkpt lat="50.44694" lon="3.51281">
        <ele>30.8</ele>
        <time>2021-09-25T18:30:37.973Z</time>
      </trkpt>
      <trkpt lat="50.44706" lon="3.51266">
        <ele>30.5</ele>
        <time>2021-09-25T18:30:39.495Z</time>
      </trkpt>
      <trkpt lat="50.44711" lon="3.51258">
        <ele>30.5</ele>
        <time>2021-09-25T18:30:40.202Z</time>
      </trkpt>
      <trkpt lat="50.44718" lon="3.51246">
        <ele>30.5</ele>
        <time>2021-09-25T18:30:48.952Z</time>
      </trkpt>
      <trkpt lat="50.44722" lon="3.51241">
        <ele>30.4</ele>
        <time>2021-09-25T18:30:49.502Z</time>
      </trkpt>
      <trkpt lat="50.44726" lon="3.51236">
        <ele>30.3</ele>
        <time>2021-09-25T18:30:50.028Z</time>
      </trkpt>
      <trkpt lat="50.4473" lon="3.5123">
        <ele>30.3</ele>
        <time>2021-09-25T18:30:50.541Z</time>
      </trkpt>
      <trkpt lat="50.44735" lon="3.51221">
        <ele>30.3</ele>
        <time>2021-09-25T18:30:57.233Z</time>
      </trkpt>
      <trkpt lat="50.44742" lon="3.51211">
        <ele>30.4</ele>
        <time>2021-09-25T18:30:58.125Z</time>
      </trkpt>
      <trkpt lat="50.44746" lon="3.51206">
        <ele>30.3</ele>
        <time>2021-09-25T18:30:58.819Z</time>
      </trkpt>
      <trkpt lat="50.44753" lon="3.51198">
        <ele>30.3</ele>
        <time>2021-09-25T18:31:05.709Z</time>
      </trkpt>
      <trkpt lat="50.4476" lon="3.5119">
        <ele>30.3</ele>
        <time>2021-09-25T18:31:13.238Z</time>
      </trkpt>
      <trkpt lat="50.44767" lon="3.51182">
        <ele>30.3</ele>
        <time>2021-09-25T18:31:14.097Z</time>
      </trkpt>
      <trkpt lat="50.44773" lon="3.51175">
        <ele>30.2</ele>
        <time>2021-09-25T18:31:14.898Z</time>
      </trkpt>
      <trkpt lat="50.44781" lon="3.51166">
        <ele>30.2</ele>
        <time>2021-09-25T18:31:15.838Z</time>
      </trkpt>
      <trkpt lat="50.4479" lon="3.51153">
        <ele>30</ele>
        <time>2021-09-25T18:31:18.561Z</time>
      </trkpt>
      <trkpt lat="50.44794" lon="3.51147">
        <ele>30</ele>
        <time>2021-09-25T18:31:23.485Z</time>
      </trkpt>
      <trkpt lat="50.448" lon="3.51137">
        <ele>29.9</ele>
        <time>2021-09-25T18:31:24.307Z</time>
      </trkpt>
      <trkpt lat="50.44804" lon="3.5113">
        <ele>29.9</ele>
        <time>2021-09-25T18:31:24.949Z</time>
      </trkpt>
      <trkpt lat="50.44807" lon="3.51124">
        <ele>30</ele>
        <time>2021-09-25T18:31:28.962Z</time>
      </trkpt>
      <trkpt lat="50.44812" lon="3.51116">
        <ele>29.9</ele>
        <time>2021-09-25T18:31:35.158Z</time>
      </trkpt>
      <trkpt lat="50.44818" lon="3.51107">
        <ele>29.9</ele>
        <time>2021-09-25T18:31:39.338Z</time>
      </trkpt>
      <trkpt lat="50.44823" lon="3.51101">
        <ele>29.9</ele>
        <time>2021-09-25T18:31:39.899Z</time>
      </trkpt>
      <trkpt lat="50.44828" lon="3.51094">
        <ele>29.9</ele>
        <time>2021-09-25T18:31:42.467Z</time>
      </trkpt>
      <trkpt lat="50.44836" lon="3.51083">
        <ele>29.8</ele>
        <time>2021-09-25T18:31:43.492Z</time>
      </trkpt>
      <trkpt lat="50.44832" lon="3.51088">
        <ele>29.9</ele>
        <time>2021-09-25T18:31:44.554Z</time>
      </trkpt>
      <trkpt lat="50.4484" lon="3.51078">
        <ele>29.6</ele>
        <time>2021-09-25T18:31:53.326Z</time>
      </trkpt>
      <trkpt lat="50.44844" lon="3.51073">
        <ele>29.5</ele>
        <time>2021-09-25T18:31:57.290Z</time>
      </trkpt>
      <trkpt lat="50.44847" lon="3.51067">
        <ele>29.4</ele>
        <time>2021-09-25T18:32:01.659Z</time>
      </trkpt>
      <trkpt lat="50.4485" lon="3.51062">
        <ele>29.3</ele>
        <time>2021-09-25T18:32:02.109Z</time>
      </trkpt>
      <trkpt lat="50.44854" lon="3.51058">
        <ele>29.1</ele>
        <time>2021-09-25T18:32:02.554Z</time>
      </trkpt>
      <trkpt lat="50.44857" lon="3.51051">
        <ele>29.1</ele>
        <time>2021-09-25T18:32:03.064Z</time>
      </trkpt>
      <trkpt lat="50.44861" lon="3.51044">
        <ele>28.9</ele>
        <time>2021-09-25T18:32:08.068Z</time>
      </trkpt>
      <trkpt lat="50.44865" lon="3.5104">
        <ele>28.7</ele>
        <time>2021-09-25T18:32:08.530Z</time>
      </trkpt>
      <trkpt lat="50.4487" lon="3.51033">
        <ele>28.5</ele>
        <time>2021-09-25T18:32:14.678Z</time>
      </trkpt>
      <trkpt lat="50.44875" lon="3.51023">
        <ele>28.3</ele>
        <time>2021-09-25T18:32:15.506Z</time>
      </trkpt>
      <trkpt lat="50.44879" lon="3.51018">
        <ele>28.1</ele>
        <time>2021-09-25T18:32:15.974Z</time>
      </trkpt>
      <trkpt lat="50.44883" lon="3.51014">
        <ele>27.8</ele>
        <time>2021-09-25T18:32:19.906Z</time>
      </trkpt>
      <trkpt lat="50.44895" lon="3.51004">
        <ele>27</ele>
        <time>2021-09-25T18:32:21.272Z</time>
      </trkpt>
      <trkpt lat="50.449" lon="3.50998">
        <ele>26.6</ele>
        <time>2021-09-25T18:32:21.861Z</time>
      </trkpt>
      <trkpt lat="50.44904" lon="3.50993">
        <ele>26.3</ele>
        <time>2021-09-25T18:32:22.364Z</time>
      </trkpt>
      <trkpt lat="50.44907" lon="3.50988">
        <ele>26.2</ele>
        <time>2021-09-25T18:32:22.810Z</time>
      </trkpt>
      <trkpt lat="50.44911" lon="3.50981">
        <ele>26</ele>
        <time>2021-09-25T18:32:28.238Z</time>
      </trkpt>
      <trkpt lat="50.44915" lon="3.50975">
        <ele>25.7</ele>
        <time>2021-09-25T18:32:32.624Z</time>
      </trkpt>
      <trkpt lat="50.44919" lon="3.50964">
        <ele>25.7</ele>
        <time>2021-09-25T18:32:33.461Z</time>
      </trkpt>
      <trkpt lat="50.44922" lon="3.50958">
        <ele>25.7</ele>
        <time>2021-09-25T18:32:33.937Z</time>
      </trkpt>
      <trkpt lat="50.44925" lon="3.50951">
        <ele>25.8</ele>
        <time>2021-09-25T18:32:38.071Z</time>
      </trkpt>
      <trkpt lat="50.44931" lon="3.50939">
        <ele>25.8</ele>
        <time>2021-09-25T18:32:39.041Z</time>
      </trkpt>
      <trkpt lat="50.44934" lon="3.50933">
        <ele>25.9</ele>
        <time>2021-09-25T18:32:40.848Z</time>
      </trkpt>
      <trkpt lat="50.44943" lon="3.50926">
        <ele>25.7</ele>
        <time>2021-09-25T18:32:49.009Z</time>
      </trkpt>
      <trkpt lat="50.44949" lon="3.5092">
        <ele>25.7</ele>
        <time>2021-09-25T18:32:49.792Z</time>
      </trkpt>
      <trkpt lat="50.44955" lon="3.50908">
        <ele>25.9</ele>
        <time>2021-09-25T18:32:50.748Z</time>
      </trkpt>
      <trkpt lat="50.4496" lon="3.50903">
        <ele>25.9</ele>
        <time>2021-09-25T18:32:55.425Z</time>
      </trkpt>
      <trkpt lat="50.44964" lon="3.50899">
        <ele>26</ele>
        <time>2021-09-25T18:32:56.014Z</time>
      </trkpt>
      <trkpt lat="50.44973" lon="3.5089">
        <ele>26</ele>
        <time>2021-09-25T18:33:04.905Z</time>
      </trkpt>
      <trkpt lat="50.44969" lon="3.50894">
        <ele>26</ele>
        <time>2021-09-25T18:33:05.390Z</time>
      </trkpt>
      <trkpt lat="50.44978" lon="3.50884">
        <ele>26.2</ele>
        <time>2021-09-25T18:33:10.054Z</time>
      </trkpt>
      <trkpt lat="50.44983" lon="3.50876">
        <ele>26.4</ele>
        <time>2021-09-25T18:33:16.092Z</time>
      </trkpt>
      <trkpt lat="50.44986" lon="3.50871">
        <ele>26.5</ele>
        <time>2021-09-25T18:33:16.563Z</time>
      </trkpt>
      <trkpt lat="50.4499" lon="3.50866">
        <ele>26.6</ele>
        <time>2021-09-25T18:33:17.090Z</time>
      </trkpt>
      <trkpt lat="50.44997" lon="3.50859">
        <ele>26.8</ele>
        <time>2021-09-25T18:33:20.154Z</time>
      </trkpt>
      <trkpt lat="50.45" lon="3.50854">
        <ele>27</ele>
        <time>2021-09-25T18:33:24.286Z</time>
      </trkpt>
      <trkpt lat="50.45009" lon="3.50844">
        <ele>27.1</ele>
        <time>2021-09-25T18:33:25.320Z</time>
      </trkpt>
      <trkpt lat="50.45012" lon="3.5084">
        <ele>27.1</ele>
        <time>2021-09-25T18:33:27.008Z</time>
      </trkpt>
      <trkpt lat="50.4502" lon="3.50832">
        <ele>27.1</ele>
        <time>2021-09-25T18:33:31.678Z</time>
      </trkpt>
      <trkpt lat="50.45024" lon="3.50827">
        <ele>27.1</ele>
        <time>2021-09-25T18:33:32.201Z</time>
      </trkpt>
      <trkpt lat="50.45028" lon="3.50822">
        <ele>27.2</ele>
        <time>2021-09-25T18:33:34.360Z</time>
      </trkpt>
      <trkpt lat="50.45036" lon="3.50812">
        <ele>27.3</ele>
        <time>2021-09-25T18:33:35.372Z</time>
      </trkpt>
      <trkpt lat="50.45042" lon="3.50805">
        <ele>27.3</ele>
        <time>2021-09-25T18:33:36.063Z</time>
      </trkpt>
      <trkpt lat="50.45046" lon="3.50799">
        <ele>27.5</ele>
        <time>2021-09-25T18:33:36.808Z</time>
      </trkpt>
      <trkpt lat="50.45051" lon="3.50792">
        <ele>27.6</ele>
        <time>2021-09-25T18:33:37.494Z</time>
      </trkpt>
      <trkpt lat="50.45057" lon="3.50784">
        <ele>27.8</ele>
        <time>2021-09-25T18:33:38.279Z</time>
      </trkpt>
      <trkpt lat="50.45064" lon="3.50773">
        <ele>28.2</ele>
        <time>2021-09-25T18:33:46.250Z</time>
      </trkpt>
      <trkpt lat="50.45068" lon="3.50766">
        <ele>28.5</ele>
        <time>2021-09-25T18:33:51.187Z</time>
      </trkpt>
      <trkpt lat="50.45072" lon="3.50757">
        <ele>28.9</ele>
        <time>2021-09-25T18:33:51.940Z</time>
      </trkpt>
      <trkpt lat="50.45077" lon="3.50748">
        <ele>29.2</ele>
        <time>2021-09-25T18:33:58.097Z</time>
      </trkpt>
      <trkpt lat="50.4508" lon="3.5074">
        <ele>29.6</ele>
        <time>2021-09-25T18:33:58.689Z</time>
      </trkpt>
      <trkpt lat="50.45085" lon="3.50732">
        <ele>29.8</ele>
        <time>2021-09-25T18:33:59.404Z</time>
      </trkpt>
      <trkpt lat="50.4509" lon="3.5073">
        <ele>29.7</ele>
        <time>2021-09-25T18:34:02.987Z</time>
      </trkpt>
      <trkpt lat="50.45096" lon="3.50728">
        <ele>29.5</ele>
        <time>2021-09-25T18:34:03.568Z</time>
      </trkpt>
      <trkpt lat="50.45101" lon="3.50721">
        <ele>29.5</ele>
        <time>2021-09-25T18:34:09.483Z</time>
      </trkpt>
      <trkpt lat="50.45107" lon="3.50713">
        <ele>29.5</ele>
        <time>2021-09-25T18:34:10.268Z</time>
      </trkpt>
      <trkpt lat="50.45113" lon="3.50704">
        <ele>29.6</ele>
        <time>2021-09-25T18:34:17.281Z</time>
      </trkpt>
      <trkpt lat="50.45117" lon="3.50699">
        <ele>29.5</ele>
        <time>2021-09-25T18:34:21.514Z</time>
      </trkpt>
      <trkpt lat="50.45122" lon="3.5069">
        <ele>29.5</ele>
        <time>2021-09-25T18:34:22.271Z</time>
      </trkpt>
      <trkpt lat="50.45127" lon="3.50684">
        <ele>29.4</ele>
        <time>2021-09-25T18:34:22.935Z</time>
      </trkpt>
      <trkpt lat="50.45131" lon="3.50678">
        <ele>29.3</ele>
        <time>2021-09-25T18:34:25.881Z</time>
      </trkpt>
      <trkpt lat="50.45139" lon="3.50668">
        <ele>29</ele>
        <time>2021-09-25T18:34:26.849Z</time>
      </trkpt>
      <trkpt lat="50.45144" lon="3.50664">
        <ele>28.7</ele>
        <time>2021-09-25T18:34:28.315Z</time>
      </trkpt>
      <trkpt lat="50.45151" lon="3.50657">
        <ele>28.5</ele>
        <time>2021-09-25T18:34:35.434Z</time>
      </trkpt>
      <trkpt lat="50.45156" lon="3.50647">
        <ele>28.6</ele>
        <time>2021-09-25T18:34:36.224Z</time>
      </trkpt>
      <trkpt lat="50.45162" lon="3.50638">
        <ele>28.7</ele>
        <time>2021-09-25T18:34:37.083Z</time>
      </trkpt>
      <trkpt lat="50.45166" lon="3.50633">
        <ele>28.7</ele>
        <time>2021-09-25T18:34:41.153Z</time>
      </trkpt>
      <trkpt lat="50.45173" lon="3.50626">
        <ele>28.5</ele>
        <time>2021-09-25T18:34:41.899Z</time>
      </trkpt>
      <trkpt lat="50.45178" lon="3.50619">
        <ele>28.5</ele>
        <time>2021-09-25T18:34:47.950Z</time>
      </trkpt>
      <trkpt lat="50.45182" lon="3.50612">
        <ele>28.5</ele>
        <time>2021-09-25T18:34:48.586Z</time>
      </trkpt>
      <trkpt lat="50.45177" lon="3.50612">
        <ele>28.9</ele>
        <time>2021-09-25T18:34:53.028Z</time>
      </trkpt>
      <trkpt lat="50.45183" lon="3.50605">
        <ele>28.8</ele>
        <time>2021-09-25T18:34:53.750Z</time>
      </trkpt>
      <trkpt lat="50.4519" lon="3.50595">
        <ele>28.8</ele>
        <time>2021-09-25T18:34:54.690Z</time>
      </trkpt>
      <trkpt lat="50.45195" lon="3.5059">
        <ele>28.6</ele>
        <time>2021-09-25T18:34:55.283Z</time>
      </trkpt>
      <trkpt lat="50.45201" lon="3.50581">
        <ele>28.6</ele>
        <time>2021-09-25T18:34:57.032Z</time>
      </trkpt>
      <trkpt lat="50.45204" lon="3.50575">
        <ele>28.7</ele>
        <time>2021-09-25T18:35:01.202Z</time>
      </trkpt>
      <trkpt lat="50.45209" lon="3.50569">
        <ele>28.6</ele>
        <time>2021-09-25T18:35:06.789Z</time>
      </trkpt>
      <trkpt lat="50.45217" lon="3.50561">
        <ele>28.3</ele>
        <time>2021-09-25T18:35:07.702Z</time>
      </trkpt>
      <trkpt lat="50.45221" lon="3.50556">
        <ele>28.2</ele>
        <time>2021-09-25T18:35:08.202Z</time>
      </trkpt>
      <trkpt lat="50.45226" lon="3.5055">
        <ele>28</ele>
        <time>2021-09-25T18:35:13.016Z</time>
      </trkpt>
      <trkpt lat="50.45232" lon="3.5054">
        <ele>28</ele>
        <time>2021-09-25T18:35:13.959Z</time>
      </trkpt>
      <trkpt lat="50.45238" lon="3.50532">
        <ele>27.8</ele>
        <time>2021-09-25T18:35:16.589Z</time>
      </trkpt>
      <trkpt lat="50.45243" lon="3.50525">
        <ele>27.7</ele>
        <time>2021-09-25T18:35:22.458Z</time>
      </trkpt>
      <trkpt lat="50.45246" lon="3.50519">
        <ele>27.6</ele>
        <time>2021-09-25T18:35:26.827Z</time>
      </trkpt>
      <trkpt lat="50.45251" lon="3.50513">
        <ele>27.5</ele>
        <time>2021-09-25T18:35:27.361Z</time>
      </trkpt>
      <trkpt lat="50.45257" lon="3.50502">
        <ele>27.5</ele>
        <time>2021-09-25T18:35:29.757Z</time>
      </trkpt>
      <trkpt lat="50.45262" lon="3.50496">
        <ele>27.4</ele>
        <time>2021-09-25T18:35:30.361Z</time>
      </trkpt>
      <trkpt lat="50.45268" lon="3.50487">
        <ele>27.4</ele>
        <time>2021-09-25T18:35:37.892Z</time>
      </trkpt>
      <trkpt lat="50.45275" lon="3.50479">
        <ele>27.2</ele>
        <time>2021-09-25T18:35:38.677Z</time>
      </trkpt>
      <trkpt lat="50.4528" lon="3.50474">
        <ele>27</ele>
        <time>2021-09-25T18:35:44.145Z</time>
      </trkpt>
      <trkpt lat="50.45286" lon="3.50467">
        <ele>26.9</ele>
        <time>2021-09-25T18:35:46.708Z</time>
      </trkpt>
      <trkpt lat="50.4529" lon="3.50458">
        <ele>26.9</ele>
        <time>2021-09-25T18:35:52.880Z</time>
      </trkpt>
      <trkpt lat="50.45295" lon="3.50448">
        <ele>26.8</ele>
        <time>2021-09-25T18:35:53.694Z</time>
      </trkpt>
      <trkpt lat="50.453" lon="3.50442">
        <ele>26.7</ele>
        <time>2021-09-25T18:35:54.269Z</time>
      </trkpt>
      <trkpt lat="50.45303" lon="3.50438">
        <ele>26.6</ele>
        <time>2021-09-25T18:35:58.201Z</time>
      </trkpt>
      <trkpt lat="50.4531" lon="3.50432">
        <ele>26.3</ele>
        <time>2021-09-25T18:35:58.977Z</time>
      </trkpt>
      <trkpt lat="50.45315" lon="3.50427">
        <ele>26</ele>
        <time>2021-09-25T18:35:59.561Z</time>
      </trkpt>
      <trkpt lat="50.45319" lon="3.50422">
        <ele>25.9</ele>
        <time>2021-09-25T18:36:00.072Z</time>
      </trkpt>
      <trkpt lat="50.45325" lon="3.50414">
        <ele>25.7</ele>
        <time>2021-09-25T18:36:06.786Z</time>
      </trkpt>
      <trkpt lat="50.4533" lon="3.50403">
        <ele>25.6</ele>
        <time>2021-09-25T18:36:14.021Z</time>
      </trkpt>
      <trkpt lat="50.45334" lon="3.50398">
        <ele>25.5</ele>
        <time>2021-09-25T18:36:14.519Z</time>
      </trkpt>
      <trkpt lat="50.45338" lon="3.50392">
        <ele>25.7</ele>
        <time>2021-09-25T18:36:15.188Z</time>
      </trkpt>
      <trkpt lat="50.45344" lon="3.50387">
        <ele>26</ele>
        <time>2021-09-25T18:36:18.246Z</time>
      </trkpt>
      <trkpt lat="50.4535" lon="3.50378">
        <ele>26.3</ele>
        <time>2021-09-25T18:36:19.051Z</time>
      </trkpt>
      <trkpt lat="50.45352" lon="3.50372">
        <ele>26.5</ele>
        <time>2021-09-25T18:36:23.228Z</time>
      </trkpt>
      <trkpt lat="50.45355" lon="3.50366">
        <ele>26.7</ele>
        <time>2021-09-25T18:36:23.687Z</time>
      </trkpt>
      <trkpt lat="50.45358" lon="3.50358">
        <ele>27</ele>
        <time>2021-09-25T18:36:28.504Z</time>
      </trkpt>
      <trkpt lat="50.45362" lon="3.50352">
        <ele>27.2</ele>
        <time>2021-09-25T18:36:29.050Z</time>
      </trkpt>
      <trkpt lat="50.45367" lon="3.50349">
        <ele>27.4</ele>
        <time>2021-09-25T18:36:34.203Z</time>
      </trkpt>
      <trkpt lat="50.45371" lon="3.50345">
        <ele>27.6</ele>
        <time>2021-09-25T18:36:38.141Z</time>
      </trkpt>
      <trkpt lat="50.45378" lon="3.50338">
        <ele>28</ele>
        <time>2021-09-25T18:36:38.899Z</time>
      </trkpt>
      <trkpt lat="50.45381" lon="3.50332">
        <ele>28.1</ele>
        <time>2021-09-25T18:36:39.430Z</time>
      </trkpt>
      <trkpt lat="50.45385" lon="3.50325">
        <ele>28.1</ele>
        <time>2021-09-25T18:36:40.012Z</time>
      </trkpt>
      <trkpt lat="50.4539" lon="3.5032">
        <ele>28.1</ele>
        <time>2021-09-25T18:36:40.632Z</time>
      </trkpt>
      <trkpt lat="50.45394" lon="3.50315">
        <ele>28.1</ele>
        <time>2021-09-25T18:36:44.767Z</time>
      </trkpt>
      <trkpt lat="50.45399" lon="3.50309">
        <ele>28.2</ele>
        <time>2021-09-25T18:36:45.353Z</time>
      </trkpt>
      <trkpt lat="50.45402" lon="3.50302">
        <ele>28.1</ele>
        <time>2021-09-25T18:36:45.955Z</time>
      </trkpt>
      <trkpt lat="50.45405" lon="3.50296">
        <ele>28.1</ele>
        <time>2021-09-25T18:36:49.923Z</time>
      </trkpt>
      <trkpt lat="50.4541" lon="3.50289">
        <ele>28.2</ele>
        <time>2021-09-25T18:36:50.532Z</time>
      </trkpt>
      <trkpt lat="50.45414" lon="3.50283">
        <ele>28.3</ele>
        <time>2021-09-25T18:36:51.138Z</time>
      </trkpt>
      <trkpt lat="50.45422" lon="3.50274">
        <ele>28.5</ele>
        <time>2021-09-25T18:36:59.438Z</time>
      </trkpt>
      <trkpt lat="50.45427" lon="3.50266">
        <ele>28.6</ele>
        <time>2021-09-25T18:37:00.153Z</time>
      </trkpt>
      <trkpt lat="50.4543" lon="3.50261">
        <ele>28.7</ele>
        <time>2021-09-25T18:37:04.058Z</time>
      </trkpt>
      <trkpt lat="50.45434" lon="3.50257">
        <ele>28.9</ele>
        <time>2021-09-25T18:37:05.095Z</time>
      </trkpt>
      <trkpt lat="50.4544" lon="3.5025">
        <ele>29.1</ele>
        <time>2021-09-25T18:37:06.654Z</time>
      </trkpt>
      <trkpt lat="50.45444" lon="3.50245">
        <ele>29.4</ele>
        <time>2021-09-25T18:37:10.821Z</time>
      </trkpt>
      <trkpt lat="50.45448" lon="3.50242">
        <ele>29.6</ele>
        <time>2021-09-25T18:37:14.713Z</time>
      </trkpt>
      <trkpt lat="50.45453" lon="3.50237">
        <ele>29.9</ele>
        <time>2021-09-25T18:37:15.324Z</time>
      </trkpt>
      <trkpt lat="50.45456" lon="3.50232">
        <ele>30.1</ele>
        <time>2021-09-25T18:37:19.223Z</time>
      </trkpt>
      <trkpt lat="50.4546" lon="3.50227">
        <ele>30.4</ele>
        <time>2021-09-25T18:37:19.699Z</time>
      </trkpt>
      <trkpt lat="50.45469" lon="3.50218">
        <ele>31</ele>
        <time>2021-09-25T18:37:28.568Z</time>
      </trkpt>
      <trkpt lat="50.45473" lon="3.50214">
        <ele>31.3</ele>
        <time>2021-09-25T18:37:29.078Z</time>
      </trkpt>
      <trkpt lat="50.45481" lon="3.50207">
        <ele>31.9</ele>
        <time>2021-09-25T18:37:36.531Z</time>
      </trkpt>
      <trkpt lat="50.45487" lon="3.50201">
        <ele>32.4</ele>
        <time>2021-09-25T18:37:42.810Z</time>
      </trkpt>
      <trkpt lat="50.45494" lon="3.50193">
        <ele>33</ele>
        <time>2021-09-25T18:37:45.234Z</time>
      </trkpt>
      <trkpt lat="50.45499" lon="3.50189">
        <ele>33.4</ele>
        <time>2021-09-25T18:37:45.823Z</time>
      </trkpt>
      <trkpt lat="50.45504" lon="3.50186">
        <ele>33.6</ele>
        <time>2021-09-25T18:37:48.703Z</time>
      </trkpt>
      <trkpt lat="50.45511" lon="3.50178">
        <ele>33.9</ele>
        <time>2021-09-25T18:37:55.982Z</time>
      </trkpt>
      <trkpt lat="50.45514" lon="3.50172">
        <ele>34</ele>
        <time>2021-09-25T18:37:56.539Z</time>
      </trkpt>
      <trkpt lat="50.45519" lon="3.50162">
        <ele>34</ele>
        <time>2021-09-25T18:38:03.205Z</time>
      </trkpt>
      <trkpt lat="50.45522" lon="3.50155">
        <ele>33.6</ele>
        <time>2021-09-25T18:38:05.588Z</time>
      </trkpt>
      <trkpt lat="50.45525" lon="3.50148">
        <ele>33.2</ele>
        <time>2021-09-25T18:38:06.194Z</time>
      </trkpt>
      <trkpt lat="50.45529" lon="3.50141">
        <ele>32.9</ele>
        <time>2021-09-25T18:38:10.982Z</time>
      </trkpt>
      <trkpt lat="50.45532" lon="3.50136">
        <ele>32.7</ele>
        <time>2021-09-25T18:38:11.426Z</time>
      </trkpt>
      <trkpt lat="50.45538" lon="3.50125">
        <ele>32.2</ele>
        <time>2021-09-25T18:38:12.379Z</time>
      </trkpt>
      <trkpt lat="50.45542" lon="3.50117">
        <ele>31.8</ele>
        <time>2021-09-25T18:38:12.966Z</time>
      </trkpt>
      <trkpt lat="50.45546" lon="3.50108">
        <ele>31.4</ele>
        <time>2021-09-25T18:38:16.564Z</time>
      </trkpt>
      <trkpt lat="50.4555" lon="3.50102">
        <ele>31.2</ele>
        <time>2021-09-25T18:38:17.121Z</time>
      </trkpt>
      <trkpt lat="50.45557" lon="3.50095">
        <ele>31</ele>
        <time>2021-09-25T18:38:23.603Z</time>
      </trkpt>
      <trkpt lat="50.45561" lon="3.50092">
        <ele>30.9</ele>
        <time>2021-09-25T18:38:27.495Z</time>
      </trkpt>
      <trkpt lat="50.45567" lon="3.50084">
        <ele>30.6</ele>
        <time>2021-09-25T18:38:34.118Z</time>
      </trkpt>
      <trkpt lat="50.45571" lon="3.50079">
        <ele>30.5</ele>
        <time>2021-09-25T18:38:35.548Z</time>
      </trkpt>
      <trkpt lat="50.45576" lon="3.50071">
        <ele>30.4</ele>
        <time>2021-09-25T18:38:36.240Z</time>
      </trkpt>
      <trkpt lat="50.45581" lon="3.50063">
        <ele>30.2</ele>
        <time>2021-09-25T18:38:36.971Z</time>
      </trkpt>
      <trkpt lat="50.45588" lon="3.50054">
        <ele>29.8</ele>
        <time>2021-09-25T18:38:37.858Z</time>
      </trkpt>
      <trkpt lat="50.45596" lon="3.50043">
        <ele>29.2</ele>
        <time>2021-09-25T18:38:38.938Z</time>
      </trkpt>
      <trkpt lat="50.456" lon="3.50037">
        <ele>28.9</ele>
        <time>2021-09-25T18:38:39.478Z</time>
      </trkpt>
      <trkpt lat="50.45608" lon="3.50024">
        <ele>28.3</ele>
        <time>2021-09-25T18:38:40.583Z</time>
      </trkpt>
      <trkpt lat="50.4561" lon="3.50018">
        <ele>28.1</ele>
        <time>2021-09-25T18:38:44.551Z</time>
      </trkpt>
      <trkpt lat="50.45613" lon="3.50013">
        <ele>27.9</ele>
        <time>2021-09-25T18:38:45.007Z</time>
      </trkpt>
      <trkpt lat="50.45619" lon="3.50003">
        <ele>27.6</ele>
        <time>2021-09-25T18:38:51.796Z</time>
      </trkpt>
      <trkpt lat="50.45624" lon="3.49996">
        <ele>27.4</ele>
        <time>2021-09-25T18:38:52.525Z</time>
      </trkpt>
      <trkpt lat="50.4563" lon="3.49991">
        <ele>27.2</ele>
        <time>2021-09-25T18:38:58.442Z</time>
      </trkpt>
      <trkpt lat="50.45638" lon="3.49979">
        <ele>26.8</ele>
        <time>2021-09-25T18:39:00.018Z</time>
      </trkpt>
      <trkpt lat="50.45646" lon="3.49969">
        <ele>26.6</ele>
        <time>2021-09-25T18:39:05.791Z</time>
      </trkpt>
      <trkpt lat="50.45652" lon="3.49962">
        <ele>26.5</ele>
        <time>2021-09-25T18:39:09.904Z</time>
      </trkpt>
      <trkpt lat="50.45657" lon="3.49955">
        <ele>26.4</ele>
        <time>2021-09-25T18:39:10.571Z</time>
      </trkpt>
      <trkpt lat="50.45661" lon="3.4995">
        <ele>26.3</ele>
        <time>2021-09-25T18:39:11.055Z</time>
      </trkpt>
      <trkpt lat="50.45665" lon="3.49945">
        <ele>26.3</ele>
        <time>2021-09-25T18:39:11.578Z</time>
      </trkpt>
      <trkpt lat="50.45672" lon="3.49935">
        <ele>26.3</ele>
        <time>2021-09-25T18:39:12.683Z</time>
      </trkpt>
      <trkpt lat="50.45675" lon="3.4993">
        <ele>26.2</ele>
        <time>2021-09-25T18:39:16.833Z</time>
      </trkpt>
      <trkpt lat="50.45679" lon="3.49922">
        <ele>26.2</ele>
        <time>2021-09-25T18:39:17.482Z</time>
      </trkpt>
      <trkpt lat="50.45684" lon="3.49916">
        <ele>26.2</ele>
        <time>2021-09-25T18:39:22.823Z</time>
      </trkpt>
      <trkpt lat="50.45691" lon="3.49908">
        <ele>26.3</ele>
        <time>2021-09-25T18:39:29.643Z</time>
      </trkpt>
      <trkpt lat="50.45695" lon="3.49903">
        <ele>26.3</ele>
        <time>2021-09-25T18:39:30.185Z</time>
      </trkpt>
      <trkpt lat="50.45699" lon="3.49898">
        <ele>26.4</ele>
        <time>2021-09-25T18:39:30.665Z</time>
      </trkpt>
      <trkpt lat="50.45703" lon="3.49892">
        <ele>26.4</ele>
        <time>2021-09-25T18:39:31.247Z</time>
      </trkpt>
      <trkpt lat="50.45707" lon="3.49887">
        <ele>26.5</ele>
        <time>2021-09-25T18:39:31.756Z</time>
      </trkpt>
      <trkpt lat="50.45713" lon="3.49878">
        <ele>26.6</ele>
        <time>2021-09-25T18:39:38.905Z</time>
      </trkpt>
      <trkpt lat="50.45719" lon="3.49868">
        <ele>26.6</ele>
        <time>2021-09-25T18:39:39.732Z</time>
      </trkpt>
      <trkpt lat="50.45722" lon="3.49863">
        <ele>26.7</ele>
        <time>2021-09-25T18:39:41.132Z</time>
      </trkpt>
      <trkpt lat="50.45726" lon="3.49858">
        <ele>26.7</ele>
        <time>2021-09-25T18:39:41.787Z</time>
      </trkpt>
      <trkpt lat="50.45731" lon="3.4985">
        <ele>26.8</ele>
        <time>2021-09-25T18:39:42.510Z</time>
      </trkpt>
      <trkpt lat="50.45735" lon="3.49845">
        <ele>26.8</ele>
        <time>2021-09-25T18:39:43.003Z</time>
      </trkpt>
      <trkpt lat="50.45741" lon="3.49836">
        <ele>26.9</ele>
        <time>2021-09-25T18:39:50.178Z</time>
      </trkpt>
      <trkpt lat="50.45747" lon="3.49827">
        <ele>26.8</ele>
        <time>2021-09-25T18:39:50.950Z</time>
      </trkpt>
      <trkpt lat="50.45751" lon="3.49819">
        <ele>26.7</ele>
        <time>2021-09-25T18:39:56.560Z</time>
      </trkpt>
      <trkpt lat="50.45754" lon="3.49812">
        <ele>26.5</ele>
        <time>2021-09-25T18:39:57.148Z</time>
      </trkpt>
      <trkpt lat="50.45751" lon="3.49804">
        <ele>26.3</ele>
        <time>2021-09-25T18:40:01.965Z</time>
      </trkpt>
      <trkpt lat="50.45748" lon="3.498">
        <ele>26.2</ele>
        <time>2021-09-25T18:40:02.422Z</time>
      </trkpt>
      <trkpt lat="50.45744" lon="3.49794">
        <ele>26</ele>
        <time>2021-09-25T18:40:02.948Z</time>
      </trkpt>
      <trkpt lat="50.45738" lon="3.49792">
        <ele>25.9</ele>
        <time>2021-09-25T18:40:07.892Z</time>
      </trkpt>
      <trkpt lat="50.4573" lon="3.49787">
        <ele>25.6</ele>
        <time>2021-09-25T18:40:09.135Z</time>
      </trkpt>
      <trkpt lat="50.45721" lon="3.49778">
        <ele>25.3</ele>
        <time>2021-09-25T18:40:13.281Z</time>
      </trkpt>
      <trkpt lat="50.45716" lon="3.49767">
        <ele>25</ele>
        <time>2021-09-25T18:40:14.166Z</time>
      </trkpt>
      <trkpt lat="50.45709" lon="3.49762">
        <ele>24.8</ele>
        <time>2021-09-25T18:40:14.944Z</time>
      </trkpt>
      <trkpt lat="50.45704" lon="3.49759">
        <ele>24.7</ele>
        <time>2021-09-25T18:40:19.843Z</time>
      </trkpt>
      <trkpt lat="50.45698" lon="3.49754">
        <ele>24.5</ele>
        <time>2021-09-25T18:40:24.836Z</time>
      </trkpt>
      <trkpt lat="50.45692" lon="3.4975">
        <ele>24.3</ele>
        <time>2021-09-25T18:40:30.161Z</time>
      </trkpt>
      <trkpt lat="50.45684" lon="3.4974">
        <ele>24.1</ele>
        <time>2021-09-25T18:40:31.249Z</time>
      </trkpt>
      <trkpt lat="50.45679" lon="3.49735">
        <ele>24</ele>
        <time>2021-09-25T18:40:35.795Z</time>
      </trkpt>
      <trkpt lat="50.45673" lon="3.49728">
        <ele>23.8</ele>
        <time>2021-09-25T18:40:36.517Z</time>
      </trkpt>
      <trkpt lat="50.45665" lon="3.49721">
        <ele>23.6</ele>
        <time>2021-09-25T18:40:40.347Z</time>
      </trkpt>
      <trkpt lat="50.45661" lon="3.49718">
        <ele>23.4</ele>
        <time>2021-09-25T18:40:40.809Z</time>
      </trkpt>
      <trkpt lat="50.45649" lon="3.49705">
        <ele>22.9</ele>
        <time>2021-09-25T18:40:42.754Z</time>
      </trkpt>
      <trkpt lat="50.45644" lon="3.497">
        <ele>22.7</ele>
        <time>2021-09-25T18:40:43.333Z</time>
      </trkpt>
      <trkpt lat="50.45636" lon="3.49692">
        <ele>22.5</ele>
        <time>2021-09-25T18:40:44.286Z</time>
      </trkpt>
      <trkpt lat="50.45632" lon="3.49687">
        <ele>22.3</ele>
        <time>2021-09-25T18:40:45.010Z</time>
      </trkpt>
      <trkpt lat="50.45622" lon="3.49677">
        <ele>22</ele>
        <time>2021-09-25T18:40:46.186Z</time>
      </trkpt>
      <trkpt lat="50.4561" lon="3.4967">
        <ele>21.7</ele>
        <time>2021-09-25T18:40:57.000Z</time>
      </trkpt>
      <trkpt lat="50.45601" lon="3.49661">
        <ele>21.6</ele>
        <time>2021-09-25T18:40:58.089Z</time>
      </trkpt>
      <trkpt lat="50.45596" lon="3.49654">
        <ele>21.6</ele>
        <time>2021-09-25T18:41:03.603Z</time>
      </trkpt>
      <trkpt lat="50.45587" lon="3.49644">
        <ele>21.6</ele>
        <time>2021-09-25T18:41:04.738Z</time>
      </trkpt>
      <trkpt lat="50.45582" lon="3.49639">
        <ele>21.7</ele>
        <time>2021-09-25T18:41:09.325Z</time>
      </trkpt>
      <trkpt lat="50.45573" lon="3.49631">
        <ele>22</ele>
        <time>2021-09-25T18:41:10.412Z</time>
      </trkpt>
      <trkpt lat="50.45567" lon="3.49627">
        <ele>22.1</ele>
        <time>2021-09-25T18:41:11.040Z</time>
      </trkpt>
      <trkpt lat="50.45557" lon="3.49618">
        <ele>22.5</ele>
        <time>2021-09-25T18:41:20.690Z</time>
      </trkpt>
      <trkpt lat="50.45552" lon="3.49612">
        <ele>22.8</ele>
        <time>2021-09-25T18:41:21.292Z</time>
      </trkpt>
      <trkpt lat="50.45542" lon="3.49602">
        <ele>23.3</ele>
        <time>2021-09-25T18:41:22.485Z</time>
      </trkpt>
      <trkpt lat="50.45537" lon="3.49598">
        <ele>23.6</ele>
        <time>2021-09-25T18:41:27.531Z</time>
      </trkpt>
      <trkpt lat="50.45532" lon="3.49594">
        <ele>23.8</ele>
        <time>2021-09-25T18:41:32.531Z</time>
      </trkpt>
      <trkpt lat="50.45527" lon="3.49591">
        <ele>24</ele>
        <time>2021-09-25T18:41:36.998Z</time>
      </trkpt>
      <trkpt lat="50.45522" lon="3.49586">
        <ele>24.4</ele>
        <time>2021-09-25T18:41:37.558Z</time>
      </trkpt>
      <trkpt lat="50.45517" lon="3.49582">
        <ele>24.6</ele>
        <time>2021-09-25T18:41:42.536Z</time>
      </trkpt>
      <trkpt lat="50.45513" lon="3.49576">
        <ele>25</ele>
        <time>2021-09-25T18:41:43.070Z</time>
      </trkpt>
      <trkpt lat="50.45504" lon="3.49566">
        <ele>25.7</ele>
        <time>2021-09-25T18:41:47.495Z</time>
      </trkpt>
      <trkpt lat="50.45496" lon="3.49557">
        <ele>26.2</ele>
        <time>2021-09-25T18:41:48.498Z</time>
      </trkpt>
      <trkpt lat="50.45486" lon="3.49544">
        <ele>26.8</ele>
        <time>2021-09-25T18:41:59.015Z</time>
      </trkpt>
      <trkpt lat="50.45479" lon="3.49535">
        <ele>27.2</ele>
        <time>2021-09-25T18:41:59.948Z</time>
      </trkpt>
      <trkpt lat="50.45476" lon="3.49526">
        <ele>27.6</ele>
        <time>2021-09-25T18:42:00.549Z</time>
      </trkpt>
      <trkpt lat="50.45473" lon="3.49521">
        <ele>27.7</ele>
        <time>2021-09-25T18:42:01.025Z</time>
      </trkpt>
      <trkpt lat="50.45465" lon="3.49516">
        <ele>27.9</ele>
        <time>2021-09-25T18:42:08.718Z</time>
      </trkpt>
      <trkpt lat="50.4546" lon="3.49513">
        <ele>28</ele>
        <time>2021-09-25T18:42:09.238Z</time>
      </trkpt>
      <trkpt lat="50.45454" lon="3.49509">
        <ele>28.1</ele>
        <time>2021-09-25T18:42:09.898Z</time>
      </trkpt>
      <trkpt lat="50.45449" lon="3.49505">
        <ele>28.2</ele>
        <time>2021-09-25T18:42:14.592Z</time>
      </trkpt>
      <trkpt lat="50.45442" lon="3.49498">
        <ele>28.4</ele>
        <time>2021-09-25T18:42:21.551Z</time>
      </trkpt>
      <trkpt lat="50.45436" lon="3.49493">
        <ele>28.5</ele>
        <time>2021-09-25T18:42:23.221Z</time>
      </trkpt>
      <trkpt lat="50.4543" lon="3.49489">
        <ele>28.5</ele>
        <time>2021-09-25T18:42:23.895Z</time>
      </trkpt>
      <trkpt lat="50.45426" lon="3.49484">
        <ele>28.7</ele>
        <time>2021-09-25T18:42:24.416Z</time>
      </trkpt>
      <trkpt lat="50.45422" lon="3.4948">
        <ele>28.8</ele>
        <time>2021-09-25T18:42:28.438Z</time>
      </trkpt>
      <trkpt lat="50.45417" lon="3.49476">
        <ele>28.9</ele>
        <time>2021-09-25T18:42:28.928Z</time>
      </trkpt>
      <trkpt lat="50.45413" lon="3.49473">
        <ele>28.9</ele>
        <time>2021-09-25T18:42:29.391Z</time>
      </trkpt>
      <trkpt lat="50.45409" lon="3.4947">
        <ele>28.9</ele>
        <time>2021-09-25T18:42:29.879Z</time>
      </trkpt>
      <trkpt lat="50.45404" lon="3.49467">
        <ele>28.9</ele>
        <time>2021-09-25T18:42:34.312Z</time>
      </trkpt>
      <trkpt lat="50.45398" lon="3.49464">
        <ele>28.9</ele>
        <time>2021-09-25T18:42:39.519Z</time>
      </trkpt>
      <trkpt lat="50.45389" lon="3.49462">
        <ele>28.9</ele>
        <time>2021-09-25T18:42:41.442Z</time>
      </trkpt>
      <trkpt lat="50.45384" lon="3.49462">
        <ele>28.8</ele>
        <time>2021-09-25T18:42:42.018Z</time>
      </trkpt>
      <trkpt lat="50.45378" lon="3.49463">
        <ele>28.6</ele>
        <time>2021-09-25T18:42:46.566Z</time>
      </trkpt>
      <trkpt lat="50.45373" lon="3.49463">
        <ele>28.5</ele>
        <time>2021-09-25T18:42:47.183Z</time>
      </trkpt>
      <trkpt lat="50.45368" lon="3.49461">
        <ele>28.5</ele>
        <time>2021-09-25T18:42:50.689Z</time>
      </trkpt>
      <trkpt lat="50.45361" lon="3.49459">
        <ele>28.5</ele>
        <time>2021-09-25T18:42:57.019Z</time>
      </trkpt>
      <trkpt lat="50.45349" lon="3.49449">
        <ele>28.7</ele>
        <time>2021-09-25T18:42:58.680Z</time>
      </trkpt>
      <trkpt lat="50.45344" lon="3.49441">
        <ele>29</ele>
        <time>2021-09-25T18:43:04.681Z</time>
      </trkpt>
      <trkpt lat="50.45341" lon="3.49431">
        <ele>29.4</ele>
        <time>2021-09-25T18:43:05.413Z</time>
      </trkpt>
      <trkpt lat="50.45339" lon="3.49415">
        <ele>30.1</ele>
        <time>2021-09-25T18:43:06.756Z</time>
      </trkpt>
      <trkpt lat="50.45335" lon="3.49408">
        <ele>30.4</ele>
        <time>2021-09-25T18:43:07.327Z</time>
      </trkpt>
      <trkpt lat="50.45328" lon="3.49401">
        <ele>30.8</ele>
        <time>2021-09-25T18:43:11.173Z</time>
      </trkpt>
      <trkpt lat="50.45323" lon="3.49396">
        <ele>31.1</ele>
        <time>2021-09-25T18:43:16.280Z</time>
      </trkpt>
      <trkpt lat="50.45319" lon="3.49392">
        <ele>31.3</ele>
        <time>2021-09-25T18:43:16.742Z</time>
      </trkpt>
      <trkpt lat="50.45313" lon="3.49386">
        <ele>31.6</ele>
        <time>2021-09-25T18:43:22.327Z</time>
      </trkpt>
      <trkpt lat="50.45306" lon="3.49377">
        <ele>31.9</ele>
        <time>2021-09-25T18:43:28.872Z</time>
      </trkpt>
      <trkpt lat="50.45301" lon="3.49372">
        <ele>32.1</ele>
        <time>2021-09-25T18:43:33.951Z</time>
      </trkpt>
      <trkpt lat="50.45295" lon="3.4937">
        <ele>32.1</ele>
        <time>2021-09-25T18:43:34.604Z</time>
      </trkpt>
      <trkpt lat="50.45285" lon="3.49363">
        <ele>32.2</ele>
        <time>2021-09-25T18:43:36.293Z</time>
      </trkpt>
      <trkpt lat="50.4528" lon="3.49359">
        <ele>32.3</ele>
        <time>2021-09-25T18:43:40.967Z</time>
      </trkpt>
      <trkpt lat="50.45276" lon="3.49354">
        <ele>32.3</ele>
        <time>2021-09-25T18:43:41.505Z</time>
      </trkpt>
      <trkpt lat="50.45266" lon="3.49346">
        <ele>32.3</ele>
        <time>2021-09-25T18:43:50.752Z</time>
      </trkpt>
      <trkpt lat="50.45262" lon="3.49342">
        <ele>32.2</ele>
        <time>2021-09-25T18:43:55.066Z</time>
      </trkpt>
      <trkpt lat="50.45258" lon="3.49338">
        <ele>32.2</ele>
        <time>2021-09-25T18:43:59.262Z</time>
      </trkpt>
      <trkpt lat="50.45254" lon="3.49333">
        <ele>32.1</ele>
        <time>2021-09-25T18:44:03.629Z</time>
      </trkpt>
      <trkpt lat="50.4525" lon="3.49328">
        <ele>32.1</ele>
        <time>2021-09-25T18:44:04.106Z</time>
      </trkpt>
      <trkpt lat="50.45246" lon="3.49323">
        <ele>32.1</ele>
        <time>2021-09-25T18:44:04.585Z</time>
      </trkpt>
      <trkpt lat="50.45236" lon="3.49316">
        <ele>32</ele>
        <time>2021-09-25T18:44:14.123Z</time>
      </trkpt>
      <trkpt lat="50.45232" lon="3.49311">
        <ele>32.1</ele>
        <time>2021-09-25T18:44:16.603Z</time>
      </trkpt>
      <trkpt lat="50.45228" lon="3.49306">
        <ele>32.1</ele>
        <time>2021-09-25T18:44:17.091Z</time>
      </trkpt>
      <trkpt lat="50.45219" lon="3.49299">
        <ele>32</ele>
        <time>2021-09-25T18:44:25.316Z</time>
      </trkpt>
      <trkpt lat="50.45215" lon="3.49296">
        <ele>32</ele>
        <time>2021-09-25T18:44:25.783Z</time>
      </trkpt>
      <trkpt lat="50.45207" lon="3.49284">
        <ele>32.1</ele>
        <time>2021-09-25T18:44:35.031Z</time>
      </trkpt>
      <trkpt lat="50.452" lon="3.49278">
        <ele>32.1</ele>
        <time>2021-09-25T18:44:35.822Z</time>
      </trkpt>
      <trkpt lat="50.45194" lon="3.49268">
        <ele>32.1</ele>
        <time>2021-09-25T18:44:36.697Z</time>
      </trkpt>
      <trkpt lat="50.45189" lon="3.49263">
        <ele>32.1</ele>
        <time>2021-09-25T18:44:38.182Z</time>
      </trkpt>
      <trkpt lat="50.45185" lon="3.49259">
        <ele>32.1</ele>
        <time>2021-09-25T18:44:42.840Z</time>
      </trkpt>
      <trkpt lat="50.45178" lon="3.49252">
        <ele>32.1</ele>
        <time>2021-09-25T18:44:43.621Z</time>
      </trkpt>
      <trkpt lat="50.45173" lon="3.49246">
        <ele>32.1</ele>
        <time>2021-09-25T18:44:46.720Z</time>
      </trkpt>
      <trkpt lat="50.45169" lon="3.49242">
        <ele>32.1</ele>
        <time>2021-09-25T18:44:47.191Z</time>
      </trkpt>
      <trkpt lat="50.45164" lon="3.49237">
        <ele>32.2</ele>
        <time>2021-09-25T18:44:51.399Z</time>
      </trkpt>
      <trkpt lat="50.45158" lon="3.49231">
        <ele>32.3</ele>
        <time>2021-09-25T18:44:57.160Z</time>
      </trkpt>
      <trkpt lat="50.45154" lon="3.49226">
        <ele>32.4</ele>
        <time>2021-09-25T18:44:57.694Z</time>
      </trkpt>
      <trkpt lat="50.4515" lon="3.4922">
        <ele>32.5</ele>
        <time>2021-09-25T18:45:02.454Z</time>
      </trkpt>
      <trkpt lat="50.45144" lon="3.49211">
        <ele>32.6</ele>
        <time>2021-09-25T18:45:05.212Z</time>
      </trkpt>
      <trkpt lat="50.4514" lon="3.49207">
        <ele>32.7</ele>
        <time>2021-09-25T18:45:06.563Z</time>
      </trkpt>
      <trkpt lat="50.45135" lon="3.49203">
        <ele>32.7</ele>
        <time>2021-09-25T18:45:07.651Z</time>
      </trkpt>
      <trkpt lat="50.45129" lon="3.49197">
        <ele>32.8</ele>
        <time>2021-09-25T18:45:09.312Z</time>
      </trkpt>
      <trkpt lat="50.45124" lon="3.49194">
        <ele>32.8</ele>
        <time>2021-09-25T18:45:11.739Z</time>
      </trkpt>
      <trkpt lat="50.45118" lon="3.49189">
        <ele>32.9</ele>
        <time>2021-09-25T18:45:12.480Z</time>
      </trkpt>
      <trkpt lat="50.4511" lon="3.49184">
        <ele>32.9</ele>
        <time>2021-09-25T18:45:19.305Z</time>
      </trkpt>
      <trkpt lat="50.45104" lon="3.49178">
        <ele>33</ele>
        <time>2021-09-25T18:45:20.048Z</time>
      </trkpt>
      <trkpt lat="50.45098" lon="3.49172">
        <ele>33</ele>
        <time>2021-09-25T18:45:20.713Z</time>
      </trkpt>
      <trkpt lat="50.4509" lon="3.49165">
        <ele>33</ele>
        <time>2021-09-25T18:45:27.324Z</time>
      </trkpt>
      <trkpt lat="50.45084" lon="3.49159">
        <ele>33.1</ele>
        <time>2021-09-25T18:45:28.030Z</time>
      </trkpt>
      <trkpt lat="50.45078" lon="3.49152">
        <ele>33</ele>
        <time>2021-09-25T18:45:28.818Z</time>
      </trkpt>
      <trkpt lat="50.45073" lon="3.49146">
        <ele>33</ele>
        <time>2021-09-25T18:45:33.656Z</time>
      </trkpt>
      <trkpt lat="50.45067" lon="3.4914">
        <ele>32.9</ele>
        <time>2021-09-25T18:45:39.995Z</time>
      </trkpt>
      <trkpt lat="50.4506" lon="3.49133">
        <ele>32.7</ele>
        <time>2021-09-25T18:45:44.620Z</time>
      </trkpt>
      <trkpt lat="50.45053" lon="3.49126">
        <ele>32.6</ele>
        <time>2021-09-25T18:45:45.451Z</time>
      </trkpt>
      <trkpt lat="50.45046" lon="3.49119">
        <ele>32.4</ele>
        <time>2021-09-25T18:45:46.287Z</time>
      </trkpt>
      <trkpt lat="50.4504" lon="3.49112">
        <ele>32.3</ele>
        <time>2021-09-25T18:45:47.029Z</time>
      </trkpt>
      <trkpt lat="50.45033" lon="3.49105">
        <ele>32.1</ele>
        <time>2021-09-25T18:45:53.931Z</time>
      </trkpt>
      <trkpt lat="50.45028" lon="3.491">
        <ele>31.9</ele>
        <time>2021-09-25T18:45:54.590Z</time>
      </trkpt>
      <trkpt lat="50.45021" lon="3.49095">
        <ele>31.7</ele>
        <time>2021-09-25T18:45:56.853Z</time>
      </trkpt>
      <trkpt lat="50.45017" lon="3.4909">
        <ele>31.6</ele>
        <time>2021-09-25T18:46:00.922Z</time>
      </trkpt>
      <trkpt lat="50.4501" lon="3.49082">
        <ele>31.4</ele>
        <time>2021-09-25T18:46:01.754Z</time>
      </trkpt>
      <trkpt lat="50.45004" lon="3.49076">
        <ele>31.1</ele>
        <time>2021-09-25T18:46:07.950Z</time>
      </trkpt>
      <trkpt lat="50.44998" lon="3.4907">
        <ele>31</ele>
        <time>2021-09-25T18:46:11.541Z</time>
      </trkpt>
      <trkpt lat="50.44991" lon="3.49064">
        <ele>30.9</ele>
        <time>2021-09-25T18:46:12.309Z</time>
      </trkpt>
      <trkpt lat="50.44986" lon="3.49059">
        <ele>30.8</ele>
        <time>2021-09-25T18:46:12.911Z</time>
      </trkpt>
      <trkpt lat="50.44979" lon="3.49051">
        <ele>30.7</ele>
        <time>2021-09-25T18:46:13.781Z</time>
      </trkpt>
      <trkpt lat="50.44972" lon="3.49044">
        <ele>30.7</ele>
        <time>2021-09-25T18:46:17.880Z</time>
      </trkpt>
      <trkpt lat="50.44964" lon="3.49036">
        <ele>30.6</ele>
        <time>2021-09-25T18:46:18.995Z</time>
      </trkpt>
      <trkpt lat="50.44958" lon="3.4903">
        <ele>30.5</ele>
        <time>2021-09-25T18:46:19.729Z</time>
      </trkpt>
      <trkpt lat="50.44954" lon="3.49024">
        <ele>30.4</ele>
        <time>2021-09-25T18:46:24.634Z</time>
      </trkpt>
      <trkpt lat="50.44947" lon="3.49015">
        <ele>30.4</ele>
        <time>2021-09-25T18:46:25.502Z</time>
      </trkpt>
      <trkpt lat="50.44943" lon="3.4901">
        <ele>30.3</ele>
        <time>2021-09-25T18:46:29.668Z</time>
      </trkpt>
      <trkpt lat="50.44937" lon="3.49004">
        <ele>30.2</ele>
        <time>2021-09-25T18:46:30.412Z</time>
      </trkpt>
      <trkpt lat="50.44932" lon="3.49002">
        <ele>30.2</ele>
        <time>2021-09-25T18:46:30.906Z</time>
      </trkpt>
      <trkpt lat="50.44927" lon="3.48998">
        <ele>30.1</ele>
        <time>2021-09-25T18:46:35.156Z</time>
      </trkpt>
      <trkpt lat="50.44918" lon="3.48992">
        <ele>30</ele>
        <time>2021-09-25T18:46:36.109Z</time>
      </trkpt>
      <trkpt lat="50.44911" lon="3.48989">
        <ele>29.9</ele>
        <time>2021-09-25T18:46:42.114Z</time>
      </trkpt>
      <trkpt lat="50.44904" lon="3.48985">
        <ele>29.8</ele>
        <time>2021-09-25T18:46:42.922Z</time>
      </trkpt>
      <trkpt lat="50.44895" lon="3.48977">
        <ele>29.6</ele>
        <time>2021-09-25T18:46:47.296Z</time>
      </trkpt>
      <trkpt lat="50.44891" lon="3.48973">
        <ele>29.6</ele>
        <time>2021-09-25T18:46:47.814Z</time>
      </trkpt>
      <trkpt lat="50.44886" lon="3.4897">
        <ele>29.5</ele>
        <time>2021-09-25T18:46:52.367Z</time>
      </trkpt>
      <trkpt lat="50.44878" lon="3.48962">
        <ele>29.5</ele>
        <time>2021-09-25T18:47:00.411Z</time>
      </trkpt>
      <trkpt lat="50.44873" lon="3.48956">
        <ele>29.5</ele>
        <time>2021-09-25T18:47:01.021Z</time>
      </trkpt>
      <trkpt lat="50.44868" lon="3.48948">
        <ele>29.6</ele>
        <time>2021-09-25T18:47:05.057Z</time>
      </trkpt>
      <trkpt lat="50.44865" lon="3.48943">
        <ele>29.6</ele>
        <time>2021-09-25T18:47:05.510Z</time>
      </trkpt>
      <trkpt lat="50.44857" lon="3.48934">
        <ele>29.7</ele>
        <time>2021-09-25T18:47:06.435Z</time>
      </trkpt>
      <trkpt lat="50.44849" lon="3.48927">
        <ele>29.8</ele>
        <time>2021-09-25T18:47:08.438Z</time>
      </trkpt>
      <trkpt lat="50.44844" lon="3.48927">
        <ele>29.8</ele>
        <time>2021-09-25T18:47:09.049Z</time>
      </trkpt>
      <trkpt lat="50.44839" lon="3.48922">
        <ele>29.9</ele>
        <time>2021-09-25T18:47:09.579Z</time>
      </trkpt>
      <trkpt lat="50.44835" lon="3.48917">
        <ele>30</ele>
        <time>2021-09-25T18:47:13.906Z</time>
      </trkpt>
      <trkpt lat="50.44828" lon="3.4891">
        <ele>30.1</ele>
        <time>2021-09-25T18:47:14.812Z</time>
      </trkpt>
      <trkpt lat="50.44824" lon="3.48903">
        <ele>30.2</ele>
        <time>2021-09-25T18:47:20.010Z</time>
      </trkpt>
      <trkpt lat="50.4482" lon="3.48898">
        <ele>30.3</ele>
        <time>2021-09-25T18:47:21.416Z</time>
      </trkpt>
      <trkpt lat="50.44815" lon="3.48895">
        <ele>30.3</ele>
        <time>2021-09-25T18:47:21.902Z</time>
      </trkpt>
      <trkpt lat="50.44811" lon="3.48891">
        <ele>30.4</ele>
        <time>2021-09-25T18:47:26.166Z</time>
      </trkpt>
      <trkpt lat="50.44805" lon="3.48886">
        <ele>30.5</ele>
        <time>2021-09-25T18:47:26.857Z</time>
      </trkpt>
      <trkpt lat="50.44801" lon="3.48883">
        <ele>30.6</ele>
        <time>2021-09-25T18:47:29.746Z</time>
      </trkpt>
      <trkpt lat="50.44796" lon="3.4888">
        <ele>30.6</ele>
        <time>2021-09-25T18:47:30.215Z</time>
      </trkpt>
      <trkpt lat="50.44792" lon="3.48877">
        <ele>30.7</ele>
        <time>2021-09-25T18:47:34.470Z</time>
      </trkpt>
      <trkpt lat="50.44787" lon="3.48874">
        <ele>30.8</ele>
        <time>2021-09-25T18:47:38.767Z</time>
      </trkpt>
      <trkpt lat="50.4478" lon="3.48869">
        <ele>30.9</ele>
        <time>2021-09-25T18:47:39.605Z</time>
      </trkpt>
      <trkpt lat="50.44773" lon="3.4886">
        <ele>31.2</ele>
        <time>2021-09-25T18:47:40.494Z</time>
      </trkpt>
      <trkpt lat="50.44778" lon="3.48861">
        <ele>31.1</ele>
        <time>2021-09-25T18:47:44.689Z</time>
      </trkpt>
      <trkpt lat="50.44774" lon="3.48858">
        <ele>31.2</ele>
        <time>2021-09-25T18:47:45.185Z</time>
      </trkpt>
      <trkpt lat="50.4477" lon="3.48852">
        <ele>31.4</ele>
        <time>2021-09-25T18:47:48.064Z</time>
      </trkpt>
      <trkpt lat="50.44764" lon="3.48846">
        <ele>31.6</ele>
        <time>2021-09-25T18:47:51.195Z</time>
      </trkpt>
      <trkpt lat="50.44755" lon="3.48838">
        <ele>31.8</ele>
        <time>2021-09-25T18:47:52.594Z</time>
      </trkpt>
      <trkpt lat="50.4475" lon="3.48835">
        <ele>32</ele>
        <time>2021-09-25T18:47:53.069Z</time>
      </trkpt>
      <trkpt lat="50.44746" lon="3.48831">
        <ele>32</ele>
        <time>2021-09-25T18:47:57.587Z</time>
      </trkpt>
      <trkpt lat="50.4474" lon="3.48827">
        <ele>32.1</ele>
        <time>2021-09-25T18:48:02.642Z</time>
      </trkpt>
      <trkpt lat="50.44733" lon="3.4882">
        <ele>32.1</ele>
        <time>2021-09-25T18:48:03.474Z</time>
      </trkpt>
      <trkpt lat="50.44724" lon="3.48812">
        <ele>32.2</ele>
        <time>2021-09-25T18:48:05.978Z</time>
      </trkpt>
      <trkpt lat="50.44715" lon="3.48804">
        <ele>32.2</ele>
        <time>2021-09-25T18:48:07.073Z</time>
      </trkpt>
      <trkpt lat="50.44711" lon="3.488">
        <ele>32.2</ele>
        <time>2021-09-25T18:48:11.012Z</time>
      </trkpt>
      <trkpt lat="50.44708" lon="3.48786">
        <ele>32.3</ele>
        <time>2021-09-25T18:48:11.915Z</time>
      </trkpt>
      <trkpt lat="50.44701" lon="3.48778">
        <ele>32.3</ele>
        <time>2021-09-25T18:48:12.738Z</time>
      </trkpt>
      <trkpt lat="50.44694" lon="3.4877">
        <ele>32.2</ele>
        <time>2021-09-25T18:48:20.029Z</time>
      </trkpt>
      <trkpt lat="50.44688" lon="3.48766">
        <ele>32.2</ele>
        <time>2021-09-25T18:48:21.824Z</time>
      </trkpt>
      <trkpt lat="50.44682" lon="3.48761">
        <ele>32.2</ele>
        <time>2021-09-25T18:48:24.596Z</time>
      </trkpt>
      <trkpt lat="50.44673" lon="3.48754">
        <ele>32.1</ele>
        <time>2021-09-25T18:48:32.707Z</time>
      </trkpt>
      <trkpt lat="50.44669" lon="3.48749">
        <ele>32</ele>
        <time>2021-09-25T18:48:37.284Z</time>
      </trkpt>
      <trkpt lat="50.44664" lon="3.48747">
        <ele>32.1</ele>
        <time>2021-09-25T18:48:41.147Z</time>
      </trkpt>
      <trkpt lat="50.44658" lon="3.48743">
        <ele>32.2</ele>
        <time>2021-09-25T18:48:41.782Z</time>
      </trkpt>
      <trkpt lat="50.44651" lon="3.48737">
        <ele>32.4</ele>
        <time>2021-09-25T18:48:45.588Z</time>
      </trkpt>
      <trkpt lat="50.44647" lon="3.48734">
        <ele>32.5</ele>
        <time>2021-09-25T18:48:46.046Z</time>
      </trkpt>
      <trkpt lat="50.4464" lon="3.48725">
        <ele>32.6</ele>
        <time>2021-09-25T18:48:46.966Z</time>
      </trkpt>
      <trkpt lat="50.44629" lon="3.48713">
        <ele>32.9</ele>
        <time>2021-09-25T18:48:57.731Z</time>
      </trkpt>
      <trkpt lat="50.4462" lon="3.4871">
        <ele>33.1</ele>
        <time>2021-09-25T18:49:06.031Z</time>
      </trkpt>
      <trkpt lat="50.4461" lon="3.48702">
        <ele>33.4</ele>
        <time>2021-09-25T18:49:07.112Z</time>
      </trkpt>
      <trkpt lat="50.44606" lon="3.48697">
        <ele>33.5</ele>
        <time>2021-09-25T18:49:07.659Z</time>
      </trkpt>
      <trkpt lat="50.44596" lon="3.48688">
        <ele>33.7</ele>
        <time>2021-09-25T18:49:16.879Z</time>
      </trkpt>
      <trkpt lat="50.44592" lon="3.48684">
        <ele>33.8</ele>
        <time>2021-09-25T18:49:17.386Z</time>
      </trkpt>
      <trkpt lat="50.44583" lon="3.48674">
        <ele>34</ele>
        <time>2021-09-25T18:49:21.873Z</time>
      </trkpt>
      <trkpt lat="50.44578" lon="3.48669">
        <ele>33.9</ele>
        <time>2021-09-25T18:49:23.670Z</time>
      </trkpt>
      <trkpt lat="50.44573" lon="3.48665">
        <ele>33.9</ele>
        <time>2021-09-25T18:49:24.337Z</time>
      </trkpt>
      <trkpt lat="50.44569" lon="3.4866">
        <ele>33.8</ele>
        <time>2021-09-25T18:49:24.873Z</time>
      </trkpt>
      <trkpt lat="50.44564" lon="3.48656">
        <ele>33.7</ele>
        <time>2021-09-25T18:49:29.547Z</time>
      </trkpt>
      <trkpt lat="50.44552" lon="3.4865">
        <ele>33.5</ele>
        <time>2021-09-25T18:49:30.776Z</time>
      </trkpt>
      <trkpt lat="50.44547" lon="3.48646">
        <ele>33.4</ele>
        <time>2021-09-25T18:49:34.232Z</time>
      </trkpt>
      <trkpt lat="50.44537" lon="3.48639">
        <ele>33.3</ele>
        <time>2021-09-25T18:49:35.241Z</time>
      </trkpt>
      <trkpt lat="50.44529" lon="3.4863">
        <ele>33.2</ele>
        <time>2021-09-25T18:49:36.271Z</time>
      </trkpt>
      <trkpt lat="50.44524" lon="3.48625">
        <ele>33.1</ele>
        <time>2021-09-25T18:49:40.918Z</time>
      </trkpt>
      <trkpt lat="50.44519" lon="3.4862">
        <ele>33.1</ele>
        <time>2021-09-25T18:49:45.792Z</time>
      </trkpt>
      <trkpt lat="50.44511" lon="3.48611">
        <ele>33</ele>
        <time>2021-09-25T18:49:46.783Z</time>
      </trkpt>
      <trkpt lat="50.44503" lon="3.48604">
        <ele>33</ele>
        <time>2021-09-25T18:49:50.159Z</time>
      </trkpt>
      <trkpt lat="50.44499" lon="3.486">
        <ele>33</ele>
        <time>2021-09-25T18:49:50.646Z</time>
      </trkpt>
      <trkpt lat="50.44491" lon="3.4859">
        <ele>33</ele>
        <time>2021-09-25T18:49:58.566Z</time>
      </trkpt>
      <trkpt lat="50.44482" lon="3.4858">
        <ele>33</ele>
        <time>2021-09-25T18:50:00.095Z</time>
      </trkpt>
      <trkpt lat="50.44473" lon="3.48573">
        <ele>33</ele>
        <time>2021-09-25T18:50:01.069Z</time>
      </trkpt>
      <trkpt lat="50.44469" lon="3.48571">
        <ele>33</ele>
        <time>2021-09-25T18:50:05.437Z</time>
      </trkpt>
      <trkpt lat="50.44464" lon="3.48568">
        <ele>33</ele>
        <time>2021-09-25T18:50:08.317Z</time>
      </trkpt>
      <trkpt lat="50.44459" lon="3.48565">
        <ele>33</ele>
        <time>2021-09-25T18:50:08.796Z</time>
      </trkpt>
      <trkpt lat="50.44452" lon="3.48559">
        <ele>33</ele>
        <time>2021-09-25T18:50:12.889Z</time>
      </trkpt>
      <trkpt lat="50.44449" lon="3.48554">
        <ele>33</ele>
        <time>2021-09-25T18:50:13.481Z</time>
      </trkpt>
      <trkpt lat="50.44441" lon="3.48541">
        <ele>33</ele>
        <time>2021-09-25T18:50:23.237Z</time>
      </trkpt>
      <trkpt lat="50.44437" lon="3.48535">
        <ele>33</ele>
        <time>2021-09-25T18:50:27.808Z</time>
      </trkpt>
      <trkpt lat="50.44433" lon="3.48532">
        <ele>33</ele>
        <time>2021-09-25T18:50:28.269Z</time>
      </trkpt>
      <trkpt lat="50.44424" lon="3.48526">
        <ele>33</ele>
        <time>2021-09-25T18:50:32.948Z</time>
      </trkpt>
      <trkpt lat="50.44417" lon="3.4852">
        <ele>33</ele>
        <time>2021-09-25T18:50:40.252Z</time>
      </trkpt>
      <trkpt lat="50.44407" lon="3.48511">
        <ele>33</ele>
        <time>2021-09-25T18:50:41.388Z</time>
      </trkpt>
      <trkpt lat="50.44399" lon="3.48503">
        <ele>33</ele>
        <time>2021-09-25T18:50:42.302Z</time>
      </trkpt>
      <trkpt lat="50.44391" lon="3.48501">
        <ele>33</ele>
        <time>2021-09-25T18:50:44.968Z</time>
      </trkpt>
      <trkpt lat="50.44385" lon="3.48496">
        <ele>33</ele>
        <time>2021-09-25T18:50:51.456Z</time>
      </trkpt>
      <trkpt lat="50.44373" lon="3.48481">
        <ele>33</ele>
        <time>2021-09-25T18:50:52.927Z</time>
      </trkpt>
      <trkpt lat="50.44369" lon="3.48475">
        <ele>33</ele>
        <time>2021-09-25T18:50:57.705Z</time>
      </trkpt>
      <trkpt lat="50.44359" lon="3.48466">
        <ele>32.8</ele>
        <time>2021-09-25T18:50:58.841Z</time>
      </trkpt>
      <trkpt lat="50.44354" lon="3.48461">
        <ele>32.8</ele>
        <time>2021-09-25T18:50:59.442Z</time>
      </trkpt>
      <trkpt lat="50.44345" lon="3.48455">
        <ele>32.6</ele>
        <time>2021-09-25T18:51:00.412Z</time>
      </trkpt>
      <trkpt lat="50.44341" lon="3.48451">
        <ele>32.5</ele>
        <time>2021-09-25T18:51:04.608Z</time>
      </trkpt>
      <trkpt lat="50.44336" lon="3.48447">
        <ele>32.4</ele>
        <time>2021-09-25T18:51:05.099Z</time>
      </trkpt>
      <trkpt lat="50.44328" lon="3.48438">
        <ele>32.1</ele>
        <time>2021-09-25T18:51:13.607Z</time>
      </trkpt>
      <trkpt lat="50.44318" lon="3.4843">
        <ele>31.6</ele>
        <time>2021-09-25T18:51:15.109Z</time>
      </trkpt>
      <trkpt lat="50.4431" lon="3.4842">
        <ele>31.2</ele>
        <time>2021-09-25T18:51:16.405Z</time>
      </trkpt>
      <trkpt lat="50.44306" lon="3.48415">
        <ele>31</ele>
        <time>2021-09-25T18:51:17.149Z</time>
      </trkpt>
      <trkpt lat="50.44303" lon="3.4841">
        <ele>30.8</ele>
        <time>2021-09-25T18:51:17.669Z</time>
      </trkpt>
      <trkpt lat="50.44293" lon="3.48401">
        <ele>30.4</ele>
        <time>2021-09-25T18:51:27.030Z</time>
      </trkpt>
      <trkpt lat="50.44288" lon="3.48395">
        <ele>30.1</ele>
        <time>2021-09-25T18:51:32.325Z</time>
      </trkpt>
      <trkpt lat="50.44279" lon="3.48386">
        <ele>29.6</ele>
        <time>2021-09-25T18:51:33.431Z</time>
      </trkpt>
      <trkpt lat="50.44268" lon="3.48377">
        <ele>28.9</ele>
        <time>2021-09-25T18:51:34.580Z</time>
      </trkpt>
      <trkpt lat="50.44264" lon="3.48372">
        <ele>28.6</ele>
        <time>2021-09-25T18:51:35.122Z</time>
      </trkpt>
      <trkpt lat="50.44254" lon="3.48364">
        <ele>27.9</ele>
        <time>2021-09-25T18:51:44.709Z</time>
      </trkpt>
      <trkpt lat="50.44249" lon="3.4836">
        <ele>27.6</ele>
        <time>2021-09-25T18:51:45.266Z</time>
      </trkpt>
      <trkpt lat="50.44242" lon="3.48353">
        <ele>26.9</ele>
        <time>2021-09-25T18:51:46.075Z</time>
      </trkpt>
      <trkpt lat="50.44235" lon="3.48345">
        <ele>26.2</ele>
        <time>2021-09-25T18:51:53.913Z</time>
      </trkpt>
      <trkpt lat="50.44226" lon="3.48339">
        <ele>25.4</ele>
        <time>2021-09-25T18:51:54.875Z</time>
      </trkpt>
      <trkpt lat="50.44221" lon="3.4834">
        <ele>25.1</ele>
        <time>2021-09-25T18:51:58.394Z</time>
      </trkpt>
      <trkpt lat="50.44218" lon="3.48345">
        <ele>25</ele>
        <time>2021-09-25T18:51:58.869Z</time>
      </trkpt>
      <trkpt lat="50.44214" lon="3.4835">
        <ele>24.8</ele>
        <time>2021-09-25T18:52:02.803Z</time>
      </trkpt>
      <trkpt lat="50.44213" lon="3.48361">
        <ele>25</ele>
        <time>2021-09-25T18:52:03.520Z</time>
      </trkpt>
      <trkpt lat="50.44213" lon="3.48373">
        <ele>25.3</ele>
        <time>2021-09-25T18:52:04.268Z</time>
      </trkpt>
      <trkpt lat="50.44211" lon="3.48388">
        <ele>25.5</ele>
        <time>2021-09-25T18:52:12.840Z</time>
      </trkpt>
      <trkpt lat="50.4421" lon="3.48396">
        <ele>25.6</ele>
        <time>2021-09-25T18:52:13.336Z</time>
      </trkpt>
      <trkpt lat="50.44208" lon="3.48409">
        <ele>25.8</ele>
        <time>2021-09-25T18:52:15.138Z</time>
      </trkpt>
      <trkpt lat="50.44207" lon="3.48415">
        <ele>25.9</ele>
        <time>2021-09-25T18:52:15.635Z</time>
      </trkpt>
      <trkpt lat="50.44206" lon="3.4843">
        <ele>26.2</ele>
        <time>2021-09-25T18:52:16.900Z</time>
      </trkpt>
      <trkpt lat="50.44205" lon="3.48437">
        <ele>26.4</ele>
        <time>2021-09-25T18:52:17.382Z</time>
      </trkpt>
      <trkpt lat="50.44202" lon="3.48444">
        <ele>26.4</ele>
        <time>2021-09-25T18:52:21.606Z</time>
      </trkpt>
      <trkpt lat="50.44197" lon="3.48457">
        <ele>26.5</ele>
        <time>2021-09-25T18:52:27.369Z</time>
      </trkpt>
      <trkpt lat="50.44192" lon="3.48472">
        <ele>26.6</ele>
        <time>2021-09-25T18:52:28.410Z</time>
      </trkpt>
      <trkpt lat="50.44186" lon="3.4849">
        <ele>26.8</ele>
        <time>2021-09-25T18:52:39.032Z</time>
      </trkpt>
      <trkpt lat="50.44182" lon="3.48497">
        <ele>26.8</ele>
        <time>2021-09-25T18:52:39.613Z</time>
      </trkpt>
      <trkpt lat="50.44177" lon="3.4851">
        <ele>26.7</ele>
        <time>2021-09-25T18:52:40.713Z</time>
      </trkpt>
      <trkpt lat="50.44175" lon="3.48524">
        <ele>26.8</ele>
        <time>2021-09-25T18:52:41.617Z</time>
      </trkpt>
      <trkpt lat="50.44174" lon="3.48532">
        <ele>26.8</ele>
        <time>2021-09-25T18:52:42.150Z</time>
      </trkpt>
      <trkpt lat="50.44172" lon="3.4854">
        <ele>26.8</ele>
        <time>2021-09-25T18:52:42.648Z</time>
      </trkpt>
      <trkpt lat="50.4417" lon="3.48556">
        <ele>26.8</ele>
        <time>2021-09-25T18:52:48.988Z</time>
      </trkpt>
      <trkpt lat="50.44168" lon="3.48573">
        <ele>26.9</ele>
        <time>2021-09-25T18:52:58.355Z</time>
      </trkpt>
      <trkpt lat="50.44167" lon="3.48582">
        <ele>27</ele>
        <time>2021-09-25T18:52:58.900Z</time>
      </trkpt>
      <trkpt lat="50.44165" lon="3.48598">
        <ele>27.4</ele>
        <time>2021-09-25T18:53:07.823Z</time>
      </trkpt>
      <trkpt lat="50.44164" lon="3.48605">
        <ele>27.5</ele>
        <time>2021-09-25T18:53:08.309Z</time>
      </trkpt>
      <trkpt lat="50.44163" lon="3.48613">
        <ele>27.7</ele>
        <time>2021-09-25T18:53:12.584Z</time>
      </trkpt>
      <trkpt lat="50.44161" lon="3.48629">
        <ele>28.1</ele>
        <time>2021-09-25T18:53:13.655Z</time>
      </trkpt>
      <trkpt lat="50.4416" lon="3.48646">
        <ele>28.5</ele>
        <time>2021-09-25T18:53:14.804Z</time>
      </trkpt>
      <trkpt lat="50.44158" lon="3.48654">
        <ele>28.7</ele>
        <time>2021-09-25T18:53:19.434Z</time>
      </trkpt>
      <trkpt lat="50.44157" lon="3.48661">
        <ele>28.9</ele>
        <time>2021-09-25T18:53:23.155Z</time>
      </trkpt>
      <trkpt lat="50.44154" lon="3.48675">
        <ele>29</ele>
        <time>2021-09-25T18:53:24.110Z</time>
      </trkpt>
      <trkpt lat="50.44152" lon="3.48682">
        <ele>29</ele>
        <time>2021-09-25T18:53:24.605Z</time>
      </trkpt>
      <trkpt lat="50.4415" lon="3.48689">
        <ele>29</ele>
        <time>2021-09-25T18:53:25.683Z</time>
      </trkpt>
      <trkpt lat="50.44145" lon="3.48703">
        <ele>29</ele>
        <time>2021-09-25T18:53:26.624Z</time>
      </trkpt>
      <trkpt lat="50.44143" lon="3.48717">
        <ele>29</ele>
        <time>2021-09-25T18:53:27.521Z</time>
      </trkpt>
      <trkpt lat="50.44142" lon="3.48724">
        <ele>29</ele>
        <time>2021-09-25T18:53:31.855Z</time>
      </trkpt>
      <trkpt lat="50.44138" lon="3.48739">
        <ele>29</ele>
        <time>2021-09-25T18:53:32.802Z</time>
      </trkpt>
      <trkpt lat="50.44137" lon="3.48746">
        <ele>29</ele>
        <time>2021-09-25T18:53:33.306Z</time>
      </trkpt>
      <trkpt lat="50.44136" lon="3.48753">
        <ele>29</ele>
        <time>2021-09-25T18:53:37.262Z</time>
      </trkpt>
      <trkpt lat="50.44133" lon="3.48766">
        <ele>29.1</ele>
        <time>2021-09-25T18:53:44.783Z</time>
      </trkpt>
      <trkpt lat="50.44132" lon="3.48774">
        <ele>29.2</ele>
        <time>2021-09-25T18:53:45.307Z</time>
      </trkpt>
      <trkpt lat="50.44131" lon="3.48782">
        <ele>29.2</ele>
        <time>2021-09-25T18:53:49.588Z</time>
      </trkpt>
      <trkpt lat="50.44128" lon="3.48795">
        <ele>29.3</ele>
        <time>2021-09-25T18:53:50.464Z</time>
      </trkpt>
      <trkpt lat="50.44125" lon="3.48807">
        <ele>29.3</ele>
        <time>2021-09-25T18:53:57.540Z</time>
      </trkpt>
      <trkpt lat="50.44123" lon="3.48822">
        <ele>29.4</ele>
        <time>2021-09-25T18:54:05.503Z</time>
      </trkpt>
      <trkpt lat="50.44121" lon="3.48835">
        <ele>29.5</ele>
        <time>2021-09-25T18:54:06.486Z</time>
      </trkpt>
      <trkpt lat="50.44118" lon="3.48848">
        <ele>29.5</ele>
        <time>2021-09-25T18:54:07.348Z</time>
      </trkpt>
      <trkpt lat="50.44114" lon="3.48862">
        <ele>29.6</ele>
        <time>2021-09-25T18:54:11.106Z</time>
      </trkpt>
      <trkpt lat="50.4411" lon="3.48881">
        <ele>29.7</ele>
        <time>2021-09-25T18:54:22.215Z</time>
      </trkpt>
      <trkpt lat="50.44107" lon="3.48895">
        <ele>29.8</ele>
        <time>2021-09-25T18:54:23.106Z</time>
      </trkpt>
      <trkpt lat="50.44106" lon="3.48902">
        <ele>29.9</ele>
        <time>2021-09-25T18:54:23.589Z</time>
      </trkpt>
      <trkpt lat="50.44104" lon="3.48909">
        <ele>29.9</ele>
        <time>2021-09-25T18:54:25.303Z</time>
      </trkpt>
      <trkpt lat="50.44101" lon="3.48924">
        <ele>30.1</ele>
        <time>2021-09-25T18:54:26.654Z</time>
      </trkpt>
      <trkpt lat="50.44101" lon="3.48931">
        <ele>30.2</ele>
        <time>2021-09-25T18:54:27.136Z</time>
      </trkpt>
      <trkpt lat="50.441" lon="3.48938">
        <ele>30.3</ele>
        <time>2021-09-25T18:54:27.579Z</time>
      </trkpt>
      <trkpt lat="50.44098" lon="3.48953">
        <ele>30.4</ele>
        <time>2021-09-25T18:54:28.526Z</time>
      </trkpt>
      <trkpt lat="50.44096" lon="3.4896">
        <ele>30.5</ele>
        <time>2021-09-25T18:54:33.033Z</time>
      </trkpt>
      <trkpt lat="50.44093" lon="3.48975">
        <ele>30.7</ele>
        <time>2021-09-25T18:54:34.107Z</time>
      </trkpt>
      <trkpt lat="50.44091" lon="3.48983">
        <ele>30.8</ele>
        <time>2021-09-25T18:54:34.628Z</time>
      </trkpt>
      <trkpt lat="50.4409" lon="3.48991">
        <ele>30.9</ele>
        <time>2021-09-25T18:54:38.828Z</time>
      </trkpt>
      <trkpt lat="50.44087" lon="3.49006">
        <ele>31</ele>
        <time>2021-09-25T18:54:47.434Z</time>
      </trkpt>
      <trkpt lat="50.44084" lon="3.4902">
        <ele>31</ele>
        <time>2021-09-25T18:54:53.193Z</time>
      </trkpt>
      <trkpt lat="50.44082" lon="3.49028">
        <ele>31</ele>
        <time>2021-09-25T18:54:54.268Z</time>
      </trkpt>
      <trkpt lat="50.4408" lon="3.49041">
        <ele>31</ele>
        <time>2021-09-25T18:54:55.694Z</time>
      </trkpt>
      <trkpt lat="50.44076" lon="3.49054">
        <ele>31.1</ele>
        <time>2021-09-25T18:54:56.583Z</time>
      </trkpt>
      <trkpt lat="50.44075" lon="3.49061">
        <ele>31.1</ele>
        <time>2021-09-25T18:55:00.558Z</time>
      </trkpt>
      <trkpt lat="50.44072" lon="3.49076">
        <ele>31.1</ele>
        <time>2021-09-25T18:55:01.560Z</time>
      </trkpt>
      <trkpt lat="50.44069" lon="3.49087">
        <ele>31.2</ele>
        <time>2021-09-25T18:55:03.231Z</time>
      </trkpt>
      <trkpt lat="50.44066" lon="3.49095">
        <ele>31.3</ele>
        <time>2021-09-25T18:55:07.982Z</time>
      </trkpt>
      <trkpt lat="50.44068" lon="3.49103">
        <ele>31.4</ele>
        <time>2021-09-25T18:55:08.528Z</time>
      </trkpt>
      <trkpt lat="50.44072" lon="3.49108">
        <ele>31.4</ele>
        <time>2021-09-25T18:55:11.985Z</time>
      </trkpt>
      <trkpt lat="50.44079" lon="3.49114">
        <ele>31.4</ele>
        <time>2021-09-25T18:55:18.697Z</time>
      </trkpt>
      <trkpt lat="50.44084" lon="3.49118">
        <ele>31.4</ele>
        <time>2021-09-25T18:55:19.239Z</time>
      </trkpt>
      <trkpt lat="50.44094" lon="3.49128">
        <ele>31.5</ele>
        <time>2021-09-25T18:55:29.179Z</time>
      </trkpt>
      <trkpt lat="50.44101" lon="3.49139">
        <ele>31.7</ele>
        <time>2021-09-25T18:55:30.210Z</time>
      </trkpt>
      <trkpt lat="50.44106" lon="3.49145">
        <ele>31.7</ele>
        <time>2021-09-25T18:55:34.779Z</time>
      </trkpt>
      <trkpt lat="50.4411" lon="3.49149">
        <ele>31.8</ele>
        <time>2021-09-25T18:55:35.283Z</time>
      </trkpt>
      <trkpt lat="50.44114" lon="3.49152">
        <ele>31.8</ele>
        <time>2021-09-25T18:55:39.378Z</time>
      </trkpt>
      <trkpt lat="50.44122" lon="3.49162">
        <ele>31.9</ele>
        <time>2021-09-25T18:55:47.491Z</time>
      </trkpt>
      <trkpt lat="50.44131" lon="3.49168">
        <ele>32</ele>
        <time>2021-09-25T18:55:48.996Z</time>
      </trkpt>
      <trkpt lat="50.44136" lon="3.49171">
        <ele>32</ele>
        <time>2021-09-25T18:55:53.969Z</time>
      </trkpt>
      <trkpt lat="50.44145" lon="3.49178">
        <ele>32.1</ele>
        <time>2021-09-25T18:55:56.677Z</time>
      </trkpt>
      <trkpt lat="50.44149" lon="3.49182">
        <ele>32.1</ele>
        <time>2021-09-25T18:56:00.576Z</time>
      </trkpt>
      <trkpt lat="50.44158" lon="3.49192">
        <ele>32.3</ele>
        <time>2021-09-25T18:56:04.994Z</time>
      </trkpt>
      <trkpt lat="50.44168" lon="3.49198">
        <ele>32.4</ele>
        <time>2021-09-25T18:56:08.058Z</time>
      </trkpt>
      <trkpt lat="50.44173" lon="3.492">
        <ele>32.4</ele>
        <time>2021-09-25T18:56:13.279Z</time>
      </trkpt>
      <trkpt lat="50.4418" lon="3.49201">
        <ele>32.3</ele>
        <time>2021-09-25T18:56:13.942Z</time>
      </trkpt>
      <trkpt lat="50.44192" lon="3.49216">
        <ele>32.4</ele>
        <time>2021-09-25T18:56:26.676Z</time>
      </trkpt>
      <trkpt lat="50.44205" lon="3.49225">
        <ele>32.4</ele>
        <time>2021-09-25T18:56:28.543Z</time>
      </trkpt>
      <trkpt lat="50.44214" lon="3.49233">
        <ele>32.3</ele>
        <time>2021-09-25T18:56:29.560Z</time>
      </trkpt>
      <trkpt lat="50.44218" lon="3.49238">
        <ele>32.3</ele>
        <time>2021-09-25T18:56:30.029Z</time>
      </trkpt>
      <trkpt lat="50.44227" lon="3.49245">
        <ele>32.3</ele>
        <time>2021-09-25T18:56:38.432Z</time>
      </trkpt>
      <trkpt lat="50.44234" lon="3.49252">
        <ele>32.2</ele>
        <time>2021-09-25T18:56:42.310Z</time>
      </trkpt>
      <trkpt lat="50.44238" lon="3.49255">
        <ele>32.2</ele>
        <time>2021-09-25T18:56:42.770Z</time>
      </trkpt>
      <trkpt lat="50.44246" lon="3.49263">
        <ele>32.2</ele>
        <time>2021-09-25T18:56:47.473Z</time>
      </trkpt>
      <trkpt lat="50.4425" lon="3.49267">
        <ele>32.2</ele>
        <time>2021-09-25T18:56:51.373Z</time>
      </trkpt>
      <trkpt lat="50.44253" lon="3.49272">
        <ele>32.3</ele>
        <time>2021-09-25T18:56:51.837Z</time>
      </trkpt>
      <trkpt lat="50.44257" lon="3.49276">
        <ele>32.3</ele>
        <time>2021-09-25T18:56:52.306Z</time>
      </trkpt>
      <trkpt lat="50.44265" lon="3.49282">
        <ele>32.3</ele>
        <time>2021-09-25T18:56:59.374Z</time>
      </trkpt>
      <trkpt lat="50.44275" lon="3.49291">
        <ele>32.3</ele>
        <time>2021-09-25T18:57:00.537Z</time>
      </trkpt>
      <trkpt lat="50.4428" lon="3.49295">
        <ele>32.3</ele>
        <time>2021-09-25T18:57:03.108Z</time>
      </trkpt>
      <trkpt lat="50.44286" lon="3.49307">
        <ele>32.4</ele>
        <time>2021-09-25T18:57:04.087Z</time>
      </trkpt>
      <trkpt lat="50.44299" lon="3.49318">
        <ele>32.3</ele>
        <time>2021-09-25T18:57:05.531Z</time>
      </trkpt>
      <trkpt lat="50.44309" lon="3.4933">
        <ele>32.3</ele>
        <time>2021-09-25T18:57:06.913Z</time>
      </trkpt>
      <trkpt lat="50.44313" lon="3.49336">
        <ele>32.2</ele>
        <time>2021-09-25T18:57:07.434Z</time>
      </trkpt>
      <trkpt lat="50.44321" lon="3.49344">
        <ele>32.1</ele>
        <time>2021-09-25T18:57:15.716Z</time>
      </trkpt>
      <trkpt lat="50.44328" lon="3.49352">
        <ele>32.1</ele>
        <time>2021-09-25T18:57:19.724Z</time>
      </trkpt>
      <trkpt lat="50.4434" lon="3.49361">
        <ele>32.1</ele>
        <time>2021-09-25T18:57:27.212Z</time>
      </trkpt>
      <trkpt lat="50.44348" lon="3.4937">
        <ele>32.2</ele>
        <time>2021-09-25T18:57:35.424Z</time>
      </trkpt>
      <trkpt lat="50.4436" lon="3.49382">
        <ele>32.3</ele>
        <time>2021-09-25T18:57:40.136Z</time>
      </trkpt>
      <trkpt lat="50.44364" lon="3.49385">
        <ele>32.4</ele>
        <time>2021-09-25T18:57:41.834Z</time>
      </trkpt>
      <trkpt lat="50.44368" lon="3.49389">
        <ele>32.4</ele>
        <time>2021-09-25T18:57:46.107Z</time>
      </trkpt>
      <trkpt lat="50.4437" lon="3.49398">
        <ele>32.4</ele>
        <time>2021-09-25T18:57:46.659Z</time>
      </trkpt>
      <trkpt lat="50.44377" lon="3.49406">
        <ele>32.5</ele>
        <time>2021-09-25T18:57:53.950Z</time>
      </trkpt>
      <trkpt lat="50.44386" lon="3.49414">
        <ele>32.6</ele>
        <time>2021-09-25T18:57:55.046Z</time>
      </trkpt>
      <trkpt lat="50.44391" lon="3.49418">
        <ele>32.7</ele>
        <time>2021-09-25T18:57:59.188Z</time>
      </trkpt>
      <trkpt lat="50.44398" lon="3.49424">
        <ele>32.9</ele>
        <time>2021-09-25T18:58:00.503Z</time>
      </trkpt>
      <trkpt lat="50.44402" lon="3.49428">
        <ele>33</ele>
        <time>2021-09-25T18:58:01.031Z</time>
      </trkpt>
      <trkpt lat="50.44405" lon="3.49433">
        <ele>33.1</ele>
        <time>2021-09-25T18:58:04.961Z</time>
      </trkpt>
      <trkpt lat="50.4441" lon="3.49439">
        <ele>33.2</ele>
        <time>2021-09-25T18:58:05.570Z</time>
      </trkpt>
      <trkpt lat="50.44414" lon="3.49444">
        <ele>33.3</ele>
        <time>2021-09-25T18:58:06.065Z</time>
      </trkpt>
      <trkpt lat="50.44418" lon="3.49448">
        <ele>33.4</ele>
        <time>2021-09-25T18:58:10.030Z</time>
      </trkpt>
      <trkpt lat="50.44426" lon="3.49459">
        <ele>33.4</ele>
        <time>2021-09-25T18:58:16.365Z</time>
      </trkpt>
      <trkpt lat="50.44431" lon="3.49462">
        <ele>33.4</ele>
        <time>2021-09-25T18:58:16.843Z</time>
      </trkpt>
      <trkpt lat="50.44437" lon="3.49467">
        <ele>33.3</ele>
        <time>2021-09-25T18:58:22.723Z</time>
      </trkpt>
      <trkpt lat="50.44441" lon="3.4947">
        <ele>33.3</ele>
        <time>2021-09-25T18:58:23.187Z</time>
      </trkpt>
      <trkpt lat="50.44447" lon="3.49478">
        <ele>33.2</ele>
        <time>2021-09-25T18:58:29.232Z</time>
      </trkpt>
      <trkpt lat="50.44453" lon="3.49484">
        <ele>33.1</ele>
        <time>2021-09-25T18:58:29.885Z</time>
      </trkpt>
      <trkpt lat="50.44459" lon="3.49491">
        <ele>33</ele>
        <time>2021-09-25T18:58:36.440Z</time>
      </trkpt>
      <trkpt lat="50.44466" lon="3.49499">
        <ele>32.8</ele>
        <time>2021-09-25T18:58:37.267Z</time>
      </trkpt>
      <trkpt lat="50.44471" lon="3.49505">
        <ele>32.7</ele>
        <time>2021-09-25T18:58:42.677Z</time>
      </trkpt>
      <trkpt lat="50.44477" lon="3.49513">
        <ele>32.7</ele>
        <time>2021-09-25T18:58:43.497Z</time>
      </trkpt>
      <trkpt lat="50.44481" lon="3.49517">
        <ele>32.6</ele>
        <time>2021-09-25T18:58:45.901Z</time>
      </trkpt>
      <trkpt lat="50.44489" lon="3.49523">
        <ele>32.5</ele>
        <time>2021-09-25T18:58:52.966Z</time>
      </trkpt>
      <trkpt lat="50.44496" lon="3.49528">
        <ele>32.4</ele>
        <time>2021-09-25T18:58:59.605Z</time>
      </trkpt>
      <trkpt lat="50.44503" lon="3.49533">
        <ele>32.3</ele>
        <time>2021-09-25T18:59:00.396Z</time>
      </trkpt>
      <trkpt lat="50.44512" lon="3.4954">
        <ele>32</ele>
        <time>2021-09-25T18:59:01.590Z</time>
      </trkpt>
      <trkpt lat="50.44517" lon="3.49543">
        <ele>31.9</ele>
        <time>2021-09-25T18:59:06.289Z</time>
      </trkpt>
      <trkpt lat="50.44524" lon="3.49548">
        <ele>31.7</ele>
        <time>2021-09-25T18:59:07.341Z</time>
      </trkpt>
      <trkpt lat="50.44528" lon="3.49552">
        <ele>31.6</ele>
        <time>2021-09-25T18:59:09.349Z</time>
      </trkpt>
      <trkpt lat="50.44532" lon="3.49556">
        <ele>31.5</ele>
        <time>2021-09-25T18:59:10.385Z</time>
      </trkpt>
      <trkpt lat="50.44536" lon="3.4956">
        <ele>31.4</ele>
        <time>2021-09-25T18:59:14.698Z</time>
      </trkpt>
      <trkpt lat="50.4454" lon="3.49564">
        <ele>31.3</ele>
        <time>2021-09-25T18:59:16.698Z</time>
      </trkpt>
      <trkpt lat="50.44544" lon="3.49568">
        <ele>31.2</ele>
        <time>2021-09-25T18:59:17.733Z</time>
      </trkpt>
      <trkpt lat="50.4455" lon="3.49573">
        <ele>31.1</ele>
        <time>2021-09-25T18:59:18.410Z</time>
      </trkpt>
      <trkpt lat="50.44557" lon="3.4958">
        <ele>30.9</ele>
        <time>2021-09-25T18:59:23.035Z</time>
      </trkpt>
      <trkpt lat="50.44565" lon="3.49587">
        <ele>30.7</ele>
        <time>2021-09-25T18:59:30.966Z</time>
      </trkpt>
      <trkpt lat="50.44571" lon="3.49591">
        <ele>30.5</ele>
        <time>2021-09-25T18:59:31.534Z</time>
      </trkpt>
      <trkpt lat="50.4458" lon="3.496">
        <ele>30.3</ele>
        <time>2021-09-25T18:59:32.585Z</time>
      </trkpt>
      <trkpt lat="50.44583" lon="3.49604">
        <ele>30.3</ele>
        <time>2021-09-25T18:59:36.523Z</time>
      </trkpt>
      <trkpt lat="50.4459" lon="3.4961">
        <ele>30.3</ele>
        <time>2021-09-25T18:59:37.314Z</time>
      </trkpt>
      <trkpt lat="50.44595" lon="3.49615">
        <ele>30.4</ele>
        <time>2021-09-25T18:59:37.892Z</time>
      </trkpt>
      <trkpt lat="50.44599" lon="3.49618">
        <ele>30.5</ele>
        <time>2021-09-25T18:59:38.533Z</time>
      </trkpt>
      <trkpt lat="50.44606" lon="3.49625">
        <ele>30.6</ele>
        <time>2021-09-25T18:59:45.176Z</time>
      </trkpt>
      <trkpt lat="50.44611" lon="3.49629">
        <ele>30.7</ele>
        <time>2021-09-25T18:59:45.757Z</time>
      </trkpt>
      <trkpt lat="50.44615" lon="3.49633">
        <ele>30.8</ele>
        <time>2021-09-25T18:59:46.209Z</time>
      </trkpt>
      <trkpt lat="50.4462" lon="3.49637">
        <ele>30.9</ele>
        <time>2021-09-25T18:59:50.977Z</time>
      </trkpt>
      <trkpt lat="50.44628" lon="3.49645">
        <ele>31.1</ele>
        <time>2021-09-25T18:59:51.945Z</time>
      </trkpt>
      <trkpt lat="50.44637" lon="3.49653">
        <ele>31.4</ele>
        <time>2021-09-25T18:59:52.960Z</time>
      </trkpt>
      <trkpt lat="50.44641" lon="3.49657">
        <ele>31.5</ele>
        <time>2021-09-25T18:59:53.652Z</time>
      </trkpt>
      <trkpt lat="50.44649" lon="3.49665">
        <ele>31.8</ele>
        <time>2021-09-25T19:00:00.136Z</time>
      </trkpt>
      <trkpt lat="50.44656" lon="3.49671">
        <ele>31.9</ele>
        <time>2021-09-25T19:00:06.325Z</time>
      </trkpt>
      <trkpt lat="50.44661" lon="3.49676">
        <ele>31.9</ele>
        <time>2021-09-25T19:00:06.972Z</time>
      </trkpt>
      <trkpt lat="50.44667" lon="3.49682">
        <ele>32</ele>
        <time>2021-09-25T19:00:07.636Z</time>
      </trkpt>
      <trkpt lat="50.44674" lon="3.49687">
        <ele>32.2</ele>
        <time>2021-09-25T19:00:08.354Z</time>
      </trkpt>
      <trkpt lat="50.44679" lon="3.49691">
        <ele>32.3</ele>
        <time>2021-09-25T19:00:13.502Z</time>
      </trkpt>
      <trkpt lat="50.44684" lon="3.49695">
        <ele>32.3</ele>
        <time>2021-09-25T19:00:15.337Z</time>
      </trkpt>
      <trkpt lat="50.44689" lon="3.497">
        <ele>32.4</ele>
        <time>2021-09-25T19:00:20.233Z</time>
      </trkpt>
      <trkpt lat="50.44695" lon="3.49705">
        <ele>32.5</ele>
        <time>2021-09-25T19:00:20.897Z</time>
      </trkpt>
      <trkpt lat="50.44699" lon="3.4971">
        <ele>32.6</ele>
        <time>2021-09-25T19:00:25.334Z</time>
      </trkpt>
      <trkpt lat="50.44705" lon="3.49716">
        <ele>32.6</ele>
        <time>2021-09-25T19:00:26.020Z</time>
      </trkpt>
      <trkpt lat="50.4471" lon="3.49721">
        <ele>32.7</ele>
        <time>2021-09-25T19:00:26.987Z</time>
      </trkpt>
      <trkpt lat="50.44717" lon="3.49729">
        <ele>32.8</ele>
        <time>2021-09-25T19:00:30.219Z</time>
      </trkpt>
      <trkpt lat="50.44721" lon="3.49733">
        <ele>32.8</ele>
        <time>2021-09-25T19:00:31.469Z</time>
      </trkpt>
      <trkpt lat="50.44728" lon="3.4974">
        <ele>32.8</ele>
        <time>2021-09-25T19:00:32.361Z</time>
      </trkpt>
      <trkpt lat="50.44734" lon="3.49745">
        <ele>32.9</ele>
        <time>2021-09-25T19:00:32.991Z</time>
      </trkpt>
      <trkpt lat="50.44738" lon="3.49749">
        <ele>32.9</ele>
        <time>2021-09-25T19:00:35.005Z</time>
      </trkpt>
      <trkpt lat="50.44744" lon="3.49753">
        <ele>32.9</ele>
        <time>2021-09-25T19:00:40.306Z</time>
      </trkpt>
      <trkpt lat="50.44749" lon="3.49758">
        <ele>32.9</ele>
        <time>2021-09-25T19:00:40.881Z</time>
      </trkpt>
      <trkpt lat="50.44758" lon="3.49766">
        <ele>32.8</ele>
        <time>2021-09-25T19:00:50.341Z</time>
      </trkpt>
      <trkpt lat="50.44764" lon="3.49771">
        <ele>32.8</ele>
        <time>2021-09-25T19:00:55.882Z</time>
      </trkpt>
      <trkpt lat="50.4477" lon="3.49778">
        <ele>32.8</ele>
        <time>2021-09-25T19:00:56.872Z</time>
      </trkpt>
      <trkpt lat="50.44778" lon="3.49785">
        <ele>32.9</ele>
        <time>2021-09-25T19:01:00.560Z</time>
      </trkpt>
      <trkpt lat="50.44782" lon="3.4979">
        <ele>32.9</ele>
        <time>2021-09-25T19:01:04.843Z</time>
      </trkpt>
      <trkpt lat="50.44792" lon="3.498">
        <ele>33</ele>
        <time>2021-09-25T19:01:06.016Z</time>
      </trkpt>
      <trkpt lat="50.44797" lon="3.49804">
        <ele>33.1</ele>
        <time>2021-09-25T19:01:07.216Z</time>
      </trkpt>
      <trkpt lat="50.44803" lon="3.49809">
        <ele>33.2</ele>
        <time>2021-09-25T19:01:07.907Z</time>
      </trkpt>
      <trkpt lat="50.44807" lon="3.49813">
        <ele>33.3</ele>
        <time>2021-09-25T19:01:08.378Z</time>
      </trkpt>
      <trkpt lat="50.44813" lon="3.49818">
        <ele>33.4</ele>
        <time>2021-09-25T19:01:11.887Z</time>
      </trkpt>
      <trkpt lat="50.44818" lon="3.49824">
        <ele>33.6</ele>
        <time>2021-09-25T19:01:17.071Z</time>
      </trkpt>
      <trkpt lat="50.44825" lon="3.49831">
        <ele>33.8</ele>
        <time>2021-09-25T19:01:17.876Z</time>
      </trkpt>
      <trkpt lat="50.44829" lon="3.49835">
        <ele>33.9</ele>
        <time>2021-09-25T19:01:18.338Z</time>
      </trkpt>
      <trkpt lat="50.44837" lon="3.49843">
        <ele>34</ele>
        <time>2021-09-25T19:01:26.674Z</time>
      </trkpt>
      <trkpt lat="50.44846" lon="3.49852">
        <ele>34</ele>
        <time>2021-09-25T19:01:27.737Z</time>
      </trkpt>
      <trkpt lat="50.44855" lon="3.49859">
        <ele>34</ele>
        <time>2021-09-25T19:01:30.445Z</time>
      </trkpt>
      <trkpt lat="50.4486" lon="3.49863">
        <ele>34</ele>
        <time>2021-09-25T19:01:34.065Z</time>
      </trkpt>
      <trkpt lat="50.44867" lon="3.49871">
        <ele>34</ele>
        <time>2021-09-25T19:01:39.257Z</time>
      </trkpt>
      <trkpt lat="50.44871" lon="3.49875">
        <ele>34</ele>
        <time>2021-09-25T19:01:39.701Z</time>
      </trkpt>
      <trkpt lat="50.44879" lon="3.49883">
        <ele>34</ele>
        <time>2021-09-25T19:01:47.719Z</time>
      </trkpt>
      <trkpt lat="50.44883" lon="3.49888">
        <ele>34</ele>
        <time>2021-09-25T19:01:52.086Z</time>
      </trkpt>
      <trkpt lat="50.44891" lon="3.49897">
        <ele>34</ele>
        <time>2021-09-25T19:01:53.048Z</time>
      </trkpt>
      <trkpt lat="50.44895" lon="3.49901">
        <ele>34</ele>
        <time>2021-09-25T19:01:55.399Z</time>
      </trkpt>
      <trkpt lat="50.44903" lon="3.4991">
        <ele>34</ele>
        <time>2021-09-25T19:01:56.357Z</time>
      </trkpt>
      <trkpt lat="50.44907" lon="3.49914">
        <ele>34</ele>
        <time>2021-09-25T19:02:00.528Z</time>
      </trkpt>
      <trkpt lat="50.44915" lon="3.49924">
        <ele>34.1</ele>
        <time>2021-09-25T19:02:03.197Z</time>
      </trkpt>
      <trkpt lat="50.44919" lon="3.49928">
        <ele>34.1</ele>
        <time>2021-09-25T19:02:07.494Z</time>
      </trkpt>
      <trkpt lat="50.44923" lon="3.49932">
        <ele>34.2</ele>
        <time>2021-09-25T19:02:09.247Z</time>
      </trkpt>
      <trkpt lat="50.44932" lon="3.4994">
        <ele>34.2</ele>
        <time>2021-09-25T19:02:14.111Z</time>
      </trkpt>
      <trkpt lat="50.4494" lon="3.49948">
        <ele>34.2</ele>
        <time>2021-09-25T19:02:15.684Z</time>
      </trkpt>
      <trkpt lat="50.44947" lon="3.49955">
        <ele>34.1</ele>
        <time>2021-09-25T19:02:22.574Z</time>
      </trkpt>
      <trkpt lat="50.44951" lon="3.49959">
        <ele>34.1</ele>
        <time>2021-09-25T19:02:24.561Z</time>
      </trkpt>
      <trkpt lat="50.4496" lon="3.49967">
        <ele>34</ele>
        <time>2021-09-25T19:02:25.563Z</time>
      </trkpt>
      <trkpt lat="50.44964" lon="3.4997">
        <ele>33.9</ele>
        <time>2021-09-25T19:02:26.012Z</time>
      </trkpt>
      <trkpt lat="50.44974" lon="3.49979">
        <ele>33.7</ele>
        <time>2021-09-25T19:02:27.237Z</time>
      </trkpt>
      <trkpt lat="50.44982" lon="3.49986">
        <ele>33.5</ele>
        <time>2021-09-25T19:02:28.192Z</time>
      </trkpt>
      <trkpt lat="50.4499" lon="3.49994">
        <ele>33.3</ele>
        <time>2021-09-25T19:02:36.373Z</time>
      </trkpt>
      <trkpt lat="50.44998" lon="3.50003">
        <ele>33</ele>
        <time>2021-09-25T19:02:37.548Z</time>
      </trkpt>
      <trkpt lat="50.45005" lon="3.50012">
        <ele>32.9</ele>
        <time>2021-09-25T19:02:41.515Z</time>
      </trkpt>
      <trkpt lat="50.45009" lon="3.50017">
        <ele>32.8</ele>
        <time>2021-09-25T19:02:41.998Z</time>
      </trkpt>
      <trkpt lat="50.45017" lon="3.50025">
        <ele>32.7</ele>
        <time>2021-09-25T19:02:47.760Z</time>
      </trkpt>
      <trkpt lat="50.45021" lon="3.50029">
        <ele>32.6</ele>
        <time>2021-09-25T19:02:48.170Z</time>
      </trkpt>
      <trkpt lat="50.45033" lon="3.50038">
        <ele>32.4</ele>
        <time>2021-09-25T19:02:59.573Z</time>
      </trkpt>
      <trkpt lat="50.45037" lon="3.50042">
        <ele>32.3</ele>
        <time>2021-09-25T19:03:00.074Z</time>
      </trkpt>
      <trkpt lat="50.45046" lon="3.50049">
        <ele>32.2</ele>
        <time>2021-09-25T19:03:08.097Z</time>
      </trkpt>
      <trkpt lat="50.45053" lon="3.50056">
        <ele>32.2</ele>
        <time>2021-09-25T19:03:08.954Z</time>
      </trkpt>
      <trkpt lat="50.45057" lon="3.5006">
        <ele>32.1</ele>
        <time>2021-09-25T19:03:12.791Z</time>
      </trkpt>
      <trkpt lat="50.45064" lon="3.50067">
        <ele>32.1</ele>
        <time>2021-09-25T19:03:13.805Z</time>
      </trkpt>
      <trkpt lat="50.45068" lon="3.50074">
        <ele>32.1</ele>
        <time>2021-09-25T19:03:14.465Z</time>
      </trkpt>
      <trkpt lat="50.45078" lon="3.50082">
        <ele>32</ele>
        <time>2021-09-25T19:03:15.883Z</time>
      </trkpt>
      <trkpt lat="50.45084" lon="3.5009">
        <ele>32</ele>
        <time>2021-09-25T19:03:16.748Z</time>
      </trkpt>
      <trkpt lat="50.45092" lon="3.50097">
        <ele>31.5</ele>
        <time>2021-09-25T19:03:23.917Z</time>
      </trkpt>
      <trkpt lat="50.45096" lon="3.50101">
        <ele>31.2</ele>
        <time>2021-09-25T19:03:28.458Z</time>
      </trkpt>
      <trkpt lat="50.45103" lon="3.50107">
        <ele>30.7</ele>
        <time>2021-09-25T19:03:31.178Z</time>
      </trkpt>
      <trkpt lat="50.45108" lon="3.50111">
        <ele>30.4</ele>
        <time>2021-09-25T19:03:32.356Z</time>
      </trkpt>
      <trkpt lat="50.45115" lon="3.50117">
        <ele>29.9</ele>
        <time>2021-09-25T19:03:33.149Z</time>
      </trkpt>
      <trkpt lat="50.45121" lon="3.50122">
        <ele>29.5</ele>
        <time>2021-09-25T19:03:33.767Z</time>
      </trkpt>
      <trkpt lat="50.45125" lon="3.50125">
        <ele>29.2</ele>
        <time>2021-09-25T19:03:35.121Z</time>
      </trkpt>
      <trkpt lat="50.45131" lon="3.50129">
        <ele>28.9</ele>
        <time>2021-09-25T19:03:40.116Z</time>
      </trkpt>
      <trkpt lat="50.45138" lon="3.50135">
        <ele>28.4</ele>
        <time>2021-09-25T19:03:40.949Z</time>
      </trkpt>
      <trkpt lat="50.45142" lon="3.5014">
        <ele>28.2</ele>
        <time>2021-09-25T19:03:41.950Z</time>
      </trkpt>
      <trkpt lat="50.45149" lon="3.50149">
        <ele>27.9</ele>
        <time>2021-09-25T19:03:50.013Z</time>
      </trkpt>
      <trkpt lat="50.45154" lon="3.50155">
        <ele>27.7</ele>
        <time>2021-09-25T19:03:50.652Z</time>
      </trkpt>
      <trkpt lat="50.45159" lon="3.5016">
        <ele>27.4</ele>
        <time>2021-09-25T19:03:55.947Z</time>
      </trkpt>
      <trkpt lat="50.45164" lon="3.50165">
        <ele>27.2</ele>
        <time>2021-09-25T19:03:56.507Z</time>
      </trkpt>
      <trkpt lat="50.45169" lon="3.5017">
        <ele>27</ele>
        <time>2021-09-25T19:03:57.159Z</time>
      </trkpt>
      <trkpt lat="50.45174" lon="3.50175">
        <ele>27</ele>
        <time>2021-09-25T19:04:02.210Z</time>
      </trkpt>
      <trkpt lat="50.45182" lon="3.50182">
        <ele>26.8</ele>
        <time>2021-09-25T19:04:07.393Z</time>
      </trkpt>
      <trkpt lat="50.45186" lon="3.50186">
        <ele>26.8</ele>
        <time>2021-09-25T19:04:07.880Z</time>
      </trkpt>
      <trkpt lat="50.45194" lon="3.50193">
        <ele>26.7</ele>
        <time>2021-09-25T19:04:12.074Z</time>
      </trkpt>
      <trkpt lat="50.45201" lon="3.502">
        <ele>26.7</ele>
        <time>2021-09-25T19:04:19.757Z</time>
      </trkpt>
      <trkpt lat="50.45206" lon="3.50205">
        <ele>26.7</ele>
        <time>2021-09-25T19:04:20.842Z</time>
      </trkpt>
      <trkpt lat="50.45209" lon="3.50208">
        <ele>26.7</ele>
        <time>2021-09-25T19:04:21.290Z</time>
      </trkpt>
      <trkpt lat="50.45218" lon="3.50216">
        <ele>26.7</ele>
        <time>2021-09-25T19:04:29.742Z</time>
      </trkpt>
      <trkpt lat="50.45224" lon="3.50221">
        <ele>26.6</ele>
        <time>2021-09-25T19:04:30.402Z</time>
      </trkpt>
      <trkpt lat="50.45229" lon="3.50225">
        <ele>26.6</ele>
        <time>2021-09-25T19:04:35.069Z</time>
      </trkpt>
      <trkpt lat="50.45234" lon="3.50229">
        <ele>26.6</ele>
        <time>2021-09-25T19:04:37.613Z</time>
      </trkpt>
      <trkpt lat="50.45239" lon="3.50235">
        <ele>26.7</ele>
        <time>2021-09-25T19:04:38.283Z</time>
      </trkpt>
      <trkpt lat="50.45248" lon="3.50244">
        <ele>26.7</ele>
        <time>2021-09-25T19:04:39.321Z</time>
      </trkpt>
      <trkpt lat="50.45255" lon="3.50251">
        <ele>26.9</ele>
        <time>2021-09-25T19:04:42.739Z</time>
      </trkpt>
      <trkpt lat="50.4526" lon="3.50256">
        <ele>27</ele>
        <time>2021-09-25T19:04:43.332Z</time>
      </trkpt>
      <trkpt lat="50.45264" lon="3.5026">
        <ele>27.2</ele>
        <time>2021-09-25T19:04:47.514Z</time>
      </trkpt>
      <trkpt lat="50.45271" lon="3.50268">
        <ele>27.4</ele>
        <time>2021-09-25T19:04:48.369Z</time>
      </trkpt>
      <trkpt lat="50.45276" lon="3.50272">
        <ele>27.4</ele>
        <time>2021-09-25T19:04:51.248Z</time>
      </trkpt>
      <trkpt lat="50.45282" lon="3.50278">
        <ele>27.5</ele>
        <time>2021-09-25T19:04:51.971Z</time>
      </trkpt>
      <trkpt lat="50.45285" lon="3.50283">
        <ele>27.6</ele>
        <time>2021-09-25T19:04:52.436Z</time>
      </trkpt>
      <trkpt lat="50.4529" lon="3.50288">
        <ele>27.6</ele>
        <time>2021-09-25T19:04:53.347Z</time>
      </trkpt>
      <trkpt lat="50.45298" lon="3.50296">
        <ele>27.6</ele>
        <time>2021-09-25T19:05:01.073Z</time>
      </trkpt>
      <trkpt lat="50.45303" lon="3.503">
        <ele>27.5</ele>
        <time>2021-09-25T19:05:01.662Z</time>
      </trkpt>
      <trkpt lat="50.45312" lon="3.50309">
        <ele>27.4</ele>
        <time>2021-09-25T19:05:06.215Z</time>
      </trkpt>
      <trkpt lat="50.45318" lon="3.50315">
        <ele>27.3</ele>
        <time>2021-09-25T19:05:06.891Z</time>
      </trkpt>
      <trkpt lat="50.45326" lon="3.50322">
        <ele>27.1</ele>
        <time>2021-09-25T19:05:14.613Z</time>
      </trkpt>
      <trkpt lat="50.45331" lon="3.50326">
        <ele>26.9</ele>
        <time>2021-09-25T19:05:15.225Z</time>
      </trkpt>
      <trkpt lat="50.45336" lon="3.50329">
        <ele>26.9</ele>
        <time>2021-09-25T19:05:15.718Z</time>
      </trkpt>
      <trkpt lat="50.45341" lon="3.50335">
        <ele>27.1</ele>
        <time>2021-09-25T19:05:16.334Z</time>
      </trkpt>
      <trkpt lat="50.45347" lon="3.50341">
        <ele>27.1</ele>
        <time>2021-09-25T19:05:22.646Z</time>
      </trkpt>
      <trkpt lat="50.45356" lon="3.50346">
        <ele>27.2</ele>
        <time>2021-09-25T19:05:23.574Z</time>
      </trkpt>
      <trkpt lat="50.45361" lon="3.50349">
        <ele>27.3</ele>
        <time>2021-09-25T19:05:24.744Z</time>
      </trkpt>
      <trkpt lat="50.45366" lon="3.50353">
        <ele>27.3</ele>
        <time>2021-09-25T19:05:25.322Z</time>
      </trkpt>
      <trkpt lat="50.45366" lon="3.50363">
        <ele>27.1</ele>
        <time>2021-09-25T19:05:27.331Z</time>
      </trkpt>
      <trkpt lat="50.45362" lon="3.5037">
        <ele>26.8</ele>
        <time>2021-09-25T19:05:28.753Z</time>
      </trkpt>
      <trkpt lat="50.45358" lon="3.50375">
        <ele>26.6</ele>
        <time>2021-09-25T19:05:29.204Z</time>
      </trkpt>
      <trkpt lat="50.45354" lon="3.50372">
        <ele>26.6</ele>
        <time>2021-09-25T19:05:29.665Z</time>
      </trkpt>
      <trkpt lat="50.45349" lon="3.50372">
        <ele>26.4</ele>
        <time>2021-09-25T19:05:33.594Z</time>
      </trkpt>
      <trkpt lat="50.45346" lon="3.50379">
        <ele>26.2</ele>
        <time>2021-09-25T19:05:34.165Z</time>
      </trkpt>
      <trkpt lat="50.45341" lon="3.50387">
        <ele>25.9</ele>
        <time>2021-09-25T19:05:39.692Z</time>
      </trkpt>
      <trkpt lat="50.45336" lon="3.50395">
        <ele>25.6</ele>
        <time>2021-09-25T19:05:45.849Z</time>
      </trkpt>
      <trkpt lat="50.45331" lon="3.50402">
        <ele>25.5</ele>
        <time>2021-09-25T19:05:52.080Z</time>
      </trkpt>
      <trkpt lat="50.45327" lon="3.50408">
        <ele>25.7</ele>
        <time>2021-09-25T19:05:52.640Z</time>
      </trkpt>
      <trkpt lat="50.45317" lon="3.5042">
        <ele>26.1</ele>
        <time>2021-09-25T19:05:53.822Z</time>
      </trkpt>
      <trkpt lat="50.45307" lon="3.50433">
        <ele>26.4</ele>
        <time>2021-09-25T19:06:01.308Z</time>
      </trkpt>
      <trkpt lat="50.45301" lon="3.50443">
        <ele>26.6</ele>
        <time>2021-09-25T19:06:09.328Z</time>
      </trkpt>
      <trkpt lat="50.45289" lon="3.50459">
        <ele>26.9</ele>
        <time>2021-09-25T19:06:22.289Z</time>
      </trkpt>
      <trkpt lat="50.45282" lon="3.5047">
        <ele>27</ele>
        <time>2021-09-25T19:06:26.141Z</time>
      </trkpt>
      <trkpt lat="50.45273" lon="3.50485">
        <ele>27.1</ele>
        <time>2021-09-25T19:06:27.436Z</time>
      </trkpt>
      <trkpt lat="50.4527" lon="3.5049">
        <ele>27.1</ele>
        <time>2021-09-25T19:06:27.879Z</time>
      </trkpt>
      <trkpt lat="50.45268" lon="3.505">
        <ele>26.9</ele>
        <time>2021-09-25T19:06:28.541Z</time>
      </trkpt>
      <trkpt lat="50.45264" lon="3.50507">
        <ele>26.9</ele>
        <time>2021-09-25T19:06:33.930Z</time>
      </trkpt>
      <trkpt lat="50.45259" lon="3.50512">
        <ele>27.1</ele>
        <time>2021-09-25T19:06:34.497Z</time>
      </trkpt>
      <trkpt lat="50.45254" lon="3.50515">
        <ele>27.2</ele>
        <time>2021-09-25T19:06:39.409Z</time>
      </trkpt>
      <trkpt lat="50.45249" lon="3.50522">
        <ele>27.3</ele>
        <time>2021-09-25T19:06:40.037Z</time>
      </trkpt>
      <trkpt lat="50.45246" lon="3.50528">
        <ele>27.3</ele>
        <time>2021-09-25T19:06:44.310Z</time>
      </trkpt>
      <trkpt lat="50.45239" lon="3.50539">
        <ele>27.5</ele>
        <time>2021-09-25T19:06:45.256Z</time>
      </trkpt>
      <trkpt lat="50.45234" lon="3.50546">
        <ele>27.6</ele>
        <time>2021-09-25T19:06:45.873Z</time>
      </trkpt>
      <trkpt lat="50.45231" lon="3.5055">
        <ele>27.7</ele>
        <time>2021-09-25T19:06:49.703Z</time>
      </trkpt>
      <trkpt lat="50.45227" lon="3.50555">
        <ele>27.8</ele>
        <time>2021-09-25T19:06:50.177Z</time>
      </trkpt>
      <trkpt lat="50.45224" lon="3.50561">
        <ele>27.8</ele>
        <time>2021-09-25T19:06:50.718Z</time>
      </trkpt>
      <trkpt lat="50.4522" lon="3.50566">
        <ele>27.9</ele>
        <time>2021-09-25T19:06:52.421Z</time>
      </trkpt>
      <trkpt lat="50.45213" lon="3.50575">
        <ele>28</ele>
        <time>2021-09-25T19:06:53.361Z</time>
      </trkpt>
      <trkpt lat="50.45207" lon="3.5058">
        <ele>28.2</ele>
        <time>2021-09-25T19:06:58.598Z</time>
      </trkpt>
      <trkpt lat="50.45203" lon="3.50585">
        <ele>28.3</ele>
        <time>2021-09-25T19:06:59.113Z</time>
      </trkpt>
      <trkpt lat="50.45198" lon="3.5059">
        <ele>28.4</ele>
        <time>2021-09-25T19:06:59.687Z</time>
      </trkpt>
      <trkpt lat="50.45193" lon="3.50597">
        <ele>28.4</ele>
        <time>2021-09-25T19:07:05.774Z</time>
      </trkpt>
      <trkpt lat="50.45188" lon="3.50602">
        <ele>28.6</ele>
        <time>2021-09-25T19:07:06.332Z</time>
      </trkpt>
      <trkpt lat="50.45181" lon="3.5061">
        <ele>28.7</ele>
        <time>2021-09-25T19:07:13.937Z</time>
      </trkpt>
      <trkpt lat="50.45177" lon="3.50615">
        <ele>28.7</ele>
        <time>2021-09-25T19:07:14.432Z</time>
      </trkpt>
      <trkpt lat="50.45173" lon="3.50621">
        <ele>28.7</ele>
        <time>2021-09-25T19:07:14.960Z</time>
      </trkpt>
      <trkpt lat="50.4517" lon="3.50626">
        <ele>28.7</ele>
        <time>2021-09-25T19:07:16.305Z</time>
      </trkpt>
      <trkpt lat="50.45166" lon="3.50631">
        <ele>28.7</ele>
        <time>2021-09-25T19:07:16.762Z</time>
      </trkpt>
      <trkpt lat="50.45162" lon="3.50634">
        <ele>28.8</ele>
        <time>2021-09-25T19:07:20.748Z</time>
      </trkpt>
      <trkpt lat="50.45155" lon="3.50639">
        <ele>29</ele>
        <time>2021-09-25T19:07:21.460Z</time>
      </trkpt>
      <trkpt lat="50.4515" lon="3.50642">
        <ele>29.2</ele>
        <time>2021-09-25T19:07:26.487Z</time>
      </trkpt>
      <trkpt lat="50.45145" lon="3.50644">
        <ele>29.4</ele>
        <time>2021-09-25T19:07:26.961Z</time>
      </trkpt>
      <trkpt lat="50.45141" lon="3.50647">
        <ele>29.6</ele>
        <time>2021-09-25T19:07:27.413Z</time>
      </trkpt>
      <trkpt lat="50.45136" lon="3.5065">
        <ele>29.8</ele>
        <time>2021-09-25T19:07:32.085Z</time>
      </trkpt>
      <trkpt lat="50.45131" lon="3.50654">
        <ele>30</ele>
        <time>2021-09-25T19:07:36.884Z</time>
      </trkpt>
      <trkpt lat="50.45127" lon="3.5066">
        <ele>30.1</ele>
        <time>2021-09-25T19:07:37.433Z</time>
      </trkpt>
      <trkpt lat="50.45123" lon="3.50664">
        <ele>30.2</ele>
        <time>2021-09-25T19:07:41.605Z</time>
      </trkpt>
      <trkpt lat="50.45117" lon="3.50668">
        <ele>30.5</ele>
        <time>2021-09-25T19:07:46.509Z</time>
      </trkpt>
      <trkpt lat="50.45113" lon="3.50672">
        <ele>30.7</ele>
        <time>2021-09-25T19:07:50.503Z</time>
      </trkpt>
      <trkpt lat="50.45109" lon="3.50679">
        <ele>30.7</ele>
        <time>2021-09-25T19:07:55.763Z</time>
      </trkpt>
      <trkpt lat="50.45107" lon="3.50687">
        <ele>30.5</ele>
        <time>2021-09-25T19:08:00.328Z</time>
      </trkpt>
      <trkpt lat="50.45107" lon="3.50697">
        <ele>30.2</ele>
        <time>2021-09-25T19:08:00.948Z</time>
      </trkpt>
      <trkpt lat="50.45105" lon="3.50705">
        <ele>30</ele>
        <time>2021-09-25T19:08:04.432Z</time>
      </trkpt>
      <trkpt lat="50.45099" lon="3.50712">
        <ele>30</ele>
        <time>2021-09-25T19:08:05.132Z</time>
      </trkpt>
      <trkpt lat="50.45093" lon="3.50719">
        <ele>30</ele>
        <time>2021-09-25T19:08:11.650Z</time>
      </trkpt>
      <trkpt lat="50.45088" lon="3.50723">
        <ele>30.1</ele>
        <time>2021-09-25T19:08:16.227Z</time>
      </trkpt>
      <trkpt lat="50.45084" lon="3.50728">
        <ele>30</ele>
        <time>2021-09-25T19:08:16.749Z</time>
      </trkpt>
      <trkpt lat="50.45079" lon="3.50737">
        <ele>29.7</ele>
        <time>2021-09-25T19:08:19.032Z</time>
      </trkpt>
      <trkpt lat="50.4508" lon="3.50748">
        <ele>29.2</ele>
        <time>2021-09-25T19:08:25.237Z</time>
      </trkpt>
      <trkpt lat="50.45078" lon="3.50755">
        <ele>28.8</ele>
        <time>2021-09-25T19:08:26.292Z</time>
      </trkpt>
      <trkpt lat="50.45075" lon="3.50761">
        <ele>28.6</ele>
        <time>2021-09-25T19:08:26.813Z</time>
      </trkpt>
      <trkpt lat="50.45069" lon="3.50767">
        <ele>28.4</ele>
        <time>2021-09-25T19:08:32.426Z</time>
      </trkpt>
      <trkpt lat="50.45063" lon="3.50775">
        <ele>28.1</ele>
        <time>2021-09-25T19:08:37.651Z</time>
      </trkpt>
      <trkpt lat="50.45059" lon="3.50781">
        <ele>27.9</ele>
        <time>2021-09-25T19:08:38.140Z</time>
      </trkpt>
      <trkpt lat="50.45052" lon="3.5079">
        <ele>27.7</ele>
        <time>2021-09-25T19:08:39.060Z</time>
      </trkpt>
      <trkpt lat="50.45048" lon="3.50797">
        <ele>27.5</ele>
        <time>2021-09-25T19:08:39.707Z</time>
      </trkpt>
      <trkpt lat="50.45043" lon="3.50803">
        <ele>27.4</ele>
        <time>2021-09-25T19:08:44.914Z</time>
      </trkpt>
      <trkpt lat="50.45036" lon="3.50811">
        <ele>27.3</ele>
        <time>2021-09-25T19:08:45.780Z</time>
      </trkpt>
      <trkpt lat="50.45032" lon="3.50817">
        <ele>27.2</ele>
        <time>2021-09-25T19:08:47.184Z</time>
      </trkpt>
      <trkpt lat="50.45027" lon="3.50822">
        <ele>27.2</ele>
        <time>2021-09-25T19:08:48.076Z</time>
      </trkpt>
      <trkpt lat="50.45023" lon="3.50825">
        <ele>27.3</ele>
        <time>2021-09-25T19:08:49.130Z</time>
      </trkpt>
      <trkpt lat="50.45016" lon="3.50831">
        <ele>27.3</ele>
        <time>2021-09-25T19:08:50.884Z</time>
      </trkpt>
      <trkpt lat="50.45012" lon="3.50836">
        <ele>27.3</ele>
        <time>2021-09-25T19:08:51.566Z</time>
      </trkpt>
      <trkpt lat="50.45008" lon="3.5084">
        <ele>27.3</ele>
        <time>2021-09-25T19:08:52.642Z</time>
      </trkpt>
      <trkpt lat="50.45004" lon="3.50845">
        <ele>27.3</ele>
        <time>2021-09-25T19:08:53.731Z</time>
      </trkpt>
      <trkpt lat="50.45" lon="3.5085">
        <ele>27.2</ele>
        <time>2021-09-25T19:08:54.461Z</time>
      </trkpt>
      <trkpt lat="50.44996" lon="3.50855">
        <ele>27</ele>
        <time>2021-09-25T19:08:55.807Z</time>
      </trkpt>
      <trkpt lat="50.44992" lon="3.50861">
        <ele>26.8</ele>
        <time>2021-09-25T19:08:57.098Z</time>
      </trkpt>
      <trkpt lat="50.44986" lon="3.50868">
        <ele>26.6</ele>
        <time>2021-09-25T19:08:58.762Z</time>
      </trkpt>
      <trkpt lat="50.44981" lon="3.50875">
        <ele>26.5</ele>
        <time>2021-09-25T19:09:00.221Z</time>
      </trkpt>
      <trkpt lat="50.44976" lon="3.50885">
        <ele>26.2</ele>
        <time>2021-09-25T19:09:01.537Z</time>
      </trkpt>
      <trkpt lat="50.44969" lon="3.50894">
        <ele>26</ele>
        <time>2021-09-25T19:09:03.490Z</time>
      </trkpt>
      <trkpt lat="50.44965" lon="3.50899">
        <ele>25.9</ele>
        <time>2021-09-25T19:09:04.561Z</time>
      </trkpt>
      <trkpt lat="50.44959" lon="3.50907">
        <ele>25.8</ele>
        <time>2021-09-25T19:09:06.518Z</time>
      </trkpt>
      <trkpt lat="50.44955" lon="3.50912">
        <ele>25.8</ele>
        <time>2021-09-25T19:09:07.206Z</time>
      </trkpt>
      <trkpt lat="50.4496" lon="3.50909">
        <ele>25.7</ele>
        <time>2021-09-25T19:09:08.944Z</time>
      </trkpt>
      <trkpt lat="50.44956" lon="3.50919">
        <ele>25.5</ele>
        <time>2021-09-25T19:09:10.054Z</time>
      </trkpt>
      <trkpt lat="50.44951" lon="3.50925">
        <ele>25.4</ele>
        <time>2021-09-25T19:09:11.510Z</time>
      </trkpt>
      <trkpt lat="50.44944" lon="3.50931">
        <ele>25.5</ele>
        <time>2021-09-25T19:09:13.188Z</time>
      </trkpt>
      <trkpt lat="50.44939" lon="3.50935">
        <ele>25.6</ele>
        <time>2021-09-25T19:09:13.994Z</time>
      </trkpt>
      <trkpt lat="50.44934" lon="3.50933">
        <ele>25.9</ele>
        <time>2021-09-25T19:09:15.279Z</time>
      </trkpt>
      <trkpt lat="50.44931" lon="3.50925">
        <ele>26.2</ele>
        <time>2021-09-25T19:09:16.794Z</time>
      </trkpt>
      <trkpt lat="50.44925" lon="3.50922">
        <ele>26.6</ele>
        <time>2021-09-25T19:09:18.119Z</time>
      </trkpt>
      <trkpt lat="50.44917" lon="3.5092">
        <ele>26.9</ele>
        <time>2021-09-25T19:09:19.360Z</time>
      </trkpt>
      <trkpt lat="50.44912" lon="3.50919">
        <ele>27.2</ele>
        <time>2021-09-25T19:09:20.601Z</time>
      </trkpt>
      <trkpt lat="50.44905" lon="3.50916">
        <ele>27.7</ele>
        <time>2021-09-25T19:09:22.437Z</time>
      </trkpt>
      <trkpt lat="50.44899" lon="3.50914">
        <ele>28.1</ele>
        <time>2021-09-25T19:09:23.635Z</time>
      </trkpt>
      <trkpt lat="50.44895" lon="3.50912">
        <ele>28.4</ele>
        <time>2021-09-25T19:09:24.657Z</time>
      </trkpt>
      <trkpt lat="50.44889" lon="3.5091">
        <ele>28.7</ele>
        <time>2021-09-25T19:09:25.967Z</time>
      </trkpt>
      <trkpt lat="50.44884" lon="3.50908">
        <ele>29</ele>
        <time>2021-09-25T19:09:27.075Z</time>
      </trkpt>
      <trkpt lat="50.44878" lon="3.50906">
        <ele>29.4</ele>
        <time>2021-09-25T19:09:28.412Z</time>
      </trkpt>
      <trkpt lat="50.44872" lon="3.50903">
        <ele>29.7</ele>
        <time>2021-09-25T19:09:29.755Z</time>
      </trkpt>
      <trkpt lat="50.44868" lon="3.50901">
        <ele>30</ele>
        <time>2021-09-25T19:09:31.007Z</time>
      </trkpt>
      <trkpt lat="50.44861" lon="3.50898">
        <ele>30.3</ele>
        <time>2021-09-25T19:09:32.079Z</time>
      </trkpt>
      <trkpt lat="50.44855" lon="3.50895">
        <ele>30.6</ele>
        <time>2021-09-25T19:09:33.499Z</time>
      </trkpt>
      <trkpt lat="50.44848" lon="3.50892">
        <ele>31</ele>
        <time>2021-09-25T19:09:35.420Z</time>
      </trkpt>
      <trkpt lat="50.44841" lon="3.50887">
        <ele>31.3</ele>
        <time>2021-09-25T19:09:36.609Z</time>
      </trkpt>
      <trkpt lat="50.44835" lon="3.50884">
        <ele>31.5</ele>
        <time>2021-09-25T19:09:37.862Z</time>
      </trkpt>
      <trkpt lat="50.4483" lon="3.50882">
        <ele>31.7</ele>
        <time>2021-09-25T19:09:39.134Z</time>
      </trkpt>
      <trkpt lat="50.44824" lon="3.50879">
        <ele>31.8</ele>
        <time>2021-09-25T19:09:40.572Z</time>
      </trkpt>
      <trkpt lat="50.44819" lon="3.50876">
        <ele>31.9</ele>
        <time>2021-09-25T19:09:42.009Z</time>
      </trkpt>
      <trkpt lat="50.44814" lon="3.50875">
        <ele>32</ele>
        <time>2021-09-25T19:09:43.074Z</time>
      </trkpt>
      <trkpt lat="50.44807" lon="3.50871">
        <ele>32.1</ele>
        <time>2021-09-25T19:09:44.730Z</time>
      </trkpt>
      <trkpt lat="50.44799" lon="3.50865">
        <ele>32.2</ele>
        <time>2021-09-25T19:09:46.025Z</time>
      </trkpt>
      <trkpt lat="50.44792" lon="3.50859">
        <ele>32.3</ele>
        <time>2021-09-25T19:09:47.991Z</time>
      </trkpt>
      <trkpt lat="50.44785" lon="3.50855">
        <ele>32.4</ele>
        <time>2021-09-25T19:09:49.788Z</time>
      </trkpt>
      <trkpt lat="50.4478" lon="3.50853">
        <ele>32.5</ele>
        <time>2021-09-25T19:09:50.938Z</time>
      </trkpt>
      <trkpt lat="50.44774" lon="3.50851">
        <ele>32.6</ele>
        <time>2021-09-25T19:09:52.253Z</time>
      </trkpt>
      <trkpt lat="50.44769" lon="3.50848">
        <ele>32.7</ele>
        <time>2021-09-25T19:09:53.461Z</time>
      </trkpt>
      <trkpt lat="50.4476" lon="3.50845">
        <ele>32.9</ele>
        <time>2021-09-25T19:09:55.617Z</time>
      </trkpt>
      <trkpt lat="50.44755" lon="3.50843">
        <ele>33</ele>
        <time>2021-09-25T19:09:57.047Z</time>
      </trkpt>
      <trkpt lat="50.44756" lon="3.50851">
        <ele>33.1</ele>
        <time>2021-09-25T19:10:01.142Z</time>
      </trkpt>
      <trkpt lat="50.44752" lon="3.5085">
        <ele>33.2</ele>
        <time>2021-09-25T19:10:01.650Z</time>
      </trkpt>
      <trkpt lat="50.44746" lon="3.50847">
        <ele>33.2</ele>
        <time>2021-09-25T19:10:02.262Z</time>
      </trkpt>
      <trkpt lat="50.4474" lon="3.50844">
        <ele>33.1</ele>
        <time>2021-09-25T19:10:07.791Z</time>
      </trkpt>
      <trkpt lat="50.44726" lon="3.50838">
        <ele>33.1</ele>
        <time>2021-09-25T19:10:09.268Z</time>
      </trkpt>
      <trkpt lat="50.4472" lon="3.50835">
        <ele>33</ele>
        <time>2021-09-25T19:10:14.272Z</time>
      </trkpt>
      <trkpt lat="50.44712" lon="3.50832">
        <ele>33</ele>
        <time>2021-09-25T19:10:15.125Z</time>
      </trkpt>
      <trkpt lat="50.44703" lon="3.50829">
        <ele>33</ele>
        <time>2021-09-25T19:10:15.968Z</time>
      </trkpt>
      <trkpt lat="50.44697" lon="3.50827">
        <ele>33</ele>
        <time>2021-09-25T19:10:21.522Z</time>
      </trkpt>
      <trkpt lat="50.44688" lon="3.50824">
        <ele>33.1</ele>
        <time>2021-09-25T19:10:22.432Z</time>
      </trkpt>
      <trkpt lat="50.44688" lon="3.50817">
        <ele>33.1</ele>
        <time>2021-09-25T19:10:22.876Z</time>
      </trkpt>
      <trkpt lat="50.44682" lon="3.50815">
        <ele>33.2</ele>
        <time>2021-09-25T19:10:27.533Z</time>
      </trkpt>
      <trkpt lat="50.44676" lon="3.50816">
        <ele>33.2</ele>
        <time>2021-09-25T19:10:28.192Z</time>
      </trkpt>
      <trkpt lat="50.4467" lon="3.50814">
        <ele>33.2</ele>
        <time>2021-09-25T19:10:32.283Z</time>
      </trkpt>
      <trkpt lat="50.44661" lon="3.50811">
        <ele>33.3</ele>
        <time>2021-09-25T19:10:36.481Z</time>
      </trkpt>
      <trkpt lat="50.44656" lon="3.5081">
        <ele>33.4</ele>
        <time>2021-09-25T19:10:37.581Z</time>
      </trkpt>
      <trkpt lat="50.44646" lon="3.50806">
        <ele>33.6</ele>
        <time>2021-09-25T19:10:38.635Z</time>
      </trkpt>
      <trkpt lat="50.4464" lon="3.50803">
        <ele>33.7</ele>
        <time>2021-09-25T19:10:39.618Z</time>
      </trkpt>
      <trkpt lat="50.44631" lon="3.508">
        <ele>33.8</ele>
        <time>2021-09-25T19:10:47.622Z</time>
      </trkpt>
      <trkpt lat="50.4462" lon="3.50795">
        <ele>34</ele>
        <time>2021-09-25T19:10:48.689Z</time>
      </trkpt>
      <trkpt lat="50.44611" lon="3.5079">
        <ele>34.2</ele>
        <time>2021-09-25T19:10:55.999Z</time>
      </trkpt>
      <trkpt lat="50.44603" lon="3.50786">
        <ele>34.3</ele>
        <time>2021-09-25T19:10:56.831Z</time>
      </trkpt>
      <trkpt lat="50.44598" lon="3.50784">
        <ele>34.4</ele>
        <time>2021-09-25T19:10:58.624Z</time>
      </trkpt>
      <trkpt lat="50.44592" lon="3.50782">
        <ele>34.5</ele>
        <time>2021-09-25T19:11:03.709Z</time>
      </trkpt>
      <trkpt lat="50.44586" lon="3.5078">
        <ele>34.6</ele>
        <time>2021-09-25T19:11:04.318Z</time>
      </trkpt>
      <trkpt lat="50.44577" lon="3.50776">
        <ele>34.7</ele>
        <time>2021-09-25T19:11:05.260Z</time>
      </trkpt>
      <trkpt lat="50.44572" lon="3.50773">
        <ele>34.7</ele>
        <time>2021-09-25T19:11:10.026Z</time>
      </trkpt>
      <trkpt lat="50.44565" lon="3.50771">
        <ele>34.6</ele>
        <time>2021-09-25T19:11:10.771Z</time>
      </trkpt>
      <trkpt lat="50.44558" lon="3.50768">
        <ele>34.6</ele>
        <time>2021-09-25T19:11:13.811Z</time>
      </trkpt>
      <trkpt lat="50.44552" lon="3.50764">
        <ele>34.6</ele>
        <time>2021-09-25T19:11:14.525Z</time>
      </trkpt>
      <trkpt lat="50.44547" lon="3.50761">
        <ele>34.5</ele>
        <time>2021-09-25T19:11:18.541Z</time>
      </trkpt>
      <trkpt lat="50.44541" lon="3.50758">
        <ele>34.5</ele>
        <time>2021-09-25T19:11:21.020Z</time>
      </trkpt>
      <trkpt lat="50.44537" lon="3.50755">
        <ele>34.5</ele>
        <time>2021-09-25T19:11:21.496Z</time>
      </trkpt>
      <trkpt lat="50.44531" lon="3.50751">
        <ele>34.4</ele>
        <time>2021-09-25T19:11:26.945Z</time>
      </trkpt>
      <trkpt lat="50.44526" lon="3.50749">
        <ele>34.3</ele>
        <time>2021-09-25T19:11:27.473Z</time>
      </trkpt>
      <trkpt lat="50.44521" lon="3.50747">
        <ele>34.2</ele>
        <time>2021-09-25T19:11:28.213Z</time>
      </trkpt>
      <trkpt lat="50.44516" lon="3.50745">
        <ele>34.1</ele>
        <time>2021-09-25T19:11:32.111Z</time>
      </trkpt>
      <trkpt lat="50.4451" lon="3.50742">
        <ele>34</ele>
        <time>2021-09-25T19:11:37.304Z</time>
      </trkpt>
      <trkpt lat="50.44505" lon="3.50741">
        <ele>34</ele>
        <time>2021-09-25T19:11:37.820Z</time>
      </trkpt>
      <trkpt lat="50.44497" lon="3.50738">
        <ele>33.9</ele>
        <time>2021-09-25T19:11:38.640Z</time>
      </trkpt>
      <trkpt lat="50.44489" lon="3.50735">
        <ele>33.8</ele>
        <time>2021-09-25T19:11:45.885Z</time>
      </trkpt>
      <trkpt lat="50.44481" lon="3.50731">
        <ele>33.8</ele>
        <time>2021-09-25T19:11:46.739Z</time>
      </trkpt>
      <trkpt lat="50.44476" lon="3.50728">
        <ele>33.7</ele>
        <time>2021-09-25T19:11:47.257Z</time>
      </trkpt>
      <trkpt lat="50.4447" lon="3.50726">
        <ele>33.7</ele>
        <time>2021-09-25T19:11:51.871Z</time>
      </trkpt>
      <trkpt lat="50.44465" lon="3.50724">
        <ele>33.7</ele>
        <time>2021-09-25T19:11:52.420Z</time>
      </trkpt>
      <trkpt lat="50.44456" lon="3.50719">
        <ele>33.6</ele>
        <time>2021-09-25T19:12:00.864Z</time>
      </trkpt>
      <trkpt lat="50.44449" lon="3.50715">
        <ele>33.6</ele>
        <time>2021-09-25T19:12:01.568Z</time>
      </trkpt>
      <trkpt lat="50.44442" lon="3.50711">
        <ele>33.5</ele>
        <time>2021-09-25T19:12:07.600Z</time>
      </trkpt>
      <trkpt lat="50.44437" lon="3.50709">
        <ele>33.5</ele>
        <time>2021-09-25T19:12:08.280Z</time>
      </trkpt>
      <trkpt lat="50.44431" lon="3.50706">
        <ele>33.5</ele>
        <time>2021-09-25T19:12:13.694Z</time>
      </trkpt>
      <trkpt lat="50.44425" lon="3.50704">
        <ele>33.4</ele>
        <time>2021-09-25T19:12:14.338Z</time>
      </trkpt>
      <trkpt lat="50.44415" lon="3.50701">
        <ele>33.4</ele>
        <time>2021-09-25T19:12:15.301Z</time>
      </trkpt>
      <trkpt lat="50.44408" lon="3.50697">
        <ele>33.3</ele>
        <time>2021-09-25T19:12:21.288Z</time>
      </trkpt>
      <trkpt lat="50.44403" lon="3.50694">
        <ele>33.2</ele>
        <time>2021-09-25T19:12:24.214Z</time>
      </trkpt>
      <trkpt lat="50.44394" lon="3.50689">
        <ele>33</ele>
        <time>2021-09-25T19:12:25.184Z</time>
      </trkpt>
      <trkpt lat="50.44389" lon="3.50686">
        <ele>32.9</ele>
        <time>2021-09-25T19:12:25.697Z</time>
      </trkpt>
      <trkpt lat="50.4438" lon="3.50682">
        <ele>32.7</ele>
        <time>2021-09-25T19:12:31.514Z</time>
      </trkpt>
      <trkpt lat="50.44373" lon="3.50678">
        <ele>32.6</ele>
        <time>2021-09-25T19:12:32.255Z</time>
      </trkpt>
      <trkpt lat="50.44367" lon="3.50676">
        <ele>32.5</ele>
        <time>2021-09-25T19:12:32.887Z</time>
      </trkpt>
      <trkpt lat="50.44359" lon="3.50672">
        <ele>32.4</ele>
        <time>2021-09-25T19:12:33.712Z</time>
      </trkpt>
      <trkpt lat="50.44354" lon="3.5067">
        <ele>32.3</ele>
        <time>2021-09-25T19:12:38.230Z</time>
      </trkpt>
      <trkpt lat="50.44348" lon="3.50668">
        <ele>32.2</ele>
        <time>2021-09-25T19:12:43.040Z</time>
      </trkpt>
      <trkpt lat="50.4434" lon="3.50665">
        <ele>32.1</ele>
        <time>2021-09-25T19:12:45.415Z</time>
      </trkpt>
      <trkpt lat="50.44329" lon="3.50662">
        <ele>32.2</ele>
        <time>2021-09-25T19:12:51.184Z</time>
      </trkpt>
      <trkpt lat="50.44325" lon="3.5066">
        <ele>32.3</ele>
        <time>2021-09-25T19:12:51.650Z</time>
      </trkpt>
      <trkpt lat="50.44319" lon="3.50659">
        <ele>32.4</ele>
        <time>2021-09-25T19:12:52.192Z</time>
      </trkpt>
      <trkpt lat="50.44315" lon="3.50657">
        <ele>32.6</ele>
        <time>2021-09-25T19:12:56.434Z</time>
      </trkpt>
      <trkpt lat="50.44306" lon="3.50652">
        <ele>32.8</ele>
        <time>2021-09-25T19:12:57.466Z</time>
      </trkpt>
      <trkpt lat="50.44301" lon="3.5065">
        <ele>33</ele>
        <time>2021-09-25T19:12:58.858Z</time>
      </trkpt>
      <trkpt lat="50.44296" lon="3.50648">
        <ele>33.1</ele>
        <time>2021-09-25T19:12:59.595Z</time>
      </trkpt>
      <trkpt lat="50.44285" lon="3.50643">
        <ele>33.4</ele>
        <time>2021-09-25T19:13:02.089Z</time>
      </trkpt>
      <trkpt lat="50.4428" lon="3.5064">
        <ele>33.6</ele>
        <time>2021-09-25T19:13:06.734Z</time>
      </trkpt>
      <trkpt lat="50.44275" lon="3.50638">
        <ele>33.7</ele>
        <time>2021-09-25T19:13:11.059Z</time>
      </trkpt>
      <trkpt lat="50.44267" lon="3.50635">
        <ele>34</ele>
        <time>2021-09-25T19:13:11.841Z</time>
      </trkpt>
      <trkpt lat="50.4426" lon="3.50632">
        <ele>34.2</ele>
        <time>2021-09-25T19:13:12.931Z</time>
      </trkpt>
      <trkpt lat="50.44256" lon="3.5063">
        <ele>34.3</ele>
        <time>2021-09-25T19:13:14.991Z</time>
      </trkpt>
      <trkpt lat="50.44247" lon="3.50626">
        <ele>34.5</ele>
        <time>2021-09-25T19:13:15.841Z</time>
      </trkpt>
      <trkpt lat="50.44243" lon="3.50624">
        <ele>34.5</ele>
        <time>2021-09-25T19:13:20.112Z</time>
      </trkpt>
      <trkpt lat="50.44231" lon="3.50619">
        <ele>34.6</ele>
        <time>2021-09-25T19:13:30.016Z</time>
      </trkpt>
      <trkpt lat="50.44225" lon="3.50616">
        <ele>34.6</ele>
        <time>2021-09-25T19:13:30.716Z</time>
      </trkpt>
      <trkpt lat="50.44217" lon="3.50614">
        <ele>34.6</ele>
        <time>2021-09-25T19:13:31.544Z</time>
      </trkpt>
      <trkpt lat="50.44212" lon="3.50611">
        <ele>34.7</ele>
        <time>2021-09-25T19:13:32.758Z</time>
      </trkpt>
      <trkpt lat="50.44203" lon="3.50607">
        <ele>34.7</ele>
        <time>2021-09-25T19:13:41.243Z</time>
      </trkpt>
      <trkpt lat="50.44198" lon="3.50606">
        <ele>34.7</ele>
        <time>2021-09-25T19:13:45.363Z</time>
      </trkpt>
      <trkpt lat="50.4419" lon="3.50603">
        <ele>34.8</ele>
        <time>2021-09-25T19:13:46.140Z</time>
      </trkpt>
      <trkpt lat="50.44185" lon="3.506">
        <ele>34.8</ele>
        <time>2021-09-25T19:13:49.075Z</time>
      </trkpt>
      <trkpt lat="50.44175" lon="3.50596">
        <ele>34.8</ele>
        <time>2021-09-25T19:13:50.290Z</time>
      </trkpt>
      <trkpt lat="50.44167" lon="3.50591">
        <ele>34.9</ele>
        <time>2021-09-25T19:13:51.101Z</time>
      </trkpt>
      <trkpt lat="50.44162" lon="3.50588">
        <ele>34.9</ele>
        <time>2021-09-25T19:13:52.226Z</time>
      </trkpt>
      <trkpt lat="50.44154" lon="3.50583">
        <ele>34.8</ele>
        <time>2021-09-25T19:13:54.549Z</time>
      </trkpt>
      <trkpt lat="50.44144" lon="3.50579">
        <ele>34.7</ele>
        <time>2021-09-25T19:14:03.116Z</time>
      </trkpt>
      <trkpt lat="50.44134" lon="3.50575">
        <ele>34.6</ele>
        <time>2021-09-25T19:14:07.287Z</time>
      </trkpt>
      <trkpt lat="50.44129" lon="3.50573">
        <ele>34.5</ele>
        <time>2021-09-25T19:14:11.324Z</time>
      </trkpt>
      <trkpt lat="50.44122" lon="3.50572">
        <ele>34.5</ele>
        <time>2021-09-25T19:14:12.099Z</time>
      </trkpt>
      <trkpt lat="50.44116" lon="3.50572">
        <ele>34.4</ele>
        <time>2021-09-25T19:14:14.012Z</time>
      </trkpt>
      <trkpt lat="50.4411" lon="3.50568">
        <ele>34.3</ele>
        <time>2021-09-25T19:14:14.557Z</time>
      </trkpt>
      <trkpt lat="50.44101" lon="3.50563">
        <ele>34.2</ele>
        <time>2021-09-25T19:14:22.847Z</time>
      </trkpt>
      <trkpt lat="50.44094" lon="3.5056">
        <ele>34.1</ele>
        <time>2021-09-25T19:14:23.562Z</time>
      </trkpt>
      <trkpt lat="50.44086" lon="3.50557">
        <ele>34</ele>
        <time>2021-09-25T19:14:27.731Z</time>
      </trkpt>
      <trkpt lat="50.44078" lon="3.50552">
        <ele>34.1</ele>
        <time>2021-09-25T19:14:28.506Z</time>
      </trkpt>
      <trkpt lat="50.44074" lon="3.50549">
        <ele>34.1</ele>
        <time>2021-09-25T19:14:32.942Z</time>
      </trkpt>
      <trkpt lat="50.44067" lon="3.50548">
        <ele>34.2</ele>
        <time>2021-09-25T19:14:33.949Z</time>
      </trkpt>
      <trkpt lat="50.44061" lon="3.50547">
        <ele>34.3</ele>
        <time>2021-09-25T19:14:35.793Z</time>
      </trkpt>
      <trkpt lat="50.44056" lon="3.50544">
        <ele>34.3</ele>
        <time>2021-09-25T19:14:36.308Z</time>
      </trkpt>
      <trkpt lat="50.44046" lon="3.5054">
        <ele>34.4</ele>
        <time>2021-09-25T19:14:45.867Z</time>
      </trkpt>
      <trkpt lat="50.44041" lon="3.50537">
        <ele>34.5</ele>
        <time>2021-09-25T19:14:46.383Z</time>
      </trkpt>
      <trkpt lat="50.4403" lon="3.50532">
        <ele>34.6</ele>
        <time>2021-09-25T19:14:54.985Z</time>
      </trkpt>
      <trkpt lat="50.4402" lon="3.50526">
        <ele>34.8</ele>
        <time>2021-09-25T19:14:56.369Z</time>
      </trkpt>
      <trkpt lat="50.4401" lon="3.50522">
        <ele>34.9</ele>
        <time>2021-09-25T19:15:05.005Z</time>
      </trkpt>
      <trkpt lat="50.44003" lon="3.5052">
        <ele>35</ele>
        <time>2021-09-25T19:15:05.772Z</time>
      </trkpt>
      <trkpt lat="50.43994" lon="3.50515">
        <ele>35.1</ele>
        <time>2021-09-25T19:15:06.688Z</time>
      </trkpt>
      <trkpt lat="50.43984" lon="3.50511">
        <ele>35.2</ele>
        <time>2021-09-25T19:15:10.539Z</time>
      </trkpt>
      <trkpt lat="50.43978" lon="3.5051">
        <ele>35.2</ele>
        <time>2021-09-25T19:15:16.384Z</time>
      </trkpt>
      <trkpt lat="50.43972" lon="3.50509">
        <ele>35.3</ele>
        <time>2021-09-25T19:15:16.934Z</time>
      </trkpt>
      <trkpt lat="50.43967" lon="3.50506">
        <ele>35.4</ele>
        <time>2021-09-25T19:15:21.173Z</time>
      </trkpt>
      <trkpt lat="50.43963" lon="3.50503">
        <ele>35.4</ele>
        <time>2021-09-25T19:15:21.670Z</time>
      </trkpt>
      <trkpt lat="50.43958" lon="3.50501">
        <ele>35.5</ele>
        <time>2021-09-25T19:15:22.153Z</time>
      </trkpt>
      <trkpt lat="50.4395" lon="3.50497">
        <ele>35.6</ele>
        <time>2021-09-25T19:15:23.037Z</time>
      </trkpt>
      <trkpt lat="50.43941" lon="3.50492">
        <ele>35.7</ele>
        <time>2021-09-25T19:15:31.041Z</time>
      </trkpt>
      <trkpt lat="50.43932" lon="3.50489">
        <ele>35.8</ele>
        <time>2021-09-25T19:15:31.947Z</time>
      </trkpt>
      <trkpt lat="50.43925" lon="3.50489">
        <ele>35.9</ele>
        <time>2021-09-25T19:15:38.014Z</time>
      </trkpt>
      <trkpt lat="50.43914" lon="3.50483">
        <ele>35.9</ele>
        <time>2021-09-25T19:15:43.529Z</time>
      </trkpt>
      <trkpt lat="50.4391" lon="3.5048">
        <ele>35.8</ele>
        <time>2021-09-25T19:15:43.993Z</time>
      </trkpt>
      <trkpt lat="50.43903" lon="3.50478">
        <ele>35.6</ele>
        <time>2021-09-25T19:15:47.005Z</time>
      </trkpt>
      <trkpt lat="50.43895" lon="3.50473">
        <ele>35.4</ele>
        <time>2021-09-25T19:15:48.392Z</time>
      </trkpt>
      <trkpt lat="50.4389" lon="3.50468">
        <ele>35.2</ele>
        <time>2021-09-25T19:15:53.576Z</time>
      </trkpt>
      <trkpt lat="50.43884" lon="3.50464">
        <ele>35</ele>
        <time>2021-09-25T19:15:55.913Z</time>
      </trkpt>
      <trkpt lat="50.43877" lon="3.50461">
        <ele>34.8</ele>
        <time>2021-09-25T19:15:56.810Z</time>
      </trkpt>
      <trkpt lat="50.4387" lon="3.50459">
        <ele>34.6</ele>
        <time>2021-09-25T19:15:58.861Z</time>
      </trkpt>
      <trkpt lat="50.43858" lon="3.50458">
        <ele>34.2</ele>
        <time>2021-09-25T19:16:00.133Z</time>
      </trkpt>
      <trkpt lat="50.43848" lon="3.50454">
        <ele>33.9</ele>
        <time>2021-09-25T19:16:08.232Z</time>
      </trkpt>
      <trkpt lat="50.4384" lon="3.50456">
        <ele>33.7</ele>
        <time>2021-09-25T19:16:09.093Z</time>
      </trkpt>
      <trkpt lat="50.43834" lon="3.50452">
        <ele>33.4</ele>
        <time>2021-09-25T19:16:09.703Z</time>
      </trkpt>
      <trkpt lat="50.4383" lon="3.50448">
        <ele>33.1</ele>
        <time>2021-09-25T19:16:11.045Z</time>
      </trkpt>
      <trkpt lat="50.43825" lon="3.50446">
        <ele>32.7</ele>
        <time>2021-09-25T19:16:15.100Z</time>
      </trkpt>
      <trkpt lat="50.4382" lon="3.50442">
        <ele>32.2</ele>
        <time>2021-09-25T19:16:18.587Z</time>
      </trkpt>
      <trkpt lat="50.43814" lon="3.50437">
        <ele>31.6</ele>
        <time>2021-09-25T19:16:19.273Z</time>
      </trkpt>
      <trkpt lat="50.43808" lon="3.50431">
        <ele>31</ele>
        <time>2021-09-25T19:16:20.222Z</time>
      </trkpt>
      <trkpt lat="50.43803" lon="3.50424">
        <ele>30.5</ele>
        <time>2021-09-25T19:16:20.920Z</time>
      </trkpt>
      <trkpt lat="50.43798" lon="3.50423">
        <ele>30.1</ele>
        <time>2021-09-25T19:16:21.395Z</time>
      </trkpt>
      <trkpt lat="50.43802" lon="3.50426">
        <ele>30.5</ele>
        <time>2021-09-25T19:16:25.685Z</time>
      </trkpt>
      <trkpt lat="50.43793" lon="3.50423">
        <ele>29.7</ele>
        <time>2021-09-25T19:16:33.098Z</time>
      </trkpt>
      <trkpt lat="50.43783" lon="3.5042">
        <ele>28.8</ele>
        <time>2021-09-25T19:16:34.174Z</time>
      </trkpt>
      <trkpt lat="50.43773" lon="3.50417">
        <ele>27.9</ele>
        <time>2021-09-25T19:16:38.089Z</time>
      </trkpt>
      <trkpt lat="50.43764" lon="3.50412">
        <ele>27.1</ele>
        <time>2021-09-25T19:16:45.718Z</time>
      </trkpt>
      <trkpt lat="50.43754" lon="3.50407">
        <ele>26.2</ele>
        <time>2021-09-25T19:16:46.774Z</time>
      </trkpt>
      <trkpt lat="50.43749" lon="3.50406">
        <ele>25.8</ele>
        <time>2021-09-25T19:16:51.511Z</time>
      </trkpt>
      <trkpt lat="50.43739" lon="3.50404">
        <ele>25.5</ele>
        <time>2021-09-25T19:16:54.960Z</time>
      </trkpt>
      <trkpt lat="50.4373" lon="3.504">
        <ele>25.1</ele>
        <time>2021-09-25T19:16:55.902Z</time>
      </trkpt>
      <trkpt lat="50.43725" lon="3.50398">
        <ele>24.9</ele>
        <time>2021-09-25T19:16:57.201Z</time>
      </trkpt>
      <trkpt lat="50.43717" lon="3.50392">
        <ele>24.6</ele>
        <time>2021-09-25T19:16:58.358Z</time>
      </trkpt>
      <trkpt lat="50.43708" lon="3.50387">
        <ele>24.3</ele>
        <time>2021-09-25T19:17:04.137Z</time>
      </trkpt>
      <trkpt lat="50.43704" lon="3.50385">
        <ele>24.2</ele>
        <time>2021-09-25T19:17:04.603Z</time>
      </trkpt>
      <trkpt lat="50.43696" lon="3.50381">
        <ele>23.9</ele>
        <time>2021-09-25T19:17:05.425Z</time>
      </trkpt>
      <trkpt lat="50.43687" lon="3.50378">
        <ele>23.6</ele>
        <time>2021-09-25T19:17:07.903Z</time>
      </trkpt>
      <trkpt lat="50.43682" lon="3.50377">
        <ele>23.5</ele>
        <time>2021-09-25T19:17:08.375Z</time>
      </trkpt>
      <trkpt lat="50.43674" lon="3.50373">
        <ele>23.2</ele>
        <time>2021-09-25T19:17:09.282Z</time>
      </trkpt>
      <trkpt lat="50.43666" lon="3.5037">
        <ele>23</ele>
        <time>2021-09-25T19:17:15.977Z</time>
      </trkpt>
      <trkpt lat="50.43657" lon="3.50369">
        <ele>23.2</ele>
        <time>2021-09-25T19:17:16.827Z</time>
      </trkpt>
      <trkpt lat="50.43648" lon="3.50365">
        <ele>23.4</ele>
        <time>2021-09-25T19:17:18.227Z</time>
      </trkpt>
      <trkpt lat="50.43645" lon="3.50358">
        <ele>23.4</ele>
        <time>2021-09-25T19:17:18.766Z</time>
      </trkpt>
      <trkpt lat="50.43636" lon="3.50357">
        <ele>23.6</ele>
        <time>2021-09-25T19:17:25.873Z</time>
      </trkpt>
      <trkpt lat="50.43627" lon="3.50354">
        <ele>23.8</ele>
        <time>2021-09-25T19:17:29.362Z</time>
      </trkpt>
      <trkpt lat="50.43619" lon="3.50354">
        <ele>24</ele>
        <time>2021-09-25T19:17:30.087Z</time>
      </trkpt>
      <trkpt lat="50.43614" lon="3.50353">
        <ele>24.1</ele>
        <time>2021-09-25T19:17:34.301Z</time>
      </trkpt>
      <trkpt lat="50.43608" lon="3.50351">
        <ele>24.3</ele>
        <time>2021-09-25T19:17:34.931Z</time>
      </trkpt>
      <trkpt lat="50.436" lon="3.50347">
        <ele>24.5</ele>
        <time>2021-09-25T19:17:41.831Z</time>
      </trkpt>
      <trkpt lat="50.43596" lon="3.50345">
        <ele>24.6</ele>
        <time>2021-09-25T19:17:42.335Z</time>
      </trkpt>
      <trkpt lat="50.43588" lon="3.50342">
        <ele>24.8</ele>
        <time>2021-09-25T19:17:43.209Z</time>
      </trkpt>
      <trkpt lat="50.4358" lon="3.50338">
        <ele>24.9</ele>
        <time>2021-09-25T19:17:44.069Z</time>
      </trkpt>
      <trkpt lat="50.43573" lon="3.50333">
        <ele>24.9</ele>
        <time>2021-09-25T19:17:44.757Z</time>
      </trkpt>
      <trkpt lat="50.43563" lon="3.50328">
        <ele>24.9</ele>
        <time>2021-09-25T19:17:54.167Z</time>
      </trkpt>
      <trkpt lat="50.43552" lon="3.50323">
        <ele>24.9</ele>
        <time>2021-09-25T19:17:56.574Z</time>
      </trkpt>
      <trkpt lat="50.43545" lon="3.50319">
        <ele>25</ele>
        <time>2021-09-25T19:17:57.324Z</time>
      </trkpt>
      <trkpt lat="50.43541" lon="3.50316">
        <ele>25</ele>
        <time>2021-09-25T19:18:01.480Z</time>
      </trkpt>
      <trkpt lat="50.43535" lon="3.50314">
        <ele>25</ele>
        <time>2021-09-25T19:18:02.086Z</time>
      </trkpt>
      <trkpt lat="50.43528" lon="3.5031">
        <ele>25.1</ele>
        <time>2021-09-25T19:18:02.747Z</time>
      </trkpt>
      <trkpt lat="50.43523" lon="3.50308">
        <ele>25.1</ele>
        <time>2021-09-25T19:18:07.295Z</time>
      </trkpt>
      <trkpt lat="50.43513" lon="3.50304">
        <ele>25.2</ele>
        <time>2021-09-25T19:18:11.816Z</time>
      </trkpt>
      <trkpt lat="50.43508" lon="3.50302">
        <ele>25.2</ele>
        <time>2021-09-25T19:18:15.381Z</time>
      </trkpt>
      <trkpt lat="50.43503" lon="3.50299">
        <ele>25.3</ele>
        <time>2021-09-25T19:18:19.996Z</time>
      </trkpt>
      <trkpt lat="50.43497" lon="3.50297">
        <ele>25.5</ele>
        <time>2021-09-25T19:18:20.627Z</time>
      </trkpt>
      <trkpt lat="50.43491" lon="3.50296">
        <ele>25.8</ele>
        <time>2021-09-25T19:18:21.184Z</time>
      </trkpt>
      <trkpt lat="50.43485" lon="3.50293">
        <ele>26.2</ele>
        <time>2021-09-25T19:18:26.726Z</time>
      </trkpt>
      <trkpt lat="50.4348" lon="3.50291">
        <ele>26.5</ele>
        <time>2021-09-25T19:18:27.230Z</time>
      </trkpt>
      <trkpt lat="50.43472" lon="3.50287">
        <ele>26.9</ele>
        <time>2021-09-25T19:18:31.866Z</time>
      </trkpt>
      <trkpt lat="50.43466" lon="3.50283">
        <ele>27.2</ele>
        <time>2021-09-25T19:18:34.934Z</time>
      </trkpt>
      <trkpt lat="50.43461" lon="3.50281">
        <ele>27.4</ele>
        <time>2021-09-25T19:18:39.370Z</time>
      </trkpt>
      <trkpt lat="50.43455" lon="3.50278">
        <ele>27.6</ele>
        <time>2021-09-25T19:18:45.142Z</time>
      </trkpt>
      <trkpt lat="50.43447" lon="3.50274">
        <ele>27.9</ele>
        <time>2021-09-25T19:18:45.890Z</time>
      </trkpt>
      <trkpt lat="50.43443" lon="3.50272">
        <ele>28</ele>
        <time>2021-09-25T19:18:49.997Z</time>
      </trkpt>
      <trkpt lat="50.43437" lon="3.5027">
        <ele>28.1</ele>
        <time>2021-09-25T19:18:51.469Z</time>
      </trkpt>
      <trkpt lat="50.43433" lon="3.50268">
        <ele>28.2</ele>
        <time>2021-09-25T19:18:51.938Z</time>
      </trkpt>
      <trkpt lat="50.43427" lon="3.50266">
        <ele>28.3</ele>
        <time>2021-09-25T19:18:57.517Z</time>
      </trkpt>
      <trkpt lat="50.43422" lon="3.50263">
        <ele>28.3</ele>
        <time>2021-09-25T19:18:58.002Z</time>
      </trkpt>
      <trkpt lat="50.43417" lon="3.50261">
        <ele>28.4</ele>
        <time>2021-09-25T19:19:02.423Z</time>
      </trkpt>
      <trkpt lat="50.43412" lon="3.50259">
        <ele>28.4</ele>
        <time>2021-09-25T19:19:02.946Z</time>
      </trkpt>
      <trkpt lat="50.43407" lon="3.50257">
        <ele>28.5</ele>
        <time>2021-09-25T19:19:06.983Z</time>
      </trkpt>
      <trkpt lat="50.43399" lon="3.50254">
        <ele>28.6</ele>
        <time>2021-09-25T19:19:07.853Z</time>
      </trkpt>
      <trkpt lat="50.43392" lon="3.50251">
        <ele>28.6</ele>
        <time>2021-09-25T19:19:08.506Z</time>
      </trkpt>
      <trkpt lat="50.43387" lon="3.5025">
        <ele>28.7</ele>
        <time>2021-09-25T19:19:13.233Z</time>
      </trkpt>
      <trkpt lat="50.4338" lon="3.50246">
        <ele>28.7</ele>
        <time>2021-09-25T19:19:13.968Z</time>
      </trkpt>
      <trkpt lat="50.43374" lon="3.50245">
        <ele>28.8</ele>
        <time>2021-09-25T19:19:15.207Z</time>
      </trkpt>
      <trkpt lat="50.43367" lon="3.50241">
        <ele>28.8</ele>
        <time>2021-09-25T19:19:17.785Z</time>
      </trkpt>
      <trkpt lat="50.43359" lon="3.50239">
        <ele>28.9</ele>
        <time>2021-09-25T19:19:18.900Z</time>
      </trkpt>
      <trkpt lat="50.43351" lon="3.50236">
        <ele>29</ele>
        <time>2021-09-25T19:19:26.068Z</time>
      </trkpt>
      <trkpt lat="50.43345" lon="3.50234">
        <ele>29</ele>
        <time>2021-09-25T19:19:26.641Z</time>
      </trkpt>
      <trkpt lat="50.43341" lon="3.50232">
        <ele>29</ele>
        <time>2021-09-25T19:19:30.869Z</time>
      </trkpt>
      <trkpt lat="50.43336" lon="3.50231">
        <ele>29</ele>
        <time>2021-09-25T19:19:31.351Z</time>
      </trkpt>
      <trkpt lat="50.43327" lon="3.50227">
        <ele>29.1</ele>
        <time>2021-09-25T19:19:35.292Z</time>
      </trkpt>
      <trkpt lat="50.43319" lon="3.50224">
        <ele>29.1</ele>
        <time>2021-09-25T19:19:36.097Z</time>
      </trkpt>
      <trkpt lat="50.43312" lon="3.5022">
        <ele>29.2</ele>
        <time>2021-09-25T19:19:37.033Z</time>
      </trkpt>
      <trkpt lat="50.43303" lon="3.50215">
        <ele>29.2</ele>
        <time>2021-09-25T19:19:39.377Z</time>
      </trkpt>
      <trkpt lat="50.43294" lon="3.50209">
        <ele>29.2</ele>
        <time>2021-09-25T19:19:46.973Z</time>
      </trkpt>
      <trkpt lat="50.43286" lon="3.50203">
        <ele>29.2</ele>
        <time>2021-09-25T19:19:47.944Z</time>
      </trkpt>
      <trkpt lat="50.43281" lon="3.502">
        <ele>29.2</ele>
        <time>2021-09-25T19:19:52.009Z</time>
      </trkpt>
      <trkpt lat="50.43277" lon="3.50197">
        <ele>29.2</ele>
        <time>2021-09-25T19:19:56.229Z</time>
      </trkpt>
      <trkpt lat="50.43271" lon="3.5019">
        <ele>29.2</ele>
        <time>2021-09-25T19:20:01.811Z</time>
      </trkpt>
      <trkpt lat="50.43264" lon="3.5018">
        <ele>29</ele>
        <time>2021-09-25T19:20:02.843Z</time>
      </trkpt>
      <trkpt lat="50.4326" lon="3.50174">
        <ele>28.9</ele>
        <time>2021-09-25T19:20:03.321Z</time>
      </trkpt>
      <trkpt lat="50.43257" lon="3.50168">
        <ele>28.8</ele>
        <time>2021-09-25T19:20:04.453Z</time>
      </trkpt>
      <trkpt lat="50.43254" lon="3.50163">
        <ele>28.7</ele>
        <time>2021-09-25T19:20:04.901Z</time>
      </trkpt>
      <trkpt lat="50.4325" lon="3.50158">
        <ele>28.7</ele>
        <time>2021-09-25T19:20:09.408Z</time>
      </trkpt>
      <trkpt lat="50.43246" lon="3.50152">
        <ele>28.6</ele>
        <time>2021-09-25T19:20:09.920Z</time>
      </trkpt>
      <trkpt lat="50.43242" lon="3.50145">
        <ele>28.5</ele>
        <time>2021-09-25T19:20:14.841Z</time>
      </trkpt>
      <trkpt lat="50.4324" lon="3.50131">
        <ele>28</ele>
        <time>2021-09-25T19:20:15.733Z</time>
      </trkpt>
      <trkpt lat="50.4324" lon="3.50121">
        <ele>27.7</ele>
        <time>2021-09-25T19:20:16.346Z</time>
      </trkpt>
      <trkpt lat="50.4324" lon="3.50109">
        <ele>27.2</ele>
        <time>2021-09-25T19:20:17.100Z</time>
      </trkpt>
      <trkpt lat="50.43239" lon="3.50099">
        <ele>26.9</ele>
        <time>2021-09-25T19:20:22.791Z</time>
      </trkpt>
      <trkpt lat="50.43237" lon="3.50089">
        <ele>26.5</ele>
        <time>2021-09-25T19:20:23.528Z</time>
      </trkpt>
      <trkpt lat="50.43237" lon="3.5008">
        <ele>26.2</ele>
        <time>2021-09-25T19:20:24.138Z</time>
      </trkpt>
      <trkpt lat="50.43236" lon="3.50067">
        <ele>25.7</ele>
        <time>2021-09-25T19:20:27.220Z</time>
      </trkpt>
      <trkpt lat="50.43236" lon="3.50059">
        <ele>25.5</ele>
        <time>2021-09-25T19:20:31.695Z</time>
      </trkpt>
      <trkpt lat="50.43236" lon="3.50046">
        <ele>25</ele>
        <time>2021-09-25T19:20:32.517Z</time>
      </trkpt>
      <trkpt lat="50.43236" lon="3.50036">
        <ele>24.6</ele>
        <time>2021-09-25T19:20:34.890Z</time>
      </trkpt>
      <trkpt lat="50.43236" lon="3.50028">
        <ele>24.3</ele>
        <time>2021-09-25T19:20:35.435Z</time>
      </trkpt>
      <trkpt lat="50.43236" lon="3.50015">
        <ele>23.9</ele>
        <time>2021-09-25T19:20:42.419Z</time>
      </trkpt>
      <trkpt lat="50.43235" lon="3.50006">
        <ele>23.6</ele>
        <time>2021-09-25T19:20:42.973Z</time>
      </trkpt>
      <trkpt lat="50.43234" lon="3.49996">
        <ele>23.3</ele>
        <time>2021-09-25T19:20:48.655Z</time>
      </trkpt>
      <trkpt lat="50.43235" lon="3.49989">
        <ele>23.2</ele>
        <time>2021-09-25T19:20:49.121Z</time>
      </trkpt>
      <trkpt lat="50.43232" lon="3.49978">
        <ele>23.1</ele>
        <time>2021-09-25T19:20:49.869Z</time>
      </trkpt>
      <trkpt lat="50.43228" lon="3.49963">
        <ele>23</ele>
        <time>2021-09-25T19:20:50.890Z</time>
      </trkpt>
      <trkpt lat="50.43224" lon="3.49954">
        <ele>22.9</ele>
        <time>2021-09-25T19:20:56.813Z</time>
      </trkpt>
      <trkpt lat="50.43225" lon="3.49944">
        <ele>22.7</ele>
        <time>2021-09-25T19:20:57.427Z</time>
      </trkpt>
      <trkpt lat="50.43224" lon="3.49934">
        <ele>22.6</ele>
        <time>2021-09-25T19:20:58.897Z</time>
      </trkpt>
      <trkpt lat="50.43223" lon="3.49922">
        <ele>22.4</ele>
        <time>2021-09-25T19:21:05.506Z</time>
      </trkpt>
      <trkpt lat="50.43224" lon="3.49913">
        <ele>22.3</ele>
        <time>2021-09-25T19:21:06.332Z</time>
      </trkpt>
      <trkpt lat="50.43223" lon="3.49905">
        <ele>22.2</ele>
        <time>2021-09-25T19:21:06.848Z</time>
      </trkpt>
      <trkpt lat="50.43221" lon="3.49894">
        <ele>22.1</ele>
        <time>2021-09-25T19:21:07.535Z</time>
      </trkpt>
      <trkpt lat="50.4322" lon="3.49886">
        <ele>22</ele>
        <time>2021-09-25T19:21:12.342Z</time>
      </trkpt>
      <trkpt lat="50.43223" lon="3.49878">
        <ele>21.9</ele>
        <time>2021-09-25T19:21:16.764Z</time>
      </trkpt>
      <trkpt lat="50.43223" lon="3.49871">
        <ele>21.8</ele>
        <time>2021-09-25T19:21:17.207Z</time>
      </trkpt>
      <trkpt lat="50.43222" lon="3.49862">
        <ele>21.7</ele>
        <time>2021-09-25T19:21:19.835Z</time>
      </trkpt>
      <trkpt lat="50.4322" lon="3.49853">
        <ele>21.6</ele>
        <time>2021-09-25T19:21:24.871Z</time>
      </trkpt>
      <trkpt lat="50.43218" lon="3.49842">
        <ele>21.5</ele>
        <time>2021-09-25T19:21:27.003Z</time>
      </trkpt>
      <trkpt lat="50.43217" lon="3.49835">
        <ele>21.4</ele>
        <time>2021-09-25T19:21:27.535Z</time>
      </trkpt>
      <trkpt lat="50.43215" lon="3.49825">
        <ele>21.4</ele>
        <time>2021-09-25T19:21:33.125Z</time>
      </trkpt>
      <trkpt lat="50.43213" lon="3.49812">
        <ele>21.4</ele>
        <time>2021-09-25T19:21:35.469Z</time>
      </trkpt>
      <trkpt lat="50.43213" lon="3.49802">
        <ele>21.4</ele>
        <time>2021-09-25T19:21:36.066Z</time>
      </trkpt>
      <trkpt lat="50.43215" lon="3.49786">
        <ele>21.4</ele>
        <time>2021-09-25T19:21:45.108Z</time>
      </trkpt>
      <trkpt lat="50.43216" lon="3.4977">
        <ele>21.4</ele>
        <time>2021-09-25T19:21:50.875Z</time>
      </trkpt>
      <trkpt lat="50.43216" lon="3.49763">
        <ele>21.4</ele>
        <time>2021-09-25T19:21:51.341Z</time>
      </trkpt>
      <trkpt lat="50.43214" lon="3.49754">
        <ele>21.4</ele>
        <time>2021-09-25T19:21:56.078Z</time>
      </trkpt>
      <trkpt lat="50.43212" lon="3.4974">
        <ele>21.5</ele>
        <time>2021-09-25T19:21:57.561Z</time>
      </trkpt>
      <trkpt lat="50.4321" lon="3.49724">
        <ele>21.5</ele>
        <time>2021-09-25T19:21:59.997Z</time>
      </trkpt>
      <trkpt lat="50.43209" lon="3.49715">
        <ele>21.5</ele>
        <time>2021-09-25T19:22:00.584Z</time>
      </trkpt>
      <trkpt lat="50.43206" lon="3.49706">
        <ele>21.5</ele>
        <time>2021-09-25T19:22:01.535Z</time>
      </trkpt>
      <trkpt lat="50.43205" lon="3.49696">
        <ele>21.5</ele>
        <time>2021-09-25T19:22:07.127Z</time>
      </trkpt>
      <trkpt lat="50.43205" lon="3.49685">
        <ele>21.5</ele>
        <time>2021-09-25T19:22:07.981Z</time>
      </trkpt>
      <trkpt lat="50.43206" lon="3.49673">
        <ele>21.5</ele>
        <time>2021-09-25T19:22:08.783Z</time>
      </trkpt>
      <trkpt lat="50.43205" lon="3.49663">
        <ele>21.5</ele>
        <time>2021-09-25T19:22:12.253Z</time>
      </trkpt>
      <trkpt lat="50.43203" lon="3.4965">
        <ele>21.6</ele>
        <time>2021-09-25T19:22:13.408Z</time>
      </trkpt>
      <trkpt lat="50.43201" lon="3.4964">
        <ele>21.6</ele>
        <time>2021-09-25T19:22:18.608Z</time>
      </trkpt>
      <trkpt lat="50.43201" lon="3.49633">
        <ele>21.7</ele>
        <time>2021-09-25T19:22:19.067Z</time>
      </trkpt>
      <trkpt lat="50.432" lon="3.49623">
        <ele>21.7</ele>
        <time>2021-09-25T19:22:21.796Z</time>
      </trkpt>
      <trkpt lat="50.43198" lon="3.49614">
        <ele>21.8</ele>
        <time>2021-09-25T19:22:22.410Z</time>
      </trkpt>
      <trkpt lat="50.43195" lon="3.49601">
        <ele>21.9</ele>
        <time>2021-09-25T19:22:25.262Z</time>
      </trkpt>
      <trkpt lat="50.43193" lon="3.49589">
        <ele>22</ele>
        <time>2021-09-25T19:22:26.023Z</time>
      </trkpt>
      <trkpt lat="50.43193" lon="3.49582">
        <ele>22.1</ele>
        <time>2021-09-25T19:22:26.494Z</time>
      </trkpt>
      <trkpt lat="50.43194" lon="3.49572">
        <ele>22</ele>
        <time>2021-09-25T19:22:32.096Z</time>
      </trkpt>
      <trkpt lat="50.43194" lon="3.49562">
        <ele>22</ele>
        <time>2021-09-25T19:22:32.742Z</time>
      </trkpt>
      <trkpt lat="50.43192" lon="3.49553">
        <ele>22.1</ele>
        <time>2021-09-25T19:22:37.827Z</time>
      </trkpt>
      <trkpt lat="50.43192" lon="3.49545">
        <ele>22.1</ele>
        <time>2021-09-25T19:22:38.302Z</time>
      </trkpt>
      <trkpt lat="50.43192" lon="3.49533">
        <ele>22.1</ele>
        <time>2021-09-25T19:22:45.113Z</time>
      </trkpt>
      <trkpt lat="50.43189" lon="3.4952">
        <ele>22.2</ele>
        <time>2021-09-25T19:22:45.975Z</time>
      </trkpt>
      <trkpt lat="50.43186" lon="3.49512">
        <ele>22.3</ele>
        <time>2021-09-25T19:22:46.540Z</time>
      </trkpt>
      <trkpt lat="50.43182" lon="3.49518">
        <ele>22.4</ele>
        <time>2021-09-25T19:22:47.106Z</time>
      </trkpt>
      <trkpt lat="50.43177" lon="3.49526">
        <ele>22.6</ele>
        <time>2021-09-25T19:22:53.149Z</time>
      </trkpt>
      <trkpt lat="50.43174" lon="3.49531">
        <ele>22.7</ele>
        <time>2021-09-25T19:22:53.627Z</time>
      </trkpt>
      <trkpt lat="50.43167" lon="3.49538">
        <ele>23</ele>
        <time>2021-09-25T19:22:54.366Z</time>
      </trkpt>
      <trkpt lat="50.4316" lon="3.49543">
        <ele>23.2</ele>
        <time>2021-09-25T19:22:55.128Z</time>
      </trkpt>
      <trkpt lat="50.43151" lon="3.49549">
        <ele>23.3</ele>
        <time>2021-09-25T19:22:56.101Z</time>
      </trkpt>
      <trkpt lat="50.43147" lon="3.49552">
        <ele>23.4</ele>
        <time>2021-09-25T19:23:00.216Z</time>
      </trkpt>
      <trkpt lat="50.43138" lon="3.49554">
        <ele>23.6</ele>
        <time>2021-09-25T19:23:01.108Z</time>
      </trkpt>
      <trkpt lat="50.43129" lon="3.49554">
        <ele>23.8</ele>
        <time>2021-09-25T19:23:02.001Z</time>
      </trkpt>
      <trkpt lat="50.43122" lon="3.49552">
        <ele>23.9</ele>
        <time>2021-09-25T19:23:08.052Z</time>
      </trkpt>
      <trkpt lat="50.43116" lon="3.49549">
        <ele>24.1</ele>
        <time>2021-09-25T19:23:08.691Z</time>
      </trkpt>
      <trkpt lat="50.43109" lon="3.49542">
        <ele>24.4</ele>
        <time>2021-09-25T19:23:09.496Z</time>
      </trkpt>
      <trkpt lat="50.43105" lon="3.49539">
        <ele>24.5</ele>
        <time>2021-09-25T19:23:11.210Z</time>
      </trkpt>
      <trkpt lat="50.431" lon="3.49538">
        <ele>24.7</ele>
        <time>2021-09-25T19:23:11.667Z</time>
      </trkpt>
      <trkpt lat="50.43095" lon="3.49538">
        <ele>24.8</ele>
        <time>2021-09-25T19:23:12.212Z</time>
      </trkpt>
      <trkpt lat="50.43086" lon="3.4954">
        <ele>25</ele>
        <time>2021-09-25T19:23:16.864Z</time>
      </trkpt>
      <trkpt lat="50.43081" lon="3.49542">
        <ele>25</ele>
        <time>2021-09-25T19:23:17.413Z</time>
      </trkpt>
      <trkpt lat="50.43074" lon="3.49546">
        <ele>24.9</ele>
        <time>2021-09-25T19:23:18.117Z</time>
      </trkpt>
      <trkpt lat="50.4307" lon="3.49549">
        <ele>24.8</ele>
        <time>2021-09-25T19:23:20.996Z</time>
      </trkpt>
      <trkpt lat="50.43065" lon="3.49552">
        <ele>24.8</ele>
        <time>2021-09-25T19:23:21.766Z</time>
      </trkpt>
      <trkpt lat="50.43058" lon="3.49556">
        <ele>24.7</ele>
        <time>2021-09-25T19:23:28.130Z</time>
      </trkpt>
      <trkpt lat="50.4305" lon="3.49557">
        <ele>24.6</ele>
        <time>2021-09-25T19:23:29.039Z</time>
      </trkpt>
      <trkpt lat="50.43043" lon="3.49555">
        <ele>24.7</ele>
        <time>2021-09-25T19:23:29.765Z</time>
      </trkpt>
      <trkpt lat="50.43038" lon="3.49554">
        <ele>24.7</ele>
        <time>2021-09-25T19:23:30.266Z</time>
      </trkpt>
      <trkpt lat="50.4303" lon="3.49551">
        <ele>24.8</ele>
        <time>2021-09-25T19:23:31.098Z</time>
      </trkpt>
      <trkpt lat="50.43023" lon="3.4955">
        <ele>24.8</ele>
        <time>2021-09-25T19:23:36.592Z</time>
      </trkpt>
      <trkpt lat="50.43018" lon="3.49552">
        <ele>24.8</ele>
        <time>2021-09-25T19:23:37.110Z</time>
      </trkpt>
      <trkpt lat="50.43012" lon="3.49555">
        <ele>24.7</ele>
        <time>2021-09-25T19:23:38.820Z</time>
      </trkpt>
      <trkpt lat="50.43005" lon="3.49556">
        <ele>24.7</ele>
        <time>2021-09-25T19:23:39.509Z</time>
      </trkpt>
      <trkpt lat="50.42998" lon="3.49557">
        <ele>24.7</ele>
        <time>2021-09-25T19:23:44.901Z</time>
      </trkpt>
      <trkpt lat="50.42993" lon="3.4956">
        <ele>24.9</ele>
        <time>2021-09-25T19:23:45.531Z</time>
      </trkpt>
      <trkpt lat="50.42997" lon="3.49561">
        <ele>24.7</ele>
        <time>2021-09-25T19:23:47.492Z</time>
      </trkpt>
      <trkpt lat="50.42993" lon="3.49567">
        <ele>24.7</ele>
        <time>2021-09-25T19:23:52.155Z</time>
      </trkpt>
      <trkpt lat="50.42989" lon="3.49572">
        <ele>24.7</ele>
        <time>2021-09-25T19:23:56.367Z</time>
      </trkpt>
      <trkpt lat="50.42984" lon="3.49577">
        <ele>24.8</ele>
        <time>2021-09-25T19:23:57.003Z</time>
      </trkpt>
      <trkpt lat="50.42975" lon="3.49582">
        <ele>24.9</ele>
        <time>2021-09-25T19:23:57.924Z</time>
      </trkpt>
      <trkpt lat="50.42971" lon="3.49586">
        <ele>24.9</ele>
        <time>2021-09-25T19:24:01.996Z</time>
      </trkpt>
      <trkpt lat="50.42964" lon="3.49596">
        <ele>24.8</ele>
        <time>2021-09-25T19:24:02.957Z</time>
      </trkpt>
      <trkpt lat="50.42961" lon="3.49602">
        <ele>24.6</ele>
        <time>2021-09-25T19:24:04.947Z</time>
      </trkpt>
      <trkpt lat="50.42958" lon="3.49607">
        <ele>24.5</ele>
        <time>2021-09-25T19:24:05.397Z</time>
      </trkpt>
      <trkpt lat="50.42955" lon="3.49614">
        <ele>24.3</ele>
        <time>2021-09-25T19:24:09.482Z</time>
      </trkpt>
      <trkpt lat="50.42953" lon="3.4962">
        <ele>24.1</ele>
        <time>2021-09-25T19:24:13.481Z</time>
      </trkpt>
      <trkpt lat="50.42949" lon="3.49629">
        <ele>23.7</ele>
        <time>2021-09-25T19:24:19.464Z</time>
      </trkpt>
      <trkpt lat="50.42945" lon="3.49637">
        <ele>23.4</ele>
        <time>2021-09-25T19:24:20.137Z</time>
      </trkpt>
      <trkpt lat="50.4294" lon="3.49645">
        <ele>23.1</ele>
        <time>2021-09-25T19:24:25.945Z</time>
      </trkpt>
      <trkpt lat="50.42937" lon="3.49654">
        <ele>22.6</ele>
        <time>2021-09-25T19:24:26.585Z</time>
      </trkpt>
      <trkpt lat="50.42933" lon="3.49662">
        <ele>22.2</ele>
        <time>2021-09-25T19:24:31.726Z</time>
      </trkpt>
      <trkpt lat="50.42931" lon="3.4967">
        <ele>22</ele>
        <time>2021-09-25T19:24:36.835Z</time>
      </trkpt>
      <trkpt lat="50.42927" lon="3.49678">
        <ele>22</ele>
        <time>2021-09-25T19:24:37.443Z</time>
      </trkpt>
      <trkpt lat="50.42924" lon="3.49686">
        <ele>22</ele>
        <time>2021-09-25T19:24:38.051Z</time>
      </trkpt>
      <trkpt lat="50.42922" lon="3.49693">
        <ele>22</ele>
        <time>2021-09-25T19:24:40.130Z</time>
      </trkpt>
      <trkpt lat="50.42917" lon="3.49703">
        <ele>22</ele>
        <time>2021-09-25T19:24:46.920Z</time>
      </trkpt>
      <trkpt lat="50.42913" lon="3.49711">
        <ele>22.1</ele>
        <time>2021-09-25T19:24:47.538Z</time>
      </trkpt>
      <trkpt lat="50.42911" lon="3.49717">
        <ele>22.2</ele>
        <time>2021-09-25T19:24:47.992Z</time>
      </trkpt>
      <trkpt lat="50.42908" lon="3.49723">
        <ele>22.3</ele>
        <time>2021-09-25T19:24:52.031Z</time>
      </trkpt>
      <trkpt lat="50.42904" lon="3.49733">
        <ele>22.5</ele>
        <time>2021-09-25T19:24:52.740Z</time>
      </trkpt>
      <trkpt lat="50.42901" lon="3.49741">
        <ele>22.6</ele>
        <time>2021-09-25T19:24:58.294Z</time>
      </trkpt>
      <trkpt lat="50.42897" lon="3.49752">
        <ele>22.7</ele>
        <time>2021-09-25T19:24:59.061Z</time>
      </trkpt>
      <trkpt lat="50.42895" lon="3.49763">
        <ele>22.8</ele>
        <time>2021-09-25T19:24:59.807Z</time>
      </trkpt>
      <trkpt lat="50.42893" lon="3.49776">
        <ele>22.9</ele>
        <time>2021-09-25T19:25:06.915Z</time>
      </trkpt>
      <trkpt lat="50.4289" lon="3.49784">
        <ele>23</ele>
        <time>2021-09-25T19:25:07.483Z</time>
      </trkpt>
      <trkpt lat="50.42888" lon="3.49795">
        <ele>23</ele>
        <time>2021-09-25T19:25:14.018Z</time>
      </trkpt>
      <trkpt lat="50.42884" lon="3.49808">
        <ele>23.2</ele>
        <time>2021-09-25T19:25:14.919Z</time>
      </trkpt>
      <trkpt lat="50.42881" lon="3.49819">
        <ele>23.3</ele>
        <time>2021-09-25T19:25:15.679Z</time>
      </trkpt>
      <trkpt lat="50.42878" lon="3.4983">
        <ele>23.4</ele>
        <time>2021-09-25T19:25:20.290Z</time>
      </trkpt>
      <trkpt lat="50.42876" lon="3.49838">
        <ele>23.5</ele>
        <time>2021-09-25T19:25:20.813Z</time>
      </trkpt>
      <trkpt lat="50.42873" lon="3.49852">
        <ele>23.8</ele>
        <time>2021-09-25T19:25:29.010Z</time>
      </trkpt>
      <trkpt lat="50.4287" lon="3.49865">
        <ele>24.1</ele>
        <time>2021-09-25T19:25:29.923Z</time>
      </trkpt>
      <trkpt lat="50.42864" lon="3.49877">
        <ele>24.6</ele>
        <time>2021-09-25T19:25:35.106Z</time>
      </trkpt>
      <trkpt lat="50.42859" lon="3.49883">
        <ele>24.9</ele>
        <time>2021-09-25T19:25:35.777Z</time>
      </trkpt>
      <trkpt lat="50.42855" lon="3.49887">
        <ele>25.2</ele>
        <time>2021-09-25T19:25:36.230Z</time>
      </trkpt>
      <trkpt lat="50.42849" lon="3.49893">
        <ele>25.6</ele>
        <time>2021-09-25T19:25:42.278Z</time>
      </trkpt>
      <trkpt lat="50.42843" lon="3.499">
        <ele>26.1</ele>
        <time>2021-09-25T19:25:43.017Z</time>
      </trkpt>
      <trkpt lat="50.42838" lon="3.49904">
        <ele>26.4</ele>
        <time>2021-09-25T19:25:44.215Z</time>
      </trkpt>
      <trkpt lat="50.42832" lon="3.4991">
        <ele>26.9</ele>
        <time>2021-09-25T19:25:44.983Z</time>
      </trkpt>
      <trkpt lat="50.42827" lon="3.49914">
        <ele>27.3</ele>
        <time>2021-09-25T19:25:46.356Z</time>
      </trkpt>
      <trkpt lat="50.42823" lon="3.49917">
        <ele>27.6</ele>
        <time>2021-09-25T19:25:50.221Z</time>
      </trkpt>
      <trkpt lat="50.42818" lon="3.49916">
        <ele>27.9</ele>
        <time>2021-09-25T19:25:50.703Z</time>
      </trkpt>
      <trkpt lat="50.42816" lon="3.49909">
        <ele>27.9</ele>
        <time>2021-09-25T19:25:51.216Z</time>
      </trkpt>
      <trkpt lat="50.42813" lon="3.49893">
        <ele>27.7</ele>
        <time>2021-09-25T19:25:53.818Z</time>
      </trkpt>
      <trkpt lat="50.42812" lon="3.49884">
        <ele>27.6</ele>
        <time>2021-09-25T19:25:54.358Z</time>
      </trkpt>
      <trkpt lat="50.42811" lon="3.49868">
        <ele>27.3</ele>
        <time>2021-09-25T19:26:03.161Z</time>
      </trkpt>
      <trkpt lat="50.4281" lon="3.4986">
        <ele>27.2</ele>
        <time>2021-09-25T19:26:03.714Z</time>
      </trkpt>
      <trkpt lat="50.42809" lon="3.49852">
        <ele>27.1</ele>
        <time>2021-09-25T19:26:07.745Z</time>
      </trkpt>
      <trkpt lat="50.42808" lon="3.49845">
        <ele>27.1</ele>
        <time>2021-09-25T19:26:08.227Z</time>
      </trkpt>
      <trkpt lat="50.42806" lon="3.49829">
        <ele>27</ele>
        <time>2021-09-25T19:26:09.286Z</time>
      </trkpt>
      <trkpt lat="50.42805" lon="3.49822">
        <ele>27</ele>
        <time>2021-09-25T19:26:10.322Z</time>
      </trkpt>
      <trkpt lat="50.42803" lon="3.49814">
        <ele>27.1</ele>
        <time>2021-09-25T19:26:10.856Z</time>
      </trkpt>
      <trkpt lat="50.42799" lon="3.49801">
        <ele>27.3</ele>
        <time>2021-09-25T19:26:15.620Z</time>
      </trkpt>
      <trkpt lat="50.42795" lon="3.49787">
        <ele>27.5</ele>
        <time>2021-09-25T19:26:17.712Z</time>
      </trkpt>
      <trkpt lat="50.42792" lon="3.49771">
        <ele>27.6</ele>
        <time>2021-09-25T19:26:21.303Z</time>
      </trkpt>
      <trkpt lat="50.42791" lon="3.49762">
        <ele>27.6</ele>
        <time>2021-09-25T19:26:26.345Z</time>
      </trkpt>
      <trkpt lat="50.42789" lon="3.49745">
        <ele>27.7</ele>
        <time>2021-09-25T19:26:27.437Z</time>
      </trkpt>
      <trkpt lat="50.42788" lon="3.49736">
        <ele>27.7</ele>
        <time>2021-09-25T19:26:28.012Z</time>
      </trkpt>
      <trkpt lat="50.42785" lon="3.49715">
        <ele>27.9</ele>
        <time>2021-09-25T19:26:39.922Z</time>
      </trkpt>
      <trkpt lat="50.42783" lon="3.49703">
        <ele>28</ele>
        <time>2021-09-25T19:26:46.525Z</time>
      </trkpt>
      <trkpt lat="50.42781" lon="3.49693">
        <ele>28.1</ele>
        <time>2021-09-25T19:26:48.495Z</time>
      </trkpt>
      <trkpt lat="50.42779" lon="3.4968">
        <ele>28.3</ele>
        <time>2021-09-25T19:26:53.678Z</time>
      </trkpt>
      <trkpt lat="50.42776" lon="3.49664">
        <ele>28.5</ele>
        <time>2021-09-25T19:26:54.691Z</time>
      </trkpt>
      <trkpt lat="50.42775" lon="3.49645">
        <ele>29</ele>
        <time>2021-09-25T19:26:55.954Z</time>
      </trkpt>
      <trkpt lat="50.42774" lon="3.49632">
        <ele>29.3</ele>
        <time>2021-09-25T19:26:57.056Z</time>
      </trkpt>
      <trkpt lat="50.42774" lon="3.49622">
        <ele>29.6</ele>
        <time>2021-09-25T19:27:02.346Z</time>
      </trkpt>
      <trkpt lat="50.42772" lon="3.49615">
        <ele>29.8</ele>
        <time>2021-09-25T19:27:06.474Z</time>
      </trkpt>
      <trkpt lat="50.42772" lon="3.49622">
        <ele>29.6</ele>
        <time>2021-09-25T19:27:06.944Z</time>
      </trkpt>
      <trkpt lat="50.42766" lon="3.49625">
        <ele>29.8</ele>
        <time>2021-09-25T19:27:07.566Z</time>
      </trkpt>
      <trkpt lat="50.42761" lon="3.49626">
        <ele>30</ele>
        <time>2021-09-25T19:27:09.954Z</time>
      </trkpt>
      <trkpt lat="50.42753" lon="3.49629">
        <ele>30.3</ele>
        <time>2021-09-25T19:27:10.739Z</time>
      </trkpt>
      <trkpt lat="50.42747" lon="3.49631">
        <ele>30.5</ele>
        <time>2021-09-25T19:27:16.253Z</time>
      </trkpt>
      <trkpt lat="50.42735" lon="3.49634">
        <ele>30.9</ele>
        <time>2021-09-25T19:27:17.403Z</time>
      </trkpt>
      <trkpt lat="50.42731" lon="3.49636">
        <ele>31</ele>
        <time>2021-09-25T19:27:21.562Z</time>
      </trkpt>
      <trkpt lat="50.42727" lon="3.4964">
        <ele>31.1</ele>
        <time>2021-09-25T19:27:22.011Z</time>
      </trkpt>
      <trkpt lat="50.42722" lon="3.49642">
        <ele>31.2</ele>
        <time>2021-09-25T19:27:22.728Z</time>
      </trkpt>
      <trkpt lat="50.42714" lon="3.49646">
        <ele>31.4</ele>
        <time>2021-09-25T19:27:23.529Z</time>
      </trkpt>
      <trkpt lat="50.42706" lon="3.49648">
        <ele>31.7</ele>
        <time>2021-09-25T19:27:24.338Z</time>
      </trkpt>
      <trkpt lat="50.42699" lon="3.49649">
        <ele>31.9</ele>
        <time>2021-09-25T19:27:25.057Z</time>
      </trkpt>
      <trkpt lat="50.42694" lon="3.49653">
        <ele>32.1</ele>
        <time>2021-09-25T19:27:26.895Z</time>
      </trkpt>
      <trkpt lat="50.42688" lon="3.49657">
        <ele>32.3</ele>
        <time>2021-09-25T19:27:27.571Z</time>
      </trkpt>
      <trkpt lat="50.42682" lon="3.4966">
        <ele>32.5</ele>
        <time>2021-09-25T19:27:28.153Z</time>
      </trkpt>
      <trkpt lat="50.42676" lon="3.49664">
        <ele>32.7</ele>
        <time>2021-09-25T19:27:33.577Z</time>
      </trkpt>
      <trkpt lat="50.42668" lon="3.4967">
        <ele>33</ele>
        <time>2021-09-25T19:27:41.690Z</time>
      </trkpt>
      <trkpt lat="50.42659" lon="3.49675">
        <ele>33.1</ele>
        <time>2021-09-25T19:27:42.643Z</time>
      </trkpt>
      <trkpt lat="50.42654" lon="3.49678">
        <ele>33.2</ele>
        <time>2021-09-25T19:27:44.796Z</time>
      </trkpt>
      <trkpt lat="50.42647" lon="3.49681">
        <ele>33.2</ele>
        <time>2021-09-25T19:27:49.567Z</time>
      </trkpt>
      <trkpt lat="50.42638" lon="3.49682">
        <ele>33.3</ele>
        <time>2021-09-25T19:27:52.930Z</time>
      </trkpt>
      <trkpt lat="50.42629" lon="3.49685">
        <ele>33.5</ele>
        <time>2021-09-25T19:27:53.856Z</time>
      </trkpt>
      <trkpt lat="50.42624" lon="3.49687">
        <ele>33.5</ele>
        <time>2021-09-25T19:27:54.308Z</time>
      </trkpt>
      <trkpt lat="50.42613" lon="3.49694">
        <ele>33.6</ele>
        <time>2021-09-25T19:27:58.069Z</time>
      </trkpt>
      <trkpt lat="50.42608" lon="3.49697">
        <ele>33.7</ele>
        <time>2021-09-25T19:28:03.080Z</time>
      </trkpt>
      <trkpt lat="50.426" lon="3.49699">
        <ele>33.8</ele>
        <time>2021-09-25T19:28:03.850Z</time>
      </trkpt>
      <trkpt lat="50.42595" lon="3.49701">
        <ele>33.9</ele>
        <time>2021-09-25T19:28:08.328Z</time>
      </trkpt>
      <trkpt lat="50.42589" lon="3.49703">
        <ele>33.9</ele>
        <time>2021-09-25T19:28:08.942Z</time>
      </trkpt>
      <trkpt lat="50.42582" lon="3.49705">
        <ele>34</ele>
        <time>2021-09-25T19:28:09.604Z</time>
      </trkpt>
      <trkpt lat="50.42574" lon="3.49708">
        <ele>34.1</ele>
        <time>2021-09-25T19:28:17.180Z</time>
      </trkpt>
      <trkpt lat="50.42566" lon="3.49711">
        <ele>34.1</ele>
        <time>2021-09-25T19:28:20.466Z</time>
      </trkpt>
      <trkpt lat="50.4256" lon="3.49714">
        <ele>34.1</ele>
        <time>2021-09-25T19:28:21.157Z</time>
      </trkpt>
      <trkpt lat="50.42555" lon="3.49716">
        <ele>34.1</ele>
        <time>2021-09-25T19:28:22.433Z</time>
      </trkpt>
      <trkpt lat="50.42551" lon="3.49718">
        <ele>34.1</ele>
        <time>2021-09-25T19:28:24.411Z</time>
      </trkpt>
      <trkpt lat="50.42546" lon="3.49721">
        <ele>34.2</ele>
        <time>2021-09-25T19:28:28.668Z</time>
      </trkpt>
      <trkpt lat="50.42536" lon="3.49725">
        <ele>34.2</ele>
        <time>2021-09-25T19:28:29.668Z</time>
      </trkpt>
      <trkpt lat="50.42531" lon="3.49728">
        <ele>34.2</ele>
        <time>2021-09-25T19:28:30.270Z</time>
      </trkpt>
      <trkpt lat="50.42522" lon="3.49732">
        <ele>34.2</ele>
        <time>2021-09-25T19:28:31.181Z</time>
      </trkpt>
      <trkpt lat="50.42515" lon="3.49737">
        <ele>34.1</ele>
        <time>2021-09-25T19:28:32.296Z</time>
      </trkpt>
      <trkpt lat="50.4251" lon="3.49739">
        <ele>34.1</ele>
        <time>2021-09-25T19:28:36.595Z</time>
      </trkpt>
      <trkpt lat="50.42506" lon="3.4974">
        <ele>34.1</ele>
        <time>2021-09-25T19:28:37.053Z</time>
      </trkpt>
      <trkpt lat="50.42495" lon="3.49743">
        <ele>34.1</ele>
        <time>2021-09-25T19:28:38.253Z</time>
      </trkpt>
      <trkpt lat="50.4249" lon="3.49743">
        <ele>34.1</ele>
        <time>2021-09-25T19:28:42.541Z</time>
      </trkpt>
      <trkpt lat="50.42484" lon="3.49746">
        <ele>34</ele>
        <time>2021-09-25T19:28:48.165Z</time>
      </trkpt>
      <trkpt lat="50.42478" lon="3.4975">
        <ele>34</ele>
        <time>2021-09-25T19:28:53.692Z</time>
      </trkpt>
      <trkpt lat="50.4247" lon="3.49754">
        <ele>34</ele>
        <time>2021-09-25T19:28:55.619Z</time>
      </trkpt>
      <trkpt lat="50.42465" lon="3.49757">
        <ele>33.9</ele>
        <time>2021-09-25T19:28:57.637Z</time>
      </trkpt>
      <trkpt lat="50.42457" lon="3.4976">
        <ele>33.9</ele>
        <time>2021-09-25T19:28:58.469Z</time>
      </trkpt>
      <trkpt lat="50.4245" lon="3.49764">
        <ele>33.8</ele>
        <time>2021-09-25T19:28:59.249Z</time>
      </trkpt>
      <trkpt lat="50.42441" lon="3.49766">
        <ele>33.8</ele>
        <time>2021-09-25T19:29:06.785Z</time>
      </trkpt>
      <trkpt lat="50.42436" lon="3.49769">
        <ele>33.8</ele>
        <time>2021-09-25T19:29:07.279Z</time>
      </trkpt>
      <trkpt lat="50.4243" lon="3.49773">
        <ele>33.7</ele>
        <time>2021-09-25T19:29:13.205Z</time>
      </trkpt>
      <trkpt lat="50.42424" lon="3.49777">
        <ele>33.7</ele>
        <time>2021-09-25T19:29:13.870Z</time>
      </trkpt>
      <trkpt lat="50.42419" lon="3.49779">
        <ele>33.7</ele>
        <time>2021-09-25T19:29:17.701Z</time>
      </trkpt>
      <trkpt lat="50.42413" lon="3.4978">
        <ele>33.6</ele>
        <time>2021-09-25T19:29:18.362Z</time>
      </trkpt>
      <trkpt lat="50.42408" lon="3.49781">
        <ele>33.6</ele>
        <time>2021-09-25T19:29:22.571Z</time>
      </trkpt>
      <trkpt lat="50.42403" lon="3.49782">
        <ele>33.6</ele>
        <time>2021-09-25T19:29:27.025Z</time>
      </trkpt>
      <trkpt lat="50.42398" lon="3.49782">
        <ele>33.6</ele>
        <time>2021-09-25T19:29:29.906Z</time>
      </trkpt>
      <trkpt lat="50.4239" lon="3.49781">
        <ele>33.6</ele>
        <time>2021-09-25T19:29:30.713Z</time>
      </trkpt>
      <trkpt lat="50.4238" lon="3.49782">
        <ele>33.6</ele>
        <time>2021-09-25T19:29:38.785Z</time>
      </trkpt>
      <trkpt lat="50.42372" lon="3.49785">
        <ele>33.6</ele>
        <time>2021-09-25T19:29:46.132Z</time>
      </trkpt>
      <trkpt lat="50.42366" lon="3.49788">
        <ele>33.5</ele>
        <time>2021-09-25T19:29:51.251Z</time>
      </trkpt>
      <trkpt lat="50.42361" lon="3.49789">
        <ele>33.5</ele>
        <time>2021-09-25T19:29:55.506Z</time>
      </trkpt>
      <trkpt lat="50.42354" lon="3.49794">
        <ele>33.5</ele>
        <time>2021-09-25T19:29:56.319Z</time>
      </trkpt>
      <trkpt lat="50.42348" lon="3.49798">
        <ele>33.4</ele>
        <time>2021-09-25T19:30:01.497Z</time>
      </trkpt>
      <trkpt lat="50.42343" lon="3.49801">
        <ele>33.4</ele>
        <time>2021-09-25T19:30:02.051Z</time>
      </trkpt>
      <trkpt lat="50.42336" lon="3.49804">
        <ele>33.4</ele>
        <time>2021-09-25T19:30:05.249Z</time>
      </trkpt>
      <trkpt lat="50.42328" lon="3.49809">
        <ele>33.3</ele>
        <time>2021-09-25T19:30:06.152Z</time>
      </trkpt>
      <trkpt lat="50.42319" lon="3.49812">
        <ele>33.2</ele>
        <time>2021-09-25T19:30:07.011Z</time>
      </trkpt>
      <trkpt lat="50.42314" lon="3.49814">
        <ele>33.2</ele>
        <time>2021-09-25T19:30:07.484Z</time>
      </trkpt>
      <trkpt lat="50.42306" lon="3.49817">
        <ele>33.1</ele>
        <time>2021-09-25T19:30:08.321Z</time>
      </trkpt>
      <trkpt lat="50.42302" lon="3.49819">
        <ele>33.1</ele>
        <time>2021-09-25T19:30:11.200Z</time>
      </trkpt>
      <trkpt lat="50.42296" lon="3.49822">
        <ele>33.1</ele>
        <time>2021-09-25T19:30:11.768Z</time>
      </trkpt>
      <trkpt lat="50.42288" lon="3.49828">
        <ele>33</ele>
        <time>2021-09-25T19:30:15.452Z</time>
      </trkpt>
      <trkpt lat="50.42281" lon="3.4983">
        <ele>33</ele>
        <time>2021-09-25T19:30:18.630Z</time>
      </trkpt>
      <trkpt lat="50.42273" lon="3.49831">
        <ele>33</ele>
        <time>2021-09-25T19:30:19.358Z</time>
      </trkpt>
      <trkpt lat="50.42267" lon="3.49837">
        <ele>33</ele>
        <time>2021-09-25T19:30:25.435Z</time>
      </trkpt>
      <trkpt lat="50.42264" lon="3.49841">
        <ele>32.9</ele>
        <time>2021-09-25T19:30:29.300Z</time>
      </trkpt>
      <trkpt lat="50.42259" lon="3.49844">
        <ele>32.9</ele>
        <time>2021-09-25T19:30:29.798Z</time>
      </trkpt>
      <trkpt lat="50.42254" lon="3.49847">
        <ele>32.8</ele>
        <time>2021-09-25T19:30:30.493Z</time>
      </trkpt>
      <trkpt lat="50.42249" lon="3.4985">
        <ele>32.8</ele>
        <time>2021-09-25T19:30:34.608Z</time>
      </trkpt>
      <trkpt lat="50.42242" lon="3.49853">
        <ele>32.8</ele>
        <time>2021-09-25T19:30:35.329Z</time>
      </trkpt>
      <trkpt lat="50.42235" lon="3.49856">
        <ele>32.7</ele>
        <time>2021-09-25T19:30:41.625Z</time>
      </trkpt>
      <trkpt lat="50.42227" lon="3.49859">
        <ele>32.7</ele>
        <time>2021-09-25T19:30:48.460Z</time>
      </trkpt>
      <trkpt lat="50.42219" lon="3.49863">
        <ele>32.6</ele>
        <time>2021-09-25T19:30:56.106Z</time>
      </trkpt>
      <trkpt lat="50.42213" lon="3.49866">
        <ele>32.6</ele>
        <time>2021-09-25T19:30:56.687Z</time>
      </trkpt>
      <trkpt lat="50.42203" lon="3.4987">
        <ele>32.6</ele>
        <time>2021-09-25T19:30:57.725Z</time>
      </trkpt>
      <trkpt lat="50.42192" lon="3.49874">
        <ele>32.5</ele>
        <time>2021-09-25T19:31:06.942Z</time>
      </trkpt>
      <trkpt lat="50.42182" lon="3.4988">
        <ele>32.4</ele>
        <time>2021-09-25T19:31:08.037Z</time>
      </trkpt>
      <trkpt lat="50.42176" lon="3.49882">
        <ele>32.4</ele>
        <time>2021-09-25T19:31:09.433Z</time>
      </trkpt>
      <trkpt lat="50.42171" lon="3.49885">
        <ele>32.4</ele>
        <time>2021-09-25T19:31:13.926Z</time>
      </trkpt>
      <trkpt lat="50.42165" lon="3.49888">
        <ele>32.4</ele>
        <time>2021-09-25T19:31:14.507Z</time>
      </trkpt>
      <trkpt lat="50.4216" lon="3.4989">
        <ele>32.5</ele>
        <time>2021-09-25T19:31:15.026Z</time>
      </trkpt>
      <trkpt lat="50.42149" lon="3.49895">
        <ele>32.8</ele>
        <time>2021-09-25T19:31:18.752Z</time>
      </trkpt>
      <trkpt lat="50.4214" lon="3.49899">
        <ele>33.1</ele>
        <time>2021-09-25T19:31:19.730Z</time>
      </trkpt>
      <trkpt lat="50.42129" lon="3.49904">
        <ele>33.4</ele>
        <time>2021-09-25T19:31:29.318Z</time>
      </trkpt>
      <trkpt lat="50.42121" lon="3.49908">
        <ele>33.7</ele>
        <time>2021-09-25T19:31:31.335Z</time>
      </trkpt>
      <trkpt lat="50.42113" lon="3.4991">
        <ele>34</ele>
        <time>2021-09-25T19:31:38.762Z</time>
      </trkpt>
      <trkpt lat="50.42106" lon="3.49911">
        <ele>34.2</ele>
        <time>2021-09-25T19:31:39.408Z</time>
      </trkpt>
      <trkpt lat="50.42099" lon="3.49912">
        <ele>34.4</ele>
        <time>2021-09-25T19:31:40.091Z</time>
      </trkpt>
      <trkpt lat="50.42093" lon="3.49915">
        <ele>34.7</ele>
        <time>2021-09-25T19:31:42.188Z</time>
      </trkpt>
      <trkpt lat="50.42085" lon="3.49919">
        <ele>34.9</ele>
        <time>2021-09-25T19:31:42.964Z</time>
      </trkpt>
      <trkpt lat="50.42077" lon="3.49923">
        <ele>34.7</ele>
        <time>2021-09-25T19:31:50.385Z</time>
      </trkpt>
      <trkpt lat="50.42069" lon="3.49928">
        <ele>34.3</ele>
        <time>2021-09-25T19:31:51.250Z</time>
      </trkpt>
      <trkpt lat="50.4206" lon="3.49932">
        <ele>34</ele>
        <time>2021-09-25T19:31:52.140Z</time>
      </trkpt>
      <trkpt lat="50.42052" lon="3.49937">
        <ele>33.6</ele>
        <time>2021-09-25T19:31:59.476Z</time>
      </trkpt>
      <trkpt lat="50.42044" lon="3.4994">
        <ele>33.3</ele>
        <time>2021-09-25T19:32:00.304Z</time>
      </trkpt>
      <trkpt lat="50.42039" lon="3.4994">
        <ele>33.1</ele>
        <time>2021-09-25T19:32:04.149Z</time>
      </trkpt>
      <trkpt lat="50.42031" lon="3.49943">
        <ele>32.8</ele>
        <time>2021-09-25T19:32:05.134Z</time>
      </trkpt>
      <trkpt lat="50.42027" lon="3.49945">
        <ele>32.6</ele>
        <time>2021-09-25T19:32:05.620Z</time>
      </trkpt>
      <trkpt lat="50.42018" lon="3.49949">
        <ele>32.3</ele>
        <time>2021-09-25T19:32:12.956Z</time>
      </trkpt>
      <trkpt lat="50.42012" lon="3.49952">
        <ele>32</ele>
        <time>2021-09-25T19:32:14.786Z</time>
      </trkpt>
      <trkpt lat="50.42005" lon="3.49955">
        <ele>31.7</ele>
        <time>2021-09-25T19:32:15.448Z</time>
      </trkpt>
      <trkpt lat="50.41999" lon="3.49957">
        <ele>31.5</ele>
        <time>2021-09-25T19:32:20.473Z</time>
      </trkpt>
      <trkpt lat="50.4199" lon="3.49961">
        <ele>31.8</ele>
        <time>2021-09-25T19:32:21.815Z</time>
      </trkpt>
      <trkpt lat="50.41985" lon="3.49962">
        <ele>31.9</ele>
        <time>2021-09-25T19:32:25.650Z</time>
      </trkpt>
      <trkpt lat="50.41981" lon="3.49965">
        <ele>32</ele>
        <time>2021-09-25T19:32:27.672Z</time>
      </trkpt>
      <trkpt lat="50.41975" lon="3.49968">
        <ele>32.2</ele>
        <time>2021-09-25T19:32:29.297Z</time>
      </trkpt>
      <trkpt lat="50.41968" lon="3.49971">
        <ele>32.4</ele>
        <time>2021-09-25T19:32:35.689Z</time>
      </trkpt>
      <trkpt lat="50.41961" lon="3.49976">
        <ele>32.6</ele>
        <time>2021-09-25T19:32:37.309Z</time>
      </trkpt>
      <trkpt lat="50.41956" lon="3.49979">
        <ele>32.7</ele>
        <time>2021-09-25T19:32:38.412Z</time>
      </trkpt>
      <trkpt lat="50.41952" lon="3.49981">
        <ele>32.8</ele>
        <time>2021-09-25T19:32:42.618Z</time>
      </trkpt>
      <trkpt lat="50.41947" lon="3.49983">
        <ele>33</ele>
        <time>2021-09-25T19:32:43.118Z</time>
      </trkpt>
      <trkpt lat="50.41938" lon="3.49986">
        <ele>33.3</ele>
        <time>2021-09-25T19:32:45.663Z</time>
      </trkpt>
      <trkpt lat="50.41933" lon="3.49988">
        <ele>33.4</ele>
        <time>2021-09-25T19:32:46.153Z</time>
      </trkpt>
      <trkpt lat="50.41922" lon="3.49993">
        <ele>33.8</ele>
        <time>2021-09-25T19:32:53.071Z</time>
      </trkpt>
      <trkpt lat="50.41917" lon="3.49994">
        <ele>34</ele>
        <time>2021-09-25T19:32:53.548Z</time>
      </trkpt>
      <trkpt lat="50.41912" lon="3.49996">
        <ele>34.1</ele>
        <time>2021-09-25T19:32:54.269Z</time>
      </trkpt>
      <trkpt lat="50.41908" lon="3.49998">
        <ele>34.1</ele>
        <time>2021-09-25T19:32:54.742Z</time>
      </trkpt>
      <trkpt lat="50.41903" lon="3.5">
        <ele>34.2</ele>
        <time>2021-09-25T19:32:59.054Z</time>
      </trkpt>
      <trkpt lat="50.41897" lon="3.50001">
        <ele>34.2</ele>
        <time>2021-09-25T19:32:59.639Z</time>
      </trkpt>
      <trkpt lat="50.41892" lon="3.50003">
        <ele>34.3</ele>
        <time>2021-09-25T19:33:00.211Z</time>
      </trkpt>
      <trkpt lat="50.41886" lon="3.50006">
        <ele>34.4</ele>
        <time>2021-09-25T19:33:05.043Z</time>
      </trkpt>
      <trkpt lat="50.41881" lon="3.50009">
        <ele>34.4</ele>
        <time>2021-09-25T19:33:06.951Z</time>
      </trkpt>
      <trkpt lat="50.4187" lon="3.50014">
        <ele>34.5</ele>
        <time>2021-09-25T19:33:08.053Z</time>
      </trkpt>
      <trkpt lat="50.41864" lon="3.50017">
        <ele>34.6</ele>
        <time>2021-09-25T19:33:08.649Z</time>
      </trkpt>
      <trkpt lat="50.41856" lon="3.50022">
        <ele>34.6</ele>
        <time>2021-09-25T19:33:16.410Z</time>
      </trkpt>
      <trkpt lat="50.41851" lon="3.50024">
        <ele>34.6</ele>
        <time>2021-09-25T19:33:16.871Z</time>
      </trkpt>
      <trkpt lat="50.41844" lon="3.50023">
        <ele>34.7</ele>
        <time>2021-09-25T19:33:17.618Z</time>
      </trkpt>
      <trkpt lat="50.41837" lon="3.50027">
        <ele>34.7</ele>
        <time>2021-09-25T19:33:18.341Z</time>
      </trkpt>
      <trkpt lat="50.4183" lon="3.50023">
        <ele>34.8</ele>
        <time>2021-09-25T19:33:24.246Z</time>
      </trkpt>
      <trkpt lat="50.41826" lon="3.50018">
        <ele>35</ele>
        <time>2021-09-25T19:33:24.806Z</time>
      </trkpt>
      <trkpt lat="50.41817" lon="3.50013">
        <ele>35.2</ele>
        <time>2021-09-25T19:33:26.802Z</time>
      </trkpt>
      <trkpt lat="50.4181" lon="3.5001">
        <ele>35.4</ele>
        <time>2021-09-25T19:33:27.502Z</time>
      </trkpt>
      <trkpt lat="50.41802" lon="3.50005">
        <ele>35.7</ele>
        <time>2021-09-25T19:33:34.958Z</time>
      </trkpt>
      <trkpt lat="50.41795" lon="3.49998">
        <ele>35.9</ele>
        <time>2021-09-25T19:33:35.796Z</time>
      </trkpt>
      <trkpt lat="50.41786" lon="3.49993">
        <ele>36</ele>
        <time>2021-09-25T19:33:36.637Z</time>
      </trkpt>
      <trkpt lat="50.41779" lon="3.49993">
        <ele>36.2</ele>
        <time>2021-09-25T19:33:37.477Z</time>
      </trkpt>
      <trkpt lat="50.41769" lon="3.49987">
        <ele>36.3</ele>
        <time>2021-09-25T19:33:38.509Z</time>
      </trkpt>
      <trkpt lat="50.4176" lon="3.49983">
        <ele>36.4</ele>
        <time>2021-09-25T19:33:39.439Z</time>
      </trkpt>
      <trkpt lat="50.41751" lon="3.49975">
        <ele>36.4</ele>
        <time>2021-09-25T19:33:40.450Z</time>
      </trkpt>
      <trkpt lat="50.41747" lon="3.49971">
        <ele>36.4</ele>
        <time>2021-09-25T19:33:40.981Z</time>
      </trkpt>
      <trkpt lat="50.41736" lon="3.49959">
        <ele>36.6</ele>
        <time>2021-09-25T19:33:46.510Z</time>
      </trkpt>
      <trkpt lat="50.41731" lon="3.49955">
        <ele>36.7</ele>
        <time>2021-09-25T19:33:50.801Z</time>
      </trkpt>
      <trkpt lat="50.41722" lon="3.49948">
        <ele>36.9</ele>
        <time>2021-09-25T19:33:51.807Z</time>
      </trkpt>
      <trkpt lat="50.41718" lon="3.49944">
        <ele>36.9</ele>
        <time>2021-09-25T19:33:56.003Z</time>
      </trkpt>
      <trkpt lat="50.41709" lon="3.49937">
        <ele>37.1</ele>
        <time>2021-09-25T19:34:04.232Z</time>
      </trkpt>
      <trkpt lat="50.41705" lon="3.49934">
        <ele>37.1</ele>
        <time>2021-09-25T19:34:04.724Z</time>
      </trkpt>
      <trkpt lat="50.41696" lon="3.49926">
        <ele>37.2</ele>
        <time>2021-09-25T19:34:13.135Z</time>
      </trkpt>
      <trkpt lat="50.41688" lon="3.4992">
        <ele>37.3</ele>
        <time>2021-09-25T19:34:14.023Z</time>
      </trkpt>
      <trkpt lat="50.41677" lon="3.49911">
        <ele>37.5</ele>
        <time>2021-09-25T19:34:15.289Z</time>
      </trkpt>
      <trkpt lat="50.4167" lon="3.49905">
        <ele>37.6</ele>
        <time>2021-09-25T19:34:22.404Z</time>
      </trkpt>
      <trkpt lat="50.41666" lon="3.49902">
        <ele>37.7</ele>
        <time>2021-09-25T19:34:24.746Z</time>
      </trkpt>
      <trkpt lat="50.41657" lon="3.49896">
        <ele>37.6</ele>
        <time>2021-09-25T19:34:25.647Z</time>
      </trkpt>
      <trkpt lat="50.41648" lon="3.49888">
        <ele>37.5</ele>
        <time>2021-09-25T19:34:28.518Z</time>
      </trkpt>
      <trkpt lat="50.41638" lon="3.49881">
        <ele>37.4</ele>
        <time>2021-09-25T19:34:29.529Z</time>
      </trkpt>
      <trkpt lat="50.41634" lon="3.49878">
        <ele>37.4</ele>
        <time>2021-09-25T19:34:32.014Z</time>
      </trkpt>
      <trkpt lat="50.41629" lon="3.49874">
        <ele>37.4</ele>
        <time>2021-09-25T19:34:32.579Z</time>
      </trkpt>
      <trkpt lat="50.41621" lon="3.49866">
        <ele>37.5</ele>
        <time>2021-09-25T19:34:41.058Z</time>
      </trkpt>
      <trkpt lat="50.41617" lon="3.49861">
        <ele>37.5</ele>
        <time>2021-09-25T19:34:41.550Z</time>
      </trkpt>
      <trkpt lat="50.41609" lon="3.49855">
        <ele>37.5</ele>
        <time>2021-09-25T19:34:44.421Z</time>
      </trkpt>
      <trkpt lat="50.41599" lon="3.49849">
        <ele>37.7</ele>
        <time>2021-09-25T19:34:48.285Z</time>
      </trkpt>
      <trkpt lat="50.41589" lon="3.49841">
        <ele>37.9</ele>
        <time>2021-09-25T19:34:58.329Z</time>
      </trkpt>
      <trkpt lat="50.41585" lon="3.49836">
        <ele>38</ele>
        <time>2021-09-25T19:34:58.803Z</time>
      </trkpt>
      <trkpt lat="50.4158" lon="3.4983">
        <ele>37.9</ele>
        <time>2021-09-25T19:35:04.247Z</time>
      </trkpt>
      <trkpt lat="50.41575" lon="3.49827">
        <ele>37.7</ele>
        <time>2021-09-25T19:35:04.763Z</time>
      </trkpt>
      <trkpt lat="50.4157" lon="3.49824">
        <ele>37.5</ele>
        <time>2021-09-25T19:35:05.286Z</time>
      </trkpt>
      <trkpt lat="50.41564" lon="3.4982">
        <ele>37.3</ele>
        <time>2021-09-25T19:35:10.933Z</time>
      </trkpt>
      <trkpt lat="50.4156" lon="3.49817">
        <ele>37.2</ele>
        <time>2021-09-25T19:35:11.373Z</time>
      </trkpt>
      <trkpt lat="50.41555" lon="3.49814">
        <ele>37</ele>
        <time>2021-09-25T19:35:16.028Z</time>
      </trkpt>
      <trkpt lat="50.4155" lon="3.4981">
        <ele>36.8</ele>
        <time>2021-09-25T19:35:16.612Z</time>
      </trkpt>
      <trkpt lat="50.4154" lon="3.49802">
        <ele>36.4</ele>
        <time>2021-09-25T19:35:19.787Z</time>
      </trkpt>
      <trkpt lat="50.41533" lon="3.49797">
        <ele>36.2</ele>
        <time>2021-09-25T19:35:26.752Z</time>
      </trkpt>
      <trkpt lat="50.41528" lon="3.49793">
        <ele>36</ele>
        <time>2021-09-25T19:35:27.296Z</time>
      </trkpt>
      <trkpt lat="50.41523" lon="3.4979">
        <ele>35.8</ele>
        <time>2021-09-25T19:35:31.740Z</time>
      </trkpt>
      <trkpt lat="50.41517" lon="3.49784">
        <ele>35.6</ele>
        <time>2021-09-25T19:35:32.493Z</time>
      </trkpt>
      <trkpt lat="50.41509" lon="3.49779">
        <ele>35.3</ele>
        <time>2021-09-25T19:35:36.652Z</time>
      </trkpt>
      <trkpt lat="50.41504" lon="3.49776">
        <ele>35.1</ele>
        <time>2021-09-25T19:35:37.211Z</time>
      </trkpt>
      <trkpt lat="50.41497" lon="3.49771">
        <ele>35</ele>
        <time>2021-09-25T19:35:37.982Z</time>
      </trkpt>
      <trkpt lat="50.41492" lon="3.49766">
        <ele>35</ele>
        <time>2021-09-25T19:35:43.308Z</time>
      </trkpt>
      <trkpt lat="50.41486" lon="3.49762">
        <ele>35</ele>
        <time>2021-09-25T19:35:43.894Z</time>
      </trkpt>
      <trkpt lat="50.41479" lon="3.49759">
        <ele>35</ele>
        <time>2021-09-25T19:35:45.662Z</time>
      </trkpt>
      <trkpt lat="50.41471" lon="3.49751">
        <ele>35</ele>
        <time>2021-09-25T19:35:46.577Z</time>
      </trkpt>
      <trkpt lat="50.41465" lon="3.49747">
        <ele>35</ele>
        <time>2021-09-25T19:35:51.803Z</time>
      </trkpt>
      <trkpt lat="50.41461" lon="3.49744">
        <ele>35</ele>
        <time>2021-09-25T19:35:55.663Z</time>
      </trkpt>
      <trkpt lat="50.41457" lon="3.49741">
        <ele>35.1</ele>
        <time>2021-09-25T19:35:56.114Z</time>
      </trkpt>
      <trkpt lat="50.41453" lon="3.49738">
        <ele>35.1</ele>
        <time>2021-09-25T19:35:56.595Z</time>
      </trkpt>
      <trkpt lat="50.41449" lon="3.49734">
        <ele>35.1</ele>
        <time>2021-09-25T19:36:00.759Z</time>
      </trkpt>
      <trkpt lat="50.41445" lon="3.49731">
        <ele>35.2</ele>
        <time>2021-09-25T19:36:01.174Z</time>
      </trkpt>
      <trkpt lat="50.4144" lon="3.49727">
        <ele>35.2</ele>
        <time>2021-09-25T19:36:02.917Z</time>
      </trkpt>
      <trkpt lat="50.41435" lon="3.49722">
        <ele>35.3</ele>
        <time>2021-09-25T19:36:03.528Z</time>
      </trkpt>
      <trkpt lat="50.41427" lon="3.49715">
        <ele>35.4</ele>
        <time>2021-09-25T19:36:04.460Z</time>
      </trkpt>
      <trkpt lat="50.41419" lon="3.49709">
        <ele>35.5</ele>
        <time>2021-09-25T19:36:05.351Z</time>
      </trkpt>
      <trkpt lat="50.41409" lon="3.49702">
        <ele>35.4</ele>
        <time>2021-09-25T19:36:12.367Z</time>
      </trkpt>
      <trkpt lat="50.41404" lon="3.49699">
        <ele>35.4</ele>
        <time>2021-09-25T19:36:12.875Z</time>
      </trkpt>
      <trkpt lat="50.414" lon="3.49697">
        <ele>35.3</ele>
        <time>2021-09-25T19:36:14.830Z</time>
      </trkpt>
      <trkpt lat="50.41396" lon="3.49695">
        <ele>35.2</ele>
        <time>2021-09-25T19:36:18.597Z</time>
      </trkpt>
      <trkpt lat="50.41388" lon="3.4969">
        <ele>35.1</ele>
        <time>2021-09-25T19:36:19.378Z</time>
      </trkpt>
      <trkpt lat="50.41382" lon="3.49687">
        <ele>35</ele>
        <time>2021-09-25T19:36:24.710Z</time>
      </trkpt>
      <trkpt lat="50.41375" lon="3.49682">
        <ele>34.9</ele>
        <time>2021-09-25T19:36:25.535Z</time>
      </trkpt>
      <trkpt lat="50.41367" lon="3.49676">
        <ele>34.8</ele>
        <time>2021-09-25T19:36:32.784Z</time>
      </trkpt>
      <trkpt lat="50.41362" lon="3.49672">
        <ele>34.7</ele>
        <time>2021-09-25T19:36:33.365Z</time>
      </trkpt>
      <trkpt lat="50.41352" lon="3.49662">
        <ele>34.5</ele>
        <time>2021-09-25T19:36:36.148Z</time>
      </trkpt>
      <trkpt lat="50.41348" lon="3.49659">
        <ele>34.4</ele>
        <time>2021-09-25T19:36:36.614Z</time>
      </trkpt>
      <trkpt lat="50.4134" lon="3.49652">
        <ele>34.3</ele>
        <time>2021-09-25T19:36:44.764Z</time>
      </trkpt>
      <trkpt lat="50.41335" lon="3.49648">
        <ele>34.3</ele>
        <time>2021-09-25T19:36:46.856Z</time>
      </trkpt>
      <trkpt lat="50.4133" lon="3.49644">
        <ele>34.2</ele>
        <time>2021-09-25T19:36:49.771Z</time>
      </trkpt>
      <trkpt lat="50.41322" lon="3.49634">
        <ele>34.1</ele>
        <time>2021-09-25T19:36:50.822Z</time>
      </trkpt>
      <trkpt lat="50.41311" lon="3.49627">
        <ele>34</ele>
        <time>2021-09-25T19:36:51.968Z</time>
      </trkpt>
      <trkpt lat="50.41301" lon="3.49618">
        <ele>33.7</ele>
        <time>2021-09-25T19:36:53.149Z</time>
      </trkpt>
      <trkpt lat="50.41291" lon="3.49609">
        <ele>33.5</ele>
        <time>2021-09-25T19:36:57.902Z</time>
      </trkpt>
      <trkpt lat="50.41287" lon="3.49605">
        <ele>33.4</ele>
        <time>2021-09-25T19:37:01.943Z</time>
      </trkpt>
      <trkpt lat="50.41277" lon="3.49599">
        <ele>33</ele>
        <time>2021-09-25T19:37:10.611Z</time>
      </trkpt>
      <trkpt lat="50.41266" lon="3.49591">
        <ele>32.6</ele>
        <time>2021-09-25T19:37:12.688Z</time>
      </trkpt>
      <trkpt lat="50.41261" lon="3.49587">
        <ele>32.4</ele>
        <time>2021-09-25T19:37:13.236Z</time>
      </trkpt>
      <trkpt lat="50.41252" lon="3.4958">
        <ele>32</ele>
        <time>2021-09-25T19:37:14.296Z</time>
      </trkpt>
      <trkpt lat="50.41242" lon="3.49572">
        <ele>31.8</ele>
        <time>2021-09-25T19:37:16.095Z</time>
      </trkpt>
      <trkpt lat="50.41238" lon="3.49568">
        <ele>31.7</ele>
        <time>2021-09-25T19:37:20.511Z</time>
      </trkpt>
      <trkpt lat="50.41227" lon="3.49561">
        <ele>31.5</ele>
        <time>2021-09-25T19:37:30.078Z</time>
      </trkpt>
      <trkpt lat="50.41217" lon="3.49555">
        <ele>31.3</ele>
        <time>2021-09-25T19:37:31.199Z</time>
      </trkpt>
      <trkpt lat="50.41206" lon="3.49548">
        <ele>31</ele>
        <time>2021-09-25T19:37:37.093Z</time>
      </trkpt>
      <trkpt lat="50.412" lon="3.49545">
        <ele>30.9</ele>
        <time>2021-09-25T19:37:37.707Z</time>
      </trkpt>
      <trkpt lat="50.41191" lon="3.49537">
        <ele>30.7</ele>
        <time>2021-09-25T19:37:38.750Z</time>
      </trkpt>
      <trkpt lat="50.41182" lon="3.49529">
        <ele>30.5</ele>
        <time>2021-09-25T19:37:47.134Z</time>
      </trkpt>
      <trkpt lat="50.41174" lon="3.49523">
        <ele>30.4</ele>
        <time>2021-09-25T19:37:48.064Z</time>
      </trkpt>
      <trkpt lat="50.41166" lon="3.49516">
        <ele>30.2</ele>
        <time>2021-09-25T19:37:53.248Z</time>
      </trkpt>
      <trkpt lat="50.41159" lon="3.4951">
        <ele>30.2</ele>
        <time>2021-09-25T19:38:00.492Z</time>
      </trkpt>
      <trkpt lat="50.4115" lon="3.49503">
        <ele>30.2</ele>
        <time>2021-09-25T19:38:01.439Z</time>
      </trkpt>
      <trkpt lat="50.41146" lon="3.49498">
        <ele>30.3</ele>
        <time>2021-09-25T19:38:01.973Z</time>
      </trkpt>
      <trkpt lat="50.41142" lon="3.49494">
        <ele>30.4</ele>
        <time>2021-09-25T19:38:05.996Z</time>
      </trkpt>
      <trkpt lat="50.41135" lon="3.49491">
        <ele>30.5</ele>
        <time>2021-09-25T19:38:11.636Z</time>
      </trkpt>
      <trkpt lat="50.41125" lon="3.49484">
        <ele>30.7</ele>
        <time>2021-09-25T19:38:12.823Z</time>
      </trkpt>
      <trkpt lat="50.4112" lon="3.49477">
        <ele>30.8</ele>
        <time>2021-09-25T19:38:13.416Z</time>
      </trkpt>
      <trkpt lat="50.41115" lon="3.49473">
        <ele>30.9</ele>
        <time>2021-09-25T19:38:18.850Z</time>
      </trkpt>
      <trkpt lat="50.41106" lon="3.49467">
        <ele>30.9</ele>
        <time>2021-09-25T19:38:20.174Z</time>
      </trkpt>
      <trkpt lat="50.41101" lon="3.49463">
        <ele>31</ele>
        <time>2021-09-25T19:38:25.175Z</time>
      </trkpt>
      <trkpt lat="50.41091" lon="3.49453">
        <ele>31</ele>
        <time>2021-09-25T19:38:26.312Z</time>
      </trkpt>
      <trkpt lat="50.41082" lon="3.49445">
        <ele>30.9</ele>
        <time>2021-09-25T19:38:34.099Z</time>
      </trkpt>
      <trkpt lat="50.41072" lon="3.49437">
        <ele>30.6</ele>
        <time>2021-09-25T19:38:35.200Z</time>
      </trkpt>
      <trkpt lat="50.41066" lon="3.49434">
        <ele>30.3</ele>
        <time>2021-09-25T19:38:35.768Z</time>
      </trkpt>
      <trkpt lat="50.41055" lon="3.49427">
        <ele>29.9</ele>
        <time>2021-09-25T19:38:37.750Z</time>
      </trkpt>
      <trkpt lat="50.4105" lon="3.49424">
        <ele>29.8</ele>
        <time>2021-09-25T19:38:42.272Z</time>
      </trkpt>
      <trkpt lat="50.41048" lon="3.49436">
        <ele>29.6</ele>
        <time>2021-09-25T19:38:45.701Z</time>
      </trkpt>
      <trkpt lat="50.41048" lon="3.49445">
        <ele>29.6</ele>
        <time>2021-09-25T19:38:46.295Z</time>
      </trkpt>
      <trkpt lat="50.41048" lon="3.49462">
        <ele>29.5</ele>
        <time>2021-09-25T19:38:47.301Z</time>
      </trkpt>
      <trkpt lat="50.41048" lon="3.49473">
        <ele>29.4</ele>
        <time>2021-09-25T19:38:53.182Z</time>
      </trkpt>
      <trkpt lat="50.41048" lon="3.49488">
        <ele>29.4</ele>
        <time>2021-09-25T19:38:57.889Z</time>
      </trkpt>
      <trkpt lat="50.41047" lon="3.49504">
        <ele>29.3</ele>
        <time>2021-09-25T19:38:58.920Z</time>
      </trkpt>
      <trkpt lat="50.4105" lon="3.49521">
        <ele>29.4</ele>
        <time>2021-09-25T19:39:03.158Z</time>
      </trkpt>
      <trkpt lat="50.41046" lon="3.49524">
        <ele>29.2</ele>
        <time>2021-09-25T19:39:07.114Z</time>
      </trkpt>
      <trkpt lat="50.41047" lon="3.49536">
        <ele>29.3</ele>
        <time>2021-09-25T19:39:13.757Z</time>
      </trkpt>
      <trkpt lat="50.41047" lon="3.49544">
        <ele>29.3</ele>
        <time>2021-09-25T19:39:14.246Z</time>
      </trkpt>
      <trkpt lat="50.41044" lon="3.49564">
        <ele>29.1</ele>
        <time>2021-09-25T19:39:25.590Z</time>
      </trkpt>
      <trkpt lat="50.41041" lon="3.49573">
        <ele>29</ele>
        <time>2021-09-25T19:39:26.209Z</time>
      </trkpt>
      <trkpt lat="50.4104" lon="3.49584">
        <ele>28.9</ele>
        <time>2021-09-25T19:39:26.912Z</time>
      </trkpt>
      <trkpt lat="50.41039" lon="3.49593">
        <ele>28.8</ele>
        <time>2021-09-25T19:39:27.497Z</time>
      </trkpt>
      <trkpt lat="50.41038" lon="3.49607">
        <ele>28.5</ele>
        <time>2021-09-25T19:39:35.026Z</time>
      </trkpt>
      <trkpt lat="50.41037" lon="3.49614">
        <ele>28.4</ele>
        <time>2021-09-25T19:39:39.025Z</time>
      </trkpt>
      <trkpt lat="50.41038" lon="3.49627">
        <ele>28.3</ele>
        <time>2021-09-25T19:39:39.825Z</time>
      </trkpt>
      <trkpt lat="50.41036" lon="3.49634">
        <ele>28.1</ele>
        <time>2021-09-25T19:39:43.794Z</time>
      </trkpt>
      <trkpt lat="50.41037" lon="3.49641">
        <ele>28.1</ele>
        <time>2021-09-25T19:39:44.296Z</time>
      </trkpt>
      <trkpt lat="50.41038" lon="3.49651">
        <ele>28</ele>
        <time>2021-09-25T19:39:49.307Z</time>
      </trkpt>
      <trkpt lat="50.41037" lon="3.49658">
        <ele>27.9</ele>
        <time>2021-09-25T19:39:53.196Z</time>
      </trkpt>
      <trkpt lat="50.41036" lon="3.49665">
        <ele>27.7</ele>
        <time>2021-09-25T19:39:57.346Z</time>
      </trkpt>
      <trkpt lat="50.41037" lon="3.49675">
        <ele>27.9</ele>
        <time>2021-09-25T19:40:02.725Z</time>
      </trkpt>
      <trkpt lat="50.41034" lon="3.49682">
        <ele>27.8</ele>
        <time>2021-09-25T19:40:07.592Z</time>
      </trkpt>
      <trkpt lat="50.41033" lon="3.49691">
        <ele>27.9</ele>
        <time>2021-09-25T19:40:08.182Z</time>
      </trkpt>
      <trkpt lat="50.41032" lon="3.49703">
        <ele>28.1</ele>
        <time>2021-09-25T19:40:14.517Z</time>
      </trkpt>
      <trkpt lat="50.41032" lon="3.49714">
        <ele>28.2</ele>
        <time>2021-09-25T19:40:15.200Z</time>
      </trkpt>
      <trkpt lat="50.41032" lon="3.49725">
        <ele>28.4</ele>
        <time>2021-09-25T19:40:15.927Z</time>
      </trkpt>
      <trkpt lat="50.41033" lon="3.49733">
        <ele>28.5</ele>
        <time>2021-09-25T19:40:18.305Z</time>
      </trkpt>
      <trkpt lat="50.41034" lon="3.49742">
        <ele>28.7</ele>
        <time>2021-09-25T19:40:20.231Z</time>
      </trkpt>
      <trkpt lat="50.41035" lon="3.49754">
        <ele>28.9</ele>
        <time>2021-09-25T19:40:26.447Z</time>
      </trkpt>
      <trkpt lat="50.41035" lon="3.49763">
        <ele>29.1</ele>
        <time>2021-09-25T19:40:27.733Z</time>
      </trkpt>
      <trkpt lat="50.41034" lon="3.49774">
        <ele>29.3</ele>
        <time>2021-09-25T19:40:28.407Z</time>
      </trkpt>
      <trkpt lat="50.41034" lon="3.49784">
        <ele>29.5</ele>
        <time>2021-09-25T19:40:34.123Z</time>
      </trkpt>
      <trkpt lat="50.41035" lon="3.49791">
        <ele>29.7</ele>
        <time>2021-09-25T19:40:36.075Z</time>
      </trkpt>
      <trkpt lat="50.41035" lon="3.49803">
        <ele>29.9</ele>
        <time>2021-09-25T19:40:36.808Z</time>
      </trkpt>
      <trkpt lat="50.41033" lon="3.49816">
        <ele>30.2</ele>
        <time>2021-09-25T19:40:37.639Z</time>
      </trkpt>
      <trkpt lat="50.41032" lon="3.49824">
        <ele>30.4</ele>
        <time>2021-09-25T19:40:42.095Z</time>
      </trkpt>
      <trkpt lat="50.41031" lon="3.49836">
        <ele>30.6</ele>
        <time>2021-09-25T19:40:42.836Z</time>
      </trkpt>
      <trkpt lat="50.41032" lon="3.49845">
        <ele>30.6</ele>
        <time>2021-09-25T19:40:43.460Z</time>
      </trkpt>
      <trkpt lat="50.41034" lon="3.49858">
        <ele>30.5</ele>
        <time>2021-09-25T19:40:50.508Z</time>
      </trkpt>
      <trkpt lat="50.41035" lon="3.49871">
        <ele>30.4</ele>
        <time>2021-09-25T19:40:51.359Z</time>
      </trkpt>
      <trkpt lat="50.41035" lon="3.49883">
        <ele>30.3</ele>
        <time>2021-09-25T19:40:57.402Z</time>
      </trkpt>
      <trkpt lat="50.41032" lon="3.49898">
        <ele>30.3</ele>
        <time>2021-09-25T19:40:58.420Z</time>
      </trkpt>
      <trkpt lat="50.41031" lon="3.49914">
        <ele>30.3</ele>
        <time>2021-09-25T19:41:06.455Z</time>
      </trkpt>
      <trkpt lat="50.41031" lon="3.49923">
        <ele>30.2</ele>
        <time>2021-09-25T19:41:11.355Z</time>
      </trkpt>
      <trkpt lat="50.41031" lon="3.4993">
        <ele>30</ele>
        <time>2021-09-25T19:41:11.849Z</time>
      </trkpt>
      <trkpt lat="50.41032" lon="3.49941">
        <ele>29.8</ele>
        <time>2021-09-25T19:41:12.547Z</time>
      </trkpt>
      <trkpt lat="50.41033" lon="3.49955">
        <ele>29.6</ele>
        <time>2021-09-25T19:41:19.939Z</time>
      </trkpt>
      <trkpt lat="50.41033" lon="3.49962">
        <ele>29.4</ele>
        <time>2021-09-25T19:41:23.969Z</time>
      </trkpt>
      <trkpt lat="50.41033" lon="3.49971">
        <ele>29.3</ele>
        <time>2021-09-25T19:41:24.745Z</time>
      </trkpt>
      <trkpt lat="50.41033" lon="3.49978">
        <ele>29.2</ele>
        <time>2021-09-25T19:41:26.081Z</time>
      </trkpt>
      <trkpt lat="50.41033" lon="3.49986">
        <ele>29</ele>
        <time>2021-09-25T19:41:26.747Z</time>
      </trkpt>
      <trkpt lat="50.41033" lon="3.49997">
        <ele>28.9</ele>
        <time>2021-09-25T19:41:27.699Z</time>
      </trkpt>
      <trkpt lat="50.41034" lon="3.50009">
        <ele>28.8</ele>
        <time>2021-09-25T19:41:32.311Z</time>
      </trkpt>
      <trkpt lat="50.41035" lon="3.50017">
        <ele>28.7</ele>
        <time>2021-09-25T19:41:32.790Z</time>
      </trkpt>
      <trkpt lat="50.41037" lon="3.50027">
        <ele>28.6</ele>
        <time>2021-09-25T19:41:33.493Z</time>
      </trkpt>
      <trkpt lat="50.41039" lon="3.50035">
        <ele>28.6</ele>
        <time>2021-09-25T19:41:34.284Z</time>
      </trkpt>
      <trkpt lat="50.41041" lon="3.50043">
        <ele>28.5</ele>
        <time>2021-09-25T19:41:35.493Z</time>
      </trkpt>
      <trkpt lat="50.41043" lon="3.50054">
        <ele>28.5</ele>
        <time>2021-09-25T19:41:36.180Z</time>
      </trkpt>
      <trkpt lat="50.41044" lon="3.50071">
        <ele>28.5</ele>
        <time>2021-09-25T19:41:37.257Z</time>
      </trkpt>
      <trkpt lat="50.41043" lon="3.50078">
        <ele>28.5</ele>
        <time>2021-09-25T19:41:37.722Z</time>
      </trkpt>
      <trkpt lat="50.41042" lon="3.5009">
        <ele>28.5</ele>
        <time>2021-09-25T19:41:38.464Z</time>
      </trkpt>
      <trkpt lat="50.41042" lon="3.50098">
        <ele>28.6</ele>
        <time>2021-09-25T19:41:41.362Z</time>
      </trkpt>
      <trkpt lat="50.4104" lon="3.5011">
        <ele>28.7</ele>
        <time>2021-09-25T19:41:48.312Z</time>
      </trkpt>
      <trkpt lat="50.41038" lon="3.50117">
        <ele>28.7</ele>
        <time>2021-09-25T19:41:48.831Z</time>
      </trkpt>
      <trkpt lat="50.41035" lon="3.50131">
        <ele>28.7</ele>
        <time>2021-09-25T19:41:56.666Z</time>
      </trkpt>
      <trkpt lat="50.41034" lon="3.50144">
        <ele>28.8</ele>
        <time>2021-09-25T19:42:03.802Z</time>
      </trkpt>
      <trkpt lat="50.41032" lon="3.5016">
        <ele>28.8</ele>
        <time>2021-09-25T19:42:04.815Z</time>
      </trkpt>
      <trkpt lat="50.41029" lon="3.50178">
        <ele>28.7</ele>
        <time>2021-09-25T19:42:09.800Z</time>
      </trkpt>
      <trkpt lat="50.41026" lon="3.50187">
        <ele>28.6</ele>
        <time>2021-09-25T19:42:10.466Z</time>
      </trkpt>
      <trkpt lat="50.41019" lon="3.50203">
        <ele>28.5</ele>
        <time>2021-09-25T19:42:20.520Z</time>
      </trkpt>
      <trkpt lat="50.41015" lon="3.50218">
        <ele>28.4</ele>
        <time>2021-09-25T19:42:21.648Z</time>
      </trkpt>
      <trkpt lat="50.41014" lon="3.50226">
        <ele>28.3</ele>
        <time>2021-09-25T19:42:25.679Z</time>
      </trkpt>
      <trkpt lat="50.41012" lon="3.50239">
        <ele>28.3</ele>
        <time>2021-09-25T19:42:27.689Z</time>
      </trkpt>
      <trkpt lat="50.41016" lon="3.50243">
        <ele>28.4</ele>
        <time>2021-09-25T19:42:31.886Z</time>
      </trkpt>
      <trkpt lat="50.41017" lon="3.50251">
        <ele>28.4</ele>
        <time>2021-09-25T19:42:36.218Z</time>
      </trkpt>
      <trkpt lat="50.41014" lon="3.50262">
        <ele>28.4</ele>
        <time>2021-09-25T19:42:36.976Z</time>
      </trkpt>
      <trkpt lat="50.41012" lon="3.50269">
        <ele>28.5</ele>
        <time>2021-09-25T19:42:37.457Z</time>
      </trkpt>
      <trkpt lat="50.41011" lon="3.50277">
        <ele>28.5</ele>
        <time>2021-09-25T19:42:38.030Z</time>
      </trkpt>
      <trkpt lat="50.4101" lon="3.50288">
        <ele>28.6</ele>
        <time>2021-09-25T19:42:44.094Z</time>
      </trkpt>
      <trkpt lat="50.41014" lon="3.50294">
        <ele>28.7</ele>
        <time>2021-09-25T19:42:44.657Z</time>
      </trkpt>
      <trkpt lat="50.4102" lon="3.50296">
        <ele>28.8</ele>
        <time>2021-09-25T19:42:49.708Z</time>
      </trkpt>
      <trkpt lat="50.41026" lon="3.50297">
        <ele>28.8</ele>
        <time>2021-09-25T19:42:54.991Z</time>
      </trkpt>
      <trkpt lat="50.41031" lon="3.50306">
        <ele>28.9</ele>
        <time>2021-09-25T19:42:55.709Z</time>
      </trkpt>
      <trkpt lat="50.41033" lon="3.50316">
        <ele>29</ele>
        <time>2021-09-25T19:43:01.572Z</time>
      </trkpt>
      <trkpt lat="50.41035" lon="3.50324">
        <ele>29</ele>
        <time>2021-09-25T19:43:02.925Z</time>
      </trkpt>
      <trkpt lat="50.41036" lon="3.50333">
        <ele>29</ele>
        <time>2021-09-25T19:43:05.950Z</time>
      </trkpt>
      <trkpt lat="50.41038" lon="3.50343">
        <ele>29</ele>
        <time>2021-09-25T19:43:06.604Z</time>
      </trkpt>
      <trkpt lat="50.41038" lon="3.50351">
        <ele>29</ele>
        <time>2021-09-25T19:43:07.093Z</time>
      </trkpt>
      <trkpt lat="50.41038" lon="3.50363">
        <ele>29</ele>
        <time>2021-09-25T19:43:13.309Z</time>
      </trkpt>
      <trkpt lat="50.41039" lon="3.50376">
        <ele>29</ele>
        <time>2021-09-25T19:43:20.713Z</time>
      </trkpt>
      <trkpt lat="50.41036" lon="3.5037">
        <ele>29.1</ele>
        <time>2021-09-25T19:43:21.183Z</time>
      </trkpt>
      <trkpt lat="50.41035" lon="3.50381">
        <ele>29.1</ele>
        <time>2021-09-25T19:43:27.004Z</time>
      </trkpt>
      <trkpt lat="50.41035" lon="3.50396">
        <ele>29.1</ele>
        <time>2021-09-25T19:43:27.985Z</time>
      </trkpt>
      <trkpt lat="50.41035" lon="3.50411">
        <ele>29.1</ele>
        <time>2021-09-25T19:43:30.958Z</time>
      </trkpt>
      <trkpt lat="50.41035" lon="3.50419">
        <ele>29.2</ele>
        <time>2021-09-25T19:43:31.443Z</time>
      </trkpt>
      <trkpt lat="50.41036" lon="3.50428">
        <ele>29.1</ele>
        <time>2021-09-25T19:43:36.379Z</time>
      </trkpt>
      <trkpt lat="50.41037" lon="3.50438">
        <ele>29</ele>
        <time>2021-09-25T19:43:42.051Z</time>
      </trkpt>
      <trkpt lat="50.41038" lon="3.50449">
        <ele>28.9</ele>
        <time>2021-09-25T19:43:42.741Z</time>
      </trkpt>
      <trkpt lat="50.41039" lon="3.50457">
        <ele>28.9</ele>
        <time>2021-09-25T19:43:47.325Z</time>
      </trkpt>
      <trkpt lat="50.4104" lon="3.50466">
        <ele>28.8</ele>
        <time>2021-09-25T19:43:47.879Z</time>
      </trkpt>
      <trkpt lat="50.41041" lon="3.50476">
        <ele>28.7</ele>
        <time>2021-09-25T19:43:53.329Z</time>
      </trkpt>
      <trkpt lat="50.41041" lon="3.50493">
        <ele>28.6</ele>
        <time>2021-09-25T19:43:59.664Z</time>
      </trkpt>
      <trkpt lat="50.41041" lon="3.50505">
        <ele>28.6</ele>
        <time>2021-09-25T19:44:00.535Z</time>
      </trkpt>
      <trkpt lat="50.41041" lon="3.50514">
        <ele>28.7</ele>
        <time>2021-09-25T19:44:01.142Z</time>
      </trkpt>
      <trkpt lat="50.41042" lon="3.50522">
        <ele>28.7</ele>
        <time>2021-09-25T19:44:05.795Z</time>
      </trkpt>
      <trkpt lat="50.41042" lon="3.50536">
        <ele>28.9</ele>
        <time>2021-09-25T19:44:06.668Z</time>
      </trkpt>
      <trkpt lat="50.41042" lon="3.50544">
        <ele>29</ele>
        <time>2021-09-25T19:44:09.554Z</time>
      </trkpt>
      <trkpt lat="50.41044" lon="3.50566">
        <ele>29.2</ele>
        <time>2021-09-25T19:44:12.601Z</time>
      </trkpt>
      <trkpt lat="50.41044" lon="3.50573">
        <ele>29.2</ele>
        <time>2021-09-25T19:44:13.094Z</time>
      </trkpt>
      <trkpt lat="50.41039" lon="3.50579">
        <ele>29.6</ele>
        <time>2021-09-25T19:44:13.729Z</time>
      </trkpt>
      <trkpt lat="50.41038" lon="3.50586">
        <ele>29.8</ele>
        <time>2021-09-25T19:44:14.182Z</time>
      </trkpt>
      <trkpt lat="50.41043" lon="3.50589">
        <ele>29.6</ele>
        <time>2021-09-25T19:44:17.646Z</time>
      </trkpt>
      <trkpt lat="50.41047" lon="3.50596">
        <ele>29.5</ele>
        <time>2021-09-25T19:44:22.473Z</time>
      </trkpt>
      <trkpt lat="50.4105" lon="3.50602">
        <ele>29.4</ele>
        <time>2021-09-25T19:44:22.948Z</time>
      </trkpt>
      <trkpt lat="50.41054" lon="3.50609">
        <ele>29.4</ele>
        <time>2021-09-25T19:44:23.549Z</time>
      </trkpt>
      <trkpt lat="50.41057" lon="3.50615">
        <ele>29.3</ele>
        <time>2021-09-25T19:44:27.995Z</time>
      </trkpt>
      <trkpt lat="50.41059" lon="3.50622">
        <ele>29.4</ele>
        <time>2021-09-25T19:44:28.489Z</time>
      </trkpt>
      <trkpt lat="50.4106" lon="3.50634">
        <ele>29.6</ele>
        <time>2021-09-25T19:44:34.581Z</time>
      </trkpt>
      <trkpt lat="50.41061" lon="3.50646">
        <ele>29.8</ele>
        <time>2021-09-25T19:44:35.391Z</time>
      </trkpt>
      <trkpt lat="50.41065" lon="3.50657">
        <ele>29.9</ele>
        <time>2021-09-25T19:44:42.232Z</time>
      </trkpt>
      <trkpt lat="50.41069" lon="3.50662">
        <ele>29.7</ele>
        <time>2021-09-25T19:44:46.206Z</time>
      </trkpt>
      <trkpt lat="50.41073" lon="3.50666">
        <ele>29.6</ele>
        <time>2021-09-25T19:44:46.734Z</time>
      </trkpt>
      <trkpt lat="50.4108" lon="3.5067">
        <ele>29.3</ele>
        <time>2021-09-25T19:44:47.397Z</time>
      </trkpt>
      <trkpt lat="50.41088" lon="3.50681">
        <ele>29.3</ele>
        <time>2021-09-25T19:44:48.477Z</time>
      </trkpt>
      <trkpt lat="50.41097" lon="3.50693">
        <ele>29.5</ele>
        <time>2021-09-25T19:44:53.052Z</time>
      </trkpt>
      <trkpt lat="50.41099" lon="3.50701">
        <ele>29.7</ele>
        <time>2021-09-25T19:44:53.558Z</time>
      </trkpt>
      <trkpt lat="50.41101" lon="3.50709">
        <ele>29.9</ele>
        <time>2021-09-25T19:44:54.090Z</time>
      </trkpt>
      <trkpt lat="50.41104" lon="3.5072">
        <ele>30.2</ele>
        <time>2021-09-25T19:44:54.831Z</time>
      </trkpt>
      <trkpt lat="50.41107" lon="3.50725">
        <ele>30.3</ele>
        <time>2021-09-25T19:44:57.723Z</time>
      </trkpt>
      <trkpt lat="50.41116" lon="3.50743">
        <ele>30.8</ele>
        <time>2021-09-25T19:45:10.298Z</time>
      </trkpt>
      <trkpt lat="50.41123" lon="3.50753">
        <ele>31.1</ele>
        <time>2021-09-25T19:45:11.243Z</time>
      </trkpt>
      <trkpt lat="50.41131" lon="3.50764">
        <ele>31.4</ele>
        <time>2021-09-25T19:45:12.278Z</time>
      </trkpt>
      <trkpt lat="50.41134" lon="3.50769">
        <ele>31.6</ele>
        <time>2021-09-25T19:45:16.570Z</time>
      </trkpt>
      <trkpt lat="50.41141" lon="3.50781">
        <ele>32</ele>
        <time>2021-09-25T19:45:19.095Z</time>
      </trkpt>
      <trkpt lat="50.4115" lon="3.50792">
        <ele>32.4</ele>
        <time>2021-09-25T19:45:20.156Z</time>
      </trkpt>
      <trkpt lat="50.41154" lon="3.50795">
        <ele>32.5</ele>
        <time>2021-09-25T19:45:24.233Z</time>
      </trkpt>
      <trkpt lat="50.41158" lon="3.50798">
        <ele>32.7</ele>
        <time>2021-09-25T19:45:24.684Z</time>
      </trkpt>
      <trkpt lat="50.41161" lon="3.50803">
        <ele>32.9</ele>
        <time>2021-09-25T19:45:25.216Z</time>
      </trkpt>
      <trkpt lat="50.41166" lon="3.50809">
        <ele>33.1</ele>
        <time>2021-09-25T19:45:27.084Z</time>
      </trkpt>
      <trkpt lat="50.41171" lon="3.50814">
        <ele>33.4</ele>
        <time>2021-09-25T19:45:27.727Z</time>
      </trkpt>
      <trkpt lat="50.41176" lon="3.50819">
        <ele>33.7</ele>
        <time>2021-09-25T19:45:32.347Z</time>
      </trkpt>
      <trkpt lat="50.41184" lon="3.50826">
        <ele>34.2</ele>
        <time>2021-09-25T19:45:39.903Z</time>
      </trkpt>
      <trkpt lat="50.41192" lon="3.50832">
        <ele>34.6</ele>
        <time>2021-09-25T19:45:48.266Z</time>
      </trkpt>
      <trkpt lat="50.41202" lon="3.5084">
        <ele>34.9</ele>
        <time>2021-09-25T19:45:49.326Z</time>
      </trkpt>
      <trkpt lat="50.41212" lon="3.5085">
        <ele>35.2</ele>
        <time>2021-09-25T19:45:52.447Z</time>
      </trkpt>
      <trkpt lat="50.41218" lon="3.50855">
        <ele>35.3</ele>
        <time>2021-09-25T19:45:57.301Z</time>
      </trkpt>
      <trkpt lat="50.41222" lon="3.50859">
        <ele>35.4</ele>
        <time>2021-09-25T19:46:01.454Z</time>
      </trkpt>
      <trkpt lat="50.41226" lon="3.50866">
        <ele>35.5</ele>
        <time>2021-09-25T19:46:02.064Z</time>
      </trkpt>
      <trkpt lat="50.4123" lon="3.50871">
        <ele>35.6</ele>
        <time>2021-09-25T19:46:02.607Z</time>
      </trkpt>
      <trkpt lat="50.41241" lon="3.50879">
        <ele>35.8</ele>
        <time>2021-09-25T19:46:04.523Z</time>
      </trkpt>
      <trkpt lat="50.41251" lon="3.5088">
        <ele>36</ele>
        <time>2021-09-25T19:46:13.492Z</time>
      </trkpt>
      <trkpt lat="50.41255" lon="3.50887">
        <ele>36</ele>
        <time>2021-09-25T19:46:18.432Z</time>
      </trkpt>
      <trkpt lat="50.41256" lon="3.50895">
        <ele>36.1</ele>
        <time>2021-09-25T19:46:18.945Z</time>
      </trkpt>
      <trkpt lat="50.41257" lon="3.50903">
        <ele>36.1</ele>
        <time>2021-09-25T19:46:23.568Z</time>
      </trkpt>
      <trkpt lat="50.41262" lon="3.50905">
        <ele>36.1</ele>
        <time>2021-09-25T19:46:27.743Z</time>
      </trkpt>
      <trkpt lat="50.41268" lon="3.50907">
        <ele>36.2</ele>
        <time>2021-09-25T19:46:28.387Z</time>
      </trkpt>
      <trkpt lat="50.41273" lon="3.50907">
        <ele>36.2</ele>
        <time>2021-09-25T19:46:32.841Z</time>
      </trkpt>
      <trkpt lat="50.41281" lon="3.50911">
        <ele>36.3</ele>
        <time>2021-09-25T19:46:34.081Z</time>
      </trkpt>
      <trkpt lat="50.41285" lon="3.50921">
        <ele>36.5</ele>
        <time>2021-09-25T19:46:34.849Z</time>
      </trkpt>
      <trkpt lat="50.41288" lon="3.5093">
        <ele>36.6</ele>
        <time>2021-09-25T19:46:36.245Z</time>
      </trkpt>
      <trkpt lat="50.41292" lon="3.50937">
        <ele>36.7</ele>
        <time>2021-09-25T19:46:36.856Z</time>
      </trkpt>
      <trkpt lat="50.41298" lon="3.50943">
        <ele>36.9</ele>
        <time>2021-09-25T19:46:37.534Z</time>
      </trkpt>
      <trkpt lat="50.41302" lon="3.50945">
        <ele>37</ele>
        <time>2021-09-25T19:46:41.317Z</time>
      </trkpt>
      <trkpt lat="50.41308" lon="3.50948">
        <ele>37.1</ele>
        <time>2021-09-25T19:46:46.354Z</time>
      </trkpt>
      <trkpt lat="50.41315" lon="3.50954">
        <ele>37.2</ele>
        <time>2021-09-25T19:46:48.660Z</time>
      </trkpt>
      <trkpt lat="50.41322" lon="3.5096">
        <ele>37.4</ele>
        <time>2021-09-25T19:46:50.900Z</time>
      </trkpt>
      <trkpt lat="50.41329" lon="3.50967">
        <ele>37.6</ele>
        <time>2021-09-25T19:46:51.772Z</time>
      </trkpt>
      <trkpt lat="50.41337" lon="3.50975">
        <ele>37.6</ele>
        <time>2021-09-25T19:47:00.527Z</time>
      </trkpt>
      <trkpt lat="50.41344" lon="3.50981">
        <ele>37.5</ele>
        <time>2021-09-25T19:47:04.128Z</time>
      </trkpt>
      <trkpt lat="50.4135" lon="3.50989">
        <ele>37.5</ele>
        <time>2021-09-25T19:47:04.894Z</time>
      </trkpt>
      <trkpt lat="50.41357" lon="3.50996">
        <ele>37.4</ele>
        <time>2021-09-25T19:47:08.384Z</time>
      </trkpt>
      <trkpt lat="50.41367" lon="3.51004">
        <ele>37.2</ele>
        <time>2021-09-25T19:47:12.581Z</time>
      </trkpt>
      <trkpt lat="50.41371" lon="3.51009">
        <ele>37.2</ele>
        <time>2021-09-25T19:47:13.271Z</time>
      </trkpt>
      <trkpt lat="50.41375" lon="3.51013">
        <ele>37.2</ele>
        <time>2021-09-25T19:47:13.710Z</time>
      </trkpt>
      <trkpt lat="50.41385" lon="3.51023">
        <ele>37</ele>
        <time>2021-09-25T19:47:23.869Z</time>
      </trkpt>
      <trkpt lat="50.41391" lon="3.51028">
        <ele>37</ele>
        <time>2021-09-25T19:47:24.552Z</time>
      </trkpt>
      <trkpt lat="50.41399" lon="3.51034">
        <ele>36.8</ele>
        <time>2021-09-25T19:47:29.231Z</time>
      </trkpt>
      <trkpt lat="50.41404" lon="3.51038">
        <ele>36.8</ele>
        <time>2021-09-25T19:47:34.356Z</time>
      </trkpt>
      <trkpt lat="50.41409" lon="3.51043">
        <ele>36.7</ele>
        <time>2021-09-25T19:47:34.907Z</time>
      </trkpt>
      <trkpt lat="50.41415" lon="3.51048">
        <ele>36.6</ele>
        <time>2021-09-25T19:47:37.993Z</time>
      </trkpt>
      <trkpt lat="50.41419" lon="3.51052">
        <ele>36.6</ele>
        <time>2021-09-25T19:47:41.654Z</time>
      </trkpt>
      <trkpt lat="50.41429" lon="3.51062">
        <ele>36.4</ele>
        <time>2021-09-25T19:47:43.230Z</time>
      </trkpt>
      <trkpt lat="50.41434" lon="3.51067">
        <ele>36.3</ele>
        <time>2021-09-25T19:47:43.835Z</time>
      </trkpt>
      <trkpt lat="50.4144" lon="3.51074">
        <ele>36.3</ele>
        <time>2021-09-25T19:47:50.126Z</time>
      </trkpt>
      <trkpt lat="50.41446" lon="3.51082">
        <ele>36.3</ele>
        <time>2021-09-25T19:47:56.780Z</time>
      </trkpt>
      <trkpt lat="50.4145" lon="3.51087">
        <ele>36.3</ele>
        <time>2021-09-25T19:48:00.794Z</time>
      </trkpt>
      <trkpt lat="50.41445" lon="3.51078">
        <ele>36.2</ele>
        <time>2021-09-25T19:48:01.546Z</time>
      </trkpt>
      <trkpt lat="50.41436" lon="3.51075">
        <ele>36.4</ele>
        <time>2021-09-25T19:48:05.085Z</time>
      </trkpt>
      <trkpt lat="50.41431" lon="3.5108">
        <ele>36.6</ele>
        <time>2021-09-25T19:48:05.732Z</time>
      </trkpt>
      <trkpt lat="50.41425" lon="3.51089">
        <ele>36.9</ele>
        <time>2021-09-25T19:48:12.777Z</time>
      </trkpt>
      <trkpt lat="50.41422" lon="3.51099">
        <ele>37.1</ele>
        <time>2021-09-25T19:48:13.469Z</time>
      </trkpt>
      <trkpt lat="50.4142" lon="3.51106">
        <ele>37.2</ele>
        <time>2021-09-25T19:48:17.221Z</time>
      </trkpt>
      <trkpt lat="50.41417" lon="3.51113">
        <ele>37.3</ele>
        <time>2021-09-25T19:48:19.444Z</time>
      </trkpt>
      <trkpt lat="50.41413" lon="3.51126">
        <ele>37.6</ele>
        <time>2021-09-25T19:48:27.457Z</time>
      </trkpt>
      <trkpt lat="50.41409" lon="3.51136">
        <ele>37.8</ele>
        <time>2021-09-25T19:48:28.176Z</time>
      </trkpt>
      <trkpt lat="50.41405" lon="3.51145">
        <ele>38</ele>
        <time>2021-09-25T19:48:34.351Z</time>
      </trkpt>
      <trkpt lat="50.414" lon="3.51155">
        <ele>38.3</ele>
        <time>2021-09-25T19:48:38.044Z</time>
      </trkpt>
      <trkpt lat="50.41394" lon="3.51166">
        <ele>38.5</ele>
        <time>2021-09-25T19:48:38.958Z</time>
      </trkpt>
      <trkpt lat="50.41391" lon="3.51173">
        <ele>38.7</ele>
        <time>2021-09-25T19:48:39.476Z</time>
      </trkpt>
      <trkpt lat="50.41387" lon="3.51184">
        <ele>39.1</ele>
        <time>2021-09-25T19:48:44.083Z</time>
      </trkpt>
      <trkpt lat="50.41383" lon="3.51194">
        <ele>39.3</ele>
        <time>2021-09-25T19:48:44.866Z</time>
      </trkpt>
      <trkpt lat="50.41378" lon="3.51206">
        <ele>39.7</ele>
        <time>2021-09-25T19:48:50.661Z</time>
      </trkpt>
      <trkpt lat="50.41375" lon="3.51213">
        <ele>39.8</ele>
        <time>2021-09-25T19:48:54.997Z</time>
      </trkpt>
      <trkpt lat="50.41373" lon="3.51225">
        <ele>40.1</ele>
        <time>2021-09-25T19:48:55.770Z</time>
      </trkpt>
      <trkpt lat="50.41371" lon="3.51235">
        <ele>40.3</ele>
        <time>2021-09-25T19:48:56.438Z</time>
      </trkpt>
      <trkpt lat="50.41369" lon="3.51243">
        <ele>40.5</ele>
        <time>2021-09-25T19:48:58.306Z</time>
      </trkpt>
      <trkpt lat="50.41367" lon="3.51255">
        <ele>40.7</ele>
        <time>2021-09-25T19:49:04.841Z</time>
      </trkpt>
      <trkpt lat="50.41363" lon="3.51267">
        <ele>41.1</ele>
        <time>2021-09-25T19:49:06.914Z</time>
      </trkpt>
      <trkpt lat="50.41359" lon="3.51278">
        <ele>41.5</ele>
        <time>2021-09-25T19:49:11.530Z</time>
      </trkpt>
      <trkpt lat="50.41355" lon="3.51287">
        <ele>41.7</ele>
        <time>2021-09-25T19:49:12.229Z</time>
      </trkpt>
      <trkpt lat="50.41351" lon="3.51297">
        <ele>42</ele>
        <time>2021-09-25T19:49:12.986Z</time>
      </trkpt>
      <trkpt lat="50.41346" lon="3.51306">
        <ele>42.3</ele>
        <time>2021-09-25T19:49:19.501Z</time>
      </trkpt>
      <trkpt lat="50.41344" lon="3.51315">
        <ele>42.5</ele>
        <time>2021-09-25T19:49:20.870Z</time>
      </trkpt>
      <trkpt lat="50.41341" lon="3.51327">
        <ele>42.8</ele>
        <time>2021-09-25T19:49:21.644Z</time>
      </trkpt>
      <trkpt lat="50.41337" lon="3.51337">
        <ele>43</ele>
        <time>2021-09-25T19:49:25.300Z</time>
      </trkpt>
      <trkpt lat="50.41334" lon="3.51344">
        <ele>43</ele>
        <time>2021-09-25T19:49:25.874Z</time>
      </trkpt>
      <trkpt lat="50.4133" lon="3.51355">
        <ele>42.9</ele>
        <time>2021-09-25T19:49:26.589Z</time>
      </trkpt>
      <trkpt lat="50.41326" lon="3.51365">
        <ele>42.8</ele>
        <time>2021-09-25T19:49:27.326Z</time>
      </trkpt>
      <trkpt lat="50.41323" lon="3.51374">
        <ele>42.8</ele>
        <time>2021-09-25T19:49:32.794Z</time>
      </trkpt>
      <trkpt lat="50.41319" lon="3.51382">
        <ele>42.7</ele>
        <time>2021-09-25T19:49:33.408Z</time>
      </trkpt>
      <trkpt lat="50.41315" lon="3.51391">
        <ele>42.6</ele>
        <time>2021-09-25T19:49:39.609Z</time>
      </trkpt>
      <trkpt lat="50.4131" lon="3.51402">
        <ele>42.4</ele>
        <time>2021-09-25T19:49:40.368Z</time>
      </trkpt>
      <trkpt lat="50.41307" lon="3.51412">
        <ele>42.4</ele>
        <time>2021-09-25T19:49:46.385Z</time>
      </trkpt>
      <trkpt lat="50.41304" lon="3.51421">
        <ele>42.3</ele>
        <time>2021-09-25T19:49:47.079Z</time>
      </trkpt>
      <trkpt lat="50.413" lon="3.51434">
        <ele>42.2</ele>
        <time>2021-09-25T19:49:54.948Z</time>
      </trkpt>
      <trkpt lat="50.41295" lon="3.51442">
        <ele>42.1</ele>
        <time>2021-09-25T19:49:59.824Z</time>
      </trkpt>
      <trkpt lat="50.41291" lon="3.51451">
        <ele>42</ele>
        <time>2021-09-25T19:50:00.591Z</time>
      </trkpt>
      <trkpt lat="50.41286" lon="3.51463">
        <ele>41.9</ele>
        <time>2021-09-25T19:50:04.848Z</time>
      </trkpt>
      <trkpt lat="50.41283" lon="3.51471">
        <ele>41.9</ele>
        <time>2021-09-25T19:50:09.504Z</time>
      </trkpt>
      <trkpt lat="50.41281" lon="3.51476">
        <ele>41.9</ele>
        <time>2021-09-25T19:50:13.364Z</time>
      </trkpt>
      <trkpt lat="50.41276" lon="3.5149">
        <ele>42</ele>
        <time>2021-09-25T19:50:16.409Z</time>
      </trkpt>
      <trkpt lat="50.41271" lon="3.51502">
        <ele>42.1</ele>
        <time>2021-09-25T19:50:21.116Z</time>
      </trkpt>
      <trkpt lat="50.41264" lon="3.51514">
        <ele>42.5</ele>
        <time>2021-09-25T19:50:22.140Z</time>
      </trkpt>
      <trkpt lat="50.41262" lon="3.5152">
        <ele>42.6</ele>
        <time>2021-09-25T19:50:24.506Z</time>
      </trkpt>
      <trkpt lat="50.41257" lon="3.51532">
        <ele>42.7</ele>
        <time>2021-09-25T19:50:25.338Z</time>
      </trkpt>
      <trkpt lat="50.41253" lon="3.51544">
        <ele>42.7</ele>
        <time>2021-09-25T19:50:26.205Z</time>
      </trkpt>
      <trkpt lat="50.41249" lon="3.51551">
        <ele>42.6</ele>
        <time>2021-09-25T19:50:26.782Z</time>
      </trkpt>
      <trkpt lat="50.41245" lon="3.51559">
        <ele>42.8</ele>
        <time>2021-09-25T19:50:28.537Z</time>
      </trkpt>
      <trkpt lat="50.4124" lon="3.51568">
        <ele>43</ele>
        <time>2021-09-25T19:50:34.933Z</time>
      </trkpt>
      <trkpt lat="50.41234" lon="3.51576">
        <ele>43.3</ele>
        <time>2021-09-25T19:50:35.726Z</time>
      </trkpt>
      <trkpt lat="50.41228" lon="3.51585">
        <ele>43.6</ele>
        <time>2021-09-25T19:50:36.524Z</time>
      </trkpt>
      <trkpt lat="50.41225" lon="3.51595">
        <ele>43.8</ele>
        <time>2021-09-25T19:50:42.296Z</time>
      </trkpt>
      <trkpt lat="50.41224" lon="3.51601">
        <ele>44</ele>
        <time>2021-09-25T19:50:46.140Z</time>
      </trkpt>
      <trkpt lat="50.41223" lon="3.51609">
        <ele>44.2</ele>
        <time>2021-09-25T19:50:50.441Z</time>
      </trkpt>
      <trkpt lat="50.41222" lon="3.51617">
        <ele>44.3</ele>
        <time>2021-09-25T19:50:50.996Z</time>
      </trkpt>
      <trkpt lat="50.4122" lon="3.51629">
        <ele>44.7</ele>
        <time>2021-09-25T19:50:51.789Z</time>
      </trkpt>
      <trkpt lat="50.41218" lon="3.51636">
        <ele>44.9</ele>
        <time>2021-09-25T19:50:52.280Z</time>
      </trkpt>
      <trkpt lat="50.41215" lon="3.51647">
        <ele>45.2</ele>
        <time>2021-09-25T19:50:58.849Z</time>
      </trkpt>
      <trkpt lat="50.41212" lon="3.51653">
        <ele>45.5</ele>
        <time>2021-09-25T19:51:01.733Z</time>
      </trkpt>
      <trkpt lat="50.41209" lon="3.51662">
        <ele>45.9</ele>
        <time>2021-09-25T19:51:02.367Z</time>
      </trkpt>
      <trkpt lat="50.41206" lon="3.51672">
        <ele>46.4</ele>
        <time>2021-09-25T19:51:08.714Z</time>
      </trkpt>
      <trkpt lat="50.41201" lon="3.51682">
        <ele>47</ele>
        <time>2021-09-25T19:51:15.196Z</time>
      </trkpt>
      <trkpt lat="50.41199" lon="3.51688">
        <ele>47.3</ele>
        <time>2021-09-25T19:51:19.238Z</time>
      </trkpt>
      <trkpt lat="50.41195" lon="3.51697">
        <ele>47.6</ele>
        <time>2021-09-25T19:51:24.747Z</time>
      </trkpt>
      <trkpt lat="50.41193" lon="3.51703">
        <ele>47.8</ele>
        <time>2021-09-25T19:51:29.112Z</time>
      </trkpt>
      <trkpt lat="50.4119" lon="3.51712">
        <ele>48</ele>
        <time>2021-09-25T19:51:29.729Z</time>
      </trkpt>
      <trkpt lat="50.41187" lon="3.5172">
        <ele>48.1</ele>
        <time>2021-09-25T19:51:31.003Z</time>
      </trkpt>
      <trkpt lat="50.41183" lon="3.5173">
        <ele>48.1</ele>
        <time>2021-09-25T19:51:31.737Z</time>
      </trkpt>
      <trkpt lat="50.4118" lon="3.51736">
        <ele>48</ele>
        <time>2021-09-25T19:51:33.821Z</time>
      </trkpt>
      <trkpt lat="50.41177" lon="3.51745">
        <ele>47.8</ele>
        <time>2021-09-25T19:51:38.586Z</time>
      </trkpt>
      <trkpt lat="50.41173" lon="3.51753">
        <ele>47.5</ele>
        <time>2021-09-25T19:51:43.845Z</time>
      </trkpt>
      <trkpt lat="50.4117" lon="3.5176">
        <ele>47.2</ele>
        <time>2021-09-25T19:51:48.360Z</time>
      </trkpt>
      <trkpt lat="50.41168" lon="3.51771">
        <ele>46.9</ele>
        <time>2021-09-25T19:51:53.802Z</time>
      </trkpt>
      <trkpt lat="50.41164" lon="3.51781">
        <ele>46.9</ele>
        <time>2021-09-25T19:51:54.562Z</time>
      </trkpt>
      <trkpt lat="50.4116" lon="3.51795">
        <ele>47.2</ele>
        <time>2021-09-25T19:51:57.235Z</time>
      </trkpt>
      <trkpt lat="50.41158" lon="3.51805">
        <ele>47.4</ele>
        <time>2021-09-25T19:51:57.922Z</time>
      </trkpt>
      <trkpt lat="50.41153" lon="3.51817">
        <ele>47.9</ele>
        <time>2021-09-25T19:52:05.416Z</time>
      </trkpt>
      <trkpt lat="50.41149" lon="3.51826">
        <ele>48.4</ele>
        <time>2021-09-25T19:52:06.141Z</time>
      </trkpt>
      <trkpt lat="50.41146" lon="3.51832">
        <ele>48.7</ele>
        <time>2021-09-25T19:52:06.616Z</time>
      </trkpt>
      <trkpt lat="50.41143" lon="3.51841">
        <ele>49</ele>
        <time>2021-09-25T19:52:11.763Z</time>
      </trkpt>
      <trkpt lat="50.4114" lon="3.51849">
        <ele>49.2</ele>
        <time>2021-09-25T19:52:12.351Z</time>
      </trkpt>
      <trkpt lat="50.41137" lon="3.51858">
        <ele>49.4</ele>
        <time>2021-09-25T19:52:18.184Z</time>
      </trkpt>
      <trkpt lat="50.41133" lon="3.51867">
        <ele>49.5</ele>
        <time>2021-09-25T19:52:18.910Z</time>
      </trkpt>
      <trkpt lat="50.41129" lon="3.51876">
        <ele>49.6</ele>
        <time>2021-09-25T19:52:19.513Z</time>
      </trkpt>
      <trkpt lat="50.41127" lon="3.51882">
        <ele>49.6</ele>
        <time>2021-09-25T19:52:23.423Z</time>
      </trkpt>
      <trkpt lat="50.41124" lon="3.5189">
        <ele>49.5</ele>
        <time>2021-09-25T19:52:25.989Z</time>
      </trkpt>
      <trkpt lat="50.4112" lon="3.51899">
        <ele>49.4</ele>
        <time>2021-09-25T19:52:26.709Z</time>
      </trkpt>
      <trkpt lat="50.41116" lon="3.51911">
        <ele>49.1</ele>
        <time>2021-09-25T19:52:27.580Z</time>
      </trkpt>
      <trkpt lat="50.41113" lon="3.51921">
        <ele>48.7</ele>
        <time>2021-09-25T19:52:33.108Z</time>
      </trkpt>
      <trkpt lat="50.4111" lon="3.51929">
        <ele>48.4</ele>
        <time>2021-09-25T19:52:35.593Z</time>
      </trkpt>
      <trkpt lat="50.41106" lon="3.51938">
        <ele>48</ele>
        <time>2021-09-25T19:52:36.299Z</time>
      </trkpt>
      <trkpt lat="50.41103" lon="3.51946">
        <ele>47.6</ele>
        <time>2021-09-25T19:52:36.891Z</time>
      </trkpt>
      <trkpt lat="50.41097" lon="3.51958">
        <ele>46.8</ele>
        <time>2021-09-25T19:52:41.561Z</time>
      </trkpt>
      <trkpt lat="50.41094" lon="3.51964">
        <ele>46.3</ele>
        <time>2021-09-25T19:52:42.624Z</time>
      </trkpt>
      <trkpt lat="50.4109" lon="3.51973">
        <ele>45.5</ele>
        <time>2021-09-25T19:52:43.374Z</time>
      </trkpt>
      <trkpt lat="50.41085" lon="3.51983">
        <ele>44.5</ele>
        <time>2021-09-25T19:52:50.208Z</time>
      </trkpt>
      <trkpt lat="50.4108" lon="3.51992">
        <ele>44</ele>
        <time>2021-09-25T19:52:50.929Z</time>
      </trkpt>
      <trkpt lat="50.41078" lon="3.51999">
        <ele>43.6</ele>
        <time>2021-09-25T19:52:51.478Z</time>
      </trkpt>
      <trkpt lat="50.41075" lon="3.52009">
        <ele>43.5</ele>
        <time>2021-09-25T19:52:57.337Z</time>
      </trkpt>
      <trkpt lat="50.41068" lon="3.5202">
        <ele>43.7</ele>
        <time>2021-09-25T19:53:01.704Z</time>
      </trkpt>
      <trkpt lat="50.41064" lon="3.52028">
        <ele>43.7</ele>
        <time>2021-09-25T19:53:07.456Z</time>
      </trkpt>
      <trkpt lat="50.41061" lon="3.52034">
        <ele>43.7</ele>
        <time>2021-09-25T19:53:07.904Z</time>
      </trkpt>
      <trkpt lat="50.41058" lon="3.52043">
        <ele>43.6</ele>
        <time>2021-09-25T19:53:13.874Z</time>
      </trkpt>
      <trkpt lat="50.41054" lon="3.52049">
        <ele>43.6</ele>
        <time>2021-09-25T19:53:14.372Z</time>
      </trkpt>
      <trkpt lat="50.4105" lon="3.52058">
        <ele>43.6</ele>
        <time>2021-09-25T19:53:20.653Z</time>
      </trkpt>
      <trkpt lat="50.41047" lon="3.52065">
        <ele>43.5</ele>
        <time>2021-09-25T19:53:21.188Z</time>
      </trkpt>
      <trkpt lat="50.41042" lon="3.52075">
        <ele>43.4</ele>
        <time>2021-09-25T19:53:21.945Z</time>
      </trkpt>
      <trkpt lat="50.41039" lon="3.52082">
        <ele>43.3</ele>
        <time>2021-09-25T19:53:22.452Z</time>
      </trkpt>
      <trkpt lat="50.41036" lon="3.52089">
        <ele>43.1</ele>
        <time>2021-09-25T19:53:27.659Z</time>
      </trkpt>
      <trkpt lat="50.41032" lon="3.521">
        <ele>42.8</ele>
        <time>2021-09-25T19:53:34.006Z</time>
      </trkpt>
      <trkpt lat="50.41029" lon="3.52108">
        <ele>42.6</ele>
        <time>2021-09-25T19:53:36.954Z</time>
      </trkpt>
      <trkpt lat="50.41024" lon="3.52122">
        <ele>42.2</ele>
        <time>2021-09-25T19:53:38.012Z</time>
      </trkpt>
      <trkpt lat="50.41022" lon="3.52129">
        <ele>42</ele>
        <time>2021-09-25T19:53:42.164Z</time>
      </trkpt>
      <trkpt lat="50.41019" lon="3.52137">
        <ele>41.7</ele>
        <time>2021-09-25T19:53:42.736Z</time>
      </trkpt>
      <trkpt lat="50.41017" lon="3.52146">
        <ele>41.3</ele>
        <time>2021-09-25T19:53:48.140Z</time>
      </trkpt>
      <trkpt lat="50.41014" lon="3.52155">
        <ele>41</ele>
        <time>2021-09-25T19:53:48.751Z</time>
      </trkpt>
      <trkpt lat="50.4101" lon="3.52167">
        <ele>40.5</ele>
        <time>2021-09-25T19:53:50.694Z</time>
      </trkpt>
      <trkpt lat="50.41007" lon="3.52173">
        <ele>40.5</ele>
        <time>2021-09-25T19:53:54.751Z</time>
      </trkpt>
      <trkpt lat="50.41003" lon="3.52185">
        <ele>40.2</ele>
        <time>2021-09-25T19:54:02.115Z</time>
      </trkpt>
      <trkpt lat="50.41" lon="3.52192">
        <ele>40.1</ele>
        <time>2021-09-25T19:54:02.633Z</time>
      </trkpt>
      <trkpt lat="50.40996" lon="3.52205">
        <ele>39.9</ele>
        <time>2021-09-25T19:54:03.591Z</time>
      </trkpt>
      <trkpt lat="50.40993" lon="3.52212">
        <ele>39.8</ele>
        <time>2021-09-25T19:54:07.823Z</time>
      </trkpt>
      <trkpt lat="50.40989" lon="3.52225">
        <ele>39.7</ele>
        <time>2021-09-25T19:54:13.008Z</time>
      </trkpt>
      <trkpt lat="50.40987" lon="3.52231">
        <ele>39.7</ele>
        <time>2021-09-25T19:54:17.325Z</time>
      </trkpt>
      <trkpt lat="50.40982" lon="3.52245">
        <ele>39.7</ele>
        <time>2021-09-25T19:54:18.371Z</time>
      </trkpt>
      <trkpt lat="50.40979" lon="3.52252">
        <ele>39.7</ele>
        <time>2021-09-25T19:54:20.127Z</time>
      </trkpt>
      <trkpt lat="50.40974" lon="3.52265">
        <ele>39.8</ele>
        <time>2021-09-25T19:54:21.241Z</time>
      </trkpt>
      <trkpt lat="50.40971" lon="3.52271">
        <ele>39.9</ele>
        <time>2021-09-25T19:54:21.721Z</time>
      </trkpt>
      <trkpt lat="50.40966" lon="3.52283">
        <ele>40</ele>
        <time>2021-09-25T19:54:22.631Z</time>
      </trkpt>
      <trkpt lat="50.40959" lon="3.52295">
        <ele>40.4</ele>
        <time>2021-09-25T19:54:23.639Z</time>
      </trkpt>
      <trkpt lat="50.40955" lon="3.52301">
        <ele>40.6</ele>
        <time>2021-09-25T19:54:28.028Z</time>
      </trkpt>
      <trkpt lat="50.40952" lon="3.52314">
        <ele>40.6</ele>
        <time>2021-09-25T19:54:28.934Z</time>
      </trkpt>
      <trkpt lat="50.40947" lon="3.52328">
        <ele>40.8</ele>
        <time>2021-09-25T19:54:30.038Z</time>
      </trkpt>
      <trkpt lat="50.40944" lon="3.52334">
        <ele>41</ele>
        <time>2021-09-25T19:54:30.526Z</time>
      </trkpt>
      <trkpt lat="50.4094" lon="3.52348">
        <ele>41.2</ele>
        <time>2021-09-25T19:54:39.078Z</time>
      </trkpt>
      <trkpt lat="50.40937" lon="3.52356">
        <ele>41.4</ele>
        <time>2021-09-25T19:54:40.505Z</time>
      </trkpt>
      <trkpt lat="50.40931" lon="3.5237">
        <ele>41.7</ele>
        <time>2021-09-25T19:54:41.618Z</time>
      </trkpt>
      <trkpt lat="50.40924" lon="3.52385">
        <ele>42.1</ele>
        <time>2021-09-25T19:54:42.754Z</time>
      </trkpt>
      <trkpt lat="50.40921" lon="3.52392">
        <ele>42.2</ele>
        <time>2021-09-25T19:54:44.614Z</time>
      </trkpt>
      <trkpt lat="50.40919" lon="3.524">
        <ele>42.2</ele>
        <time>2021-09-25T19:54:49.262Z</time>
      </trkpt>
      <trkpt lat="50.40915" lon="3.52407">
        <ele>42.2</ele>
        <time>2021-09-25T19:54:49.849Z</time>
      </trkpt>
      <trkpt lat="50.40908" lon="3.52423">
        <ele>42</ele>
        <time>2021-09-25T19:54:52.551Z</time>
      </trkpt>
      <trkpt lat="50.40906" lon="3.52431">
        <ele>41.8</ele>
        <time>2021-09-25T19:54:55.015Z</time>
      </trkpt>
      <trkpt lat="50.40902" lon="3.52446">
        <ele>41.5</ele>
        <time>2021-09-25T19:55:01.349Z</time>
      </trkpt>
      <trkpt lat="50.40899" lon="3.52458">
        <ele>41.3</ele>
        <time>2021-09-25T19:55:03.095Z</time>
      </trkpt>
      <trkpt lat="50.40894" lon="3.52472">
        <ele>41.1</ele>
        <time>2021-09-25T19:55:10.885Z</time>
      </trkpt>
      <trkpt lat="50.40892" lon="3.52479">
        <ele>41</ele>
        <time>2021-09-25T19:55:11.371Z</time>
      </trkpt>
      <trkpt lat="50.40886" lon="3.52493">
        <ele>40.9</ele>
        <time>2021-09-25T19:55:15.967Z</time>
      </trkpt>
      <trkpt lat="50.40883" lon="3.525">
        <ele>40.8</ele>
        <time>2021-09-25T19:55:16.474Z</time>
      </trkpt>
      <trkpt lat="50.40877" lon="3.52516">
        <ele>40.6</ele>
        <time>2021-09-25T19:55:23.384Z</time>
      </trkpt>
      <trkpt lat="50.40874" lon="3.52524">
        <ele>40.4</ele>
        <time>2021-09-25T19:55:27.603Z</time>
      </trkpt>
      <trkpt lat="50.40869" lon="3.52536">
        <ele>40.2</ele>
        <time>2021-09-25T19:55:31.009Z</time>
      </trkpt>
      <trkpt lat="50.40862" lon="3.52548">
        <ele>40</ele>
        <time>2021-09-25T19:55:32.022Z</time>
      </trkpt>
      <trkpt lat="50.40856" lon="3.52561">
        <ele>39.7</ele>
        <time>2021-09-25T19:55:33.063Z</time>
      </trkpt>
      <trkpt lat="50.40852" lon="3.52577">
        <ele>39.2</ele>
        <time>2021-09-25T19:55:42.401Z</time>
      </trkpt>
      <trkpt lat="50.40847" lon="3.52593">
        <ele>38.6</ele>
        <time>2021-09-25T19:55:48.264Z</time>
      </trkpt>
      <trkpt lat="50.40843" lon="3.52609">
        <ele>37.8</ele>
        <time>2021-09-25T19:55:57.667Z</time>
      </trkpt>
      <trkpt lat="50.40841" lon="3.52616">
        <ele>37.5</ele>
        <time>2021-09-25T19:55:58.150Z</time>
      </trkpt>
      <trkpt lat="50.40836" lon="3.52629">
        <ele>36.8</ele>
        <time>2021-09-25T19:55:59.127Z</time>
      </trkpt>
      <trkpt lat="50.40829" lon="3.52643">
        <ele>36.1</ele>
        <time>2021-09-25T19:56:00.239Z</time>
      </trkpt>
      <trkpt lat="50.40822" lon="3.52659">
        <ele>35.3</ele>
        <time>2021-09-25T19:56:07.732Z</time>
      </trkpt>
      <trkpt lat="50.40816" lon="3.52676">
        <ele>34.9</ele>
        <time>2021-09-25T19:56:08.932Z</time>
      </trkpt>
      <trkpt lat="50.40794" lon="3.52711">
        <ele>34.7</ele>
        <time>2021-09-25T19:56:13.188Z</time>
      </trkpt>
      <trkpt lat="50.40785" lon="3.52733">
        <ele>34.7</ele>
        <time>2021-09-25T19:56:17.918Z</time>
      </trkpt>
      <trkpt lat="50.4078" lon="3.52733">
        <ele>34.7</ele>
        <time>2021-09-25T19:56:18.528Z</time>
      </trkpt>
      <trkpt lat="50.40769" lon="3.52771">
        <ele>34.5</ele>
        <time>2021-09-25T19:56:29.836Z</time>
      </trkpt>
      <trkpt lat="50.40761" lon="3.52792">
        <ele>34.4</ele>
        <time>2021-09-25T19:56:42.730Z</time>
      </trkpt>
      <trkpt lat="50.40754" lon="3.52812">
        <ele>34.2</ele>
        <time>2021-09-25T19:56:52.059Z</time>
      </trkpt>
      <trkpt lat="50.40752" lon="3.52831">
        <ele>34</ele>
        <time>2021-09-25T19:56:53.437Z</time>
      </trkpt>
      <trkpt lat="50.40745" lon="3.52848">
        <ele>34</ele>
        <time>2021-09-25T19:56:59.839Z</time>
      </trkpt>
      <trkpt lat="50.40739" lon="3.52868">
        <ele>34</ele>
        <time>2021-09-25T19:57:12.294Z</time>
      </trkpt>
      <trkpt lat="50.40731" lon="3.52885">
        <ele>34</ele>
        <time>2021-09-25T19:57:13.597Z</time>
      </trkpt>
      <trkpt lat="50.40724" lon="3.52901">
        <ele>34.1</ele>
        <time>2021-09-25T19:57:15.061Z</time>
      </trkpt>
      <trkpt lat="50.40719" lon="3.52918">
        <ele>34.3</ele>
        <time>2021-09-25T19:57:16.248Z</time>
      </trkpt>
      <trkpt lat="50.40713" lon="3.52938">
        <ele>34.6</ele>
        <time>2021-09-25T19:57:27.908Z</time>
      </trkpt>
      <trkpt lat="50.40708" lon="3.52957">
        <ele>35</ele>
        <time>2021-09-25T19:57:31.628Z</time>
      </trkpt>
      <trkpt lat="50.40705" lon="3.52972">
        <ele>35.3</ele>
        <time>2021-09-25T19:57:32.969Z</time>
      </trkpt>
      <trkpt lat="50.407" lon="3.5299">
        <ele>35.7</ele>
        <time>2021-09-25T19:57:43.997Z</time>
      </trkpt>
      <trkpt lat="50.40694" lon="3.5301">
        <ele>36.3</ele>
        <time>2021-09-25T19:57:45.442Z</time>
      </trkpt>
      <trkpt lat="50.40688" lon="3.53032">
        <ele>37</ele>
        <time>2021-09-25T19:57:46.924Z</time>
      </trkpt>
      <trkpt lat="50.40661" lon="3.53075">
        <ele>37.3</ele>
        <time>2021-09-25T19:57:52.393Z</time>
      </trkpt>
      <trkpt lat="50.40635" lon="3.53133">
        <ele>36.9</ele>
        <time>2021-09-25T19:57:56.832Z</time>
      </trkpt>
      <trkpt lat="50.40618" lon="3.53174">
        <ele>36.3</ele>
        <time>2021-09-25T19:58:23.463Z</time>
      </trkpt>
      <trkpt lat="50.40614" lon="3.53181">
        <ele>35.8</ele>
        <time>2021-09-25T19:58:28.915Z</time>
      </trkpt>
      <trkpt lat="50.40601" lon="3.5321">
        <ele>34.3</ele>
        <time>2021-09-25T19:58:33.624Z</time>
      </trkpt>
      <trkpt lat="50.40592" lon="3.53235">
        <ele>33.1</ele>
        <time>2021-09-25T19:58:37.592Z</time>
      </trkpt>
      <trkpt lat="50.40589" lon="3.53252">
        <ele>32.6</ele>
        <time>2021-09-25T19:58:40.064Z</time>
      </trkpt>
      <trkpt lat="50.40587" lon="3.53261">
        <ele>32.3</ele>
        <time>2021-09-25T19:58:41.444Z</time>
      </trkpt>
      <trkpt lat="50.40581" lon="3.53274">
        <ele>31.6</ele>
        <time>2021-09-25T19:58:43.781Z</time>
      </trkpt>
      <trkpt lat="50.40574" lon="3.53289">
        <ele>31.3</ele>
        <time>2021-09-25T19:58:45.648Z</time>
      </trkpt>
      <trkpt lat="50.40571" lon="3.53297">
        <ele>31.1</ele>
        <time>2021-09-25T19:58:47.256Z</time>
      </trkpt>
      <trkpt lat="50.40564" lon="3.53312">
        <ele>30.6</ele>
        <time>2021-09-25T19:58:49.856Z</time>
      </trkpt>
      <trkpt lat="50.40561" lon="3.5332">
        <ele>30.4</ele>
        <time>2021-09-25T19:58:51.206Z</time>
      </trkpt>
      <trkpt lat="50.40554" lon="3.53335">
        <ele>29.9</ele>
        <time>2021-09-25T19:58:53.109Z</time>
      </trkpt>
      <trkpt lat="50.40551" lon="3.53343">
        <ele>29.7</ele>
        <time>2021-09-25T19:58:54.503Z</time>
      </trkpt>
      <trkpt lat="50.40547" lon="3.53352">
        <ele>29.5</ele>
        <time>2021-09-25T19:58:55.932Z</time>
      </trkpt>
      <trkpt lat="50.40544" lon="3.53361">
        <ele>29.3</ele>
        <time>2021-09-25T19:58:56.609Z</time>
      </trkpt>
      <trkpt lat="50.40536" lon="3.53377">
        <ele>28.8</ele>
        <time>2021-09-25T19:58:59.377Z</time>
      </trkpt>
      <trkpt lat="50.40528" lon="3.53392">
        <ele>28.3</ele>
        <time>2021-09-25T19:59:02.206Z</time>
      </trkpt>
      <trkpt lat="50.40521" lon="3.53408">
        <ele>27.9</ele>
        <time>2021-09-25T19:59:04.886Z</time>
      </trkpt>
      <trkpt lat="50.40518" lon="3.53416">
        <ele>27.7</ele>
        <time>2021-09-25T19:59:06.326Z</time>
      </trkpt>
      <trkpt lat="50.40511" lon="3.53433">
        <ele>27.2</ele>
        <time>2021-09-25T19:59:09.088Z</time>
      </trkpt>
      <trkpt lat="50.40505" lon="3.53449">
        <ele>26.8</ele>
        <time>2021-09-25T19:59:11.768Z</time>
      </trkpt>
      <trkpt lat="50.40502" lon="3.53458">
        <ele>26.6</ele>
        <time>2021-09-25T19:59:13.137Z</time>
      </trkpt>
      <trkpt lat="50.40498" lon="3.53465">
        <ele>26.4</ele>
        <time>2021-09-25T19:59:14.462Z</time>
      </trkpt>
      <trkpt lat="50.40494" lon="3.53472">
        <ele>26.4</ele>
        <time>2021-09-25T19:59:15.322Z</time>
      </trkpt>
      <trkpt lat="50.40487" lon="3.53487">
        <ele>26.3</ele>
        <time>2021-09-25T19:59:17.931Z</time>
      </trkpt>
      <trkpt lat="50.40485" lon="3.53496">
        <ele>26.2</ele>
        <time>2021-09-25T19:59:19.200Z</time>
      </trkpt>
      <trkpt lat="50.4048" lon="3.53511">
        <ele>26.4</ele>
        <time>2021-09-25T19:59:21.671Z</time>
      </trkpt>
      <trkpt lat="50.40476" lon="3.53526">
        <ele>26.6</ele>
        <time>2021-09-25T19:59:24.260Z</time>
      </trkpt>
      <trkpt lat="50.40476" lon="3.53535">
        <ele>26.7</ele>
        <time>2021-09-25T19:59:25.497Z</time>
      </trkpt>
      <trkpt lat="50.40479" lon="3.53543">
        <ele>26.8</ele>
        <time>2021-09-25T19:59:26.417Z</time>
      </trkpt>
      <trkpt lat="50.40487" lon="3.53557">
        <ele>26.8</ele>
        <time>2021-09-25T19:59:29.109Z</time>
      </trkpt>
      <trkpt lat="50.40492" lon="3.53568">
        <ele>26.9</ele>
        <time>2021-09-25T19:59:30.509Z</time>
      </trkpt>
      <trkpt lat="50.40497" lon="3.5358">
        <ele>27</ele>
        <time>2021-09-25T19:59:32.735Z</time>
      </trkpt>
      <trkpt lat="50.40501" lon="3.53589">
        <ele>27.1</ele>
        <time>2021-09-25T19:59:33.820Z</time>
      </trkpt>
      <trkpt lat="50.40504" lon="3.53595">
        <ele>27.2</ele>
        <time>2021-09-25T19:59:34.845Z</time>
      </trkpt>
      <trkpt lat="50.40507" lon="3.53604">
        <ele>27.3</ele>
        <time>2021-09-25T19:59:36.372Z</time>
      </trkpt>
      <trkpt lat="50.4051" lon="3.53611">
        <ele>27.4</ele>
        <time>2021-09-25T19:59:36.901Z</time>
      </trkpt>
      <trkpt lat="50.40513" lon="3.53617">
        <ele>27.4</ele>
        <time>2021-09-25T19:59:37.922Z</time>
      </trkpt>
      <trkpt lat="50.40516" lon="3.53623">
        <ele>27.5</ele>
        <time>2021-09-25T19:59:39.027Z</time>
      </trkpt>
      <trkpt lat="50.40522" lon="3.53634">
        <ele>27.6</ele>
        <time>2021-09-25T19:59:41.128Z</time>
      </trkpt>
      <trkpt lat="50.40525" lon="3.53641">
        <ele>27.6</ele>
        <time>2021-09-25T19:59:42.225Z</time>
      </trkpt>
      <trkpt lat="50.40532" lon="3.53654">
        <ele>27.6</ele>
        <time>2021-09-25T19:59:44.588Z</time>
      </trkpt>
      <trkpt lat="50.40534" lon="3.5366">
        <ele>27.6</ele>
        <time>2021-09-25T19:59:45.238Z</time>
      </trkpt>
      <trkpt lat="50.40543" lon="3.53678">
        <ele>27.5</ele>
        <time>2021-09-25T19:59:48.447Z</time>
      </trkpt>
      <trkpt lat="50.40548" lon="3.53691">
        <ele>27.5</ele>
        <time>2021-09-25T19:59:50.554Z</time>
      </trkpt>
      <trkpt lat="50.40554" lon="3.53705">
        <ele>27.5</ele>
        <time>2021-09-25T19:59:53.007Z</time>
      </trkpt>
      <trkpt lat="50.40561" lon="3.53719">
        <ele>27.4</ele>
        <time>2021-09-25T19:59:54.800Z</time>
      </trkpt>
      <trkpt lat="50.40565" lon="3.53726">
        <ele>27.4</ele>
        <time>2021-09-25T19:59:56.182Z</time>
      </trkpt>
      <trkpt lat="50.40573" lon="3.53742">
        <ele>27.2</ele>
        <time>2021-09-25T19:59:59.053Z</time>
      </trkpt>
      <trkpt lat="50.40579" lon="3.53754">
        <ele>27.2</ele>
        <time>2021-09-25T20:00:00.360Z</time>
      </trkpt>
      <trkpt lat="50.40582" lon="3.53762">
        <ele>27.2</ele>
        <time>2021-09-25T20:00:02.015Z</time>
      </trkpt>
      <trkpt lat="50.40587" lon="3.53774">
        <ele>27.3</ele>
        <time>2021-09-25T20:00:03.908Z</time>
      </trkpt>
      <trkpt lat="50.40591" lon="3.53783">
        <ele>27.3</ele>
        <time>2021-09-25T20:00:05.022Z</time>
      </trkpt>
      <trkpt lat="50.40594" lon="3.5379">
        <ele>27.4</ele>
        <time>2021-09-25T20:00:06.118Z</time>
      </trkpt>
      <trkpt lat="50.40597" lon="3.53796">
        <ele>27.4</ele>
        <time>2021-09-25T20:00:07.214Z</time>
      </trkpt>
      <trkpt lat="50.40599" lon="3.53802">
        <ele>27.4</ele>
        <time>2021-09-25T20:00:07.835Z</time>
      </trkpt>
      <trkpt lat="50.40607" lon="3.5382">
        <ele>27.4</ele>
        <time>2021-09-25T20:00:12.457Z</time>
      </trkpt>
      <trkpt lat="50.4061" lon="3.53827">
        <ele>27.3</ele>
        <time>2021-09-25T20:00:13.637Z</time>
      </trkpt>
      <trkpt lat="50.40614" lon="3.5384">
        <ele>27.3</ele>
        <time>2021-09-25T20:00:15.875Z</time>
      </trkpt>
      <trkpt lat="50.40619" lon="3.53853">
        <ele>27.2</ele>
        <time>2021-09-25T20:00:17.982Z</time>
      </trkpt>
      <trkpt lat="50.40625" lon="3.5387">
        <ele>27.2</ele>
        <time>2021-09-25T20:00:20.113Z</time>
      </trkpt>
      <trkpt lat="50.40627" lon="3.53877">
        <ele>27.2</ele>
        <time>2021-09-25T20:00:21.126Z</time>
      </trkpt>
      <trkpt lat="50.40629" lon="3.53883">
        <ele>27.2</ele>
        <time>2021-09-25T20:00:22.120Z</time>
      </trkpt>
      <trkpt lat="50.40633" lon="3.53895">
        <ele>27.2</ele>
        <time>2021-09-25T20:00:23.978Z</time>
      </trkpt>
      <trkpt lat="50.40637" lon="3.53907">
        <ele>27.3</ele>
        <time>2021-09-25T20:00:31.343Z</time>
      </trkpt>
      <trkpt lat="50.4064" lon="3.53915">
        <ele>27.3</ele>
        <time>2021-09-25T20:00:32.640Z</time>
      </trkpt>
      <trkpt lat="50.40642" lon="3.53924">
        <ele>27.4</ele>
        <time>2021-09-25T20:00:33.557Z</time>
      </trkpt>
      <trkpt lat="50.40643" lon="3.53931">
        <ele>27.4</ele>
        <time>2021-09-25T20:00:34.566Z</time>
      </trkpt>
      <trkpt lat="50.40646" lon="3.5394">
        <ele>27.5</ele>
        <time>2021-09-25T20:00:35.967Z</time>
      </trkpt>
      <trkpt lat="50.40649" lon="3.53948">
        <ele>27.5</ele>
        <time>2021-09-25T20:00:36.819Z</time>
      </trkpt>
      <trkpt lat="50.40654" lon="3.53963">
        <ele>27.6</ele>
        <time>2021-09-25T20:00:39.125Z</time>
      </trkpt>
      <trkpt lat="50.40657" lon="3.53978">
        <ele>27.8</ele>
        <time>2021-09-25T20:00:41.399Z</time>
      </trkpt>
      <trkpt lat="50.40661" lon="3.53985">
        <ele>27.8</ele>
        <time>2021-09-25T20:00:42.276Z</time>
      </trkpt>
      <trkpt lat="50.40668" lon="3.53978">
        <ele>27.7</ele>
        <time>2021-09-25T20:00:44.204Z</time>
      </trkpt>
      <trkpt lat="50.40673" lon="3.53966">
        <ele>27.6</ele>
        <time>2021-09-25T20:00:45.575Z</time>
      </trkpt>
      <trkpt lat="50.40681" lon="3.53954">
        <ele>27.5</ele>
        <time>2021-09-25T20:00:48.030Z</time>
      </trkpt>
      <trkpt lat="50.40685" lon="3.53948">
        <ele>27.4</ele>
        <time>2021-09-25T20:00:49.236Z</time>
      </trkpt>
      <trkpt lat="50.40692" lon="3.53936">
        <ele>27.4</ele>
        <time>2021-09-25T20:00:51.614Z</time>
      </trkpt>
      <trkpt lat="50.40702" lon="3.53924">
        <ele>27.4</ele>
        <time>2021-09-25T20:00:54.341Z</time>
      </trkpt>
      <trkpt lat="50.40712" lon="3.53912">
        <ele>27.5</ele>
        <time>2021-09-25T20:00:57.244Z</time>
      </trkpt>
      <trkpt lat="50.40722" lon="3.53898">
        <ele>27.7</ele>
        <time>2021-09-25T20:01:00.140Z</time>
      </trkpt>
      <trkpt lat="50.40727" lon="3.53891">
        <ele>27.9</ele>
        <time>2021-09-25T20:01:01.508Z</time>
      </trkpt>
      <trkpt lat="50.40736" lon="3.53879">
        <ele>28.1</ele>
        <time>2021-09-25T20:01:04.116Z</time>
      </trkpt>
      <trkpt lat="50.4074" lon="3.53873">
        <ele>28.3</ele>
        <time>2021-09-25T20:01:05.371Z</time>
      </trkpt>
      <trkpt lat="50.40747" lon="3.5386">
        <ele>28.6</ele>
        <time>2021-09-25T20:01:07.842Z</time>
      </trkpt>
      <trkpt lat="50.40755" lon="3.53848">
        <ele>29.2</ele>
        <time>2021-09-25T20:01:10.229Z</time>
      </trkpt>
      <trkpt lat="50.40759" lon="3.53843">
        <ele>29.6</ele>
        <time>2021-09-25T20:01:11.475Z</time>
      </trkpt>
      <trkpt lat="50.40767" lon="3.53832">
        <ele>30.5</ele>
        <time>2021-09-25T20:01:13.718Z</time>
      </trkpt>
      <trkpt lat="50.40774" lon="3.53823">
        <ele>31.6</ele>
        <time>2021-09-25T20:01:15.713Z</time>
      </trkpt>
      <trkpt lat="50.40779" lon="3.53816">
        <ele>32.3</ele>
        <time>2021-09-25T20:01:16.393Z</time>
      </trkpt>
      <trkpt lat="50.40785" lon="3.53808">
        <ele>33.2</ele>
        <time>2021-09-25T20:01:17.657Z</time>
      </trkpt>
      <trkpt lat="50.40792" lon="3.538">
        <ele>34.1</ele>
        <time>2021-09-25T20:01:19.031Z</time>
      </trkpt>
      <trkpt lat="50.40796" lon="3.53794">
        <ele>34.7</ele>
        <time>2021-09-25T20:01:20.180Z</time>
      </trkpt>
      <trkpt lat="50.408" lon="3.53789">
        <ele>35.2</ele>
        <time>2021-09-25T20:01:20.680Z</time>
      </trkpt>
      <trkpt lat="50.40805" lon="3.53791">
        <ele>35.5</ele>
        <time>2021-09-25T20:01:21.909Z</time>
      </trkpt>
      <trkpt lat="50.40811" lon="3.53786">
        <ele>36.1</ele>
        <time>2021-09-25T20:01:22.858Z</time>
      </trkpt>
      <trkpt lat="50.40813" lon="3.53779">
        <ele>36.6</ele>
        <time>2021-09-25T20:01:23.953Z</time>
      </trkpt>
      <trkpt lat="50.40818" lon="3.53773">
        <ele>37.2</ele>
        <time>2021-09-25T20:01:25.350Z</time>
      </trkpt>
      <trkpt lat="50.40823" lon="3.53769">
        <ele>37.6</ele>
        <time>2021-09-25T20:01:26.528Z</time>
      </trkpt>
      <trkpt lat="50.40829" lon="3.53764">
        <ele>38.2</ele>
        <time>2021-09-25T20:01:28.260Z</time>
      </trkpt>
      <trkpt lat="50.40833" lon="3.5376">
        <ele>38.6</ele>
        <time>2021-09-25T20:01:28.983Z</time>
      </trkpt>
      <trkpt lat="50.40839" lon="3.53756">
        <ele>39</ele>
        <time>2021-09-25T20:01:30.247Z</time>
      </trkpt>
      <trkpt lat="50.40846" lon="3.53751">
        <ele>39.4</ele>
        <time>2021-09-25T20:01:32.230Z</time>
      </trkpt>
      <trkpt lat="50.40853" lon="3.53745">
        <ele>39.9</ele>
        <time>2021-09-25T20:01:34.038Z</time>
      </trkpt>
      <trkpt lat="50.40858" lon="3.53742">
        <ele>40.1</ele>
        <time>2021-09-25T20:01:35.308Z</time>
      </trkpt>
      <trkpt lat="50.40863" lon="3.53738">
        <ele>40.4</ele>
        <time>2021-09-25T20:01:36.415Z</time>
      </trkpt>
      <trkpt lat="50.40867" lon="3.53734">
        <ele>40.6</ele>
        <time>2021-09-25T20:01:37.521Z</time>
      </trkpt>
      <trkpt lat="50.40874" lon="3.5373">
        <ele>40.9</ele>
        <time>2021-09-25T20:01:39.259Z</time>
      </trkpt>
      <trkpt lat="50.4088" lon="3.53726">
        <ele>41.2</ele>
        <time>2021-09-25T20:01:40.184Z</time>
      </trkpt>
      <trkpt lat="50.40887" lon="3.53721">
        <ele>41.5</ele>
        <time>2021-09-25T20:01:41.348Z</time>
      </trkpt>
      <trkpt lat="50.40893" lon="3.53711">
        <ele>41.9</ele>
        <time>2021-09-25T20:01:43.545Z</time>
      </trkpt>
      <trkpt lat="50.40898" lon="3.53705">
        <ele>42.1</ele>
        <time>2021-09-25T20:01:44.101Z</time>
      </trkpt>
      <trkpt lat="50.40902" lon="3.53703">
        <ele>42.2</ele>
        <time>2021-09-25T20:01:44.602Z</time>
      </trkpt>
      <trkpt lat="50.40909" lon="3.53699">
        <ele>42.4</ele>
        <time>2021-09-25T20:01:50.849Z</time>
      </trkpt>
      <trkpt lat="50.40916" lon="3.53693">
        <ele>42.7</ele>
        <time>2021-09-25T20:01:51.591Z</time>
      </trkpt>
      <trkpt lat="50.40921" lon="3.53688">
        <ele>42.4</ele>
        <time>2021-09-25T20:01:52.201Z</time>
      </trkpt>
      <trkpt lat="50.40926" lon="3.53689">
        <ele>42.1</ele>
        <time>2021-09-25T20:01:52.683Z</time>
      </trkpt>
      <trkpt lat="50.40931" lon="3.53684">
        <ele>41.8</ele>
        <time>2021-09-25T20:01:55.126Z</time>
      </trkpt>
      <trkpt lat="50.40939" lon="3.53678">
        <ele>41.3</ele>
        <time>2021-09-25T20:01:56.076Z</time>
      </trkpt>
      <trkpt lat="50.40945" lon="3.53674">
        <ele>40.9</ele>
        <time>2021-09-25T20:02:01.210Z</time>
      </trkpt>
      <trkpt lat="50.40952" lon="3.53668">
        <ele>40.4</ele>
        <time>2021-09-25T20:02:03.552Z</time>
      </trkpt>
      <trkpt lat="50.40959" lon="3.5366">
        <ele>40</ele>
        <time>2021-09-25T20:02:04.732Z</time>
      </trkpt>
      <trkpt lat="50.40964" lon="3.53656">
        <ele>39.7</ele>
        <time>2021-09-25T20:02:05.277Z</time>
      </trkpt>
      <trkpt lat="50.4097" lon="3.5365">
        <ele>39.3</ele>
        <time>2021-09-25T20:02:05.991Z</time>
      </trkpt>
      <trkpt lat="50.40978" lon="3.53652">
        <ele>38.7</ele>
        <time>2021-09-25T20:02:12.865Z</time>
      </trkpt>
      <trkpt lat="50.40982" lon="3.5365">
        <ele>38.5</ele>
        <time>2021-09-25T20:02:16.890Z</time>
      </trkpt>
      <trkpt lat="50.4099" lon="3.53647">
        <ele>37.9</ele>
        <time>2021-09-25T20:02:17.672Z</time>
      </trkpt>
      <trkpt lat="50.40995" lon="3.53644">
        <ele>37.6</ele>
        <time>2021-09-25T20:02:21.986Z</time>
      </trkpt>
      <trkpt lat="50.41003" lon="3.53637">
        <ele>37.1</ele>
        <time>2021-09-25T20:02:22.937Z</time>
      </trkpt>
      <trkpt lat="50.41008" lon="3.53626">
        <ele>36.8</ele>
        <time>2021-09-25T20:02:25.342Z</time>
      </trkpt>
      <trkpt lat="50.41012" lon="3.53622">
        <ele>36.5</ele>
        <time>2021-09-25T20:02:25.821Z</time>
      </trkpt>
      <trkpt lat="50.41019" lon="3.53614">
        <ele>36</ele>
        <time>2021-09-25T20:02:26.684Z</time>
      </trkpt>
      <trkpt lat="50.41024" lon="3.53609">
        <ele>35.7</ele>
        <time>2021-09-25T20:02:31.939Z</time>
      </trkpt>
      <trkpt lat="50.41032" lon="3.53598">
        <ele>35.1</ele>
        <time>2021-09-25T20:02:33.011Z</time>
      </trkpt>
      <trkpt lat="50.4104" lon="3.53583">
        <ele>34.6</ele>
        <time>2021-09-25T20:02:34.230Z</time>
      </trkpt>
      <trkpt lat="50.41044" lon="3.53576">
        <ele>34.4</ele>
        <time>2021-09-25T20:02:34.790Z</time>
      </trkpt>
      <trkpt lat="50.41048" lon="3.53569">
        <ele>34.1</ele>
        <time>2021-09-25T20:02:39.783Z</time>
      </trkpt>
      <trkpt lat="50.41051" lon="3.53562">
        <ele>33.9</ele>
        <time>2021-09-25T20:02:40.311Z</time>
      </trkpt>
      <trkpt lat="50.41056" lon="3.53548">
        <ele>33.6</ele>
        <time>2021-09-25T20:02:48.858Z</time>
      </trkpt>
      <trkpt lat="50.4106" lon="3.53531">
        <ele>33.4</ele>
        <time>2021-09-25T20:02:50.034Z</time>
      </trkpt>
      <trkpt lat="50.41063" lon="3.53523">
        <ele>33.3</ele>
        <time>2021-09-25T20:02:55.003Z</time>
      </trkpt>
      <trkpt lat="50.4107" lon="3.53507">
        <ele>32.9</ele>
        <time>2021-09-25T20:03:00.256Z</time>
      </trkpt>
      <trkpt lat="50.41074" lon="3.53494">
        <ele>32.8</ele>
        <time>2021-09-25T20:03:08.656Z</time>
      </trkpt>
      <trkpt lat="50.41076" lon="3.53487">
        <ele>32.8</ele>
        <time>2021-09-25T20:03:09.163Z</time>
      </trkpt>
      <trkpt lat="50.41079" lon="3.53481">
        <ele>32.8</ele>
        <time>2021-09-25T20:03:13.284Z</time>
      </trkpt>
      <trkpt lat="50.41082" lon="3.53474">
        <ele>32.7</ele>
        <time>2021-09-25T20:03:13.774Z</time>
      </trkpt>
      <trkpt lat="50.41085" lon="3.5346">
        <ele>32.9</ele>
        <time>2021-09-25T20:03:14.753Z</time>
      </trkpt>
      <trkpt lat="50.41088" lon="3.53446">
        <ele>33.2</ele>
        <time>2021-09-25T20:03:22.738Z</time>
      </trkpt>
      <trkpt lat="50.41092" lon="3.53435">
        <ele>33.2</ele>
        <time>2021-09-25T20:03:26.482Z</time>
      </trkpt>
      <trkpt lat="50.41097" lon="3.53426">
        <ele>33.2</ele>
        <time>2021-09-25T20:03:29.470Z</time>
      </trkpt>
      <trkpt lat="50.41103" lon="3.53414">
        <ele>33.1</ele>
        <time>2021-09-25T20:03:37.465Z</time>
      </trkpt>
      <trkpt lat="50.41106" lon="3.53408">
        <ele>33</ele>
        <time>2021-09-25T20:03:39.857Z</time>
      </trkpt>
      <trkpt lat="50.41113" lon="3.53392">
        <ele>32.7</ele>
        <time>2021-09-25T20:03:40.965Z</time>
      </trkpt>
      <trkpt lat="50.41115" lon="3.53387">
        <ele>32.6</ele>
        <time>2021-09-25T20:03:43.306Z</time>
      </trkpt>
      <trkpt lat="50.41118" lon="3.53381">
        <ele>32.4</ele>
        <time>2021-09-25T20:03:47.216Z</time>
      </trkpt>
      <trkpt lat="50.41124" lon="3.53371">
        <ele>32.1</ele>
        <time>2021-09-25T20:03:48.074Z</time>
      </trkpt>
      <trkpt lat="50.41128" lon="3.53358">
        <ele>31.8</ele>
        <time>2021-09-25T20:03:48.992Z</time>
      </trkpt>
      <trkpt lat="50.41131" lon="3.53349">
        <ele>31.6</ele>
        <time>2021-09-25T20:03:52.010Z</time>
      </trkpt>
      <trkpt lat="50.41135" lon="3.53337">
        <ele>31.3</ele>
        <time>2021-09-25T20:03:52.870Z</time>
      </trkpt>
      <trkpt lat="50.41139" lon="3.53328">
        <ele>31.1</ele>
        <time>2021-09-25T20:03:59.210Z</time>
      </trkpt>
      <trkpt lat="50.4114" lon="3.53319">
        <ele>31.1</ele>
        <time>2021-09-25T20:03:59.729Z</time>
      </trkpt>
      <trkpt lat="50.41142" lon="3.53306">
        <ele>31.1</ele>
        <time>2021-09-25T20:04:03.101Z</time>
      </trkpt>
      <trkpt lat="50.41144" lon="3.53298">
        <ele>31.1</ele>
        <time>2021-09-25T20:04:07.536Z</time>
      </trkpt>
      <trkpt lat="50.41146" lon="3.53291">
        <ele>31</ele>
        <time>2021-09-25T20:04:11.679Z</time>
      </trkpt>
      <trkpt lat="50.41149" lon="3.53279">
        <ele>30.9</ele>
        <time>2021-09-25T20:04:12.509Z</time>
      </trkpt>
      <trkpt lat="50.41151" lon="3.53271">
        <ele>30.9</ele>
        <time>2021-09-25T20:04:13.654Z</time>
      </trkpt>
      <trkpt lat="50.41153" lon="3.53263">
        <ele>30.8</ele>
        <time>2021-09-25T20:04:14.349Z</time>
      </trkpt>
      <trkpt lat="50.41156" lon="3.53251">
        <ele>30.8</ele>
        <time>2021-09-25T20:04:15.146Z</time>
      </trkpt>
      <trkpt lat="50.41159" lon="3.53242">
        <ele>30.6</ele>
        <time>2021-09-25T20:04:20.507Z</time>
      </trkpt>
      <trkpt lat="50.41161" lon="3.53234">
        <ele>30.6</ele>
        <time>2021-09-25T20:04:21.072Z</time>
      </trkpt>
      <trkpt lat="50.41163" lon="3.53226">
        <ele>30.5</ele>
        <time>2021-09-25T20:04:25.935Z</time>
      </trkpt>
      <trkpt lat="50.41168" lon="3.53215">
        <ele>30.4</ele>
        <time>2021-09-25T20:04:32.776Z</time>
      </trkpt>
      <trkpt lat="50.41172" lon="3.53205">
        <ele>30.5</ele>
        <time>2021-09-25T20:04:33.544Z</time>
      </trkpt>
      <trkpt lat="50.41175" lon="3.53195">
        <ele>30.5</ele>
        <time>2021-09-25T20:04:34.236Z</time>
      </trkpt>
      <trkpt lat="50.41179" lon="3.53182">
        <ele>30.6</ele>
        <time>2021-09-25T20:04:42.073Z</time>
      </trkpt>
      <trkpt lat="50.41186" lon="3.53177">
        <ele>30.5</ele>
        <time>2021-09-25T20:04:48.331Z</time>
      </trkpt>
      <trkpt lat="50.41191" lon="3.53181">
        <ele>30.3</ele>
        <time>2021-09-25T20:04:48.928Z</time>
      </trkpt>
      <trkpt lat="50.41196" lon="3.53187">
        <ele>30.2</ele>
        <time>2021-09-25T20:04:52.996Z</time>
      </trkpt>
      <trkpt lat="50.41202" lon="3.53192">
        <ele>30.1</ele>
        <time>2021-09-25T20:04:55.701Z</time>
      </trkpt>
      <trkpt lat="50.41208" lon="3.53203">
        <ele>30</ele>
        <time>2021-09-25T20:05:04.026Z</time>
      </trkpt>
      <trkpt lat="50.41213" lon="3.53208">
        <ele>29.9</ele>
        <time>2021-09-25T20:05:04.566Z</time>
      </trkpt>
      <trkpt lat="50.41222" lon="3.53218">
        <ele>29.9</ele>
        <time>2021-09-25T20:05:14.196Z</time>
      </trkpt>
      <trkpt lat="50.41231" lon="3.53227">
        <ele>29.8</ele>
        <time>2021-09-25T20:05:23.057Z</time>
      </trkpt>
      <trkpt lat="50.41235" lon="3.5323">
        <ele>29.8</ele>
        <time>2021-09-25T20:05:27.271Z</time>
      </trkpt>
      <trkpt lat="50.41247" lon="3.53238">
        <ele>29.9</ele>
        <time>2021-09-25T20:05:28.528Z</time>
      </trkpt>
      <trkpt lat="50.41253" lon="3.53245">
        <ele>29.9</ele>
        <time>2021-09-25T20:05:34.953Z</time>
      </trkpt>
      <trkpt lat="50.41261" lon="3.53251">
        <ele>30</ele>
        <time>2021-09-25T20:05:41.847Z</time>
      </trkpt>
      <trkpt lat="50.41264" lon="3.53256">
        <ele>30.1</ele>
        <time>2021-09-25T20:05:42.341Z</time>
      </trkpt>
      <trkpt lat="50.41269" lon="3.53262">
        <ele>30.1</ele>
        <time>2021-09-25T20:05:44.903Z</time>
      </trkpt>
      <trkpt lat="50.41273" lon="3.53266">
        <ele>30.2</ele>
        <time>2021-09-25T20:05:49.448Z</time>
      </trkpt>
      <trkpt lat="50.41279" lon="3.5327">
        <ele>30.2</ele>
        <time>2021-09-25T20:05:54.660Z</time>
      </trkpt>
      <trkpt lat="50.41284" lon="3.53273">
        <ele>30.3</ele>
        <time>2021-09-25T20:05:55.224Z</time>
      </trkpt>
      <trkpt lat="50.4129" lon="3.53276">
        <ele>30.3</ele>
        <time>2021-09-25T20:06:00.782Z</time>
      </trkpt>
      <trkpt lat="50.41295" lon="3.53279">
        <ele>30.3</ele>
        <time>2021-09-25T20:06:05.186Z</time>
      </trkpt>
      <trkpt lat="50.413" lon="3.53283">
        <ele>30.4</ele>
        <time>2021-09-25T20:06:05.687Z</time>
      </trkpt>
      <trkpt lat="50.41307" lon="3.5329">
        <ele>30.5</ele>
        <time>2021-09-25T20:06:06.544Z</time>
      </trkpt>
      <trkpt lat="50.41312" lon="3.53295">
        <ele>30.5</ele>
        <time>2021-09-25T20:06:10.990Z</time>
      </trkpt>
      <trkpt lat="50.41317" lon="3.53301">
        <ele>30.6</ele>
        <time>2021-09-25T20:06:11.639Z</time>
      </trkpt>
      <trkpt lat="50.41322" lon="3.53306">
        <ele>30.7</ele>
        <time>2021-09-25T20:06:12.209Z</time>
      </trkpt>
      <trkpt lat="50.41327" lon="3.53311">
        <ele>30.7</ele>
        <time>2021-09-25T20:06:12.801Z</time>
      </trkpt>
      <trkpt lat="50.41331" lon="3.53314">
        <ele>30.8</ele>
        <time>2021-09-25T20:06:17.214Z</time>
      </trkpt>
      <trkpt lat="50.41336" lon="3.53315">
        <ele>30.8</ele>
        <time>2021-09-25T20:06:17.699Z</time>
      </trkpt>
      <trkpt lat="50.41344" lon="3.53319">
        <ele>31.1</ele>
        <time>2021-09-25T20:06:18.497Z</time>
      </trkpt>
      <trkpt lat="50.4135" lon="3.53322">
        <ele>31.3</ele>
        <time>2021-09-25T20:06:19.153Z</time>
      </trkpt>
      <trkpt lat="50.41359" lon="3.5333">
        <ele>31.6</ele>
        <time>2021-09-25T20:06:28.262Z</time>
      </trkpt>
      <trkpt lat="50.41364" lon="3.53334">
        <ele>31.7</ele>
        <time>2021-09-25T20:06:32.761Z</time>
      </trkpt>
      <trkpt lat="50.41371" lon="3.53337">
        <ele>31.9</ele>
        <time>2021-09-25T20:06:33.465Z</time>
      </trkpt>
      <trkpt lat="50.41376" lon="3.5334">
        <ele>32.1</ele>
        <time>2021-09-25T20:06:38.078Z</time>
      </trkpt>
      <trkpt lat="50.41383" lon="3.53345">
        <ele>32.3</ele>
        <time>2021-09-25T20:06:40.009Z</time>
      </trkpt>
      <trkpt lat="50.41389" lon="3.53351">
        <ele>32.5</ele>
        <time>2021-09-25T20:06:40.735Z</time>
      </trkpt>
      <trkpt lat="50.41394" lon="3.53355">
        <ele>32.6</ele>
        <time>2021-09-25T20:06:41.372Z</time>
      </trkpt>
      <trkpt lat="50.41398" lon="3.53359">
        <ele>32.8</ele>
        <time>2021-09-25T20:06:45.568Z</time>
      </trkpt>
      <trkpt lat="50.41403" lon="3.53365">
        <ele>33</ele>
        <time>2021-09-25T20:06:50.816Z</time>
      </trkpt>
      <trkpt lat="50.41409" lon="3.53364">
        <ele>33.2</ele>
        <time>2021-09-25T20:06:55.526Z</time>
      </trkpt>
      <trkpt lat="50.4141" lon="3.53356">
        <ele>33.1</ele>
        <time>2021-09-25T20:06:56.092Z</time>
      </trkpt>
      <trkpt lat="50.41413" lon="3.53345">
        <ele>33</ele>
        <time>2021-09-25T20:07:02.187Z</time>
      </trkpt>
      <trkpt lat="50.41416" lon="3.53331">
        <ele>33</ele>
        <time>2021-09-25T20:07:06.259Z</time>
      </trkpt>
      <trkpt lat="50.4142" lon="3.53319">
        <ele>33</ele>
        <time>2021-09-25T20:07:10.392Z</time>
      </trkpt>
      <trkpt lat="50.41422" lon="3.53309">
        <ele>33</ele>
        <time>2021-09-25T20:07:16.669Z</time>
      </trkpt>
      <trkpt lat="50.41425" lon="3.533">
        <ele>33.1</ele>
        <time>2021-09-25T20:07:17.247Z</time>
      </trkpt>
      <trkpt lat="50.41428" lon="3.53289">
        <ele>33.2</ele>
        <time>2021-09-25T20:07:18.036Z</time>
      </trkpt>
      <trkpt lat="50.41431" lon="3.53282">
        <ele>33.3</ele>
        <time>2021-09-25T20:07:18.601Z</time>
      </trkpt>
      <trkpt lat="50.41433" lon="3.53276">
        <ele>33.4</ele>
        <time>2021-09-25T20:07:22.560Z</time>
      </trkpt>
      <trkpt lat="50.41439" lon="3.53263">
        <ele>33.7</ele>
        <time>2021-09-25T20:07:28.330Z</time>
      </trkpt>
      <trkpt lat="50.41441" lon="3.53254">
        <ele>33.8</ele>
        <time>2021-09-25T20:07:30.629Z</time>
      </trkpt>
      <trkpt lat="50.41444" lon="3.53244">
        <ele>33.9</ele>
        <time>2021-09-25T20:07:36.843Z</time>
      </trkpt>
      <trkpt lat="50.41448" lon="3.53227">
        <ele>34.1</ele>
        <time>2021-09-25T20:07:37.946Z</time>
      </trkpt>
      <trkpt lat="50.4145" lon="3.53217">
        <ele>34.2</ele>
        <time>2021-09-25T20:07:38.621Z</time>
      </trkpt>
      <trkpt lat="50.41453" lon="3.53206">
        <ele>34.3</ele>
        <time>2021-09-25T20:07:45.069Z</time>
      </trkpt>
      <trkpt lat="50.41456" lon="3.53197">
        <ele>34.5</ele>
        <time>2021-09-25T20:07:45.746Z</time>
      </trkpt>
      <trkpt lat="50.41459" lon="3.53188">
        <ele>34.7</ele>
        <time>2021-09-25T20:07:51.488Z</time>
      </trkpt>
      <trkpt lat="50.41464" lon="3.53173">
        <ele>35</ele>
        <time>2021-09-25T20:07:52.527Z</time>
      </trkpt>
      <trkpt lat="50.41467" lon="3.53164">
        <ele>35.2</ele>
        <time>2021-09-25T20:07:53.143Z</time>
      </trkpt>
      <trkpt lat="50.41469" lon="3.53153">
        <ele>35.2</ele>
        <time>2021-09-25T20:07:59.420Z</time>
      </trkpt>
      <trkpt lat="50.41471" lon="3.53146">
        <ele>35.2</ele>
        <time>2021-09-25T20:07:59.959Z</time>
      </trkpt>
      <trkpt lat="50.41475" lon="3.53131">
        <ele>35.3</ele>
        <time>2021-09-25T20:08:00.986Z</time>
      </trkpt>
      <trkpt lat="50.41479" lon="3.53121">
        <ele>35.4</ele>
        <time>2021-09-25T20:08:01.764Z</time>
      </trkpt>
      <trkpt lat="50.41484" lon="3.53108">
        <ele>35.5</ele>
        <time>2021-09-25T20:08:02.704Z</time>
      </trkpt>
      <trkpt lat="50.41487" lon="3.53098">
        <ele>35.5</ele>
        <time>2021-09-25T20:08:03.400Z</time>
      </trkpt>
      <trkpt lat="50.4149" lon="3.53087">
        <ele>35.5</ele>
        <time>2021-09-25T20:08:08.703Z</time>
      </trkpt>
      <trkpt lat="50.41493" lon="3.53077">
        <ele>35.5</ele>
        <time>2021-09-25T20:08:09.392Z</time>
      </trkpt>
      <trkpt lat="50.41495" lon="3.5307">
        <ele>35.5</ele>
        <time>2021-09-25T20:08:13.641Z</time>
      </trkpt>
      <trkpt lat="50.41498" lon="3.53061">
        <ele>35.6</ele>
        <time>2021-09-25T20:08:14.252Z</time>
      </trkpt>
      <trkpt lat="50.415" lon="3.53048">
        <ele>35.6</ele>
        <time>2021-09-25T20:08:15.697Z</time>
      </trkpt>
      <trkpt lat="50.41503" lon="3.53036">
        <ele>35.5</ele>
        <time>2021-09-25T20:08:16.459Z</time>
      </trkpt>
      <trkpt lat="50.41504" lon="3.53028">
        <ele>35.5</ele>
        <time>2021-09-25T20:08:17.004Z</time>
      </trkpt>
      <trkpt lat="50.41507" lon="3.53014">
        <ele>35.4</ele>
        <time>2021-09-25T20:08:25.122Z</time>
      </trkpt>
      <trkpt lat="50.41508" lon="3.53006">
        <ele>35.4</ele>
        <time>2021-09-25T20:08:29.196Z</time>
      </trkpt>
      <trkpt lat="50.4151" lon="3.52993">
        <ele>35.3</ele>
        <time>2021-09-25T20:08:30.040Z</time>
      </trkpt>
      <trkpt lat="50.41511" lon="3.52983">
        <ele>35.4</ele>
        <time>2021-09-25T20:08:35.580Z</time>
      </trkpt>
      <trkpt lat="50.41512" lon="3.52975">
        <ele>35.4</ele>
        <time>2021-09-25T20:08:40.068Z</time>
      </trkpt>
      <trkpt lat="50.41515" lon="3.52968">
        <ele>35.5</ele>
        <time>2021-09-25T20:08:40.604Z</time>
      </trkpt>
      <trkpt lat="50.4152" lon="3.52956">
        <ele>35.6</ele>
        <time>2021-09-25T20:08:41.560Z</time>
      </trkpt>
      <trkpt lat="50.41522" lon="3.52944">
        <ele>35.6</ele>
        <time>2021-09-25T20:08:48.185Z</time>
      </trkpt>
      <trkpt lat="50.41523" lon="3.52936">
        <ele>35.6</ele>
        <time>2021-09-25T20:08:48.713Z</time>
      </trkpt>
      <trkpt lat="50.41524" lon="3.52928">
        <ele>35.6</ele>
        <time>2021-09-25T20:08:51.592Z</time>
      </trkpt>
      <trkpt lat="50.41525" lon="3.5292">
        <ele>35.6</ele>
        <time>2021-09-25T20:08:52.077Z</time>
      </trkpt>
      <trkpt lat="50.41527" lon="3.5291">
        <ele>35.6</ele>
        <time>2021-09-25T20:08:57.868Z</time>
      </trkpt>
      <trkpt lat="50.41528" lon="3.529">
        <ele>35.7</ele>
        <time>2021-09-25T20:08:58.495Z</time>
      </trkpt>
      <trkpt lat="50.4153" lon="3.52891">
        <ele>35.7</ele>
        <time>2021-09-25T20:08:59.225Z</time>
      </trkpt>
      <trkpt lat="50.41531" lon="3.52884">
        <ele>35.7</ele>
        <time>2021-09-25T20:09:00.322Z</time>
      </trkpt>
      <trkpt lat="50.41532" lon="3.52875">
        <ele>35.8</ele>
        <time>2021-09-25T20:09:00.905Z</time>
      </trkpt>
      <trkpt lat="50.41539" lon="3.52882">
        <ele>35.9</ele>
        <time>2021-09-25T20:09:03.358Z</time>
      </trkpt>
      <trkpt lat="50.41547" lon="3.52881">
        <ele>36.1</ele>
        <time>2021-09-25T20:09:10.053Z</time>
      </trkpt>
      <trkpt lat="50.41552" lon="3.52882">
        <ele>36.2</ele>
        <time>2021-09-25T20:09:11.285Z</time>
      </trkpt>
      <trkpt lat="50.41557" lon="3.52887">
        <ele>36.4</ele>
        <time>2021-09-25T20:09:16.180Z</time>
      </trkpt>
      <trkpt lat="50.41563" lon="3.5289">
        <ele>36.5</ele>
        <time>2021-09-25T20:09:17.634Z</time>
      </trkpt>
      <trkpt lat="50.41573" lon="3.52897">
        <ele>36.8</ele>
        <time>2021-09-25T20:09:18.701Z</time>
      </trkpt>
      <trkpt lat="50.41579" lon="3.52895">
        <ele>36.9</ele>
        <time>2021-09-25T20:09:23.453Z</time>
      </trkpt>
      <trkpt lat="50.41585" lon="3.52898">
        <ele>37.1</ele>
        <time>2021-09-25T20:09:28.941Z</time>
      </trkpt>
      <trkpt lat="50.41593" lon="3.52906">
        <ele>37.4</ele>
        <time>2021-09-25T20:09:34.739Z</time>
      </trkpt>
      <trkpt lat="50.41598" lon="3.52908">
        <ele>37.5</ele>
        <time>2021-09-25T20:09:35.309Z</time>
      </trkpt>
      <trkpt lat="50.41603" lon="3.52908">
        <ele>37.7</ele>
        <time>2021-09-25T20:09:35.756Z</time>
      </trkpt>
      <trkpt lat="50.41608" lon="3.5291">
        <ele>37.9</ele>
        <time>2021-09-25T20:09:40.757Z</time>
      </trkpt>
      <trkpt lat="50.41614" lon="3.52918">
        <ele>38.1</ele>
        <time>2021-09-25T20:09:41.514Z</time>
      </trkpt>
      <trkpt lat="50.41618" lon="3.52923">
        <ele>38.3</ele>
        <time>2021-09-25T20:09:45.669Z</time>
      </trkpt>
      <trkpt lat="50.41622" lon="3.52928">
        <ele>38.4</ele>
        <time>2021-09-25T20:09:50.312Z</time>
      </trkpt>
      <trkpt lat="50.41627" lon="3.52936">
        <ele>38.6</ele>
        <time>2021-09-25T20:09:50.998Z</time>
      </trkpt>
      <trkpt lat="50.41632" lon="3.52944">
        <ele>38.7</ele>
        <time>2021-09-25T20:09:51.690Z</time>
      </trkpt>
      <trkpt lat="50.41638" lon="3.52951">
        <ele>38.8</ele>
        <time>2021-09-25T20:09:58.079Z</time>
      </trkpt>
      <trkpt lat="50.41643" lon="3.52959">
        <ele>38.9</ele>
        <time>2021-09-25T20:10:04.262Z</time>
      </trkpt>
      <trkpt lat="50.41648" lon="3.5297">
        <ele>39</ele>
        <time>2021-09-25T20:10:05.094Z</time>
      </trkpt>
      <trkpt lat="50.41653" lon="3.52977">
        <ele>39</ele>
        <time>2021-09-25T20:10:10.675Z</time>
      </trkpt>
      <trkpt lat="50.4166" lon="3.52983">
        <ele>39.1</ele>
        <time>2021-09-25T20:10:11.519Z</time>
      </trkpt>
      <trkpt lat="50.41666" lon="3.52987">
        <ele>39.1</ele>
        <time>2021-09-25T20:10:12.111Z</time>
      </trkpt>
      <trkpt lat="50.41671" lon="3.52992">
        <ele>39.1</ele>
        <time>2021-09-25T20:10:17.865Z</time>
      </trkpt>
      <trkpt lat="50.41929" lon="3.53423">
        <ele>35.6</ele>
        <time>2021-09-25T20:10:55.182Z</time>
      </trkpt>
      <trkpt lat="50.41932" lon="3.53452">
        <ele>37</ele>
        <time>2021-09-25T20:11:03.940Z</time>
      </trkpt>
      <trkpt lat="50.41926" lon="3.53496">
        <ele>38.9</ele>
        <time>2021-09-25T20:11:16.277Z</time>
      </trkpt>
      <trkpt lat="50.41864" lon="3.53794">
        <ele>36.3</ele>
        <time>2021-09-25T20:11:46.906Z</time>
      </trkpt>
      <trkpt lat="50.41862" lon="3.53813">
        <ele>36</ele>
        <time>2021-09-25T20:11:48.540Z</time>
      </trkpt>
      <trkpt lat="50.41768" lon="3.5408">
        <ele>34.8</ele>
        <time>2021-09-25T20:12:27.900Z</time>
      </trkpt>
      <trkpt lat="50.41754" lon="3.54098">
        <ele>34.8</ele>
        <time>2021-09-25T20:12:31.930Z</time>
      </trkpt>
      <trkpt lat="50.41796" lon="3.54141">
        <ele>33.8</ele>
        <time>2021-09-25T20:12:39.009Z</time>
      </trkpt>
      <trkpt lat="50.41744" lon="3.54264">
        <ele>33</ele>
        <time>2021-09-25T20:12:54.298Z</time>
      </trkpt>
      <trkpt lat="50.4173" lon="3.54313">
        <ele>33.2</ele>
        <time>2021-09-25T20:13:02.241Z</time>
      </trkpt>
      <trkpt lat="50.41844" lon="3.54442">
        <ele>32.9</ele>
        <time>2021-09-25T20:13:32.351Z</time>
      </trkpt>
      <trkpt lat="50.41875" lon="3.54469">
        <ele>35.3</ele>
        <time>2021-09-25T20:13:47.550Z</time>
      </trkpt>
      <trkpt lat="50.41982" lon="3.54166">
        <ele>32.1</ele>
        <time>2021-09-25T20:14:20.858Z</time>
      </trkpt>
      <trkpt lat="50.41986" lon="3.54103">
        <ele>33.6</ele>
        <time>2021-09-25T20:14:34.452Z</time>
      </trkpt>
      <trkpt lat="50.42688" lon="3.52089">
        <ele>42.9</ele>
        <time>2021-09-25T20:20:18.208Z</time>
      </trkpt>
      <trkpt lat="50.42691" lon="3.52092">
        <ele>43</ele>
        <time>2021-09-25T20:20:19.641Z</time>
      </trkpt>
      <trkpt lat="50.43671" lon="3.53516">
        <ele>43.1</ele>
        <time>2021-09-25T20:25:15.464Z</time>
      </trkpt>
      <trkpt lat="50.44147" lon="3.52497">
        <ele>49</ele>
        <time>2021-09-25T20:28:26.879Z</time>
      </trkpt>
      <trkpt lat="50.44574" lon="3.52798">
        <ele>41.4</ele>
        <time>2021-09-25T20:29:35.793Z</time>
      </trkpt>
      <trkpt lat="50.44582" lon="3.52801">
        <ele>41.5</ele>
        <time>2021-09-25T20:29:37.743Z</time>
      </trkpt>
      <trkpt lat="50.44684" lon="3.528">
        <ele>37.5</ele>
        <time>2021-09-25T20:29:49.527Z</time>
      </trkpt>
      <trkpt lat="50.44744" lon="3.52787">
        <ele>34.2</ele>
        <time>2021-09-25T20:29:55.574Z</time>
      </trkpt>
      <trkpt lat="50.44785" lon="3.5277">
        <ele>32.1</ele>
        <time>2021-09-25T20:30:00.069Z</time>
      </trkpt>
      <trkpt lat="50.44929" lon="3.52668">
        <ele>30</ele>
        <time>2021-09-25T20:30:34.382Z</time>
      </trkpt>
      <trkpt lat="50.44947" lon="3.52656">
        <ele>30</ele>
        <time>2021-09-25T20:30:38.629Z</time>
      </trkpt>
      <trkpt lat="50.44966" lon="3.52643">
        <ele>29.3</ele>
        <time>2021-09-25T20:30:43.131Z</time>
      </trkpt>
    </trkseg>
  </trk>
</gpx>